<?xml version='1.0' encoding='UTF-8'?><gpx version="1.1" creator="JPX - https://github.com/jenetics/jpx" xmlns="http://www.topografix.com/GPX/1/1"><trk><trkseg><trkpt lat="44.4642068" lon="11.182852"><ele>118.0</ele><time>2026-03-29T08:08:36.051Z</time></trkpt><trkpt lat="44.464349" lon="11.1828983"><ele>118.00000000000001</ele><time>2026-03-29T08:08:38.051Z</time></trkpt><trkpt lat="44.464382" lon="11.1828173"><ele>118.00000000000001</ele><time>2026-03-29T08:08:43.05Z</time></trkpt><trkpt lat="44.4643422" lon="11.1827392"><ele>118.0</ele><time>2026-03-29T08:08:44.051Z</time></trkpt><trkpt lat="44.4643081" lon="11.1825712"><ele>118.0</ele><time>2026-03-29T08:08:46.051Z</time></trkpt><trkpt lat="44.4642687" lon="11.1824215"><ele>117.80000000000001</ele><time>2026-03-29T08:08:48.051Z</time></trkpt><trkpt lat="44.464226" lon="11.1822758"><ele>117.60000000000001</ele><time>2026-03-29T08:08:50.05Z</time></trkpt><trkpt lat="44.4641772" lon="11.1821457"><ele>117.39999999999999</ele><time>2026-03-29T08:08:52.051Z</time></trkpt><trkpt lat="44.464146" lon="11.1820357"><ele>117.19999999999999</ele><time>2026-03-29T08:08:54.05Z</time></trkpt><trkpt lat="44.4641221" lon="11.1818964"><ele>117.0</ele><time>2026-03-29T08:08:56.051Z</time></trkpt><trkpt lat="44.4640988" lon="11.1817567"><ele>117.0</ele><time>2026-03-29T08:08:58.051Z</time></trkpt><trkpt lat="44.4640651" lon="11.1816119"><ele>116.99999999999999</ele><time>2026-03-29T08:09:00.051Z</time></trkpt><trkpt lat="44.4640211" lon="11.1814761"><ele>116.99999999999999</ele><time>2026-03-29T08:09:02.051Z</time></trkpt><trkpt lat="44.4639882" lon="11.181339"><ele>117.0</ele><time>2026-03-29T08:09:04.051Z</time></trkpt><trkpt lat="44.4639538" lon="11.1812052"><ele>117.0</ele><time>2026-03-29T08:09:06.051Z</time></trkpt><trkpt lat="44.4639292" lon="11.1811002"><ele>116.83333333333333</ele><time>2026-03-29T08:09:08.05Z</time></trkpt><trkpt lat="44.4639517" lon="11.1809982"><ele>116.66666666666666</ele><time>2026-03-29T08:09:10.051Z</time></trkpt><trkpt lat="44.4640522" lon="11.1809518"><ele>116.5</ele><time>2026-03-29T08:09:12.051Z</time></trkpt><trkpt lat="44.464154" lon="11.1808936"><ele>116.33333333333333</ele><time>2026-03-29T08:09:14.051Z</time></trkpt><trkpt lat="44.4642227" lon="11.180865"><ele>116.16666666666666</ele><time>2026-03-29T08:09:16.05Z</time></trkpt><trkpt lat="44.4642655" lon="11.1807692"><ele>116.0</ele><time>2026-03-29T08:09:32.051Z</time></trkpt><trkpt lat="44.464217" lon="11.1805821"><ele>116.75</ele><time>2026-03-29T08:09:34.05Z</time></trkpt><trkpt lat="44.4641859" lon="11.180453"><ele>117.5</ele><time>2026-03-29T08:09:35.05Z</time></trkpt><trkpt lat="44.4641492" lon="11.1803132"><ele>118.25</ele><time>2026-03-29T08:09:36.05Z</time></trkpt><trkpt lat="44.4641038" lon="11.1801553"><ele>119.0</ele><time>2026-03-29T08:09:37.051Z</time></trkpt><trkpt lat="44.4640597" lon="11.1799879"><ele>121.0</ele><time>2026-03-29T08:09:38.051Z</time></trkpt><trkpt lat="44.464013" lon="11.1798167"><ele>123.0</ele><time>2026-03-29T08:09:39.051Z</time></trkpt><trkpt lat="44.463969" lon="11.179632"><ele>125.0</ele><time>2026-03-29T08:09:40.05Z</time></trkpt><trkpt lat="44.4639274" lon="11.1794431"><ele>127.0</ele><time>2026-03-29T08:09:41.05Z</time></trkpt><trkpt lat="44.463882" lon="11.1792588"><ele>127.0</ele><time>2026-03-29T08:09:42.051Z</time></trkpt><trkpt lat="44.4638373" lon="11.1790708"><ele>127.0</ele><time>2026-03-29T08:09:43.051Z</time></trkpt><trkpt lat="44.4637833" lon="11.178875"><ele>127.0</ele><time>2026-03-29T08:09:44.051Z</time></trkpt><trkpt lat="44.4637265" lon="11.1786773"><ele>127.0</ele><time>2026-03-29T08:09:45.051Z</time></trkpt><trkpt lat="44.4636736" lon="11.1784721"><ele>127.25</ele><time>2026-03-29T08:09:46.05Z</time></trkpt><trkpt lat="44.4636222" lon="11.1782749"><ele>127.5</ele><time>2026-03-29T08:09:47.051Z</time></trkpt><trkpt lat="44.4635772" lon="11.1780882"><ele>127.75</ele><time>2026-03-29T08:09:48.05Z</time></trkpt><trkpt lat="44.4635306" lon="11.177909"><ele>128.0</ele><time>2026-03-29T08:09:49.051Z</time></trkpt><trkpt lat="44.4634888" lon="11.1777284"><ele>128.0</ele><time>2026-03-29T08:09:50.051Z</time></trkpt><trkpt lat="44.4634613" lon="11.1775353"><ele>128.0</ele><time>2026-03-29T08:09:51.051Z</time></trkpt><trkpt lat="44.4634529" lon="11.1773345"><ele>128.0</ele><time>2026-03-29T08:09:52.051Z</time></trkpt><trkpt lat="44.4634546" lon="11.1771618"><ele>128.0</ele><time>2026-03-29T08:09:53.051Z</time></trkpt><trkpt lat="44.463452" lon="11.1769724"><ele>128.0</ele><time>2026-03-29T08:09:54.051Z</time></trkpt><trkpt lat="44.4634579" lon="11.1767885"><ele>128.0</ele><time>2026-03-29T08:09:55.051Z</time></trkpt><trkpt lat="44.4634644" lon="11.1765962"><ele>128.0</ele><time>2026-03-29T08:09:56.051Z</time></trkpt><trkpt lat="44.4634756" lon="11.176405"><ele>128.0</ele><time>2026-03-29T08:09:57.05Z</time></trkpt><trkpt lat="44.4634814" lon="11.1762117"><ele>128.5</ele><time>2026-03-29T08:09:58.05Z</time></trkpt><trkpt lat="44.4634719" lon="11.1760085"><ele>129.0</ele><time>2026-03-29T08:09:59.051Z</time></trkpt><trkpt lat="44.4634558" lon="11.17581"><ele>129.5</ele><time>2026-03-29T08:10:00.051Z</time></trkpt><trkpt lat="44.4634337" lon="11.1756151"><ele>130.0</ele><time>2026-03-29T08:10:01.051Z</time></trkpt><trkpt lat="44.463411" lon="11.1754211"><ele>131.25</ele><time>2026-03-29T08:10:02.051Z</time></trkpt><trkpt lat="44.4633863" lon="11.1752124"><ele>132.5</ele><time>2026-03-29T08:10:03.05Z</time></trkpt><trkpt lat="44.4633632" lon="11.1750255"><ele>133.75</ele><time>2026-03-29T08:10:04.051Z</time></trkpt><trkpt lat="44.4633481" lon="11.1748332"><ele>135.0</ele><time>2026-03-29T08:10:05.05Z</time></trkpt><trkpt lat="44.4633277" lon="11.1746443"><ele>137.25</ele><time>2026-03-29T08:10:06.051Z</time></trkpt><trkpt lat="44.4632904" lon="11.1744642"><ele>139.5</ele><time>2026-03-29T08:10:07.05Z</time></trkpt><trkpt lat="44.4632302" lon="11.1743009"><ele>141.75</ele><time>2026-03-29T08:10:08.051Z</time></trkpt><trkpt lat="44.463149" lon="11.1741551"><ele>144.0</ele><time>2026-03-29T08:10:09.051Z</time></trkpt><trkpt lat="44.4630516" lon="11.1740103"><ele>147.5</ele><time>2026-03-29T08:10:10.051Z</time></trkpt><trkpt lat="44.4629557" lon="11.1738496"><ele>151.0</ele><time>2026-03-29T08:10:11.051Z</time></trkpt><trkpt lat="44.4628682" lon="11.1736861"><ele>154.5</ele><time>2026-03-29T08:10:12.05Z</time></trkpt><trkpt lat="44.4628056" lon="11.1735207"><ele>158.0</ele><time>2026-03-29T08:10:13.051Z</time></trkpt><trkpt lat="44.4627583" lon="11.1733225"><ele>151.0</ele><time>2026-03-29T08:10:14.051Z</time></trkpt><trkpt lat="44.4627246" lon="11.17313"><ele>144.0</ele><time>2026-03-29T08:10:15.051Z</time></trkpt><trkpt lat="44.4626995" lon="11.1729418"><ele>137.0</ele><time>2026-03-29T08:10:16.051Z</time></trkpt><trkpt lat="44.462669" lon="11.1727564"><ele>130.0</ele><time>2026-03-29T08:10:17.051Z</time></trkpt><trkpt lat="44.4626351" lon="11.1725755"><ele>130.0</ele><time>2026-03-29T08:10:18.051Z</time></trkpt><trkpt lat="44.4626025" lon="11.1724028"><ele>130.0</ele><time>2026-03-29T08:10:19.051Z</time></trkpt><trkpt lat="44.462582" lon="11.1722729"><ele>130.0</ele><time>2026-03-29T08:10:20.051Z</time></trkpt><trkpt lat="44.4625536" lon="11.1721299"><ele>130.0</ele><time>2026-03-29T08:10:21.051Z</time></trkpt><trkpt lat="44.4625268" lon="11.1720018"><ele>130.0</ele><time>2026-03-29T08:10:22.051Z</time></trkpt><trkpt lat="44.4624946" lon="11.171898"><ele>131.0</ele><time>2026-03-29T08:10:23.05Z</time></trkpt><trkpt lat="44.4624497" lon="11.1717694"><ele>132.0</ele><time>2026-03-29T08:10:25.051Z</time></trkpt><trkpt lat="44.4625126" lon="11.1716476"><ele>133.0</ele><time>2026-03-29T08:10:27.051Z</time></trkpt><trkpt lat="44.4625802" lon="11.1715845"><ele>134.0</ele><time>2026-03-29T08:10:28.051Z</time></trkpt><trkpt lat="44.4626761" lon="11.1715031"><ele>135.0</ele><time>2026-03-29T08:10:29.05Z</time></trkpt><trkpt lat="44.4627771" lon="11.1714137"><ele>138.0</ele><time>2026-03-29T08:10:30.05Z</time></trkpt><trkpt lat="44.4628845" lon="11.1713294"><ele>141.0</ele><time>2026-03-29T08:10:31.051Z</time></trkpt><trkpt lat="44.4630096" lon="11.1712904"><ele>144.0</ele><time>2026-03-29T08:10:32.051Z</time></trkpt><trkpt lat="44.4631299" lon="11.171239"><ele>147.0</ele><time>2026-03-29T08:10:33.05Z</time></trkpt><trkpt lat="44.4632402" lon="11.1711647"><ele>147.5</ele><time>2026-03-29T08:10:34.051Z</time></trkpt><trkpt lat="44.4633449" lon="11.1710866"><ele>148.0</ele><time>2026-03-29T08:10:35.051Z</time></trkpt><trkpt lat="44.4634346" lon="11.1709801"><ele>148.5</ele><time>2026-03-29T08:10:36.05Z</time></trkpt><trkpt lat="44.4635185" lon="11.1708756"><ele>149.0</ele><time>2026-03-29T08:10:37.051Z</time></trkpt><trkpt lat="44.463606" lon="11.1707524"><ele>149.75</ele><time>2026-03-29T08:10:38.051Z</time></trkpt><trkpt lat="44.4636972" lon="11.1706051"><ele>150.5</ele><time>2026-03-29T08:10:39.05Z</time></trkpt><trkpt lat="44.4637843" lon="11.170456"><ele>151.25</ele><time>2026-03-29T08:10:40.051Z</time></trkpt><trkpt lat="44.4638545" lon="11.1703428"><ele>152.0</ele><time>2026-03-29T08:10:41.051Z</time></trkpt><trkpt lat="44.4639024" lon="11.1702459"><ele>152.0</ele><time>2026-03-29T08:10:42.051Z</time></trkpt><trkpt lat="44.4639312" lon="11.1700868"><ele>152.0</ele><time>2026-03-29T08:10:44.051Z</time></trkpt><trkpt lat="44.463826" lon="11.169915"><ele>152.0</ele><time>2026-03-29T08:10:47.05Z</time></trkpt><trkpt lat="44.4637403" lon="11.1699482"><ele>152.0</ele><time>2026-03-29T08:10:48.051Z</time></trkpt><trkpt lat="44.4635171" lon="11.1699885"><ele>155.25</ele><time>2026-03-29T08:10:49.05Z</time></trkpt><trkpt lat="44.4633612" lon="11.1699702"><ele>158.5</ele><time>2026-03-29T08:10:50.05Z</time></trkpt><trkpt lat="44.4632036" lon="11.1699839"><ele>161.75</ele><time>2026-03-29T08:10:51.051Z</time></trkpt><trkpt lat="44.4630713" lon="11.1699552"><ele>165.0</ele><time>2026-03-29T08:10:52.051Z</time></trkpt><trkpt lat="44.462948" lon="11.1699209"><ele>167.25</ele><time>2026-03-29T08:10:53.051Z</time></trkpt><trkpt lat="44.4628155" lon="11.1699081"><ele>169.5</ele><time>2026-03-29T08:10:54.05Z</time></trkpt><trkpt lat="44.4627454" lon="11.170033"><ele>171.75</ele><time>2026-03-29T08:10:55.051Z</time></trkpt><trkpt lat="44.4626306" lon="11.1700744"><ele>174.0</ele><time>2026-03-29T08:10:56.05Z</time></trkpt><trkpt lat="44.4625412" lon="11.1701233"><ele>174.0</ele><time>2026-03-29T08:10:57.051Z</time></trkpt><trkpt lat="44.4624582" lon="11.1701401"><ele>174.0</ele><time>2026-03-29T08:10:59.05Z</time></trkpt><trkpt lat="44.462465" lon="11.1700402"><ele>174.0</ele><time>2026-03-29T08:11:30.051Z</time></trkpt><trkpt lat="44.462517" lon="11.1699374"><ele>174.0</ele><time>2026-03-29T08:11:31.051Z</time></trkpt><trkpt lat="44.4625455" lon="11.1698336"><ele>174.0</ele><time>2026-03-29T08:11:32.05Z</time></trkpt><trkpt lat="44.4625821" lon="11.1697154"><ele>174.0</ele><time>2026-03-29T08:11:33.051Z</time></trkpt><trkpt lat="44.4626206" lon="11.1696066"><ele>176.33333333333334</ele><time>2026-03-29T08:11:34.05Z</time></trkpt><trkpt lat="44.4626614" lon="11.1695087"><ele>178.66666666666666</ele><time>2026-03-29T08:11:35.051Z</time></trkpt><trkpt lat="44.4627295" lon="11.1694454"><ele>181.0</ele><time>2026-03-29T08:11:36.05Z</time></trkpt><trkpt lat="44.462787" lon="11.169388"><ele>183.33333333333331</ele><time>2026-03-29T08:11:37.051Z</time></trkpt><trkpt lat="44.4628641" lon="11.1693669"><ele>185.66666666666666</ele><time>2026-03-29T08:11:38.05Z</time></trkpt><trkpt lat="44.4629616" lon="11.1693496"><ele>188.0</ele><time>2026-03-29T08:11:39.051Z</time></trkpt><trkpt lat="44.4630837" lon="11.1693087"><ele>188.0</ele><time>2026-03-29T08:11:40.05Z</time></trkpt><trkpt lat="44.4631809" lon="11.1692544"><ele>188.0</ele><time>2026-03-29T08:11:41.05Z</time></trkpt><trkpt lat="44.4632617" lon="11.1691781"><ele>188.0</ele><time>2026-03-29T08:11:42.051Z</time></trkpt><trkpt lat="44.4633173" lon="11.1690585"><ele>188.0</ele><time>2026-03-29T08:11:43.05Z</time></trkpt><trkpt lat="44.4633695" lon="11.1688709"><ele>188.0</ele><time>2026-03-29T08:11:44.05Z</time></trkpt><trkpt lat="44.4634244" lon="11.168672"><ele>194.0</ele><time>2026-03-29T08:11:45.051Z</time></trkpt><trkpt lat="44.4634906" lon="11.1684617"><ele>200.0</ele><time>2026-03-29T08:11:46.051Z</time></trkpt><trkpt lat="44.4635683" lon="11.1682557"><ele>206.0</ele><time>2026-03-29T08:11:47.05Z</time></trkpt><trkpt lat="44.4636321" lon="11.1680337"><ele>207.33333333333334</ele><time>2026-03-29T08:11:48.051Z</time></trkpt><trkpt lat="44.4636942" lon="11.1678216"><ele>208.66666666666669</ele><time>2026-03-29T08:11:49.051Z</time></trkpt><trkpt lat="44.4637602" lon="11.1676163"><ele>210.0</ele><time>2026-03-29T08:11:50.051Z</time></trkpt><trkpt lat="44.4638259" lon="11.1674429"><ele>213.6</ele><time>2026-03-29T08:11:51.051Z</time></trkpt><trkpt lat="44.4638741" lon="11.1672965"><ele>217.2</ele><time>2026-03-29T08:11:52.05Z</time></trkpt><trkpt lat="44.4639227" lon="11.1671696"><ele>220.8</ele><time>2026-03-29T08:11:53.051Z</time></trkpt><trkpt lat="44.4639826" lon="11.1670922"><ele>224.4</ele><time>2026-03-29T08:11:54.051Z</time></trkpt><trkpt lat="44.4640494" lon="11.167019"><ele>228.0</ele><time>2026-03-29T08:11:55.051Z</time></trkpt><trkpt lat="44.4641292" lon="11.167009"><ele>228.0</ele><time>2026-03-29T08:11:56.051Z</time></trkpt><trkpt lat="44.4642637" lon="11.1670425"><ele>228.0</ele><time>2026-03-29T08:11:57.05Z</time></trkpt><trkpt lat="44.4643495" lon="11.1670346"><ele>228.0</ele><time>2026-03-29T08:11:58.051Z</time></trkpt><trkpt lat="44.4644501" lon="11.1670293"><ele>228.0</ele><time>2026-03-29T08:11:59.05Z</time></trkpt><trkpt lat="44.4645714" lon="11.1670338"><ele>228.0</ele><time>2026-03-29T08:12:00.051Z</time></trkpt><trkpt lat="44.464706" lon="11.1670125"><ele>227.5</ele><time>2026-03-29T08:12:01.051Z</time></trkpt><trkpt lat="44.4648451" lon="11.1669629"><ele>227.0</ele><time>2026-03-29T08:12:02.05Z</time></trkpt><trkpt lat="44.4649866" lon="11.1669109"><ele>226.5</ele><time>2026-03-29T08:12:03.05Z</time></trkpt><trkpt lat="44.4651268" lon="11.1669055"><ele>226.0</ele><time>2026-03-29T08:12:04.051Z</time></trkpt><trkpt lat="44.4652415" lon="11.1668674"><ele>226.0</ele><time>2026-03-29T08:12:05.051Z</time></trkpt><trkpt lat="44.4653503" lon="11.1667814"><ele>226.0</ele><time>2026-03-29T08:12:06.05Z</time></trkpt><trkpt lat="44.465461" lon="11.166678"><ele>226.0</ele><time>2026-03-29T08:12:07.05Z</time></trkpt><trkpt lat="44.4655879" lon="11.1665886"><ele>226.0</ele><time>2026-03-29T08:12:08.051Z</time></trkpt><trkpt lat="44.465702" lon="11.1664837"><ele>230.25</ele><time>2026-03-29T08:12:09.05Z</time></trkpt><trkpt lat="44.4658061" lon="11.1663583"><ele>234.5</ele><time>2026-03-29T08:12:10.051Z</time></trkpt><trkpt lat="44.4659064" lon="11.1662206"><ele>238.75</ele><time>2026-03-29T08:12:11.051Z</time></trkpt><trkpt lat="44.4659961" lon="11.1660834"><ele>243.0</ele><time>2026-03-29T08:12:12.051Z</time></trkpt><trkpt lat="44.4660842" lon="11.1659499"><ele>243.0</ele><time>2026-03-29T08:12:13.05Z</time></trkpt><trkpt lat="44.4661735" lon="11.1658584"><ele>243.0</ele><time>2026-03-29T08:12:14.051Z</time></trkpt><trkpt lat="44.4662565" lon="11.1657979"><ele>243.0</ele><time>2026-03-29T08:12:15.05Z</time></trkpt><trkpt lat="44.4663622" lon="11.1657753"><ele>243.0</ele><time>2026-03-29T08:12:16.051Z</time></trkpt><trkpt lat="44.4664667" lon="11.1658118"><ele>243.0</ele><time>2026-03-29T08:12:17.051Z</time></trkpt><trkpt lat="44.4665666" lon="11.1658997"><ele>244.0</ele><time>2026-03-29T08:12:18.05Z</time></trkpt><trkpt lat="44.4666535" lon="11.1659873"><ele>245.0</ele><time>2026-03-29T08:12:19.051Z</time></trkpt><trkpt lat="44.4667153" lon="11.1661097"><ele>246.0</ele><time>2026-03-29T08:12:20.05Z</time></trkpt><trkpt lat="44.4667946" lon="11.1662503"><ele>247.0</ele><time>2026-03-29T08:12:21.051Z</time></trkpt><trkpt lat="44.4668893" lon="11.1663688"><ele>247.0</ele><time>2026-03-29T08:12:22.05Z</time></trkpt><trkpt lat="44.466995" lon="11.1664557"><ele>247.0</ele><time>2026-03-29T08:12:23.05Z</time></trkpt><trkpt lat="44.4671082" lon="11.1664817"><ele>247.0</ele><time>2026-03-29T08:12:24.051Z</time></trkpt><trkpt lat="44.4672387" lon="11.166488"><ele>247.0</ele><time>2026-03-29T08:12:25.05Z</time></trkpt><trkpt lat="44.4673369" lon="11.1665278"><ele>247.2</ele><time>2026-03-29T08:12:26.05Z</time></trkpt><trkpt lat="44.467414" lon="11.1665984"><ele>247.39999999999998</ele><time>2026-03-29T08:12:27.051Z</time></trkpt><trkpt lat="44.4674563" lon="11.1666731"><ele>247.60000000000002</ele><time>2026-03-29T08:12:28.051Z</time></trkpt><trkpt lat="44.4675076" lon="11.1667761"><ele>247.8</ele><time>2026-03-29T08:12:30.051Z</time></trkpt><trkpt lat="44.4675578" lon="11.1667085"><ele>248.0</ele><time>2026-03-29T08:12:32.051Z</time></trkpt><trkpt lat="44.4675699" lon="11.1665066"><ele>249.4</ele><time>2026-03-29T08:12:34.051Z</time></trkpt><trkpt lat="44.4675717" lon="11.1663965"><ele>250.8</ele><time>2026-03-29T08:12:35.051Z</time></trkpt><trkpt lat="44.4675875" lon="11.1662993"><ele>252.2</ele><time>2026-03-29T08:12:36.05Z</time></trkpt><trkpt lat="44.4675998" lon="11.1661767"><ele>253.6</ele><time>2026-03-29T08:12:37.05Z</time></trkpt><trkpt lat="44.4676228" lon="11.1660129"><ele>255.0</ele><time>2026-03-29T08:12:38.051Z</time></trkpt><trkpt lat="44.4676657" lon="11.1658712"><ele>257.25</ele><time>2026-03-29T08:12:39.05Z</time></trkpt><trkpt lat="44.4676981" lon="11.1656928"><ele>259.5</ele><time>2026-03-29T08:12:40.05Z</time></trkpt><trkpt lat="44.4677273" lon="11.1655313"><ele>261.75</ele><time>2026-03-29T08:12:41.051Z</time></trkpt><trkpt lat="44.4677583" lon="11.1653378"><ele>264.0</ele><time>2026-03-29T08:12:42.051Z</time></trkpt><trkpt lat="44.4677953" lon="11.1651663"><ele>264.0</ele><time>2026-03-29T08:12:43.051Z</time></trkpt><trkpt lat="44.4678294" lon="11.1650038"><ele>264.0</ele><time>2026-03-29T08:12:44.051Z</time></trkpt><trkpt lat="44.4678566" lon="11.1648337"><ele>264.0</ele><time>2026-03-29T08:12:45.051Z</time></trkpt><trkpt lat="44.4678837" lon="11.1646743"><ele>264.0</ele><time>2026-03-29T08:12:46.051Z</time></trkpt><trkpt lat="44.4678999" lon="11.1645263"><ele>266.4</ele><time>2026-03-29T08:12:47.051Z</time></trkpt><trkpt lat="44.4679228" lon="11.1643882"><ele>268.79999999999995</ele><time>2026-03-29T08:12:48.051Z</time></trkpt><trkpt lat="44.4679322" lon="11.1642475"><ele>271.20000000000005</ele><time>2026-03-29T08:12:49.05Z</time></trkpt><trkpt lat="44.4679197" lon="11.164099"><ele>273.6</ele><time>2026-03-29T08:12:50.05Z</time></trkpt><trkpt lat="44.4678842" lon="11.1639592"><ele>276.0</ele><time>2026-03-29T08:12:51.051Z</time></trkpt><trkpt lat="44.467745" lon="11.1637068"><ele>275.75</ele><time>2026-03-29T08:12:53.05Z</time></trkpt><trkpt lat="44.467661" lon="11.1635684"><ele>275.5</ele><time>2026-03-29T08:12:54.05Z</time></trkpt><trkpt lat="44.4675742" lon="11.1634118"><ele>275.25</ele><time>2026-03-29T08:12:55.05Z</time></trkpt><trkpt lat="44.4674861" lon="11.1632517"><ele>275.0</ele><time>2026-03-29T08:12:56.05Z</time></trkpt><trkpt lat="44.4673947" lon="11.1630972"><ele>275.0</ele><time>2026-03-29T08:12:57.051Z</time></trkpt><trkpt lat="44.4673104" lon="11.162949"><ele>275.0</ele><time>2026-03-29T08:12:58.051Z</time></trkpt><trkpt lat="44.4672378" lon="11.1628045"><ele>275.0</ele><time>2026-03-29T08:12:59.051Z</time></trkpt><trkpt lat="44.4671681" lon="11.1626698"><ele>275.0</ele><time>2026-03-29T08:13:00.05Z</time></trkpt><trkpt lat="44.4671074" lon="11.162545"><ele>279.6</ele><time>2026-03-29T08:13:01.051Z</time></trkpt><trkpt lat="44.4670437" lon="11.1624298"><ele>284.2</ele><time>2026-03-29T08:13:02.051Z</time></trkpt><trkpt lat="44.4669841" lon="11.1623332"><ele>288.8</ele><time>2026-03-29T08:13:03.051Z</time></trkpt><trkpt lat="44.4669315" lon="11.1622378"><ele>293.4</ele><time>2026-03-29T08:13:04.051Z</time></trkpt><trkpt lat="44.4668798" lon="11.1621455"><ele>298.0</ele><time>2026-03-29T08:13:05.05Z</time></trkpt><trkpt lat="44.4668284" lon="11.1620359"><ele>298.0</ele><time>2026-03-29T08:13:06.051Z</time></trkpt><trkpt lat="44.4667797" lon="11.1619241"><ele>298.0</ele><time>2026-03-29T08:13:07.051Z</time></trkpt><trkpt lat="44.4667229" lon="11.1618446"><ele>298.0</ele><time>2026-03-29T08:13:08.05Z</time></trkpt><trkpt lat="44.466673" lon="11.1617361"><ele>298.0</ele><time>2026-03-29T08:13:09.051Z</time></trkpt><trkpt lat="44.466613" lon="11.1616279"><ele>298.0</ele><time>2026-03-29T08:13:10.051Z</time></trkpt><trkpt lat="44.4665479" lon="11.1615136"><ele>295.25</ele><time>2026-03-29T08:13:11.051Z</time></trkpt><trkpt lat="44.4664812" lon="11.1613711"><ele>292.5</ele><time>2026-03-29T08:13:12.051Z</time></trkpt><trkpt lat="44.4664001" lon="11.1612375"><ele>289.75</ele><time>2026-03-29T08:13:13.051Z</time></trkpt><trkpt lat="44.4663018" lon="11.1610909"><ele>287.0</ele><time>2026-03-29T08:13:14.05Z</time></trkpt><trkpt lat="44.4661774" lon="11.1608677"><ele>291.33333333333337</ele><time>2026-03-29T08:13:15.05Z</time></trkpt><trkpt lat="44.4660596" lon="11.1606832"><ele>295.6666666666667</ele><time>2026-03-29T08:13:16.051Z</time></trkpt><trkpt lat="44.4659468" lon="11.1604865"><ele>300.0</ele><time>2026-03-29T08:13:17.05Z</time></trkpt><trkpt lat="44.4658432" lon="11.160305"><ele>300.0</ele><time>2026-03-29T08:13:18.05Z</time></trkpt><trkpt lat="44.4657371" lon="11.1601029"><ele>300.0</ele><time>2026-03-29T08:13:19.051Z</time></trkpt><trkpt lat="44.4656386" lon="11.1599145"><ele>300.0</ele><time>2026-03-29T08:13:20.05Z</time></trkpt><trkpt lat="44.4655394" lon="11.159739"><ele>300.5</ele><time>2026-03-29T08:13:21.051Z</time></trkpt><trkpt lat="44.4654462" lon="11.159566"><ele>301.0</ele><time>2026-03-29T08:13:22.051Z</time></trkpt><trkpt lat="44.4653485" lon="11.1594526"><ele>301.5</ele><time>2026-03-29T08:13:23.051Z</time></trkpt><trkpt lat="44.4652694" lon="11.1593236"><ele>302.0</ele><time>2026-03-29T08:13:24.05Z</time></trkpt><trkpt lat="44.4652141" lon="11.1589953"><ele>300.75</ele><time>2026-03-29T08:13:26.05Z</time></trkpt><trkpt lat="44.4652392" lon="11.1588536"><ele>299.5</ele><time>2026-03-29T08:13:27.05Z</time></trkpt><trkpt lat="44.4653092" lon="11.1587129"><ele>298.25</ele><time>2026-03-29T08:13:28.05Z</time></trkpt><trkpt lat="44.4653895" lon="11.1585883"><ele>297.0</ele><time>2026-03-29T08:13:29.051Z</time></trkpt><trkpt lat="44.4654577" lon="11.1584238"><ele>297.0</ele><time>2026-03-29T08:13:30.051Z</time></trkpt><trkpt lat="44.4655169" lon="11.1582398"><ele>297.0</ele><time>2026-03-29T08:13:31.051Z</time></trkpt><trkpt lat="44.4655661" lon="11.1580435"><ele>297.0</ele><time>2026-03-29T08:13:32.05Z</time></trkpt><trkpt lat="44.4656095" lon="11.157853"><ele>297.0</ele><time>2026-03-29T08:13:33.051Z</time></trkpt><trkpt lat="44.4656223" lon="11.1576495"><ele>298.0</ele><time>2026-03-29T08:13:34.051Z</time></trkpt><trkpt lat="44.4656029" lon="11.1574529"><ele>299.0</ele><time>2026-03-29T08:13:35.051Z</time></trkpt><trkpt lat="44.4655395" lon="11.157279"><ele>300.0</ele><time>2026-03-29T08:13:36.051Z</time></trkpt><trkpt lat="44.4654492" lon="11.1571114"><ele>301.0</ele><time>2026-03-29T08:13:37.05Z</time></trkpt><trkpt lat="44.4653658" lon="11.1569384"><ele>310.0</ele><time>2026-03-29T08:13:38.051Z</time></trkpt><trkpt lat="44.4652978" lon="11.1567409"><ele>319.0</ele><time>2026-03-29T08:13:39.051Z</time></trkpt><trkpt lat="44.4652544" lon="11.1565251"><ele>328.0</ele><time>2026-03-29T08:13:40.051Z</time></trkpt><trkpt lat="44.4652335" lon="11.1563165"><ele>328.0</ele><time>2026-03-29T08:13:41.051Z</time></trkpt><trkpt lat="44.4652494" lon="11.1560871"><ele>328.0</ele><time>2026-03-29T08:13:42.051Z</time></trkpt><trkpt lat="44.4652652" lon="11.1558724"><ele>328.0</ele><time>2026-03-29T08:13:43.051Z</time></trkpt><trkpt lat="44.4652831" lon="11.1556498"><ele>330.66666666666663</ele><time>2026-03-29T08:13:44.051Z</time></trkpt><trkpt lat="44.4652993" lon="11.1554312"><ele>333.3333333333333</ele><time>2026-03-29T08:13:45.051Z</time></trkpt><trkpt lat="44.4653339" lon="11.1552046"><ele>336.0</ele><time>2026-03-29T08:13:46.05Z</time></trkpt><trkpt lat="44.4653805" lon="11.1549972"><ele>334.75</ele><time>2026-03-29T08:13:47.051Z</time></trkpt><trkpt lat="44.4654539" lon="11.1548043"><ele>333.5</ele><time>2026-03-29T08:13:48.051Z</time></trkpt><trkpt lat="44.465519" lon="11.1546286"><ele>332.25</ele><time>2026-03-29T08:13:49.05Z</time></trkpt><trkpt lat="44.4655672" lon="11.1544866"><ele>331.0</ele><time>2026-03-29T08:13:50.051Z</time></trkpt><trkpt lat="44.465593" lon="11.1543681"><ele>331.0</ele><time>2026-03-29T08:13:51.051Z</time></trkpt><trkpt lat="44.4655715" lon="11.1542518"><ele>331.0</ele><time>2026-03-29T08:13:52.051Z</time></trkpt><trkpt lat="44.4655076" lon="11.1541582"><ele>331.0</ele><time>2026-03-29T08:13:53.05Z</time></trkpt><trkpt lat="44.4654344" lon="11.15406"><ele>331.0</ele><time>2026-03-29T08:13:54.051Z</time></trkpt><trkpt lat="44.4653949" lon="11.1539454"><ele>331.0</ele><time>2026-03-29T08:13:55.051Z</time></trkpt><trkpt lat="44.4653585" lon="11.1538026"><ele>330.8</ele><time>2026-03-29T08:13:56.051Z</time></trkpt><trkpt lat="44.4653134" lon="11.1536667"><ele>330.6</ele><time>2026-03-29T08:13:57.051Z</time></trkpt><trkpt lat="44.4652585" lon="11.1535582"><ele>330.4</ele><time>2026-03-29T08:13:58.05Z</time></trkpt><trkpt lat="44.4651838" lon="11.1534617"><ele>330.2</ele><time>2026-03-29T08:13:59.05Z</time></trkpt><trkpt lat="44.465095" lon="11.1533748"><ele>330.0</ele><time>2026-03-29T08:14:00.05Z</time></trkpt><trkpt lat="44.465002" lon="11.1532768"><ele>327.25</ele><time>2026-03-29T08:14:01.051Z</time></trkpt><trkpt lat="44.4648959" lon="11.1531755"><ele>324.5</ele><time>2026-03-29T08:14:02.05Z</time></trkpt><trkpt lat="44.4647796" lon="11.1530656"><ele>321.75</ele><time>2026-03-29T08:14:03.05Z</time></trkpt><trkpt lat="44.4646559" lon="11.1529496"><ele>319.0</ele><time>2026-03-29T08:14:04.051Z</time></trkpt><trkpt lat="44.4645256" lon="11.1528303"><ele>319.0</ele><time>2026-03-29T08:14:05.051Z</time></trkpt><trkpt lat="44.4643955" lon="11.1527114"><ele>319.0</ele><time>2026-03-29T08:14:06.051Z</time></trkpt><trkpt lat="44.4642659" lon="11.1525911"><ele>319.0</ele><time>2026-03-29T08:14:07.051Z</time></trkpt><trkpt lat="44.4641439" lon="11.1524638"><ele>316.5</ele><time>2026-03-29T08:14:08.051Z</time></trkpt><trkpt lat="44.4640317" lon="11.1523384"><ele>314.0</ele><time>2026-03-29T08:14:09.051Z</time></trkpt><trkpt lat="44.463931" lon="11.1522076"><ele>311.5</ele><time>2026-03-29T08:14:10.05Z</time></trkpt><trkpt lat="44.4638422" lon="11.1520741"><ele>309.0</ele><time>2026-03-29T08:14:11.051Z</time></trkpt><trkpt lat="44.4637606" lon="11.1519086"><ele>315.0</ele><time>2026-03-29T08:14:12.05Z</time></trkpt><trkpt lat="44.4636843" lon="11.1517384"><ele>321.0</ele><time>2026-03-29T08:14:13.05Z</time></trkpt><trkpt lat="44.4636085" lon="11.1515567"><ele>327.0</ele><time>2026-03-29T08:14:14.05Z</time></trkpt><trkpt lat="44.4635392" lon="11.1513365"><ele>327.0</ele><time>2026-03-29T08:14:15.05Z</time></trkpt><trkpt lat="44.4634595" lon="11.1511373"><ele>327.0</ele><time>2026-03-29T08:14:16.05Z</time></trkpt><trkpt lat="44.4633539" lon="11.1509576"><ele>327.0</ele><time>2026-03-29T08:14:17.051Z</time></trkpt><trkpt lat="44.4632365" lon="11.1508187"><ele>327.75</ele><time>2026-03-29T08:14:18.05Z</time></trkpt><trkpt lat="44.4631178" lon="11.1506962"><ele>328.5</ele><time>2026-03-29T08:14:19.051Z</time></trkpt><trkpt lat="44.4630176" lon="11.1505301"><ele>329.25</ele><time>2026-03-29T08:14:20.051Z</time></trkpt><trkpt lat="44.4629235" lon="11.1503734"><ele>330.0</ele><time>2026-03-29T08:14:21.05Z</time></trkpt><trkpt lat="44.4628617" lon="11.1502077"><ele>335.5</ele><time>2026-03-29T08:14:22.051Z</time></trkpt><trkpt lat="44.4628151" lon="11.1500464"><ele>341.0</ele><time>2026-03-29T08:14:23.05Z</time></trkpt><trkpt lat="44.4627705" lon="11.1498812"><ele>346.5</ele><time>2026-03-29T08:14:24.05Z</time></trkpt><trkpt lat="44.4628037" lon="11.1496909"><ele>352.0</ele><time>2026-03-29T08:14:25.05Z</time></trkpt><trkpt lat="44.4628528" lon="11.1493936"><ele>352.0</ele><time>2026-03-29T08:14:26.051Z</time></trkpt><trkpt lat="44.4628599" lon="11.1491754"><ele>352.0</ele><time>2026-03-29T08:14:27.05Z</time></trkpt><trkpt lat="44.4628653" lon="11.1489256"><ele>352.0</ele><time>2026-03-29T08:14:28.051Z</time></trkpt><trkpt lat="44.4628684" lon="11.1487226"><ele>350.25</ele><time>2026-03-29T08:14:29.05Z</time></trkpt><trkpt lat="44.462867" lon="11.1485353"><ele>348.5</ele><time>2026-03-29T08:14:30.051Z</time></trkpt><trkpt lat="44.4628916" lon="11.1483465"><ele>346.75</ele><time>2026-03-29T08:14:31.051Z</time></trkpt><trkpt lat="44.4629562" lon="11.1481724"><ele>345.0</ele><time>2026-03-29T08:14:32.05Z</time></trkpt><trkpt lat="44.4630336" lon="11.1480311"><ele>349.5</ele><time>2026-03-29T08:14:33.051Z</time></trkpt><trkpt lat="44.4631458" lon="11.1478906"><ele>354.0</ele><time>2026-03-29T08:14:34.051Z</time></trkpt><trkpt lat="44.4632383" lon="11.1477434"><ele>358.5</ele><time>2026-03-29T08:14:35.051Z</time></trkpt><trkpt lat="44.4633344" lon="11.1475871"><ele>363.0</ele><time>2026-03-29T08:14:36.051Z</time></trkpt><trkpt lat="44.4634213" lon="11.1474417"><ele>360.5</ele><time>2026-03-29T08:14:37.051Z</time></trkpt><trkpt lat="44.4634956" lon="11.1472894"><ele>358.0</ele><time>2026-03-29T08:14:38.051Z</time></trkpt><trkpt lat="44.4635806" lon="11.1471341"><ele>355.5</ele><time>2026-03-29T08:14:39.051Z</time></trkpt><trkpt lat="44.4636573" lon="11.146987"><ele>353.0</ele><time>2026-03-29T08:14:40.051Z</time></trkpt><trkpt lat="44.4637573" lon="11.1468577"><ele>352.5</ele><time>2026-03-29T08:14:41.051Z</time></trkpt><trkpt lat="44.4638772" lon="11.1467374"><ele>352.0</ele><time>2026-03-29T08:14:42.051Z</time></trkpt><trkpt lat="44.4639938" lon="11.1466516"><ele>351.5</ele><time>2026-03-29T08:14:43.05Z</time></trkpt><trkpt lat="44.4641176" lon="11.1465426"><ele>351.0</ele><time>2026-03-29T08:14:44.051Z</time></trkpt><trkpt lat="44.4642328" lon="11.1464559"><ele>351.0</ele><time>2026-03-29T08:14:45.051Z</time></trkpt><trkpt lat="44.4643475" lon="11.1463728"><ele>351.0</ele><time>2026-03-29T08:14:46.051Z</time></trkpt><trkpt lat="44.4644503" lon="11.146294"><ele>351.0</ele><time>2026-03-29T08:14:47.051Z</time></trkpt><trkpt lat="44.46454" lon="11.1462037"><ele>351.0</ele><time>2026-03-29T08:14:48.051Z</time></trkpt><trkpt lat="44.4646072" lon="11.1461047"><ele>351.8</ele><time>2026-03-29T08:14:49.051Z</time></trkpt><trkpt lat="44.4646491" lon="11.1459705"><ele>352.6</ele><time>2026-03-29T08:14:50.051Z</time></trkpt><trkpt lat="44.4646737" lon="11.145819"><ele>353.4</ele><time>2026-03-29T08:14:51.051Z</time></trkpt><trkpt lat="44.4646813" lon="11.1456587"><ele>354.2</ele><time>2026-03-29T08:14:52.051Z</time></trkpt><trkpt lat="44.4646747" lon="11.1455024"><ele>355.0</ele><time>2026-03-29T08:14:53.051Z</time></trkpt><trkpt lat="44.4646747" lon="11.1453401"><ele>355.25</ele><time>2026-03-29T08:14:54.05Z</time></trkpt><trkpt lat="44.4646746" lon="11.1451649"><ele>355.5</ele><time>2026-03-29T08:14:55.051Z</time></trkpt><trkpt lat="44.464671" lon="11.1449928"><ele>355.75</ele><time>2026-03-29T08:14:56.051Z</time></trkpt><trkpt lat="44.4646802" lon="11.144824"><ele>356.0</ele><time>2026-03-29T08:14:57.05Z</time></trkpt><trkpt lat="44.4646865" lon="11.1446542"><ele>354.6</ele><time>2026-03-29T08:14:58.051Z</time></trkpt><trkpt lat="44.46468" lon="11.1445377"><ele>353.20000000000005</ele><time>2026-03-29T08:14:59.05Z</time></trkpt><trkpt lat="44.4646629" lon="11.144414"><ele>351.79999999999995</ele><time>2026-03-29T08:15:00.051Z</time></trkpt><trkpt lat="44.4646078" lon="11.1443444"><ele>350.4</ele><time>2026-03-29T08:15:01.051Z</time></trkpt><trkpt lat="44.4645311" lon="11.144199"><ele>349.0</ele><time>2026-03-29T08:15:03.051Z</time></trkpt><trkpt lat="44.4644933" lon="11.1441111"><ele>350.0</ele><time>2026-03-29T08:15:04.05Z</time></trkpt><trkpt lat="44.4644848" lon="11.1438785"><ele>351.0</ele><time>2026-03-29T08:15:05.051Z</time></trkpt><trkpt lat="44.4644661" lon="11.1436636"><ele>352.0</ele><time>2026-03-29T08:15:06.051Z</time></trkpt><trkpt lat="44.464476" lon="11.1434737"><ele>352.0</ele><time>2026-03-29T08:15:07.051Z</time></trkpt><trkpt lat="44.4644641" lon="11.1432842"><ele>352.0</ele><time>2026-03-29T08:15:08.05Z</time></trkpt><trkpt lat="44.4644501" lon="11.1431088"><ele>352.0</ele><time>2026-03-29T08:15:09.051Z</time></trkpt><trkpt lat="44.4644067" lon="11.1428997"><ele>352.0</ele><time>2026-03-29T08:15:10.05Z</time></trkpt><trkpt lat="44.4643538" lon="11.142686"><ele>352.0</ele><time>2026-03-29T08:15:11.05Z</time></trkpt><trkpt lat="44.4643058" lon="11.1424808"><ele>352.0</ele><time>2026-03-29T08:15:12.05Z</time></trkpt><trkpt lat="44.4642518" lon="11.1422611"><ele>352.0</ele><time>2026-03-29T08:15:13.051Z</time></trkpt><trkpt lat="44.4642066" lon="11.142111"><ele>352.0</ele><time>2026-03-29T08:15:14.05Z</time></trkpt><trkpt lat="44.4641561" lon="11.1419206"><ele>348.75</ele><time>2026-03-29T08:15:15.051Z</time></trkpt><trkpt lat="44.4640795" lon="11.1417414"><ele>345.5</ele><time>2026-03-29T08:15:16.05Z</time></trkpt><trkpt lat="44.4640001" lon="11.1416049"><ele>342.25</ele><time>2026-03-29T08:15:17.05Z</time></trkpt><trkpt lat="44.4639173" lon="11.1415266"><ele>339.0</ele><time>2026-03-29T08:15:18.051Z</time></trkpt><trkpt lat="44.4638276" lon="11.1414367"><ele>337.1666666666667</ele><time>2026-03-29T08:15:19.051Z</time></trkpt><trkpt lat="44.4637657" lon="11.1413301"><ele>335.3333333333333</ele><time>2026-03-29T08:15:20.051Z</time></trkpt><trkpt lat="44.4637346" lon="11.1412318"><ele>333.5</ele><time>2026-03-29T08:15:21.051Z</time></trkpt><trkpt lat="44.4637016" lon="11.1411286"><ele>331.66666666666663</ele><time>2026-03-29T08:15:22.051Z</time></trkpt><trkpt lat="44.4637072" lon="11.141029"><ele>329.8333333333333</ele><time>2026-03-29T08:15:23.051Z</time></trkpt><trkpt lat="44.4637301" lon="11.1409175"><ele>328.0</ele><time>2026-03-29T08:15:24.051Z</time></trkpt><trkpt lat="44.4638069" lon="11.1408334"><ele>328.0</ele><time>2026-03-29T08:15:25.051Z</time></trkpt><trkpt lat="44.4638714" lon="11.1407313"><ele>328.0</ele><time>2026-03-29T08:15:26.05Z</time></trkpt><trkpt lat="44.4639547" lon="11.1406413"><ele>328.0</ele><time>2026-03-29T08:15:27.05Z</time></trkpt><trkpt lat="44.4640357" lon="11.1405473"><ele>328.0</ele><time>2026-03-29T08:15:28.051Z</time></trkpt><trkpt lat="44.4641243" lon="11.1404545"><ele>328.0</ele><time>2026-03-29T08:15:29.05Z</time></trkpt><trkpt lat="44.4642321" lon="11.1404475"><ele>325.3333333333333</ele><time>2026-03-29T08:15:30.051Z</time></trkpt><trkpt lat="44.4643005" lon="11.1403801"><ele>322.66666666666663</ele><time>2026-03-29T08:15:31.051Z</time></trkpt><trkpt lat="44.4643522" lon="11.1402735"><ele>320.0</ele><time>2026-03-29T08:15:32.05Z</time></trkpt><trkpt lat="44.4643882" lon="11.1401766"><ele>317.3333333333333</ele><time>2026-03-29T08:15:33.05Z</time></trkpt><trkpt lat="44.4644324" lon="11.1401037"><ele>314.6666666666667</ele><time>2026-03-29T08:15:34.051Z</time></trkpt><trkpt lat="44.464511" lon="11.1399952"><ele>312.0</ele><time>2026-03-29T08:15:36.05Z</time></trkpt><trkpt lat="44.4645445" lon="11.1399175"><ele>312.0</ele><time>2026-03-29T08:15:37.05Z</time></trkpt><trkpt lat="44.4645722" lon="11.1398275"><ele>312.0</ele><time>2026-03-29T08:15:39.05Z</time></trkpt><trkpt lat="44.4645247" lon="11.139905"><ele>312.0</ele><time>2026-03-29T08:15:45.051Z</time></trkpt><trkpt lat="44.464468" lon="11.1400602"><ele>312.0</ele><time>2026-03-29T08:15:47.051Z</time></trkpt><trkpt lat="44.464435" lon="11.1401529"><ele>312.0</ele><time>2026-03-29T08:15:48.051Z</time></trkpt><trkpt lat="44.4643898" lon="11.1402331"><ele>312.0</ele><time>2026-03-29T08:15:49.051Z</time></trkpt><trkpt lat="44.4643428" lon="11.1402956"><ele>312.0</ele><time>2026-03-29T08:15:50.05Z</time></trkpt><trkpt lat="44.464261" lon="11.1403771"><ele>312.0</ele><time>2026-03-29T08:15:51.05Z</time></trkpt><trkpt lat="44.4641942" lon="11.1404265"><ele>312.0</ele><time>2026-03-29T08:15:52.051Z</time></trkpt><trkpt lat="44.4641115" lon="11.1404621"><ele>312.0</ele><time>2026-03-29T08:15:53.05Z</time></trkpt><trkpt lat="44.4640324" lon="11.1404829"><ele>312.0</ele><time>2026-03-29T08:15:54.051Z</time></trkpt><trkpt lat="44.4639425" lon="11.1404859"><ele>312.0</ele><time>2026-03-29T08:15:55.051Z</time></trkpt><trkpt lat="44.4638622" lon="11.1405012"><ele>311.8</ele><time>2026-03-29T08:15:56.05Z</time></trkpt><trkpt lat="44.4637599" lon="11.1405232"><ele>311.6</ele><time>2026-03-29T08:15:57.05Z</time></trkpt><trkpt lat="44.4636929" lon="11.1405692"><ele>311.40000000000003</ele><time>2026-03-29T08:15:58.051Z</time></trkpt><trkpt lat="44.4636077" lon="11.1406144"><ele>311.2</ele><time>2026-03-29T08:15:59.05Z</time></trkpt><trkpt lat="44.4635142" lon="11.1406716"><ele>311.0</ele><time>2026-03-29T08:16:00.05Z</time></trkpt><trkpt lat="44.4634246" lon="11.1407377"><ele>311.0</ele><time>2026-03-29T08:16:01.051Z</time></trkpt><trkpt lat="44.4633729" lon="11.1408081"><ele>311.0</ele><time>2026-03-29T08:16:02.051Z</time></trkpt><trkpt lat="44.4633153" lon="11.1408599"><ele>311.0</ele><time>2026-03-29T08:16:03.05Z</time></trkpt><trkpt lat="44.4632433" lon="11.140843"><ele>311.0</ele><time>2026-03-29T08:16:06.051Z</time></trkpt><trkpt lat="44.4631705" lon="11.1407399"><ele>311.0</ele><time>2026-03-29T08:16:08.051Z</time></trkpt><trkpt lat="44.4630751" lon="11.1407148"><ele>311.0</ele><time>2026-03-29T08:16:10.051Z</time></trkpt><trkpt lat="44.4629732" lon="11.1407508"><ele>306.6666666666667</ele><time>2026-03-29T08:16:12.051Z</time></trkpt><trkpt lat="44.4628665" lon="11.1407756"><ele>302.33333333333337</ele><time>2026-03-29T08:16:14.051Z</time></trkpt><trkpt lat="44.4627783" lon="11.1407502"><ele>298.0</ele><time>2026-03-29T08:16:16.051Z</time></trkpt><trkpt lat="44.4627095" lon="11.1407158"><ele>293.6666666666667</ele><time>2026-03-29T08:16:18.05Z</time></trkpt><trkpt lat="44.4626338" lon="11.140666"><ele>289.3333333333333</ele><time>2026-03-29T08:16:20.051Z</time></trkpt><trkpt lat="44.4625663" lon="11.1406258"><ele>285.0</ele><time>2026-03-29T08:16:22.051Z</time></trkpt><trkpt lat="44.4624947" lon="11.140631"><ele>283.5</ele><time>2026-03-29T08:16:24.05Z</time></trkpt><trkpt lat="44.4624087" lon="11.1405516"><ele>282.0</ele><time>2026-03-29T08:16:27.051Z</time></trkpt><trkpt lat="44.4623631" lon="11.1404695"><ele>280.5</ele><time>2026-03-29T08:16:29.051Z</time></trkpt><trkpt lat="44.4623122" lon="11.1404103"><ele>279.0</ele><time>2026-03-29T08:16:33.051Z</time></trkpt><trkpt lat="44.4622401" lon="11.1404217"><ele>277.5</ele><time>2026-03-29T08:16:36.051Z</time></trkpt><trkpt lat="44.4621228" lon="11.1404414"><ele>276.0</ele><time>2026-03-29T08:16:38.051Z</time></trkpt><trkpt lat="44.4620532" lon="11.1404402"><ele>276.0</ele><time>2026-03-29T08:16:39.05Z</time></trkpt><trkpt lat="44.4619636" lon="11.1403744"><ele>276.0</ele><time>2026-03-29T08:16:41.051Z</time></trkpt><trkpt lat="44.4618862" lon="11.1402809"><ele>276.0</ele><time>2026-03-29T08:16:43.05Z</time></trkpt><trkpt lat="44.4618478" lon="11.1401537"><ele>276.0</ele><time>2026-03-29T08:16:45.051Z</time></trkpt><trkpt lat="44.4618494" lon="11.1400267"><ele>276.0</ele><time>2026-03-29T08:16:47.05Z</time></trkpt><trkpt lat="44.4618386" lon="11.1398544"><ele>274.2</ele><time>2026-03-29T08:16:49.051Z</time></trkpt><trkpt lat="44.4617502" lon="11.1397087"><ele>272.40000000000003</ele><time>2026-03-29T08:16:51.051Z</time></trkpt><trkpt lat="44.4616824" lon="11.139625"><ele>270.6</ele><time>2026-03-29T08:16:52.051Z</time></trkpt><trkpt lat="44.4616195" lon="11.1395171"><ele>268.8</ele><time>2026-03-29T08:16:53.051Z</time></trkpt><trkpt lat="44.4615395" lon="11.139402"><ele>267.0</ele><time>2026-03-29T08:16:54.051Z</time></trkpt><trkpt lat="44.4614581" lon="11.139289"><ele>267.0</ele><time>2026-03-29T08:16:55.05Z</time></trkpt><trkpt lat="44.4613938" lon="11.1391628"><ele>267.0</ele><time>2026-03-29T08:16:56.051Z</time></trkpt><trkpt lat="44.4613204" lon="11.1390398"><ele>267.0</ele><time>2026-03-29T08:16:57.05Z</time></trkpt><trkpt lat="44.4612363" lon="11.1389205"><ele>267.0</ele><time>2026-03-29T08:16:58.051Z</time></trkpt><trkpt lat="44.4611532" lon="11.1388014"><ele>269.0</ele><time>2026-03-29T08:16:59.051Z</time></trkpt><trkpt lat="44.4610625" lon="11.1387002"><ele>271.0</ele><time>2026-03-29T08:17:00.05Z</time></trkpt><trkpt lat="44.4609814" lon="11.1385888"><ele>273.0</ele><time>2026-03-29T08:17:01.051Z</time></trkpt><trkpt lat="44.4609102" lon="11.1384542"><ele>275.0</ele><time>2026-03-29T08:17:02.051Z</time></trkpt><trkpt lat="44.4608357" lon="11.1383274"><ele>272.75</ele><time>2026-03-29T08:17:03.05Z</time></trkpt><trkpt lat="44.4607393" lon="11.1382131"><ele>270.5</ele><time>2026-03-29T08:17:04.051Z</time></trkpt><trkpt lat="44.4606326" lon="11.1381095"><ele>268.25</ele><time>2026-03-29T08:17:05.05Z</time></trkpt><trkpt lat="44.4605206" lon="11.1380166"><ele>266.0</ele><time>2026-03-29T08:17:06.051Z</time></trkpt><trkpt lat="44.4604092" lon="11.1379255"><ele>269.8</ele><time>2026-03-29T08:17:07.051Z</time></trkpt><trkpt lat="44.4603095" lon="11.1378526"><ele>273.6</ele><time>2026-03-29T08:17:08.051Z</time></trkpt><trkpt lat="44.4602115" lon="11.1377868"><ele>277.4</ele><time>2026-03-29T08:17:09.05Z</time></trkpt><trkpt lat="44.4601188" lon="11.137717"><ele>281.2</ele><time>2026-03-29T08:17:10.051Z</time></trkpt><trkpt lat="44.4600373" lon="11.1376368"><ele>285.0</ele><time>2026-03-29T08:17:11.05Z</time></trkpt><trkpt lat="44.4599523" lon="11.1375376"><ele>285.0</ele><time>2026-03-29T08:17:12.051Z</time></trkpt><trkpt lat="44.4598695" lon="11.1374184"><ele>285.0</ele><time>2026-03-29T08:17:13.05Z</time></trkpt><trkpt lat="44.4597859" lon="11.1372906"><ele>285.0</ele><time>2026-03-29T08:17:14.05Z</time></trkpt><trkpt lat="44.459708" lon="11.1371624"><ele>285.0</ele><time>2026-03-29T08:17:15.051Z</time></trkpt><trkpt lat="44.4596261" lon="11.1370496"><ele>284.0</ele><time>2026-03-29T08:17:16.051Z</time></trkpt><trkpt lat="44.4595457" lon="11.1369685"><ele>283.0</ele><time>2026-03-29T08:17:17.051Z</time></trkpt><trkpt lat="44.4594633" lon="11.1369158"><ele>282.0</ele><time>2026-03-29T08:17:18.051Z</time></trkpt><trkpt lat="44.4593873" lon="11.1369031"><ele>281.0</ele><time>2026-03-29T08:17:19.051Z</time></trkpt><trkpt lat="44.4593222" lon="11.1368963"><ele>280.0</ele><time>2026-03-29T08:17:20.051Z</time></trkpt><trkpt lat="44.4592049" lon="11.1368581"><ele>280.0</ele><time>2026-03-29T08:17:22.051Z</time></trkpt><trkpt lat="44.4591366" lon="11.1368305"><ele>280.0</ele><time>2026-03-29T08:17:23.05Z</time></trkpt><trkpt lat="44.4589721" lon="11.136765"><ele>280.0</ele><time>2026-03-29T08:17:25.05Z</time></trkpt><trkpt lat="44.4588866" lon="11.1367109"><ele>280.0</ele><time>2026-03-29T08:17:26.051Z</time></trkpt><trkpt lat="44.4588033" lon="11.1366508"><ele>280.0</ele><time>2026-03-29T08:17:27.051Z</time></trkpt><trkpt lat="44.4587057" lon="11.1366087"><ele>281.2</ele><time>2026-03-29T08:17:28.051Z</time></trkpt><trkpt lat="44.4586105" lon="11.1365644"><ele>282.4</ele><time>2026-03-29T08:17:29.05Z</time></trkpt><trkpt lat="44.4585283" lon="11.1365007"><ele>283.6</ele><time>2026-03-29T08:17:30.051Z</time></trkpt><trkpt lat="44.4584547" lon="11.1364247"><ele>284.8</ele><time>2026-03-29T08:17:31.051Z</time></trkpt><trkpt lat="44.458378" lon="11.1363409"><ele>286.0</ele><time>2026-03-29T08:17:32.051Z</time></trkpt><trkpt lat="44.4582975" lon="11.1362136"><ele>283.0</ele><time>2026-03-29T08:17:33.051Z</time></trkpt><trkpt lat="44.4582779" lon="11.1360572"><ele>280.0</ele><time>2026-03-29T08:17:34.05Z</time></trkpt><trkpt lat="44.4582321" lon="11.1359118"><ele>277.0</ele><time>2026-03-29T08:17:35.051Z</time></trkpt><trkpt lat="44.4581962" lon="11.135742"><ele>274.0</ele><time>2026-03-29T08:17:36.051Z</time></trkpt><trkpt lat="44.4581869" lon="11.135573"><ele>273.0</ele><time>2026-03-29T08:17:37.051Z</time></trkpt><trkpt lat="44.4581825" lon="11.1354265"><ele>272.0</ele><time>2026-03-29T08:17:38.05Z</time></trkpt><trkpt lat="44.4582182" lon="11.1352706"><ele>271.0</ele><time>2026-03-29T08:17:39.051Z</time></trkpt><trkpt lat="44.4582524" lon="11.1351241"><ele>270.0</ele><time>2026-03-29T08:17:40.05Z</time></trkpt><trkpt lat="44.4583022" lon="11.1349576"><ele>272.5</ele><time>2026-03-29T08:17:41.05Z</time></trkpt><trkpt lat="44.4583588" lon="11.1347896"><ele>275.0</ele><time>2026-03-29T08:17:42.05Z</time></trkpt><trkpt lat="44.4584138" lon="11.1346266"><ele>277.5</ele><time>2026-03-29T08:17:43.051Z</time></trkpt><trkpt lat="44.4584853" lon="11.1344745"><ele>280.0</ele><time>2026-03-29T08:17:44.051Z</time></trkpt><trkpt lat="44.4585603" lon="11.1343243"><ele>280.0</ele><time>2026-03-29T08:17:45.051Z</time></trkpt><trkpt lat="44.4587115" lon="11.1340976"><ele>280.0</ele><time>2026-03-29T08:17:47.05Z</time></trkpt><trkpt lat="44.458815" lon="11.1339976"><ele>280.0</ele><time>2026-03-29T08:17:48.051Z</time></trkpt><trkpt lat="44.4589029" lon="11.1339187"><ele>276.6</ele><time>2026-03-29T08:17:49.051Z</time></trkpt><trkpt lat="44.4589865" lon="11.1338347"><ele>273.2</ele><time>2026-03-29T08:17:50.05Z</time></trkpt><trkpt lat="44.4590679" lon="11.1337588"><ele>269.8</ele><time>2026-03-29T08:17:51.05Z</time></trkpt><trkpt lat="44.4591405" lon="11.1336561"><ele>266.4</ele><time>2026-03-29T08:17:52.051Z</time></trkpt><trkpt lat="44.4592006" lon="11.1335339"><ele>263.0</ele><time>2026-03-29T08:17:53.051Z</time></trkpt><trkpt lat="44.4592353" lon="11.1334012"><ele>263.0</ele><time>2026-03-29T08:17:54.051Z</time></trkpt><trkpt lat="44.4592299" lon="11.1332486"><ele>263.0</ele><time>2026-03-29T08:17:55.051Z</time></trkpt><trkpt lat="44.4592147" lon="11.1330497"><ele>263.0</ele><time>2026-03-29T08:17:56.051Z</time></trkpt><trkpt lat="44.4591958" lon="11.1328372"><ele>263.0</ele><time>2026-03-29T08:17:57.05Z</time></trkpt><trkpt lat="44.4591655" lon="11.1326344"><ele>260.0</ele><time>2026-03-29T08:17:58.05Z</time></trkpt><trkpt lat="44.4591321" lon="11.1324582"><ele>257.0</ele><time>2026-03-29T08:17:59.05Z</time></trkpt><trkpt lat="44.4590918" lon="11.1322875"><ele>254.0</ele><time>2026-03-29T08:18:00.05Z</time></trkpt><trkpt lat="44.4590595" lon="11.1321262"><ele>251.0</ele><time>2026-03-29T08:18:01.05Z</time></trkpt><trkpt lat="44.459037" lon="11.131969"><ele>249.5</ele><time>2026-03-29T08:18:02.051Z</time></trkpt><trkpt lat="44.4590266" lon="11.131755"><ele>248.0</ele><time>2026-03-29T08:18:03.051Z</time></trkpt><trkpt lat="44.4590196" lon="11.1315846"><ele>246.5</ele><time>2026-03-29T08:18:04.051Z</time></trkpt><trkpt lat="44.4590304" lon="11.1314487"><ele>245.0</ele><time>2026-03-29T08:18:05.05Z</time></trkpt><trkpt lat="44.4590437" lon="11.1312948"><ele>245.0</ele><time>2026-03-29T08:18:06.05Z</time></trkpt><trkpt lat="44.4590879" lon="11.1311482"><ele>245.0</ele><time>2026-03-29T08:18:07.051Z</time></trkpt><trkpt lat="44.459125" lon="11.13098"><ele>245.0</ele><time>2026-03-29T08:18:08.05Z</time></trkpt><trkpt lat="44.4591698" lon="11.1308242"><ele>245.0</ele><time>2026-03-29T08:18:09.051Z</time></trkpt><trkpt lat="44.4592124" lon="11.1306461"><ele>244.5</ele><time>2026-03-29T08:18:10.051Z</time></trkpt><trkpt lat="44.4592629" lon="11.1304699"><ele>244.0</ele><time>2026-03-29T08:18:11.051Z</time></trkpt><trkpt lat="44.4593044" lon="11.1302945"><ele>243.5</ele><time>2026-03-29T08:18:12.05Z</time></trkpt><trkpt lat="44.4593439" lon="11.1301135"><ele>243.0</ele><time>2026-03-29T08:18:13.05Z</time></trkpt><trkpt lat="44.4593838" lon="11.1299293"><ele>242.25</ele><time>2026-03-29T08:18:14.051Z</time></trkpt><trkpt lat="44.4594139" lon="11.1297399"><ele>241.5</ele><time>2026-03-29T08:18:15.051Z</time></trkpt><trkpt lat="44.4594409" lon="11.129572"><ele>240.75</ele><time>2026-03-29T08:18:16.05Z</time></trkpt><trkpt lat="44.4594654" lon="11.1294022"><ele>240.0</ele><time>2026-03-29T08:18:17.05Z</time></trkpt><trkpt lat="44.4594814" lon="11.1292353"><ele>238.5</ele><time>2026-03-29T08:18:18.051Z</time></trkpt><trkpt lat="44.4594683" lon="11.1290436"><ele>237.0</ele><time>2026-03-29T08:18:19.051Z</time></trkpt><trkpt lat="44.4594665" lon="11.1288671"><ele>235.5</ele><time>2026-03-29T08:18:20.05Z</time></trkpt><trkpt lat="44.4594723" lon="11.1287104"><ele>234.0</ele><time>2026-03-29T08:18:21.05Z</time></trkpt><trkpt lat="44.4594883" lon="11.1285858"><ele>234.0</ele><time>2026-03-29T08:18:22.051Z</time></trkpt><trkpt lat="44.4595162" lon="11.1284364"><ele>233.99999999999997</ele><time>2026-03-29T08:18:23.051Z</time></trkpt><trkpt lat="44.459564" lon="11.1283016"><ele>233.99999999999997</ele><time>2026-03-29T08:18:24.051Z</time></trkpt><trkpt lat="44.4596001" lon="11.128161"><ele>234.0</ele><time>2026-03-29T08:18:25.051Z</time></trkpt><trkpt lat="44.4596245" lon="11.1280516"><ele>234.0</ele><time>2026-03-29T08:18:26.051Z</time></trkpt><trkpt lat="44.4596339" lon="11.1279451"><ele>233.6</ele><time>2026-03-29T08:18:27.05Z</time></trkpt><trkpt lat="44.4596103" lon="11.1278197"><ele>233.2</ele><time>2026-03-29T08:18:28.05Z</time></trkpt><trkpt lat="44.4595865" lon="11.1276689"><ele>232.79999999999998</ele><time>2026-03-29T08:18:29.051Z</time></trkpt><trkpt lat="44.4595639" lon="11.1275458"><ele>232.39999999999998</ele><time>2026-03-29T08:18:30.051Z</time></trkpt><trkpt lat="44.4595319" lon="11.1274233"><ele>232.0</ele><time>2026-03-29T08:18:31.051Z</time></trkpt><trkpt lat="44.4595256" lon="11.1273163"><ele>230.83333333333331</ele><time>2026-03-29T08:18:32.051Z</time></trkpt><trkpt lat="44.4595097" lon="11.1271936"><ele>229.66666666666666</ele><time>2026-03-29T08:18:33.051Z</time></trkpt><trkpt lat="44.4595287" lon="11.127103"><ele>228.5</ele><time>2026-03-29T08:18:34.05Z</time></trkpt><trkpt lat="44.4595498" lon="11.1269933"><ele>227.33333333333331</ele><time>2026-03-29T08:18:35.051Z</time></trkpt><trkpt lat="44.4595727" lon="11.126896"><ele>226.16666666666666</ele><time>2026-03-29T08:18:36.05Z</time></trkpt><trkpt lat="44.4595865" lon="11.1267767"><ele>225.0</ele><time>2026-03-29T08:18:37.05Z</time></trkpt><trkpt lat="44.4595838" lon="11.1266554"><ele>224.0</ele><time>2026-03-29T08:18:38.051Z</time></trkpt><trkpt lat="44.4595701" lon="11.1265451"><ele>223.0</ele><time>2026-03-29T08:18:39.05Z</time></trkpt><trkpt lat="44.4595473" lon="11.1264594"><ele>222.0</ele><time>2026-03-29T08:18:40.051Z</time></trkpt><trkpt lat="44.4595436" lon="11.1263606"><ele>221.0</ele><time>2026-03-29T08:18:42.05Z</time></trkpt><trkpt lat="44.4595938" lon="11.1262765"><ele>220.0</ele><time>2026-03-29T08:18:44.05Z</time></trkpt><trkpt lat="44.4596417" lon="11.1261973"><ele>219.0</ele><time>2026-03-29T08:18:45.051Z</time></trkpt><trkpt lat="44.4597076" lon="11.1260888"><ele>219.0</ele><time>2026-03-29T08:18:46.051Z</time></trkpt><trkpt lat="44.4597814" lon="11.1259652"><ele>219.0</ele><time>2026-03-29T08:18:47.051Z</time></trkpt><trkpt lat="44.4598573" lon="11.1258407"><ele>219.0</ele><time>2026-03-29T08:18:48.051Z</time></trkpt><trkpt lat="44.4599291" lon="11.1257099"><ele>219.0</ele><time>2026-03-29T08:18:49.051Z</time></trkpt><trkpt lat="44.4600036" lon="11.1255855"><ele>215.5</ele><time>2026-03-29T08:18:50.051Z</time></trkpt><trkpt lat="44.4600807" lon="11.125452"><ele>212.0</ele><time>2026-03-29T08:18:51.051Z</time></trkpt><trkpt lat="44.4601542" lon="11.1253274"><ele>208.5</ele><time>2026-03-29T08:18:52.05Z</time></trkpt><trkpt lat="44.4602273" lon="11.1251984"><ele>205.0</ele><time>2026-03-29T08:18:53.051Z</time></trkpt><trkpt lat="44.4602952" lon="11.1250714"><ele>205.0</ele><time>2026-03-29T08:18:54.051Z</time></trkpt><trkpt lat="44.4603694" lon="11.1249501"><ele>205.0</ele><time>2026-03-29T08:18:55.05Z</time></trkpt><trkpt lat="44.4604459" lon="11.1248198"><ele>205.0</ele><time>2026-03-29T08:18:56.051Z</time></trkpt><trkpt lat="44.460521" lon="11.1246859"><ele>205.0</ele><time>2026-03-29T08:18:57.05Z</time></trkpt><trkpt lat="44.4605952" lon="11.1245546"><ele>202.5</ele><time>2026-03-29T08:18:58.05Z</time></trkpt><trkpt lat="44.4606778" lon="11.1244111"><ele>200.0</ele><time>2026-03-29T08:18:59.051Z</time></trkpt><trkpt lat="44.4607589" lon="11.1242846"><ele>197.5</ele><time>2026-03-29T08:19:00.051Z</time></trkpt><trkpt lat="44.4608325" lon="11.1241631"><ele>195.0</ele><time>2026-03-29T08:19:01.051Z</time></trkpt><trkpt lat="44.4608941" lon="11.1240534"><ele>193.0</ele><time>2026-03-29T08:19:02.05Z</time></trkpt><trkpt lat="44.4609345" lon="11.1239637"><ele>191.0</ele><time>2026-03-29T08:19:03.051Z</time></trkpt><trkpt lat="44.4609365" lon="11.123828"><ele>189.0</ele><time>2026-03-29T08:19:05.05Z</time></trkpt><trkpt lat="44.4608197" lon="11.1237454"><ele>187.0</ele><time>2026-03-29T08:19:07.05Z</time></trkpt><trkpt lat="44.4607503" lon="11.1237187"><ele>185.0</ele><time>2026-03-29T08:19:08.051Z</time></trkpt><trkpt lat="44.4606834" lon="11.1236948"><ele>183.0</ele><time>2026-03-29T08:19:09.051Z</time></trkpt><trkpt lat="44.4606336" lon="11.1235559"><ele>183.0</ele><time>2026-03-29T08:19:11.051Z</time></trkpt><trkpt lat="44.4606367" lon="11.1234314"><ele>183.0</ele><time>2026-03-29T08:19:12.051Z</time></trkpt><trkpt lat="44.4606472" lon="11.1233094"><ele>183.0</ele><time>2026-03-29T08:19:13.051Z</time></trkpt><trkpt lat="44.4606563" lon="11.1231787"><ele>183.0</ele><time>2026-03-29T08:19:14.05Z</time></trkpt><trkpt lat="44.4606753" lon="11.1230537"><ele>183.0</ele><time>2026-03-29T08:19:15.051Z</time></trkpt><trkpt lat="44.4607167" lon="11.1229507"><ele>183.0</ele><time>2026-03-29T08:19:16.051Z</time></trkpt><trkpt lat="44.4607593" lon="11.1228502"><ele>179.60000000000002</ele><time>2026-03-29T08:19:17.051Z</time></trkpt><trkpt lat="44.4608416" lon="11.1227852"><ele>176.20000000000002</ele><time>2026-03-29T08:19:18.05Z</time></trkpt><trkpt lat="44.4609122" lon="11.1227153"><ele>172.8</ele><time>2026-03-29T08:19:19.05Z</time></trkpt><trkpt lat="44.4609884" lon="11.1226524"><ele>169.4</ele><time>2026-03-29T08:19:20.051Z</time></trkpt><trkpt lat="44.4610694" lon="11.1225857"><ele>166.0</ele><time>2026-03-29T08:19:21.051Z</time></trkpt><trkpt lat="44.4611465" lon="11.1225201"><ele>166.0</ele><time>2026-03-29T08:19:22.051Z</time></trkpt><trkpt lat="44.4612204" lon="11.1224511"><ele>166.0</ele><time>2026-03-29T08:19:23.051Z</time></trkpt><trkpt lat="44.4613148" lon="11.1223948"><ele>166.0</ele><time>2026-03-29T08:19:24.05Z</time></trkpt><trkpt lat="44.4613975" lon="11.1223357"><ele>166.0</ele><time>2026-03-29T08:19:25.051Z</time></trkpt><trkpt lat="44.4614704" lon="11.1222708"><ele>166.0</ele><time>2026-03-29T08:19:26.051Z</time></trkpt><trkpt lat="44.4615561" lon="11.1222196"><ele>163.16666666666669</ele><time>2026-03-29T08:19:27.051Z</time></trkpt><trkpt lat="44.4616361" lon="11.1221656"><ele>160.33333333333334</ele><time>2026-03-29T08:19:28.051Z</time></trkpt><trkpt lat="44.4617127" lon="11.1221156"><ele>157.5</ele><time>2026-03-29T08:19:29.051Z</time></trkpt><trkpt lat="44.4617853" lon="11.122055"><ele>154.66666666666666</ele><time>2026-03-29T08:19:30.05Z</time></trkpt><trkpt lat="44.4618572" lon="11.1220192"><ele>151.83333333333331</ele><time>2026-03-29T08:19:31.05Z</time></trkpt><trkpt lat="44.4619328" lon="11.121972"><ele>149.0</ele><time>2026-03-29T08:19:32.051Z</time></trkpt><trkpt lat="44.4620062" lon="11.1219278"><ele>149.0</ele><time>2026-03-29T08:19:33.051Z</time></trkpt><trkpt lat="44.4620756" lon="11.1218828"><ele>149.0</ele><time>2026-03-29T08:19:34.051Z</time></trkpt><trkpt lat="44.4621319" lon="11.1218369"><ele>149.0</ele><time>2026-03-29T08:19:35.05Z</time></trkpt><trkpt lat="44.462188" lon="11.1217811"><ele>149.0</ele><time>2026-03-29T08:19:36.051Z</time></trkpt><trkpt lat="44.4622218" lon="11.1216913"><ele>149.0</ele><time>2026-03-29T08:19:37.05Z</time></trkpt><trkpt lat="44.4622753" lon="11.1215561"><ele>149.0</ele><time>2026-03-29T08:19:39.05Z</time></trkpt><trkpt lat="44.4623262" lon="11.1214772"><ele>146.2</ele><time>2026-03-29T08:19:42.051Z</time></trkpt><trkpt lat="44.4623461" lon="11.1213692"><ele>143.4</ele><time>2026-03-29T08:22:26.051Z</time></trkpt><trkpt lat="44.4624741" lon="11.1213823"><ele>140.6</ele><time>2026-03-29T08:22:30.051Z</time></trkpt><trkpt lat="44.4625645" lon="11.1213953"><ele>137.8</ele><time>2026-03-29T08:22:31.051Z</time></trkpt><trkpt lat="44.4626542" lon="11.1214152"><ele>135.0</ele><time>2026-03-29T08:22:32.051Z</time></trkpt><trkpt lat="44.4627616" lon="11.1213949"><ele>135.0</ele><time>2026-03-29T08:22:33.05Z</time></trkpt><trkpt lat="44.4628678" lon="11.1213707"><ele>135.0</ele><time>2026-03-29T08:22:34.05Z</time></trkpt><trkpt lat="44.462974" lon="11.1213517"><ele>135.0</ele><time>2026-03-29T08:22:35.051Z</time></trkpt><trkpt lat="44.4630712" lon="11.1213171"><ele>135.0</ele><time>2026-03-29T08:22:36.051Z</time></trkpt><trkpt lat="44.4631679" lon="11.1212815"><ele>135.0</ele><time>2026-03-29T08:22:37.051Z</time></trkpt><trkpt lat="44.4632619" lon="11.1212418"><ele>135.0</ele><time>2026-03-29T08:22:38.051Z</time></trkpt><trkpt lat="44.4633516" lon="11.1212078"><ele>135.0</ele><time>2026-03-29T08:22:39.05Z</time></trkpt><trkpt lat="44.4634461" lon="11.1211752"><ele>135.0</ele><time>2026-03-29T08:22:40.051Z</time></trkpt><trkpt lat="44.4635465" lon="11.1211416"><ele>135.0</ele><time>2026-03-29T08:22:41.05Z</time></trkpt><trkpt lat="44.4636531" lon="11.1211369"><ele>135.0</ele><time>2026-03-29T08:22:42.051Z</time></trkpt><trkpt lat="44.4637633" lon="11.1211497"><ele>134.0</ele><time>2026-03-29T08:22:43.051Z</time></trkpt><trkpt lat="44.4638765" lon="11.121173"><ele>133.0</ele><time>2026-03-29T08:22:44.05Z</time></trkpt><trkpt lat="44.4639935" lon="11.1212091"><ele>132.0</ele><time>2026-03-29T08:22:45.051Z</time></trkpt><trkpt lat="44.4641164" lon="11.1212481"><ele>131.0</ele><time>2026-03-29T08:22:46.05Z</time></trkpt><trkpt lat="44.4642351" lon="11.1212808"><ele>131.0</ele><time>2026-03-29T08:22:47.05Z</time></trkpt><trkpt lat="44.4643497" lon="11.1213139"><ele>131.0</ele><time>2026-03-29T08:22:48.051Z</time></trkpt><trkpt lat="44.4644545" lon="11.1213444"><ele>131.0</ele><time>2026-03-29T08:22:49.051Z</time></trkpt><trkpt lat="44.4645562" lon="11.1213762"><ele>131.0</ele><time>2026-03-29T08:22:50.05Z</time></trkpt><trkpt lat="44.4646573" lon="11.1214047"><ele>131.0</ele><time>2026-03-29T08:22:51.05Z</time></trkpt><trkpt lat="44.4647603" lon="11.1214317"><ele>131.0</ele><time>2026-03-29T08:22:52.051Z</time></trkpt><trkpt lat="44.4648632" lon="11.1214593"><ele>131.0</ele><time>2026-03-29T08:22:53.051Z</time></trkpt><trkpt lat="44.4649713" lon="11.1214883"><ele>131.0</ele><time>2026-03-29T08:22:54.051Z</time></trkpt><trkpt lat="44.4650856" lon="11.1215215"><ele>131.0</ele><time>2026-03-29T08:22:55.051Z</time></trkpt><trkpt lat="44.4652038" lon="11.1215546"><ele>132.66666666666666</ele><time>2026-03-29T08:22:56.051Z</time></trkpt><trkpt lat="44.465442" lon="11.12163"><ele>134.33333333333334</ele><time>2026-03-29T08:22:58.05Z</time></trkpt><trkpt lat="44.465565" lon="11.121661"><ele>136.0</ele><time>2026-03-29T08:22:59.05Z</time></trkpt><trkpt lat="44.4656842" lon="11.121691"><ele>136.5</ele><time>2026-03-29T08:23:00.051Z</time></trkpt><trkpt lat="44.4658051" lon="11.1217131"><ele>137.0</ele><time>2026-03-29T08:23:01.05Z</time></trkpt><trkpt lat="44.4659268" lon="11.1217178"><ele>137.5</ele><time>2026-03-29T08:23:02.051Z</time></trkpt><trkpt lat="44.4660473" lon="11.1217089"><ele>138.0</ele><time>2026-03-29T08:23:03.051Z</time></trkpt><trkpt lat="44.4661701" lon="11.1216926"><ele>138.0</ele><time>2026-03-29T08:23:04.05Z</time></trkpt><trkpt lat="44.4662911" lon="11.1216733"><ele>138.0</ele><time>2026-03-29T08:23:05.05Z</time></trkpt><trkpt lat="44.4665281" lon="11.1216352"><ele>138.0</ele><time>2026-03-29T08:23:07.051Z</time></trkpt><trkpt lat="44.466647" lon="11.1216177"><ele>138.0</ele><time>2026-03-29T08:23:08.05Z</time></trkpt><trkpt lat="44.4667643" lon="11.1215971"><ele>138.0</ele><time>2026-03-29T08:23:09.051Z</time></trkpt><trkpt lat="44.4668814" lon="11.1215874"><ele>138.0</ele><time>2026-03-29T08:23:10.05Z</time></trkpt><trkpt lat="44.4669904" lon="11.1215589"><ele>138.0</ele><time>2026-03-29T08:23:11.051Z</time></trkpt><trkpt lat="44.4670921" lon="11.1214875"><ele>136.5</ele><time>2026-03-29T08:23:12.051Z</time></trkpt><trkpt lat="44.467174" lon="11.1213742"><ele>135.0</ele><time>2026-03-29T08:23:13.05Z</time></trkpt><trkpt lat="44.4672321" lon="11.1212253"><ele>133.5</ele><time>2026-03-29T08:23:14.05Z</time></trkpt><trkpt lat="44.4672673" lon="11.1210495"><ele>132.0</ele><time>2026-03-29T08:23:15.051Z</time></trkpt><trkpt lat="44.4672925" lon="11.1208656"><ele>131.5</ele><time>2026-03-29T08:23:16.05Z</time></trkpt><trkpt lat="44.4673193" lon="11.1206791"><ele>131.0</ele><time>2026-03-29T08:23:17.051Z</time></trkpt><trkpt lat="44.4673462" lon="11.1204921"><ele>130.5</ele><time>2026-03-29T08:23:18.05Z</time></trkpt><trkpt lat="44.4673737" lon="11.1203006"><ele>130.0</ele><time>2026-03-29T08:23:19.05Z</time></trkpt><trkpt lat="44.4674015" lon="11.1201137"><ele>130.0</ele><time>2026-03-29T08:23:20.05Z</time></trkpt><trkpt lat="44.4674253" lon="11.1199341"><ele>130.0</ele><time>2026-03-29T08:23:21.05Z</time></trkpt><trkpt lat="44.4674493" lon="11.1197608"><ele>130.0</ele><time>2026-03-29T08:23:22.051Z</time></trkpt><trkpt lat="44.4674736" lon="11.119591"><ele>130.0</ele><time>2026-03-29T08:23:23.051Z</time></trkpt><trkpt lat="44.4674982" lon="11.1194273"><ele>129.6</ele><time>2026-03-29T08:23:24.05Z</time></trkpt><trkpt lat="44.4675201" lon="11.119269"><ele>129.2</ele><time>2026-03-29T08:23:25.051Z</time></trkpt><trkpt lat="44.4675426" lon="11.1191161"><ele>128.8</ele><time>2026-03-29T08:23:26.051Z</time></trkpt><trkpt lat="44.4675657" lon="11.1189683"><ele>128.4</ele><time>2026-03-29T08:23:27.051Z</time></trkpt><trkpt lat="44.4675965" lon="11.1188311"><ele>128.0</ele><time>2026-03-29T08:23:28.05Z</time></trkpt><trkpt lat="44.4676394" lon="11.1187089"><ele>127.75</ele><time>2026-03-29T08:23:29.051Z</time></trkpt><trkpt lat="44.4677128" lon="11.1185972"><ele>127.5</ele><time>2026-03-29T08:23:30.05Z</time></trkpt><trkpt lat="44.4678117" lon="11.1185098"><ele>127.25</ele><time>2026-03-29T08:23:31.051Z</time></trkpt><trkpt lat="44.4679261" lon="11.118457"><ele>127.0</ele><time>2026-03-29T08:23:32.05Z</time></trkpt><trkpt lat="44.4680675" lon="11.1184326"><ele>127.0</ele><time>2026-03-29T08:23:33.051Z</time></trkpt><trkpt lat="44.468201" lon="11.1184035"><ele>126.99999999999999</ele><time>2026-03-29T08:23:34.051Z</time></trkpt><trkpt lat="44.4683155" lon="11.1183826"><ele>126.99999999999999</ele><time>2026-03-29T08:23:35.051Z</time></trkpt><trkpt lat="44.4684135" lon="11.1183635"><ele>127.0</ele><time>2026-03-29T08:23:36.051Z</time></trkpt><trkpt lat="44.4684992" lon="11.1183445"><ele>127.0</ele><time>2026-03-29T08:23:37.051Z</time></trkpt><trkpt lat="44.468572" lon="11.1183299"><ele>127.00000000000001</ele><time>2026-03-29T08:23:38.051Z</time></trkpt><trkpt lat="44.4686585" lon="11.1182534"><ele>127.0</ele><time>2026-03-29T08:23:40.05Z</time></trkpt><trkpt lat="44.4686587" lon="11.1181561"><ele>127.0</ele><time>2026-03-29T08:23:41.051Z</time></trkpt><trkpt lat="44.4686438" lon="11.1180301"><ele>127.0</ele><time>2026-03-29T08:23:42.051Z</time></trkpt><trkpt lat="44.4686394" lon="11.1179099"><ele>127.00000000000001</ele><time>2026-03-29T08:23:43.051Z</time></trkpt><trkpt lat="44.4686302" lon="11.1177961"><ele>127.0</ele><time>2026-03-29T08:23:44.05Z</time></trkpt><trkpt lat="44.4686149" lon="11.1176922"><ele>127.0</ele><time>2026-03-29T08:23:45.05Z</time></trkpt><trkpt lat="44.4685833" lon="11.1176019"><ele>126.99999999999999</ele><time>2026-03-29T08:23:46.051Z</time></trkpt><trkpt lat="44.468532" lon="11.1175057"><ele>126.99999999999999</ele><time>2026-03-29T08:23:47.05Z</time></trkpt><trkpt lat="44.4684699" lon="11.117397"><ele>127.0</ele><time>2026-03-29T08:23:48.051Z</time></trkpt><trkpt lat="44.4684078" lon="11.1172724"><ele>127.0</ele><time>2026-03-29T08:23:49.051Z</time></trkpt><trkpt lat="44.468348" lon="11.1171309"><ele>127.0</ele><time>2026-03-29T08:23:50.051Z</time></trkpt><trkpt lat="44.4682984" lon="11.1169831"><ele>127.0</ele><time>2026-03-29T08:23:51.051Z</time></trkpt><trkpt lat="44.4682489" lon="11.1168348"><ele>127.0</ele><time>2026-03-29T08:23:52.051Z</time></trkpt><trkpt lat="44.4682026" lon="11.1166902"><ele>127.0</ele><time>2026-03-29T08:23:53.05Z</time></trkpt><trkpt lat="44.4681544" lon="11.116548"><ele>127.25</ele><time>2026-03-29T08:23:54.051Z</time></trkpt><trkpt lat="44.4681044" lon="11.1164026"><ele>127.5</ele><time>2026-03-29T08:23:55.051Z</time></trkpt><trkpt lat="44.4680553" lon="11.1162625"><ele>127.75</ele><time>2026-03-29T08:23:56.051Z</time></trkpt><trkpt lat="44.4680128" lon="11.1161162"><ele>128.0</ele><time>2026-03-29T08:23:57.051Z</time></trkpt><trkpt lat="44.4679859" lon="11.1159632"><ele>128.0</ele><time>2026-03-29T08:23:58.051Z</time></trkpt><trkpt lat="44.4679852" lon="11.1158131"><ele>128.0</ele><time>2026-03-29T08:23:59.051Z</time></trkpt><trkpt lat="44.4680099" lon="11.1156612"><ele>128.0</ele><time>2026-03-29T08:24:00.05Z</time></trkpt><trkpt lat="44.4680589" lon="11.1155071"><ele>128.0</ele><time>2026-03-29T08:24:01.05Z</time></trkpt><trkpt lat="44.4681244" lon="11.1153546"><ele>129.25</ele><time>2026-03-29T08:24:02.05Z</time></trkpt><trkpt lat="44.4681762" lon="11.1152008"><ele>130.5</ele><time>2026-03-29T08:24:03.051Z</time></trkpt><trkpt lat="44.4682129" lon="11.1150418"><ele>131.75</ele><time>2026-03-29T08:24:04.051Z</time></trkpt><trkpt lat="44.4682318" lon="11.1148882"><ele>133.0</ele><time>2026-03-29T08:24:05.05Z</time></trkpt><trkpt lat="44.4682246" lon="11.114735"><ele>133.4</ele><time>2026-03-29T08:24:06.051Z</time></trkpt><trkpt lat="44.4682072" lon="11.1145841"><ele>133.8</ele><time>2026-03-29T08:24:07.051Z</time></trkpt><trkpt lat="44.4681714" lon="11.1144518"><ele>134.2</ele><time>2026-03-29T08:24:08.051Z</time></trkpt><trkpt lat="44.4681203" lon="11.1143531"><ele>134.6</ele><time>2026-03-29T08:24:09.051Z</time></trkpt><trkpt lat="44.4680416" lon="11.1142898"><ele>135.0</ele><time>2026-03-29T08:24:10.05Z</time></trkpt><trkpt lat="44.4679456" lon="11.1142685"><ele>135.6</ele><time>2026-03-29T08:24:11.051Z</time></trkpt><trkpt lat="44.4678471" lon="11.1142695"><ele>136.2</ele><time>2026-03-29T08:24:12.051Z</time></trkpt><trkpt lat="44.4677493" lon="11.1142361"><ele>136.8</ele><time>2026-03-29T08:24:13.05Z</time></trkpt><trkpt lat="44.4676614" lon="11.1141523"><ele>137.4</ele><time>2026-03-29T08:24:14.051Z</time></trkpt><trkpt lat="44.467585" lon="11.1140239"><ele>138.0</ele><time>2026-03-29T08:24:15.051Z</time></trkpt><trkpt lat="44.4675137" lon="11.1138716"><ele>138.0</ele><time>2026-03-29T08:24:16.05Z</time></trkpt><trkpt lat="44.4674447" lon="11.1137288"><ele>138.0</ele><time>2026-03-29T08:24:17.051Z</time></trkpt><trkpt lat="44.4673809" lon="11.1135968"><ele>138.0</ele><time>2026-03-29T08:24:18.05Z</time></trkpt><trkpt lat="44.4673259" lon="11.1134698"><ele>138.0</ele><time>2026-03-29T08:24:19.05Z</time></trkpt><trkpt lat="44.4672681" lon="11.1133436"><ele>138.0</ele><time>2026-03-29T08:24:20.05Z</time></trkpt><trkpt lat="44.4672092" lon="11.1132263"><ele>138.0</ele><time>2026-03-29T08:24:21.051Z</time></trkpt><trkpt lat="44.4671538" lon="11.1131024"><ele>138.0</ele><time>2026-03-29T08:24:22.05Z</time></trkpt><trkpt lat="44.4671041" lon="11.1129714"><ele>138.0</ele><time>2026-03-29T08:24:23.05Z</time></trkpt><trkpt lat="44.4670444" lon="11.1128486"><ele>138.0</ele><time>2026-03-29T08:24:24.05Z</time></trkpt><trkpt lat="44.466983" lon="11.1127239"><ele>138.20000000000002</ele><time>2026-03-29T08:24:25.05Z</time></trkpt><trkpt lat="44.4669256" lon="11.1126001"><ele>138.4</ele><time>2026-03-29T08:24:26.051Z</time></trkpt><trkpt lat="44.4668673" lon="11.1124799"><ele>138.60000000000002</ele><time>2026-03-29T08:24:27.051Z</time></trkpt><trkpt lat="44.4668063" lon="11.1123492"><ele>138.8</ele><time>2026-03-29T08:24:28.051Z</time></trkpt><trkpt lat="44.4667469" lon="11.1122146"><ele>139.0</ele><time>2026-03-29T08:24:29.051Z</time></trkpt><trkpt lat="44.4666878" lon="11.112093"><ele>139.16666666666669</ele><time>2026-03-29T08:24:30.051Z</time></trkpt><trkpt lat="44.4666389" lon="11.1119848"><ele>139.33333333333334</ele><time>2026-03-29T08:24:31.05Z</time></trkpt><trkpt lat="44.4665975" lon="11.1118887"><ele>139.5</ele><time>2026-03-29T08:24:32.05Z</time></trkpt><trkpt lat="44.4665675" lon="11.1118072"><ele>139.66666666666666</ele><time>2026-03-29T08:24:33.051Z</time></trkpt><trkpt lat="44.4665316" lon="11.1117039"><ele>139.83333333333331</ele><time>2026-03-29T08:24:35.051Z</time></trkpt><trkpt lat="44.4664303" lon="11.1116955"><ele>140.0</ele><time>2026-03-29T08:25:40.051Z</time></trkpt><trkpt lat="44.4663566" lon="11.1117765"><ele>141.2</ele><time>2026-03-29T08:25:41.051Z</time></trkpt><trkpt lat="44.4662645" lon="11.1118551"><ele>142.4</ele><time>2026-03-29T08:25:42.051Z</time></trkpt><trkpt lat="44.4661646" lon="11.1119337"><ele>143.6</ele><time>2026-03-29T08:25:43.051Z</time></trkpt><trkpt lat="44.4660655" lon="11.1120078"><ele>144.8</ele><time>2026-03-29T08:25:44.051Z</time></trkpt><trkpt lat="44.4659797" lon="11.1120679"><ele>146.0</ele><time>2026-03-29T08:25:45.051Z</time></trkpt><trkpt lat="44.465908" lon="11.1121141"><ele>146.0</ele><time>2026-03-29T08:25:46.05Z</time></trkpt><trkpt lat="44.4658519" lon="11.1121572"><ele>146.0</ele><time>2026-03-29T08:25:47.051Z</time></trkpt><trkpt lat="44.4657669" lon="11.1122302"><ele>146.0</ele><time>2026-03-29T08:25:49.051Z</time></trkpt><trkpt lat="44.4657128" lon="11.1122937"><ele>146.0</ele><time>2026-03-29T08:26:06.051Z</time></trkpt><trkpt lat="44.465649" lon="11.1123548"><ele>146.0</ele><time>2026-03-29T08:26:08.051Z</time></trkpt><trkpt lat="44.4655863" lon="11.1124184"><ele>146.0</ele><time>2026-03-29T08:26:09.051Z</time></trkpt><trkpt lat="44.4654904" lon="11.1125188"><ele>146.0</ele><time>2026-03-29T08:26:10.051Z</time></trkpt><trkpt lat="44.4653861" lon="11.1126227"><ele>146.0</ele><time>2026-03-29T08:26:11.05Z</time></trkpt><trkpt lat="44.4653002" lon="11.1127137"><ele>146.0</ele><time>2026-03-29T08:26:12.051Z</time></trkpt><trkpt lat="44.4652134" lon="11.1128049"><ele>146.0</ele><time>2026-03-29T08:26:13.05Z</time></trkpt><trkpt lat="44.4651359" lon="11.1128816"><ele>146.0</ele><time>2026-03-29T08:26:14.051Z</time></trkpt><trkpt lat="44.4650692" lon="11.1129525"><ele>146.0</ele><time>2026-03-29T08:26:15.051Z</time></trkpt><trkpt lat="44.4650076" lon="11.1130112"><ele>146.0</ele><time>2026-03-29T08:26:16.051Z</time></trkpt><trkpt lat="44.4649188" lon="11.113115"><ele>146.0</ele><time>2026-03-29T08:26:18.051Z</time></trkpt><trkpt lat="44.4648436" lon="11.1131916"><ele>146.0</ele><time>2026-03-29T08:26:20.051Z</time></trkpt><trkpt lat="44.4647799" lon="11.1132558"><ele>146.0</ele><time>2026-03-29T08:26:22.051Z</time></trkpt><trkpt lat="44.4646928" lon="11.1133382"><ele>145.6</ele><time>2026-03-29T08:26:24.051Z</time></trkpt><trkpt lat="44.4646275" lon="11.113415"><ele>145.2</ele><time>2026-03-29T08:26:25.051Z</time></trkpt><trkpt lat="44.464546" lon="11.1135092"><ele>144.8</ele><time>2026-03-29T08:26:26.05Z</time></trkpt><trkpt lat="44.4644681" lon="11.1136016"><ele>144.4</ele><time>2026-03-29T08:26:27.051Z</time></trkpt><trkpt lat="44.4644026" lon="11.1136897"><ele>144.0</ele><time>2026-03-29T08:26:28.05Z</time></trkpt><trkpt lat="44.4643425" lon="11.1137606"><ele>144.0</ele><time>2026-03-29T08:26:29.05Z</time></trkpt><trkpt lat="44.4642872" lon="11.113832"><ele>144.0</ele><time>2026-03-29T08:26:30.051Z</time></trkpt><trkpt lat="44.4642389" lon="11.1138896"><ele>144.0</ele><time>2026-03-29T08:26:31.051Z</time></trkpt><trkpt lat="44.464094" lon="11.1140778"><ele>144.0</ele><time>2026-03-29T08:26:34.051Z</time></trkpt><trkpt lat="44.4640267" lon="11.1141761"><ele>144.0</ele><time>2026-03-29T08:26:35.051Z</time></trkpt><trkpt lat="44.4639395" lon="11.1142949"><ele>143.6</ele><time>2026-03-29T08:26:36.051Z</time></trkpt><trkpt lat="44.4638563" lon="11.1144133"><ele>143.2</ele><time>2026-03-29T08:26:37.05Z</time></trkpt><trkpt lat="44.4637865" lon="11.1145058"><ele>142.79999999999998</ele><time>2026-03-29T08:26:38.05Z</time></trkpt><trkpt lat="44.4637287" lon="11.1145872"><ele>142.4</ele><time>2026-03-29T08:26:39.051Z</time></trkpt><trkpt lat="44.4636729" lon="11.1146498"><ele>142.0</ele><time>2026-03-29T08:26:40.05Z</time></trkpt><trkpt lat="44.4635854" lon="11.1146509"><ele>141.75</ele><time>2026-03-29T08:26:42.05Z</time></trkpt><trkpt lat="44.463569" lon="11.1145104"><ele>141.5</ele><time>2026-03-29T08:26:44.05Z</time></trkpt><trkpt lat="44.4635766" lon="11.1143441"><ele>141.25</ele><time>2026-03-29T08:26:45.05Z</time></trkpt><trkpt lat="44.4635919" lon="11.114177"><ele>141.0</ele><time>2026-03-29T08:26:46.051Z</time></trkpt><trkpt lat="44.4636321" lon="11.1139031"><ele>142.25</ele><time>2026-03-29T08:26:47.051Z</time></trkpt><trkpt lat="44.4636575" lon="11.1137225"><ele>143.5</ele><time>2026-03-29T08:26:48.051Z</time></trkpt><trkpt lat="44.4636734" lon="11.1135397"><ele>144.75</ele><time>2026-03-29T08:26:49.051Z</time></trkpt><trkpt lat="44.4636775" lon="11.1133714"><ele>146.0</ele><time>2026-03-29T08:26:50.051Z</time></trkpt><trkpt lat="44.4636745" lon="11.1132311"><ele>146.83333333333331</ele><time>2026-03-29T08:26:51.051Z</time></trkpt><trkpt lat="44.4636687" lon="11.1131019"><ele>147.66666666666666</ele><time>2026-03-29T08:26:52.051Z</time></trkpt><trkpt lat="44.4636562" lon="11.1129925"><ele>148.5</ele><time>2026-03-29T08:26:53.051Z</time></trkpt><trkpt lat="44.4636431" lon="11.1129015"><ele>149.33333333333334</ele><time>2026-03-29T08:26:54.05Z</time></trkpt><trkpt lat="44.4635694" lon="11.1128339"><ele>150.16666666666669</ele><time>2026-03-29T08:26:56.051Z</time></trkpt><trkpt lat="44.4634685" lon="11.1128325"><ele>151.0</ele><time>2026-03-29T08:26:58.051Z</time></trkpt><trkpt lat="44.4633879" lon="11.1128154"><ele>151.0</ele><time>2026-03-29T08:27:01.05Z</time></trkpt><trkpt lat="44.4634876" lon="11.1128496"><ele>151.0</ele><time>2026-03-29T08:27:49.051Z</time></trkpt><trkpt lat="44.4635675" lon="11.1128453"><ele>151.0</ele><time>2026-03-29T08:27:51.051Z</time></trkpt><trkpt lat="44.4636348" lon="11.1127532"><ele>151.0</ele><time>2026-03-29T08:27:55.051Z</time></trkpt><trkpt lat="44.4636102" lon="11.1126345"><ele>151.0</ele><time>2026-03-29T08:27:56.05Z</time></trkpt><trkpt lat="44.463597" lon="11.1124763"><ele>153.25</ele><time>2026-03-29T08:27:57.05Z</time></trkpt><trkpt lat="44.4635886" lon="11.1122972"><ele>155.5</ele><time>2026-03-29T08:27:58.051Z</time></trkpt><trkpt lat="44.463608" lon="11.1120827"><ele>157.75</ele><time>2026-03-29T08:27:59.051Z</time></trkpt><trkpt lat="44.4636459" lon="11.1118632"><ele>160.0</ele><time>2026-03-29T08:28:00.05Z</time></trkpt><trkpt lat="44.4637024" lon="11.1116329"><ele>162.75</ele><time>2026-03-29T08:28:01.051Z</time></trkpt><trkpt lat="44.4637482" lon="11.1114125"><ele>165.5</ele><time>2026-03-29T08:28:02.051Z</time></trkpt><trkpt lat="44.4637955" lon="11.1112103"><ele>168.25</ele><time>2026-03-29T08:28:03.051Z</time></trkpt><trkpt lat="44.4638391" lon="11.1110406"><ele>171.0</ele><time>2026-03-29T08:28:04.051Z</time></trkpt><trkpt lat="44.463863" lon="11.110898"><ele>171.60000000000002</ele><time>2026-03-29T08:28:05.05Z</time></trkpt><trkpt lat="44.4638653" lon="11.1107763"><ele>172.2</ele><time>2026-03-29T08:28:06.051Z</time></trkpt><trkpt lat="44.4638391" lon="11.1106703"><ele>172.8</ele><time>2026-03-29T08:28:07.051Z</time></trkpt><trkpt lat="44.4637892" lon="11.1105815"><ele>173.39999999999998</ele><time>2026-03-29T08:28:08.051Z</time></trkpt><trkpt lat="44.4636932" lon="11.1105377"><ele>174.0</ele><time>2026-03-29T08:28:09.051Z</time></trkpt><trkpt lat="44.4635051" lon="11.1104127"><ele>178.33333333333334</ele><time>2026-03-29T08:28:10.051Z</time></trkpt><trkpt lat="44.4633818" lon="11.1103116"><ele>182.66666666666669</ele><time>2026-03-29T08:28:11.051Z</time></trkpt><trkpt lat="44.4632441" lon="11.1101637"><ele>187.0</ele><time>2026-03-29T08:28:12.051Z</time></trkpt><trkpt lat="44.4631202" lon="11.1100437"><ele>187.0</ele><time>2026-03-29T08:28:13.05Z</time></trkpt><trkpt lat="44.4629935" lon="11.1099174"><ele>187.0</ele><time>2026-03-29T08:28:14.051Z</time></trkpt><trkpt lat="44.4628836" lon="11.1098054"><ele>187.0</ele><time>2026-03-29T08:28:15.051Z</time></trkpt><trkpt lat="44.4627747" lon="11.1096971"><ele>187.0</ele><time>2026-03-29T08:28:16.05Z</time></trkpt><trkpt lat="44.4626681" lon="11.1096012"><ele>188.0</ele><time>2026-03-29T08:28:17.051Z</time></trkpt><trkpt lat="44.4625742" lon="11.10951"><ele>189.0</ele><time>2026-03-29T08:28:18.05Z</time></trkpt><trkpt lat="44.4625001" lon="11.1094536"><ele>190.0</ele><time>2026-03-29T08:28:19.051Z</time></trkpt><trkpt lat="44.4624383" lon="11.1094048"><ele>191.0</ele><time>2026-03-29T08:28:20.051Z</time></trkpt><trkpt lat="44.4623699" lon="11.1093325"><ele>192.0</ele><time>2026-03-29T08:28:22.051Z</time></trkpt><trkpt lat="44.4622651" lon="11.1092805"><ele>192.0</ele><time>2026-03-29T08:28:24.051Z</time></trkpt><trkpt lat="44.4621913" lon="11.1092708"><ele>192.0</ele><time>2026-03-29T08:28:25.051Z</time></trkpt><trkpt lat="44.4621089" lon="11.1092755"><ele>192.0</ele><time>2026-03-29T08:28:26.05Z</time></trkpt><trkpt lat="44.462026" lon="11.1092767"><ele>192.0</ele><time>2026-03-29T08:28:27.051Z</time></trkpt><trkpt lat="44.4619399" lon="11.1092815"><ele>192.0</ele><time>2026-03-29T08:28:28.05Z</time></trkpt><trkpt lat="44.4618539" lon="11.1092882"><ele>192.0</ele><time>2026-03-29T08:28:29.051Z</time></trkpt><trkpt lat="44.4617705" lon="11.1092984"><ele>192.83333333333334</ele><time>2026-03-29T08:28:30.051Z</time></trkpt><trkpt lat="44.461691" lon="11.1093078"><ele>193.66666666666669</ele><time>2026-03-29T08:28:31.051Z</time></trkpt><trkpt lat="44.4616122" lon="11.1093211"><ele>194.5</ele><time>2026-03-29T08:28:32.05Z</time></trkpt><trkpt lat="44.4615316" lon="11.1093402"><ele>195.33333333333334</ele><time>2026-03-29T08:28:33.051Z</time></trkpt><trkpt lat="44.4614455" lon="11.1093573"><ele>196.16666666666669</ele><time>2026-03-29T08:28:34.051Z</time></trkpt><trkpt lat="44.4613579" lon="11.1093645"><ele>197.0</ele><time>2026-03-29T08:28:35.05Z</time></trkpt><trkpt lat="44.4612631" lon="11.1093694"><ele>198.0</ele><time>2026-03-29T08:28:36.051Z</time></trkpt><trkpt lat="44.4611658" lon="11.1093771"><ele>199.0</ele><time>2026-03-29T08:28:37.05Z</time></trkpt><trkpt lat="44.461064" lon="11.1093946"><ele>200.0</ele><time>2026-03-29T08:28:38.051Z</time></trkpt><trkpt lat="44.4609527" lon="11.1094199"><ele>201.0</ele><time>2026-03-29T08:28:39.051Z</time></trkpt><trkpt lat="44.4608416" lon="11.1094633"><ele>202.0</ele><time>2026-03-29T08:28:40.051Z</time></trkpt><trkpt lat="44.460728" lon="11.1095088"><ele>202.0</ele><time>2026-03-29T08:28:41.051Z</time></trkpt><trkpt lat="44.460611" lon="11.1095466"><ele>202.0</ele><time>2026-03-29T08:28:42.051Z</time></trkpt><trkpt lat="44.4604958" lon="11.1096154"><ele>202.0</ele><time>2026-03-29T08:28:43.051Z</time></trkpt><trkpt lat="44.460411" lon="11.1096417"><ele>202.0</ele><time>2026-03-29T08:28:44.051Z</time></trkpt><trkpt lat="44.4603402" lon="11.1096592"><ele>202.0</ele><time>2026-03-29T08:28:45.051Z</time></trkpt><trkpt lat="44.4602671" lon="11.1096848"><ele>204.6</ele><time>2026-03-29T08:28:46.051Z</time></trkpt><trkpt lat="44.4602088" lon="11.1097348"><ele>207.2</ele><time>2026-03-29T08:28:48.05Z</time></trkpt><trkpt lat="44.4601399" lon="11.1097766"><ele>209.8</ele><time>2026-03-29T08:28:49.051Z</time></trkpt><trkpt lat="44.4600373" lon="11.1098125"><ele>212.4</ele><time>2026-03-29T08:28:50.051Z</time></trkpt><trkpt lat="44.459912" lon="11.1098668"><ele>215.0</ele><time>2026-03-29T08:28:51.051Z</time></trkpt><trkpt lat="44.4597584" lon="11.1099099"><ele>216.33333333333334</ele><time>2026-03-29T08:28:52.05Z</time></trkpt><trkpt lat="44.4596088" lon="11.1099863"><ele>217.66666666666669</ele><time>2026-03-29T08:28:53.051Z</time></trkpt><trkpt lat="44.459464" lon="11.1100791"><ele>219.0</ele><time>2026-03-29T08:28:54.051Z</time></trkpt><trkpt lat="44.4593465" lon="11.1101626"><ele>219.0</ele><time>2026-03-29T08:28:55.05Z</time></trkpt><trkpt lat="44.4592422" lon="11.1102268"><ele>218.99999999999997</ele><time>2026-03-29T08:28:56.051Z</time></trkpt><trkpt lat="44.4591608" lon="11.1102524"><ele>218.99999999999997</ele><time>2026-03-29T08:28:57.051Z</time></trkpt><trkpt lat="44.4590639" lon="11.1102503"><ele>219.0</ele><time>2026-03-29T08:28:58.051Z</time></trkpt><trkpt lat="44.4589379" lon="11.1102424"><ele>219.0</ele><time>2026-03-29T08:28:59.05Z</time></trkpt><trkpt lat="44.4588001" lon="11.1102332"><ele>218.2</ele><time>2026-03-29T08:29:00.05Z</time></trkpt><trkpt lat="44.4586781" lon="11.1102059"><ele>217.39999999999998</ele><time>2026-03-29T08:29:01.051Z</time></trkpt><trkpt lat="44.4585658" lon="11.1101973"><ele>216.6</ele><time>2026-03-29T08:29:02.051Z</time></trkpt><trkpt lat="44.4584449" lon="11.1102097"><ele>215.8</ele><time>2026-03-29T08:29:03.05Z</time></trkpt><trkpt lat="44.4583597" lon="11.1102073"><ele>215.0</ele><time>2026-03-29T08:29:04.051Z</time></trkpt><trkpt lat="44.4582822" lon="11.110206"><ele>215.0</ele><time>2026-03-29T08:29:05.051Z</time></trkpt><trkpt lat="44.4582076" lon="11.1101718"><ele>215.0</ele><time>2026-03-29T08:29:06.051Z</time></trkpt><trkpt lat="44.4581311" lon="11.1101264"><ele>215.0</ele><time>2026-03-29T08:29:07.05Z</time></trkpt><trkpt lat="44.4580638" lon="11.1100277"><ele>215.0</ele><time>2026-03-29T08:29:08.051Z</time></trkpt><trkpt lat="44.4579916" lon="11.1099102"><ele>215.0</ele><time>2026-03-29T08:29:09.05Z</time></trkpt><trkpt lat="44.457908" lon="11.1097815"><ele>212.5</ele><time>2026-03-29T08:29:10.05Z</time></trkpt><trkpt lat="44.4578056" lon="11.1096594"><ele>210.0</ele><time>2026-03-29T08:29:11.051Z</time></trkpt><trkpt lat="44.4577026" lon="11.1095577"><ele>207.5</ele><time>2026-03-29T08:29:12.05Z</time></trkpt><trkpt lat="44.4575816" lon="11.1094756"><ele>205.0</ele><time>2026-03-29T08:29:13.051Z</time></trkpt><trkpt lat="44.4574591" lon="11.1094043"><ele>205.0</ele><time>2026-03-29T08:29:14.051Z</time></trkpt><trkpt lat="44.4572956" lon="11.1093509"><ele>205.0</ele><time>2026-03-29T08:29:15.051Z</time></trkpt><trkpt lat="44.4571145" lon="11.1092702"><ele>205.0</ele><time>2026-03-29T08:29:16.05Z</time></trkpt><trkpt lat="44.456948" lon="11.1091898"><ele>204.33333333333331</ele><time>2026-03-29T08:29:17.051Z</time></trkpt><trkpt lat="44.4567818" lon="11.1091241"><ele>203.66666666666669</ele><time>2026-03-29T08:29:18.051Z</time></trkpt><trkpt lat="44.4566242" lon="11.1090732"><ele>203.0</ele><time>2026-03-29T08:29:19.051Z</time></trkpt><trkpt lat="44.4564904" lon="11.1090253"><ele>202.4</ele><time>2026-03-29T08:29:20.051Z</time></trkpt><trkpt lat="44.4563662" lon="11.1089727"><ele>201.8</ele><time>2026-03-29T08:29:21.051Z</time></trkpt><trkpt lat="44.4562639" lon="11.108922"><ele>201.2</ele><time>2026-03-29T08:29:22.051Z</time></trkpt><trkpt lat="44.4561769" lon="11.1088696"><ele>200.6</ele><time>2026-03-29T08:29:23.051Z</time></trkpt><trkpt lat="44.4560681" lon="11.1088321"><ele>200.0</ele><time>2026-03-29T08:29:24.051Z</time></trkpt><trkpt lat="44.4559389" lon="11.1088006"><ele>200.0</ele><time>2026-03-29T08:29:25.051Z</time></trkpt><trkpt lat="44.4557937" lon="11.1087792"><ele>200.0</ele><time>2026-03-29T08:29:26.051Z</time></trkpt><trkpt lat="44.45564" lon="11.1087595"><ele>200.0</ele><time>2026-03-29T08:29:27.05Z</time></trkpt><trkpt lat="44.4554781" lon="11.1087129"><ele>200.66666666666669</ele><time>2026-03-29T08:29:28.05Z</time></trkpt><trkpt lat="44.455307" lon="11.1086492"><ele>201.33333333333331</ele><time>2026-03-29T08:29:29.051Z</time></trkpt><trkpt lat="44.455141" lon="11.1085737"><ele>202.0</ele><time>2026-03-29T08:29:30.051Z</time></trkpt><trkpt lat="44.4549843" lon="11.1085063"><ele>202.0</ele><time>2026-03-29T08:29:31.051Z</time></trkpt><trkpt lat="44.4548396" lon="11.1084402"><ele>202.0</ele><time>2026-03-29T08:29:32.05Z</time></trkpt><trkpt lat="44.4547065" lon="11.1083721"><ele>202.0</ele><time>2026-03-29T08:29:33.05Z</time></trkpt><trkpt lat="44.4545796" lon="11.1082871"><ele>202.0</ele><time>2026-03-29T08:29:34.05Z</time></trkpt><trkpt lat="44.4544478" lon="11.1081963"><ele>202.0</ele><time>2026-03-29T08:29:35.05Z</time></trkpt><trkpt lat="44.4543105" lon="11.1081265"><ele>202.0</ele><time>2026-03-29T08:29:36.05Z</time></trkpt><trkpt lat="44.4541652" lon="11.1080807"><ele>202.0</ele><time>2026-03-29T08:29:37.05Z</time></trkpt><trkpt lat="44.4540083" lon="11.1080687"><ele>202.0</ele><time>2026-03-29T08:29:38.05Z</time></trkpt><trkpt lat="44.4538325" lon="11.1080529"><ele>202.0</ele><time>2026-03-29T08:29:39.05Z</time></trkpt><trkpt lat="44.4536573" lon="11.1080319"><ele>202.0</ele><time>2026-03-29T08:29:40.051Z</time></trkpt><trkpt lat="44.4534849" lon="11.1080219"><ele>204.75</ele><time>2026-03-29T08:29:41.05Z</time></trkpt><trkpt lat="44.453325" lon="11.1080137"><ele>207.5</ele><time>2026-03-29T08:29:42.051Z</time></trkpt><trkpt lat="44.4531771" lon="11.1080057"><ele>210.25</ele><time>2026-03-29T08:29:43.051Z</time></trkpt><trkpt lat="44.4530477" lon="11.1079953"><ele>213.0</ele><time>2026-03-29T08:29:44.051Z</time></trkpt><trkpt lat="44.4529216" lon="11.1079851"><ele>213.0</ele><time>2026-03-29T08:29:45.051Z</time></trkpt><trkpt lat="44.4528114" lon="11.1079632"><ele>213.0</ele><time>2026-03-29T08:29:46.051Z</time></trkpt><trkpt lat="44.4526961" lon="11.1079396"><ele>213.0</ele><time>2026-03-29T08:29:47.051Z</time></trkpt><trkpt lat="44.4525749" lon="11.1079107"><ele>213.0</ele><time>2026-03-29T08:29:48.051Z</time></trkpt><trkpt lat="44.45244" lon="11.1078757"><ele>213.0</ele><time>2026-03-29T08:29:49.051Z</time></trkpt><trkpt lat="44.4523074" lon="11.1078485"><ele>213.0</ele><time>2026-03-29T08:29:50.051Z</time></trkpt><trkpt lat="44.4521584" lon="11.1078232"><ele>213.0</ele><time>2026-03-29T08:29:51.051Z</time></trkpt><trkpt lat="44.4519986" lon="11.1077953"><ele>213.0</ele><time>2026-03-29T08:29:52.05Z</time></trkpt><trkpt lat="44.4518373" lon="11.1077685"><ele>215.0</ele><time>2026-03-29T08:29:53.051Z</time></trkpt><trkpt lat="44.4516839" lon="11.1077544"><ele>217.0</ele><time>2026-03-29T08:29:54.051Z</time></trkpt><trkpt lat="44.4515301" lon="11.1077287"><ele>219.0</ele><time>2026-03-29T08:29:55.05Z</time></trkpt><trkpt lat="44.4513774" lon="11.1076874"><ele>219.75</ele><time>2026-03-29T08:29:56.05Z</time></trkpt><trkpt lat="44.4512285" lon="11.1076489"><ele>220.5</ele><time>2026-03-29T08:29:57.051Z</time></trkpt><trkpt lat="44.4510881" lon="11.1076106"><ele>221.25</ele><time>2026-03-29T08:29:58.051Z</time></trkpt><trkpt lat="44.450951" lon="11.1075745"><ele>222.0</ele><time>2026-03-29T08:29:59.05Z</time></trkpt><trkpt lat="44.4508208" lon="11.1075228"><ele>225.0</ele><time>2026-03-29T08:30:00.051Z</time></trkpt><trkpt lat="44.450541" lon="11.1073845"><ele>228.0</ele><time>2026-03-29T08:30:02.051Z</time></trkpt><trkpt lat="44.4503891" lon="11.1073283"><ele>228.0</ele><time>2026-03-29T08:30:03.05Z</time></trkpt><trkpt lat="44.4502387" lon="11.1072734"><ele>228.0</ele><time>2026-03-29T08:30:04.05Z</time></trkpt><trkpt lat="44.4500908" lon="11.1072307"><ele>228.0</ele><time>2026-03-29T08:30:05.051Z</time></trkpt><trkpt lat="44.4499645" lon="11.1072074"><ele>228.0</ele><time>2026-03-29T08:30:06.05Z</time></trkpt><trkpt lat="44.449834" lon="11.1071863"><ele>228.0</ele><time>2026-03-29T08:30:07.051Z</time></trkpt><trkpt lat="44.4497187" lon="11.1072123"><ele>228.0</ele><time>2026-03-29T08:30:08.051Z</time></trkpt><trkpt lat="44.4496146" lon="11.1072488"><ele>228.0</ele><time>2026-03-29T08:30:09.051Z</time></trkpt><trkpt lat="44.4495142" lon="11.107309"><ele>228.0</ele><time>2026-03-29T08:30:10.05Z</time></trkpt><trkpt lat="44.4494499" lon="11.1073524"><ele>228.0</ele><time>2026-03-29T08:30:11.051Z</time></trkpt><trkpt lat="44.4493566" lon="11.1073835"><ele>228.0</ele><time>2026-03-29T08:30:13.05Z</time></trkpt><trkpt lat="44.4492139" lon="11.1073784"><ele>228.0</ele><time>2026-03-29T08:30:15.051Z</time></trkpt><trkpt lat="44.4491071" lon="11.1073541"><ele>228.0</ele><time>2026-03-29T08:30:16.05Z</time></trkpt><trkpt lat="44.4489822" lon="11.1073145"><ele>228.0</ele><time>2026-03-29T08:30:17.051Z</time></trkpt><trkpt lat="44.4488433" lon="11.1072561"><ele>228.0</ele><time>2026-03-29T08:30:18.05Z</time></trkpt><trkpt lat="44.4487029" lon="11.1072047"><ele>228.0</ele><time>2026-03-29T08:30:19.051Z</time></trkpt><trkpt lat="44.4485623" lon="11.1071615"><ele>228.0</ele><time>2026-03-29T08:30:20.05Z</time></trkpt><trkpt lat="44.4484126" lon="11.1071358"><ele>228.0</ele><time>2026-03-29T08:30:21.051Z</time></trkpt><trkpt lat="44.4482574" lon="11.1071305"><ele>228.0</ele><time>2026-03-29T08:30:22.05Z</time></trkpt><trkpt lat="44.4480942" lon="11.1071389"><ele>228.0</ele><time>2026-03-29T08:30:23.051Z</time></trkpt><trkpt lat="44.4479125" lon="11.1071445"><ele>228.0</ele><time>2026-03-29T08:30:24.051Z</time></trkpt><trkpt lat="44.447734" lon="11.107143"><ele>230.66666666666669</ele><time>2026-03-29T08:30:25.05Z</time></trkpt><trkpt lat="44.4475801" lon="11.1071496"><ele>233.33333333333334</ele><time>2026-03-29T08:30:26.051Z</time></trkpt><trkpt lat="44.4474215" lon="11.1071545"><ele>236.0</ele><time>2026-03-29T08:30:27.051Z</time></trkpt><trkpt lat="44.4472793" lon="11.1071502"><ele>236.0</ele><time>2026-03-29T08:30:28.051Z</time></trkpt><trkpt lat="44.4471559" lon="11.107143"><ele>236.00000000000003</ele><time>2026-03-29T08:30:29.051Z</time></trkpt><trkpt lat="44.4470564" lon="11.1071129"><ele>236.00000000000003</ele><time>2026-03-29T08:30:30.051Z</time></trkpt><trkpt lat="44.4469544" lon="11.1070676"><ele>236.0</ele><time>2026-03-29T08:30:31.051Z</time></trkpt><trkpt lat="44.4468664" lon="11.1070213"><ele>236.0</ele><time>2026-03-29T08:30:32.051Z</time></trkpt><trkpt lat="44.4467845" lon="11.1069754"><ele>238.0</ele><time>2026-03-29T08:30:33.05Z</time></trkpt><trkpt lat="44.4466916" lon="11.1068948"><ele>240.0</ele><time>2026-03-29T08:30:34.05Z</time></trkpt><trkpt lat="44.4465821" lon="11.1068141"><ele>242.0</ele><time>2026-03-29T08:30:35.051Z</time></trkpt><trkpt lat="44.4464705" lon="11.106736"><ele>244.0</ele><time>2026-03-29T08:30:36.05Z</time></trkpt><trkpt lat="44.4463727" lon="11.1066697"><ele>245.33333333333331</ele><time>2026-03-29T08:30:37.051Z</time></trkpt><trkpt lat="44.446294" lon="11.1066156"><ele>246.66666666666666</ele><time>2026-03-29T08:30:38.051Z</time></trkpt><trkpt lat="44.4462188" lon="11.1065785"><ele>248.0</ele><time>2026-03-29T08:30:39.051Z</time></trkpt><trkpt lat="44.4461438" lon="11.1065599"><ele>249.33333333333331</ele><time>2026-03-29T08:30:40.05Z</time></trkpt><trkpt lat="44.4460585" lon="11.1065318"><ele>250.66666666666666</ele><time>2026-03-29T08:30:41.051Z</time></trkpt><trkpt lat="44.4459732" lon="11.1065053"><ele>252.0</ele><time>2026-03-29T08:30:42.05Z</time></trkpt><trkpt lat="44.4459043" lon="11.1065038"><ele>252.0</ele><time>2026-03-29T08:30:43.051Z</time></trkpt><trkpt lat="44.4458299" lon="11.1064489"><ele>252.0</ele><time>2026-03-29T08:30:44.051Z</time></trkpt><trkpt lat="44.4457335" lon="11.1064633"><ele>252.0</ele><time>2026-03-29T08:30:46.051Z</time></trkpt><trkpt lat="44.445626" lon="11.1062865"><ele>252.0</ele><time>2026-03-29T08:30:48.05Z</time></trkpt><trkpt lat="44.445571" lon="11.1061887"><ele>252.0</ele><time>2026-03-29T08:30:49.051Z</time></trkpt><trkpt lat="44.4455031" lon="11.1060761"><ele>255.66666666666666</ele><time>2026-03-29T08:30:50.051Z</time></trkpt><trkpt lat="44.445446" lon="11.1060125"><ele>259.3333333333333</ele><time>2026-03-29T08:30:51.051Z</time></trkpt><trkpt lat="44.4453424" lon="11.1059629"><ele>263.0</ele><time>2026-03-29T08:30:53.051Z</time></trkpt><trkpt lat="44.4452553" lon="11.1059394"><ele>266.66666666666663</ele><time>2026-03-29T08:30:55.05Z</time></trkpt><trkpt lat="44.4451767" lon="11.1058604"><ele>270.3333333333333</ele><time>2026-03-29T08:30:56.05Z</time></trkpt><trkpt lat="44.4451129" lon="11.1058216"><ele>274.0</ele><time>2026-03-29T08:30:57.05Z</time></trkpt><trkpt lat="44.4450046" lon="11.1057694"><ele>274.0</ele><time>2026-03-29T08:30:59.05Z</time></trkpt><trkpt lat="44.4449412" lon="11.1057674"><ele>274.0</ele><time>2026-03-29T08:31:00.05Z</time></trkpt><trkpt lat="44.4448761" lon="11.1057837"><ele>274.0</ele><time>2026-03-29T08:31:01.051Z</time></trkpt><trkpt lat="44.4447827" lon="11.1058539"><ele>274.0</ele><time>2026-03-29T08:31:03.051Z</time></trkpt><trkpt lat="44.4447185" lon="11.1059749"><ele>274.0</ele><time>2026-03-29T08:31:05.051Z</time></trkpt><trkpt lat="44.4446421" lon="11.1060854"><ele>271.8</ele><time>2026-03-29T08:31:07.05Z</time></trkpt><trkpt lat="44.4445554" lon="11.1061471"><ele>269.59999999999997</ele><time>2026-03-29T08:31:09.051Z</time></trkpt><trkpt lat="44.4444914" lon="11.1062074"><ele>267.4</ele><time>2026-03-29T08:31:10.051Z</time></trkpt><trkpt lat="44.4443959" lon="11.1062567"><ele>265.2</ele><time>2026-03-29T08:31:11.05Z</time></trkpt><trkpt lat="44.4442994" lon="11.1063113"><ele>263.0</ele><time>2026-03-29T08:31:12.051Z</time></trkpt><trkpt lat="44.4441946" lon="11.1063642"><ele>263.0</ele><time>2026-03-29T08:31:13.051Z</time></trkpt><trkpt lat="44.4441027" lon="11.1064163"><ele>263.0</ele><time>2026-03-29T08:31:14.05Z</time></trkpt><trkpt lat="44.4440173" lon="11.1064655"><ele>263.0</ele><time>2026-03-29T08:31:15.05Z</time></trkpt><trkpt lat="44.4439312" lon="11.1065099"><ele>263.0</ele><time>2026-03-29T08:31:16.05Z</time></trkpt><trkpt lat="44.4438643" lon="11.1065587"><ele>263.0</ele><time>2026-03-29T08:31:17.051Z</time></trkpt><trkpt lat="44.4437873" lon="11.1065952"><ele>263.0</ele><time>2026-03-29T08:31:18.051Z</time></trkpt><trkpt lat="44.4437283" lon="11.1066394"><ele>263.83333333333337</ele><time>2026-03-29T08:31:19.051Z</time></trkpt><trkpt lat="44.443659" lon="11.1066805"><ele>264.6666666666667</ele><time>2026-03-29T08:31:20.051Z</time></trkpt><trkpt lat="44.4435864" lon="11.1067159"><ele>265.5</ele><time>2026-03-29T08:31:21.05Z</time></trkpt><trkpt lat="44.4435128" lon="11.1067363"><ele>266.3333333333333</ele><time>2026-03-29T08:31:22.051Z</time></trkpt><trkpt lat="44.4434348" lon="11.1067555"><ele>267.16666666666663</ele><time>2026-03-29T08:31:23.051Z</time></trkpt><trkpt lat="44.4433589" lon="11.1067689"><ele>268.0</ele><time>2026-03-29T08:31:24.05Z</time></trkpt><trkpt lat="44.4432752" lon="11.1067701"><ele>268.0</ele><time>2026-03-29T08:31:25.05Z</time></trkpt><trkpt lat="44.4431755" lon="11.1067648"><ele>268.0</ele><time>2026-03-29T08:31:26.05Z</time></trkpt><trkpt lat="44.4430735" lon="11.1067469"><ele>268.0</ele><time>2026-03-29T08:31:27.051Z</time></trkpt><trkpt lat="44.442972" lon="11.1067302"><ele>268.0</ele><time>2026-03-29T08:31:28.051Z</time></trkpt><trkpt lat="44.4428699" lon="11.1067163"><ele>268.0</ele><time>2026-03-29T08:31:29.051Z</time></trkpt><trkpt lat="44.4427695" lon="11.1067058"><ele>267.0</ele><time>2026-03-29T08:31:30.051Z</time></trkpt><trkpt lat="44.4426755" lon="11.106698"><ele>266.0</ele><time>2026-03-29T08:31:31.051Z</time></trkpt><trkpt lat="44.4425808" lon="11.1066919"><ele>265.0</ele><time>2026-03-29T08:31:32.05Z</time></trkpt><trkpt lat="44.4424906" lon="11.1066847"><ele>264.0</ele><time>2026-03-29T08:31:33.05Z</time></trkpt><trkpt lat="44.4423997" lon="11.1066818"><ele>263.0</ele><time>2026-03-29T08:31:34.051Z</time></trkpt><trkpt lat="44.4423104" lon="11.1066957"><ele>263.0</ele><time>2026-03-29T08:31:35.051Z</time></trkpt><trkpt lat="44.4422313" lon="11.1067267"><ele>263.0</ele><time>2026-03-29T08:31:36.051Z</time></trkpt><trkpt lat="44.4421479" lon="11.1067752"><ele>263.0</ele><time>2026-03-29T08:31:37.051Z</time></trkpt><trkpt lat="44.4420676" lon="11.1068205"><ele>263.0</ele><time>2026-03-29T08:31:38.05Z</time></trkpt><trkpt lat="44.441989" lon="11.1068714"><ele>263.0</ele><time>2026-03-29T08:31:39.05Z</time></trkpt><trkpt lat="44.4419129" lon="11.106924"><ele>263.0</ele><time>2026-03-29T08:31:40.051Z</time></trkpt><trkpt lat="44.441824" lon="11.1069842"><ele>262.2</ele><time>2026-03-29T08:31:41.051Z</time></trkpt><trkpt lat="44.4417464" lon="11.1070323"><ele>261.4</ele><time>2026-03-29T08:31:42.051Z</time></trkpt><trkpt lat="44.4416683" lon="11.1070858"><ele>260.59999999999997</ele><time>2026-03-29T08:31:43.051Z</time></trkpt><trkpt lat="44.4415905" lon="11.1071425"><ele>259.8</ele><time>2026-03-29T08:31:44.051Z</time></trkpt><trkpt lat="44.4415029" lon="11.1072056"><ele>259.0</ele><time>2026-03-29T08:31:45.051Z</time></trkpt><trkpt lat="44.4413905" lon="11.1072764"><ele>256.4</ele><time>2026-03-29T08:31:46.05Z</time></trkpt><trkpt lat="44.4412683" lon="11.1073464"><ele>253.79999999999998</ele><time>2026-03-29T08:31:47.05Z</time></trkpt><trkpt lat="44.4411653" lon="11.1073836"><ele>251.20000000000002</ele><time>2026-03-29T08:31:48.051Z</time></trkpt><trkpt lat="44.4410542" lon="11.1074287"><ele>248.60000000000002</ele><time>2026-03-29T08:31:49.05Z</time></trkpt><trkpt lat="44.4409634" lon="11.1074484"><ele>246.0</ele><time>2026-03-29T08:31:50.051Z</time></trkpt><trkpt lat="44.4408498" lon="11.1074916"><ele>246.0</ele><time>2026-03-29T08:31:51.051Z</time></trkpt><trkpt lat="44.4407544" lon="11.1075127"><ele>246.0</ele><time>2026-03-29T08:31:52.051Z</time></trkpt><trkpt lat="44.4406656" lon="11.1075441"><ele>246.0</ele><time>2026-03-29T08:31:53.051Z</time></trkpt><trkpt lat="44.4405632" lon="11.1074929"><ele>246.0</ele><time>2026-03-29T08:31:55.051Z</time></trkpt><trkpt lat="44.440487" lon="11.1075048"><ele>246.0</ele><time>2026-03-29T08:31:57.051Z</time></trkpt><trkpt lat="44.4404223" lon="11.1074998"><ele>246.0</ele><time>2026-03-29T08:32:00.051Z</time></trkpt><trkpt lat="44.4403365" lon="11.1074898"><ele>246.20000000000002</ele><time>2026-03-29T08:32:02.05Z</time></trkpt><trkpt lat="44.4402571" lon="11.1074834"><ele>246.40000000000003</ele><time>2026-03-29T08:32:03.051Z</time></trkpt><trkpt lat="44.4401378" lon="11.1074854"><ele>246.6</ele><time>2026-03-29T08:32:04.051Z</time></trkpt><trkpt lat="44.4400208" lon="11.1074824"><ele>246.8</ele><time>2026-03-29T08:32:05.051Z</time></trkpt><trkpt lat="44.4399056" lon="11.1074894"><ele>247.0</ele><time>2026-03-29T08:32:06.05Z</time></trkpt><trkpt lat="44.4397828" lon="11.1075028"><ele>247.0</ele><time>2026-03-29T08:32:07.051Z</time></trkpt><trkpt lat="44.4396619" lon="11.1075101"><ele>247.0</ele><time>2026-03-29T08:32:08.051Z</time></trkpt><trkpt lat="44.4395666" lon="11.1075558"><ele>247.0</ele><time>2026-03-29T08:32:09.05Z</time></trkpt><trkpt lat="44.4394341" lon="11.1076098"><ele>247.0</ele><time>2026-03-29T08:32:10.05Z</time></trkpt><trkpt lat="44.4392946" lon="11.1076707"><ele>247.75</ele><time>2026-03-29T08:32:11.051Z</time></trkpt><trkpt lat="44.4391631" lon="11.1077292"><ele>248.5</ele><time>2026-03-29T08:32:12.05Z</time></trkpt><trkpt lat="44.4390353" lon="11.1077844"><ele>249.25</ele><time>2026-03-29T08:32:13.05Z</time></trkpt><trkpt lat="44.4389092" lon="11.1078269"><ele>250.0</ele><time>2026-03-29T08:32:14.051Z</time></trkpt><trkpt lat="44.4387925" lon="11.1078648"><ele>247.8</ele><time>2026-03-29T08:32:15.05Z</time></trkpt><trkpt lat="44.4386873" lon="11.1078975"><ele>245.6</ele><time>2026-03-29T08:32:16.05Z</time></trkpt><trkpt lat="44.4385845" lon="11.1079371"><ele>243.39999999999998</ele><time>2026-03-29T08:32:17.051Z</time></trkpt><trkpt lat="44.4384838" lon="11.1079917"><ele>241.2</ele><time>2026-03-29T08:32:18.051Z</time></trkpt><trkpt lat="44.438397" lon="11.1080393"><ele>239.0</ele><time>2026-03-29T08:32:19.05Z</time></trkpt><trkpt lat="44.4383163" lon="11.1080738"><ele>239.00000000000003</ele><time>2026-03-29T08:32:20.051Z</time></trkpt><trkpt lat="44.4382076" lon="11.108151"><ele>239.0</ele><time>2026-03-29T08:32:22.051Z</time></trkpt><trkpt lat="44.4381729" lon="11.1082371"><ele>239.0</ele><time>2026-03-29T08:32:25.05Z</time></trkpt><trkpt lat="44.4381684" lon="11.1083667"><ele>239.0</ele><time>2026-03-29T08:32:28.051Z</time></trkpt><trkpt lat="44.4381031" lon="11.1084006"><ele>239.00000000000003</ele><time>2026-03-29T08:32:30.051Z</time></trkpt><trkpt lat="44.4380286" lon="11.1083922"><ele>239.0</ele><time>2026-03-29T08:32:32.051Z</time></trkpt><trkpt lat="44.437961" lon="11.1083786"><ele>239.33333333333334</ele><time>2026-03-29T08:32:34.051Z</time></trkpt><trkpt lat="44.4378979" lon="11.1083581"><ele>239.66666666666669</ele><time>2026-03-29T08:32:37.051Z</time></trkpt><trkpt lat="44.4378608" lon="11.1082854"><ele>240.0</ele><time>2026-03-29T08:32:42.051Z</time></trkpt><trkpt lat="44.4378223" lon="11.1081871"><ele>240.33333333333331</ele><time>2026-03-29T08:33:29.05Z</time></trkpt><trkpt lat="44.4377602" lon="11.1081549"><ele>240.66666666666666</ele><time>2026-03-29T08:33:30.051Z</time></trkpt><trkpt lat="44.4376348" lon="11.1081473"><ele>241.0</ele><time>2026-03-29T08:33:31.05Z</time></trkpt><trkpt lat="44.4375417" lon="11.1081354"><ele>239.8</ele><time>2026-03-29T08:33:32.05Z</time></trkpt><trkpt lat="44.4374471" lon="11.1081171"><ele>238.60000000000002</ele><time>2026-03-29T08:33:33.05Z</time></trkpt><trkpt lat="44.4373552" lon="11.1080973"><ele>237.4</ele><time>2026-03-29T08:33:34.051Z</time></trkpt><trkpt lat="44.437262" lon="11.1080861"><ele>236.2</ele><time>2026-03-29T08:33:35.051Z</time></trkpt><trkpt lat="44.4371707" lon="11.1080863"><ele>235.0</ele><time>2026-03-29T08:33:36.051Z</time></trkpt><trkpt lat="44.4370813" lon="11.1080786"><ele>234.49999999999997</ele><time>2026-03-29T08:33:37.05Z</time></trkpt><trkpt lat="44.4369866" lon="11.1080713"><ele>234.0</ele><time>2026-03-29T08:33:38.051Z</time></trkpt><trkpt lat="44.4369029" lon="11.1080532"><ele>233.5</ele><time>2026-03-29T08:33:39.051Z</time></trkpt><trkpt lat="44.4368144" lon="11.1080484"><ele>233.0</ele><time>2026-03-29T08:33:40.051Z</time></trkpt><trkpt lat="44.4367258" lon="11.1080511"><ele>232.49999999999997</ele><time>2026-03-29T08:33:41.051Z</time></trkpt><trkpt lat="44.4366482" lon="11.1080642"><ele>232.0</ele><time>2026-03-29T08:33:42.05Z</time></trkpt><trkpt lat="44.4365707" lon="11.1080991"><ele>232.0</ele><time>2026-03-29T08:33:43.051Z</time></trkpt><trkpt lat="44.4364997" lon="11.1081461"><ele>232.0</ele><time>2026-03-29T08:33:44.051Z</time></trkpt><trkpt lat="44.4364112" lon="11.1082078"><ele>232.0</ele><time>2026-03-29T08:33:45.051Z</time></trkpt><trkpt lat="44.4363286" lon="11.1081805"><ele>232.0</ele><time>2026-03-29T08:33:46.05Z</time></trkpt><trkpt lat="44.4362264" lon="11.1081738"><ele>232.0</ele><time>2026-03-29T08:33:48.05Z</time></trkpt><trkpt lat="44.4360987" lon="11.1082068"><ele>232.16666666666666</ele><time>2026-03-29T08:33:56.051Z</time></trkpt><trkpt lat="44.4360472" lon="11.1082781"><ele>232.33333333333331</ele><time>2026-03-29T08:33:57.05Z</time></trkpt><trkpt lat="44.4359783" lon="11.1083554"><ele>232.5</ele><time>2026-03-29T08:33:58.051Z</time></trkpt><trkpt lat="44.4359092" lon="11.1084241"><ele>232.66666666666669</ele><time>2026-03-29T08:33:59.05Z</time></trkpt><trkpt lat="44.4358442" lon="11.1084936"><ele>232.83333333333334</ele><time>2026-03-29T08:34:00.05Z</time></trkpt><trkpt lat="44.4357792" lon="11.1085531"><ele>233.0</ele><time>2026-03-29T08:34:01.051Z</time></trkpt><trkpt lat="44.4357127" lon="11.1086074"><ele>233.00000000000003</ele><time>2026-03-29T08:34:02.05Z</time></trkpt><trkpt lat="44.435664" lon="11.1086661"><ele>233.0</ele><time>2026-03-29T08:34:03.05Z</time></trkpt><trkpt lat="44.4356111" lon="11.108732"><ele>233.0</ele><time>2026-03-29T08:34:04.051Z</time></trkpt><trkpt lat="44.4356237" lon="11.1088533"><ele>233.0</ele><time>2026-03-29T08:34:05.05Z</time></trkpt><trkpt lat="44.4356272" lon="11.1089991"><ele>233.00000000000003</ele><time>2026-03-29T08:34:06.051Z</time></trkpt><trkpt lat="44.4355991" lon="11.1091594"><ele>233.0</ele><time>2026-03-29T08:34:07.051Z</time></trkpt><trkpt lat="44.4355387" lon="11.1093122"><ele>232.0</ele><time>2026-03-29T08:34:08.051Z</time></trkpt><trkpt lat="44.4354576" lon="11.1094569"><ele>231.0</ele><time>2026-03-29T08:34:09.051Z</time></trkpt><trkpt lat="44.4353855" lon="11.109602"><ele>230.0</ele><time>2026-03-29T08:34:10.05Z</time></trkpt><trkpt lat="44.4352886" lon="11.1097253"><ele>229.0</ele><time>2026-03-29T08:34:11.051Z</time></trkpt><trkpt lat="44.4352187" lon="11.1098726"><ele>227.79999999999998</ele><time>2026-03-29T08:34:12.05Z</time></trkpt><trkpt lat="44.4351852" lon="11.1100102"><ele>226.59999999999997</ele><time>2026-03-29T08:34:13.051Z</time></trkpt><trkpt lat="44.4351672" lon="11.1101675"><ele>225.4</ele><time>2026-03-29T08:34:14.051Z</time></trkpt><trkpt lat="44.435176" lon="11.1103163"><ele>224.2</ele><time>2026-03-29T08:34:15.051Z</time></trkpt><trkpt lat="44.4352146" lon="11.1104525"><ele>223.0</ele><time>2026-03-29T08:34:16.051Z</time></trkpt><trkpt lat="44.4352849" lon="11.1105558"><ele>223.0</ele><time>2026-03-29T08:34:17.051Z</time></trkpt><trkpt lat="44.4353782" lon="11.1106291"><ele>223.0</ele><time>2026-03-29T08:34:18.051Z</time></trkpt><trkpt lat="44.4354804" lon="11.1106754"><ele>223.0</ele><time>2026-03-29T08:34:19.05Z</time></trkpt><trkpt lat="44.4356166" lon="11.1106798"><ele>223.0</ele><time>2026-03-29T08:34:20.051Z</time></trkpt><trkpt lat="44.4357412" lon="11.1106917"><ele>220.75</ele><time>2026-03-29T08:34:21.051Z</time></trkpt><trkpt lat="44.4358633" lon="11.1107062"><ele>218.5</ele><time>2026-03-29T08:34:22.051Z</time></trkpt><trkpt lat="44.4359823" lon="11.1107349"><ele>216.25</ele><time>2026-03-29T08:34:23.051Z</time></trkpt><trkpt lat="44.4360992" lon="11.1107813"><ele>214.0</ele><time>2026-03-29T08:34:24.051Z</time></trkpt><trkpt lat="44.4362069" lon="11.1108333"><ele>211.5</ele><time>2026-03-29T08:34:25.051Z</time></trkpt><trkpt lat="44.4363113" lon="11.1109029"><ele>209.0</ele><time>2026-03-29T08:34:26.05Z</time></trkpt><trkpt lat="44.4363386" lon="11.11109"><ele>206.5</ele><time>2026-03-29T08:34:27.051Z</time></trkpt><trkpt lat="44.4363813" lon="11.1112384"><ele>204.0</ele><time>2026-03-29T08:34:28.05Z</time></trkpt><trkpt lat="44.4364116" lon="11.1114005"><ele>204.0</ele><time>2026-03-29T08:34:29.05Z</time></trkpt><trkpt lat="44.4364301" lon="11.1115677"><ele>204.0</ele><time>2026-03-29T08:34:30.051Z</time></trkpt><trkpt lat="44.4364202" lon="11.1117388"><ele>204.0</ele><time>2026-03-29T08:34:31.051Z</time></trkpt><trkpt lat="44.4363788" lon="11.111903"><ele>204.0</ele><time>2026-03-29T08:34:32.051Z</time></trkpt><trkpt lat="44.4363118" lon="11.1120517"><ele>204.25</ele><time>2026-03-29T08:34:33.051Z</time></trkpt><trkpt lat="44.4362151" lon="11.1121698"><ele>204.5</ele><time>2026-03-29T08:34:34.051Z</time></trkpt><trkpt lat="44.4361004" lon="11.1122598"><ele>204.75</ele><time>2026-03-29T08:34:35.051Z</time></trkpt><trkpt lat="44.4359795" lon="11.1123428"><ele>205.0</ele><time>2026-03-29T08:34:36.05Z</time></trkpt><trkpt lat="44.4358549" lon="11.1124232"><ele>203.25</ele><time>2026-03-29T08:34:37.051Z</time></trkpt><trkpt lat="44.4357351" lon="11.1125039"><ele>201.5</ele><time>2026-03-29T08:34:38.051Z</time></trkpt><trkpt lat="44.4356202" lon="11.112583"><ele>199.75</ele><time>2026-03-29T08:34:39.051Z</time></trkpt><trkpt lat="44.4355314" lon="11.1126956"><ele>198.0</ele><time>2026-03-29T08:34:40.05Z</time></trkpt><trkpt lat="44.4354683" lon="11.1128328"><ele>198.0</ele><time>2026-03-29T08:34:41.051Z</time></trkpt><trkpt lat="44.4354489" lon="11.1129682"><ele>198.0</ele><time>2026-03-29T08:34:42.051Z</time></trkpt><trkpt lat="44.4354439" lon="11.1131207"><ele>198.0</ele><time>2026-03-29T08:34:43.05Z</time></trkpt><trkpt lat="44.4354655" lon="11.1132716"><ele>198.0</ele><time>2026-03-29T08:34:44.051Z</time></trkpt><trkpt lat="44.4355188" lon="11.1134102"><ele>198.0</ele><time>2026-03-29T08:34:45.051Z</time></trkpt><trkpt lat="44.4355998" lon="11.113522"><ele>195.0</ele><time>2026-03-29T08:34:46.051Z</time></trkpt><trkpt lat="44.4357042" lon="11.1136065"><ele>192.0</ele><time>2026-03-29T08:34:47.051Z</time></trkpt><trkpt lat="44.435812" lon="11.1136917"><ele>189.0</ele><time>2026-03-29T08:34:48.051Z</time></trkpt><trkpt lat="44.4359691" lon="11.1136873"><ele>186.0</ele><time>2026-03-29T08:34:49.05Z</time></trkpt><trkpt lat="44.4361323" lon="11.1136984"><ele>186.0</ele><time>2026-03-29T08:34:50.05Z</time></trkpt><trkpt lat="44.4363016" lon="11.1137117"><ele>186.0</ele><time>2026-03-29T08:34:51.05Z</time></trkpt><trkpt lat="44.4364671" lon="11.11373"><ele>186.0</ele><time>2026-03-29T08:34:52.051Z</time></trkpt><trkpt lat="44.436631" lon="11.1137403"><ele>184.33333333333334</ele><time>2026-03-29T08:34:53.051Z</time></trkpt><trkpt lat="44.4367893" lon="11.1137458"><ele>182.66666666666669</ele><time>2026-03-29T08:34:54.05Z</time></trkpt><trkpt lat="44.4369398" lon="11.1137328"><ele>181.0</ele><time>2026-03-29T08:34:55.05Z</time></trkpt><trkpt lat="44.4370787" lon="11.1136906"><ele>178.75</ele><time>2026-03-29T08:34:56.051Z</time></trkpt><trkpt lat="44.4372112" lon="11.1136119"><ele>176.5</ele><time>2026-03-29T08:34:57.051Z</time></trkpt><trkpt lat="44.4373355" lon="11.113545"><ele>174.25</ele><time>2026-03-29T08:34:58.051Z</time></trkpt><trkpt lat="44.437452" lon="11.1135191"><ele>172.0</ele><time>2026-03-29T08:34:59.051Z</time></trkpt><trkpt lat="44.4375453" lon="11.1135474"><ele>172.0</ele><time>2026-03-29T08:35:00.051Z</time></trkpt><trkpt lat="44.4376287" lon="11.1136238"><ele>172.0</ele><time>2026-03-29T08:35:01.05Z</time></trkpt><trkpt lat="44.4376769" lon="11.1137558"><ele>172.0</ele><time>2026-03-29T08:35:02.051Z</time></trkpt><trkpt lat="44.4376997" lon="11.1138786"><ele>172.0</ele><time>2026-03-29T08:35:03.051Z</time></trkpt><trkpt lat="44.4377054" lon="11.1139977"><ele>172.0</ele><time>2026-03-29T08:35:04.05Z</time></trkpt><trkpt lat="44.4377163" lon="11.1141188"><ele>171.16666666666669</ele><time>2026-03-29T08:35:05.05Z</time></trkpt><trkpt lat="44.4377229" lon="11.1142415"><ele>170.33333333333334</ele><time>2026-03-29T08:35:06.051Z</time></trkpt><trkpt lat="44.4377305" lon="11.1143641"><ele>169.5</ele><time>2026-03-29T08:35:07.051Z</time></trkpt><trkpt lat="44.4377431" lon="11.1144915"><ele>168.66666666666666</ele><time>2026-03-29T08:35:08.051Z</time></trkpt><trkpt lat="44.4377564" lon="11.1146105"><ele>167.83333333333331</ele><time>2026-03-29T08:35:09.05Z</time></trkpt><trkpt lat="44.4377726" lon="11.1147309"><ele>167.0</ele><time>2026-03-29T08:35:10.051Z</time></trkpt><trkpt lat="44.4377911" lon="11.1148415"><ele>166.83333333333331</ele><time>2026-03-29T08:35:11.051Z</time></trkpt><trkpt lat="44.4378096" lon="11.1149556"><ele>166.66666666666666</ele><time>2026-03-29T08:35:12.051Z</time></trkpt><trkpt lat="44.4378277" lon="11.1150643"><ele>166.5</ele><time>2026-03-29T08:35:13.05Z</time></trkpt><trkpt lat="44.4378433" lon="11.1151704"><ele>166.33333333333334</ele><time>2026-03-29T08:35:14.051Z</time></trkpt><trkpt lat="44.4378636" lon="11.1152673"><ele>166.16666666666669</ele><time>2026-03-29T08:35:15.05Z</time></trkpt><trkpt lat="44.4378799" lon="11.1153556"><ele>166.0</ele><time>2026-03-29T08:35:16.05Z</time></trkpt><trkpt lat="44.4379009" lon="11.1155202"><ele>166.0</ele><time>2026-03-29T08:35:18.051Z</time></trkpt><trkpt lat="44.437912" lon="11.1156101"><ele>166.0</ele><time>2026-03-29T08:35:19.051Z</time></trkpt><trkpt lat="44.4379221" lon="11.1157121"><ele>166.0</ele><time>2026-03-29T08:35:20.05Z</time></trkpt><trkpt lat="44.4379333" lon="11.1158025"><ele>166.0</ele><time>2026-03-29T08:35:21.05Z</time></trkpt><trkpt lat="44.4379265" lon="11.1159262"><ele>166.0</ele><time>2026-03-29T08:35:23.051Z</time></trkpt><trkpt lat="44.437844" lon="11.1159564"><ele>166.0</ele><time>2026-03-29T08:35:25.051Z</time></trkpt><trkpt lat="44.4377295" lon="11.1159523"><ele>165.8</ele><time>2026-03-29T08:35:27.051Z</time></trkpt><trkpt lat="44.4376281" lon="11.1159064"><ele>165.60000000000002</ele><time>2026-03-29T08:35:29.051Z</time></trkpt><trkpt lat="44.4375451" lon="11.115863"><ele>165.4</ele><time>2026-03-29T08:35:30.05Z</time></trkpt><trkpt lat="44.437467" lon="11.1158097"><ele>165.2</ele><time>2026-03-29T08:35:31.051Z</time></trkpt><trkpt lat="44.437346" lon="11.1157764"><ele>165.0</ele><time>2026-03-29T08:35:33.05Z</time></trkpt><trkpt lat="44.4372786" lon="11.1157683"><ele>165.00000000000003</ele><time>2026-03-29T08:35:34.051Z</time></trkpt><trkpt lat="44.4372096" lon="11.1158133"><ele>165.0</ele><time>2026-03-29T08:35:35.051Z</time></trkpt><trkpt lat="44.4371477" lon="11.1158407"><ele>165.0</ele><time>2026-03-29T08:35:36.051Z</time></trkpt><trkpt lat="44.4370825" lon="11.1158853"><ele>165.0</ele><time>2026-03-29T08:35:37.05Z</time></trkpt><trkpt lat="44.4370315" lon="11.1159447"><ele>165.0</ele><time>2026-03-29T08:35:39.051Z</time></trkpt><trkpt lat="44.4369701" lon="11.1159157"><ele>165.00000000000003</ele><time>2026-03-29T08:35:41.051Z</time></trkpt><trkpt lat="44.436883" lon="11.1158675"><ele>165.0</ele><time>2026-03-29T08:35:43.051Z</time></trkpt><trkpt lat="44.436811" lon="11.1158491"><ele>165.2</ele><time>2026-03-29T08:35:44.05Z</time></trkpt><trkpt lat="44.4366774" lon="11.1158224"><ele>165.4</ele><time>2026-03-29T08:35:45.05Z</time></trkpt><trkpt lat="44.4365684" lon="11.1158145"><ele>165.60000000000002</ele><time>2026-03-29T08:35:46.051Z</time></trkpt><trkpt lat="44.436472" lon="11.115813"><ele>165.8</ele><time>2026-03-29T08:35:47.051Z</time></trkpt><trkpt lat="44.4363923" lon="11.1158026"><ele>166.0</ele><time>2026-03-29T08:35:48.051Z</time></trkpt><trkpt lat="44.4363093" lon="11.1158076"><ele>166.0</ele><time>2026-03-29T08:35:49.051Z</time></trkpt><trkpt lat="44.4362267" lon="11.115788"><ele>166.0</ele><time>2026-03-29T08:35:50.05Z</time></trkpt><trkpt lat="44.4361441" lon="11.1157924"><ele>166.0</ele><time>2026-03-29T08:35:51.051Z</time></trkpt><trkpt lat="44.4360741" lon="11.1157842"><ele>166.0</ele><time>2026-03-29T08:35:52.05Z</time></trkpt><trkpt lat="44.4360153" lon="11.1157496"><ele>166.0</ele><time>2026-03-29T08:35:53.05Z</time></trkpt><trkpt lat="44.4359099" lon="11.1157607"><ele>166.0</ele><time>2026-03-29T08:35:55.051Z</time></trkpt><trkpt lat="44.4358481" lon="11.1158149"><ele>166.0</ele><time>2026-03-29T08:35:56.051Z</time></trkpt><trkpt lat="44.4357741" lon="11.1158387"><ele>166.0</ele><time>2026-03-29T08:35:57.051Z</time></trkpt><trkpt lat="44.4356801" lon="11.1158247"><ele>166.0</ele><time>2026-03-29T08:35:59.051Z</time></trkpt><trkpt lat="44.4355545" lon="11.115838"><ele>166.0</ele><time>2026-03-29T08:36:01.051Z</time></trkpt><trkpt lat="44.435421" lon="11.1158137"><ele>166.0</ele><time>2026-03-29T08:36:03.05Z</time></trkpt><trkpt lat="44.4353302" lon="11.1158326"><ele>166.4</ele><time>2026-03-29T08:36:04.05Z</time></trkpt><trkpt lat="44.43523" lon="11.1158008"><ele>166.8</ele><time>2026-03-29T08:36:05.051Z</time></trkpt><trkpt lat="44.4351433" lon="11.1158093"><ele>167.20000000000002</ele><time>2026-03-29T08:36:06.051Z</time></trkpt><trkpt lat="44.4350658" lon="11.115811"><ele>167.60000000000002</ele><time>2026-03-29T08:36:07.05Z</time></trkpt><trkpt lat="44.4349067" lon="11.1157821"><ele>168.0</ele><time>2026-03-29T08:36:09.05Z</time></trkpt><trkpt lat="44.4348074" lon="11.1157599"><ele>168.4</ele><time>2026-03-29T08:36:10.051Z</time></trkpt><trkpt lat="44.4346814" lon="11.1157361"><ele>168.8</ele><time>2026-03-29T08:36:11.05Z</time></trkpt><trkpt lat="44.4345661" lon="11.1157175"><ele>169.2</ele><time>2026-03-29T08:36:12.051Z</time></trkpt><trkpt lat="44.4344607" lon="11.1157182"><ele>169.6</ele><time>2026-03-29T08:36:13.051Z</time></trkpt><trkpt lat="44.4343701" lon="11.1156943"><ele>170.0</ele><time>2026-03-29T08:36:14.05Z</time></trkpt><trkpt lat="44.4343014" lon="11.1156678"><ele>170.2</ele><time>2026-03-29T08:36:15.051Z</time></trkpt><trkpt lat="44.4341894" lon="11.1155913"><ele>170.4</ele><time>2026-03-29T08:36:17.05Z</time></trkpt><trkpt lat="44.4340765" lon="11.1155796"><ele>170.60000000000002</ele><time>2026-03-29T08:36:19.05Z</time></trkpt><trkpt lat="44.4339997" lon="11.1155801"><ele>170.8</ele><time>2026-03-29T08:36:20.051Z</time></trkpt><trkpt lat="44.4338983" lon="11.1155405"><ele>171.0</ele><time>2026-03-29T08:36:21.051Z</time></trkpt><trkpt lat="44.4337956" lon="11.1155122"><ele>171.0</ele><time>2026-03-29T08:36:22.051Z</time></trkpt><trkpt lat="44.4336806" lon="11.1154784"><ele>171.0</ele><time>2026-03-29T08:36:23.051Z</time></trkpt><trkpt lat="44.4335545" lon="11.1154536"><ele>171.0</ele><time>2026-03-29T08:36:24.05Z</time></trkpt><trkpt lat="44.4334132" lon="11.1154166"><ele>171.0</ele><time>2026-03-29T08:36:25.05Z</time></trkpt><trkpt lat="44.4332544" lon="11.1153967"><ele>171.0</ele><time>2026-03-29T08:36:26.05Z</time></trkpt><trkpt lat="44.4330911" lon="11.1153759"><ele>171.0</ele><time>2026-03-29T08:36:27.051Z</time></trkpt><trkpt lat="44.4329279" lon="11.1153503"><ele>171.0</ele><time>2026-03-29T08:36:28.051Z</time></trkpt><trkpt lat="44.4327917" lon="11.1153413"><ele>171.5</ele><time>2026-03-29T08:36:29.051Z</time></trkpt><trkpt lat="44.4326577" lon="11.1153212"><ele>172.0</ele><time>2026-03-29T08:36:30.051Z</time></trkpt><trkpt lat="44.4325321" lon="11.1153072"><ele>172.5</ele><time>2026-03-29T08:36:31.051Z</time></trkpt><trkpt lat="44.4324145" lon="11.1152875"><ele>173.0</ele><time>2026-03-29T08:36:32.051Z</time></trkpt><trkpt lat="44.4323147" lon="11.1152734"><ele>173.0</ele><time>2026-03-29T08:36:33.051Z</time></trkpt><trkpt lat="44.4322441" lon="11.1152561"><ele>173.0</ele><time>2026-03-29T08:36:34.051Z</time></trkpt><trkpt lat="44.4321543" lon="11.115239"><ele>173.0</ele><time>2026-03-29T08:36:36.051Z</time></trkpt><trkpt lat="44.4320986" lon="11.1151578"><ele>173.0</ele><time>2026-03-29T08:36:44.051Z</time></trkpt><trkpt lat="44.4321597" lon="11.1152135"><ele>173.0</ele><time>2026-03-29T08:36:52.051Z</time></trkpt><trkpt lat="44.432082" lon="11.1152665"><ele>173.0</ele><time>2026-03-29T08:36:56.051Z</time></trkpt><trkpt lat="44.4320191" lon="11.1152566"><ele>173.33333333333331</ele><time>2026-03-29T08:36:57.05Z</time></trkpt><trkpt lat="44.4319573" lon="11.1152024"><ele>173.66666666666666</ele><time>2026-03-29T08:36:59.051Z</time></trkpt><trkpt lat="44.4318258" lon="11.1151806"><ele>174.0</ele><time>2026-03-29T08:37:01.051Z</time></trkpt><trkpt lat="44.4317447" lon="11.1151563"><ele>174.33333333333334</ele><time>2026-03-29T08:37:02.05Z</time></trkpt><trkpt lat="44.4316722" lon="11.1151271"><ele>174.66666666666669</ele><time>2026-03-29T08:37:03.05Z</time></trkpt><trkpt lat="44.431597" lon="11.1151315"><ele>175.0</ele><time>2026-03-29T08:37:04.051Z</time></trkpt><trkpt lat="44.4315068" lon="11.1151224"><ele>175.0</ele><time>2026-03-29T08:37:05.051Z</time></trkpt><trkpt lat="44.4313953" lon="11.115102"><ele>175.0</ele><time>2026-03-29T08:37:06.051Z</time></trkpt><trkpt lat="44.4312925" lon="11.1150835"><ele>175.0</ele><time>2026-03-29T08:37:07.051Z</time></trkpt><trkpt lat="44.4312057" lon="11.1150668"><ele>175.0</ele><time>2026-03-29T08:37:08.05Z</time></trkpt><trkpt lat="44.4310806" lon="11.1150811"><ele>175.0</ele><time>2026-03-29T08:37:10.051Z</time></trkpt><trkpt lat="44.4310068" lon="11.1150893"><ele>174.8</ele><time>2026-03-29T08:37:11.051Z</time></trkpt><trkpt lat="44.4309378" lon="11.1150525"><ele>174.6</ele><time>2026-03-29T08:37:12.051Z</time></trkpt><trkpt lat="44.4308327" lon="11.1150092"><ele>174.39999999999998</ele><time>2026-03-29T08:37:14.05Z</time></trkpt><trkpt lat="44.4307217" lon="11.1150002"><ele>174.2</ele><time>2026-03-29T08:37:16.051Z</time></trkpt><trkpt lat="44.4306384" lon="11.1149143"><ele>174.0</ele><time>2026-03-29T08:37:18.05Z</time></trkpt><trkpt lat="44.4305794" lon="11.1148781"><ele>174.0</ele><time>2026-03-29T08:37:20.051Z</time></trkpt><trkpt lat="44.4304888" lon="11.1149393"><ele>174.0</ele><time>2026-03-29T08:37:22.051Z</time></trkpt><trkpt lat="44.4304081" lon="11.1149544"><ele>174.0</ele><time>2026-03-29T08:37:23.05Z</time></trkpt><trkpt lat="44.4302991" lon="11.1149565"><ele>174.0</ele><time>2026-03-29T08:37:24.05Z</time></trkpt><trkpt lat="44.430185" lon="11.1149445"><ele>174.0</ele><time>2026-03-29T08:37:25.05Z</time></trkpt><trkpt lat="44.4300877" lon="11.1149291"><ele>174.33333333333334</ele><time>2026-03-29T08:37:26.051Z</time></trkpt><trkpt lat="44.4300041" lon="11.1149125"><ele>174.66666666666666</ele><time>2026-03-29T08:37:27.051Z</time></trkpt><trkpt lat="44.4299431" lon="11.1148848"><ele>175.0</ele><time>2026-03-29T08:37:28.051Z</time></trkpt><trkpt lat="44.4298671" lon="11.1148286"><ele>175.33333333333331</ele><time>2026-03-29T08:37:30.051Z</time></trkpt><trkpt lat="44.4297806" lon="11.1148569"><ele>175.66666666666666</ele><time>2026-03-29T08:37:32.051Z</time></trkpt><trkpt lat="44.4297136" lon="11.1148543"><ele>176.0</ele><time>2026-03-29T08:37:33.051Z</time></trkpt><trkpt lat="44.4295953" lon="11.1148217"><ele>176.0</ele><time>2026-03-29T08:37:35.051Z</time></trkpt><trkpt lat="44.4295193" lon="11.1148011"><ele>176.0</ele><time>2026-03-29T08:37:36.05Z</time></trkpt><trkpt lat="44.42945" lon="11.114791"><ele>176.0</ele><time>2026-03-29T08:37:37.05Z</time></trkpt><trkpt lat="44.4293309" lon="11.1148014"><ele>176.0</ele><time>2026-03-29T08:37:39.05Z</time></trkpt><trkpt lat="44.4292582" lon="11.114779"><ele>176.0</ele><time>2026-03-29T08:37:41.05Z</time></trkpt><trkpt lat="44.4291911" lon="11.1147926"><ele>176.0</ele><time>2026-03-29T08:37:42.051Z</time></trkpt><trkpt lat="44.4290773" lon="11.1148699"><ele>176.0</ele><time>2026-03-29T08:37:44.05Z</time></trkpt><trkpt lat="44.4290022" lon="11.1148932"><ele>176.0</ele><time>2026-03-29T08:37:45.05Z</time></trkpt><trkpt lat="44.4289389" lon="11.1148908"><ele>176.0</ele><time>2026-03-29T08:37:46.05Z</time></trkpt><trkpt lat="44.4288676" lon="11.11487"><ele>176.0</ele><time>2026-03-29T08:37:47.051Z</time></trkpt><trkpt lat="44.4287636" lon="11.1148478"><ele>176.0</ele><time>2026-03-29T08:37:48.05Z</time></trkpt><trkpt lat="44.4286617" lon="11.114836"><ele>176.0</ele><time>2026-03-29T08:37:49.051Z</time></trkpt><trkpt lat="44.4285788" lon="11.1147762"><ele>176.20000000000002</ele><time>2026-03-29T08:37:50.051Z</time></trkpt><trkpt lat="44.428501" lon="11.1147455"><ele>176.4</ele><time>2026-03-29T08:37:51.051Z</time></trkpt><trkpt lat="44.4284279" lon="11.1146895"><ele>176.6</ele><time>2026-03-29T08:37:52.051Z</time></trkpt><trkpt lat="44.428333" lon="11.1146207"><ele>176.8</ele><time>2026-03-29T08:37:53.051Z</time></trkpt><trkpt lat="44.4282657" lon="11.1145438"><ele>177.0</ele><time>2026-03-29T08:37:54.051Z</time></trkpt><trkpt lat="44.4281969" lon="11.1144579"><ele>177.0</ele><time>2026-03-29T08:37:55.05Z</time></trkpt><trkpt lat="44.4281186" lon="11.1144163"><ele>177.0</ele><time>2026-03-29T08:37:56.05Z</time></trkpt><trkpt lat="44.4280107" lon="11.1144104"><ele>177.0</ele><time>2026-03-29T08:37:58.051Z</time></trkpt><trkpt lat="44.4279224" lon="11.1144518"><ele>177.0</ele><time>2026-03-29T08:38:00.051Z</time></trkpt><trkpt lat="44.4277905" lon="11.1143772"><ele>177.0</ele><time>2026-03-29T08:38:02.05Z</time></trkpt><trkpt lat="44.4276725" lon="11.1143188"><ele>176.6</ele><time>2026-03-29T08:38:04.051Z</time></trkpt><trkpt lat="44.427596" lon="11.1143007"><ele>176.2</ele><time>2026-03-29T08:38:05.051Z</time></trkpt><trkpt lat="44.4274934" lon="11.1142802"><ele>175.8</ele><time>2026-03-29T08:38:07.05Z</time></trkpt><trkpt lat="44.427368" lon="11.1142041"><ele>175.4</ele><time>2026-03-29T08:38:09.051Z</time></trkpt><trkpt lat="44.4272979" lon="11.1141561"><ele>175.0</ele><time>2026-03-29T08:38:10.051Z</time></trkpt><trkpt lat="44.4272309" lon="11.114128"><ele>175.6</ele><time>2026-03-29T08:38:11.05Z</time></trkpt><trkpt lat="44.4271811" lon="11.1140645"><ele>176.2</ele><time>2026-03-29T08:38:12.05Z</time></trkpt><trkpt lat="44.4271318" lon="11.1139507"><ele>176.8</ele><time>2026-03-29T08:38:13.051Z</time></trkpt><trkpt lat="44.4270787" lon="11.1138386"><ele>177.4</ele><time>2026-03-29T08:38:14.05Z</time></trkpt><trkpt lat="44.4270165" lon="11.1137363"><ele>178.0</ele><time>2026-03-29T08:38:15.05Z</time></trkpt><trkpt lat="44.4269489" lon="11.1136347"><ele>178.0</ele><time>2026-03-29T08:38:16.051Z</time></trkpt><trkpt lat="44.4268984" lon="11.1135222"><ele>178.0</ele><time>2026-03-29T08:38:17.05Z</time></trkpt><trkpt lat="44.4268448" lon="11.1134313"><ele>178.0</ele><time>2026-03-29T08:38:18.051Z</time></trkpt><trkpt lat="44.4268208" lon="11.1133143"><ele>178.0</ele><time>2026-03-29T08:38:20.051Z</time></trkpt><trkpt lat="44.4267767" lon="11.1132447"><ele>178.0</ele><time>2026-03-29T08:38:22.051Z</time></trkpt><trkpt lat="44.4267429" lon="11.1131534"><ele>178.0</ele><time>2026-03-29T08:38:25.05Z</time></trkpt><trkpt lat="44.4267131" lon="11.1130268"><ele>178.0</ele><time>2026-03-29T08:38:27.051Z</time></trkpt><trkpt lat="44.4266316" lon="11.1129498"><ele>178.0</ele><time>2026-03-29T08:38:29.051Z</time></trkpt><trkpt lat="44.426592" lon="11.1128711"><ele>178.0</ele><time>2026-03-29T08:38:32.05Z</time></trkpt><trkpt lat="44.4265683" lon="11.1127825"><ele>178.0</ele><time>2026-03-29T08:38:41.051Z</time></trkpt><trkpt lat="44.4265399" lon="11.1126629"><ele>178.0</ele><time>2026-03-29T08:38:44.05Z</time></trkpt><trkpt lat="44.4264447" lon="11.1125477"><ele>178.0</ele><time>2026-03-29T08:38:46.051Z</time></trkpt><trkpt lat="44.4263859" lon="11.1124777"><ele>178.0</ele><time>2026-03-29T08:38:47.051Z</time></trkpt><trkpt lat="44.4263186" lon="11.1124054"><ele>178.0</ele><time>2026-03-29T08:38:48.05Z</time></trkpt><trkpt lat="44.4262486" lon="11.1123176"><ele>178.0</ele><time>2026-03-29T08:38:49.051Z</time></trkpt><trkpt lat="44.4261797" lon="11.112223"><ele>178.0</ele><time>2026-03-29T08:38:50.051Z</time></trkpt><trkpt lat="44.4261119" lon="11.1121278"><ele>178.0</ele><time>2026-03-29T08:38:51.051Z</time></trkpt><trkpt lat="44.4260424" lon="11.1120287"><ele>178.75</ele><time>2026-03-29T08:38:52.051Z</time></trkpt><trkpt lat="44.4259049" lon="11.1118396"><ele>179.5</ele><time>2026-03-29T08:38:54.05Z</time></trkpt><trkpt lat="44.4258508" lon="11.1117417"><ele>180.25</ele><time>2026-03-29T08:38:55.05Z</time></trkpt><trkpt lat="44.4258027" lon="11.1116339"><ele>181.0</ele><time>2026-03-29T08:38:56.051Z</time></trkpt><trkpt lat="44.4257597" lon="11.1115219"><ele>181.0</ele><time>2026-03-29T08:38:57.051Z</time></trkpt><trkpt lat="44.4257047" lon="11.1114239"><ele>181.0</ele><time>2026-03-29T08:38:58.051Z</time></trkpt><trkpt lat="44.42563" lon="11.1113209"><ele>181.0</ele><time>2026-03-29T08:38:59.051Z</time></trkpt><trkpt lat="44.4255508" lon="11.111224"><ele>181.0</ele><time>2026-03-29T08:39:00.05Z</time></trkpt><trkpt lat="44.4254661" lon="11.1111183"><ele>181.0</ele><time>2026-03-29T08:39:01.051Z</time></trkpt><trkpt lat="44.425387" lon="11.1110127"><ele>181.0</ele><time>2026-03-29T08:39:02.051Z</time></trkpt><trkpt lat="44.4253082" lon="11.110918"><ele>181.0</ele><time>2026-03-29T08:39:03.05Z</time></trkpt><trkpt lat="44.4252399" lon="11.1108298"><ele>181.0</ele><time>2026-03-29T08:39:04.051Z</time></trkpt><trkpt lat="44.4251717" lon="11.1107445"><ele>181.0</ele><time>2026-03-29T08:39:05.05Z</time></trkpt><trkpt lat="44.4251078" lon="11.1106736"><ele>181.0</ele><time>2026-03-29T08:39:06.051Z</time></trkpt><trkpt lat="44.4250571" lon="11.1106062"><ele>181.0</ele><time>2026-03-29T08:39:07.051Z</time></trkpt><trkpt lat="44.4249661" lon="11.1105018"><ele>181.33333333333334</ele><time>2026-03-29T08:39:09.051Z</time></trkpt><trkpt lat="44.4248964" lon="11.1104563"><ele>181.66666666666669</ele><time>2026-03-29T08:39:11.051Z</time></trkpt><trkpt lat="44.4248513" lon="11.1103704"><ele>182.0</ele><time>2026-03-29T08:39:19.051Z</time></trkpt><trkpt lat="44.4248366" lon="11.1102694"><ele>182.33333333333334</ele><time>2026-03-29T08:39:21.051Z</time></trkpt><trkpt lat="44.4247952" lon="11.1101855"><ele>182.66666666666666</ele><time>2026-03-29T08:39:23.051Z</time></trkpt><trkpt lat="44.424723" lon="11.1101249"><ele>183.0</ele><time>2026-03-29T08:39:25.05Z</time></trkpt><trkpt lat="44.4246507" lon="11.1100957"><ele>183.60000000000002</ele><time>2026-03-29T08:39:27.05Z</time></trkpt><trkpt lat="44.424566" lon="11.1099826"><ele>184.20000000000002</ele><time>2026-03-29T08:39:29.051Z</time></trkpt><trkpt lat="44.424531" lon="11.1098907"><ele>184.8</ele><time>2026-03-29T08:39:30.051Z</time></trkpt><trkpt lat="44.4244518" lon="11.1098096"><ele>185.4</ele><time>2026-03-29T08:39:32.051Z</time></trkpt><trkpt lat="44.4243987" lon="11.1097515"><ele>186.0</ele><time>2026-03-29T08:39:33.05Z</time></trkpt><trkpt lat="44.4243211" lon="11.1096702"><ele>186.14285714285717</ele><time>2026-03-29T08:39:35.051Z</time></trkpt><trkpt lat="44.4242599" lon="11.1096158"><ele>186.28571428571428</ele><time>2026-03-29T08:39:36.051Z</time></trkpt><trkpt lat="44.4241884" lon="11.1096053"><ele>186.42857142857144</ele><time>2026-03-29T08:39:38.051Z</time></trkpt><trkpt lat="44.4241806" lon="11.1095036"><ele>186.57142857142858</ele><time>2026-03-29T08:39:40.051Z</time></trkpt><trkpt lat="44.4241204" lon="11.1094572"><ele>186.71428571428572</ele><time>2026-03-29T08:39:42.051Z</time></trkpt><trkpt lat="44.4240403" lon="11.1094027"><ele>186.85714285714286</ele><time>2026-03-29T08:39:44.051Z</time></trkpt><trkpt lat="44.4239759" lon="11.1093954"><ele>187.0</ele><time>2026-03-29T08:39:46.051Z</time></trkpt><trkpt lat="44.4239123" lon="11.1093688"><ele>187.0</ele><time>2026-03-29T08:39:49.051Z</time></trkpt><trkpt lat="44.4239069" lon="11.1092719"><ele>187.0</ele><time>2026-03-29T08:39:53.051Z</time></trkpt><trkpt lat="44.423841" lon="11.1092425"><ele>187.0</ele><time>2026-03-29T08:39:55.051Z</time></trkpt><trkpt lat="44.4237589" lon="11.1091836"><ele>187.0</ele><time>2026-03-29T08:39:57.05Z</time></trkpt><trkpt lat="44.4237051" lon="11.1090582"><ele>187.0</ele><time>2026-03-29T08:39:58.05Z</time></trkpt><trkpt lat="44.4236642" lon="11.1089535"><ele>187.0</ele><time>2026-03-29T08:39:59.05Z</time></trkpt><trkpt lat="44.4236217" lon="11.1088406"><ele>187.0</ele><time>2026-03-29T08:40:00.051Z</time></trkpt><trkpt lat="44.4235325" lon="11.1086782"><ele>187.0</ele><time>2026-03-29T08:40:02.051Z</time></trkpt><trkpt lat="44.423465" lon="11.1086144"><ele>187.0</ele><time>2026-03-29T08:40:07.051Z</time></trkpt><trkpt lat="44.4233517" lon="11.1085151"><ele>187.0</ele><time>2026-03-29T08:40:09.051Z</time></trkpt><trkpt lat="44.4232871" lon="11.1084739"><ele>187.0</ele><time>2026-03-29T08:40:10.05Z</time></trkpt><trkpt lat="44.4232081" lon="11.1084123"><ele>187.0</ele><time>2026-03-29T08:40:11.051Z</time></trkpt><trkpt lat="44.423128" lon="11.1083642"><ele>187.0</ele><time>2026-03-29T08:40:15.051Z</time></trkpt><trkpt lat="44.4230649" lon="11.1083233"><ele>187.0</ele><time>2026-03-29T08:40:17.051Z</time></trkpt><trkpt lat="44.422963" lon="11.1082231"><ele>187.0</ele><time>2026-03-29T08:40:19.05Z</time></trkpt><trkpt lat="44.4229209" lon="11.1081475"><ele>187.0</ele><time>2026-03-29T08:40:20.051Z</time></trkpt><trkpt lat="44.4228693" lon="11.1080739"><ele>187.0</ele><time>2026-03-29T08:40:21.05Z</time></trkpt><trkpt lat="44.4228124" lon="11.1079972"><ele>187.25</ele><time>2026-03-29T08:40:22.051Z</time></trkpt><trkpt lat="44.4227165" lon="11.1079247"><ele>187.5</ele><time>2026-03-29T08:40:24.05Z</time></trkpt><trkpt lat="44.4226231" lon="11.1078167"><ele>187.75</ele><time>2026-03-29T08:40:26.051Z</time></trkpt><trkpt lat="44.4225463" lon="11.1076683"><ele>188.0</ele><time>2026-03-29T08:40:29.05Z</time></trkpt><trkpt lat="44.4224384" lon="11.1076339"><ele>188.0</ele><time>2026-03-29T08:40:32.05Z</time></trkpt><trkpt lat="44.4223401" lon="11.1075681"><ele>188.0</ele><time>2026-03-29T08:40:34.051Z</time></trkpt><trkpt lat="44.4222745" lon="11.1074913"><ele>188.0</ele><time>2026-03-29T08:40:35.05Z</time></trkpt><trkpt lat="44.4222036" lon="11.1074756"><ele>188.0</ele><time>2026-03-29T08:40:37.051Z</time></trkpt><trkpt lat="44.4221489" lon="11.1074227"><ele>188.0</ele><time>2026-03-29T08:40:39.051Z</time></trkpt><trkpt lat="44.4221014" lon="11.1073626"><ele>188.0</ele><time>2026-03-29T08:40:40.05Z</time></trkpt><trkpt lat="44.4220502" lon="11.1072756"><ele>188.4</ele><time>2026-03-29T08:40:41.051Z</time></trkpt><trkpt lat="44.4219537" lon="11.1071493"><ele>188.8</ele><time>2026-03-29T08:40:43.051Z</time></trkpt><trkpt lat="44.421911" lon="11.107073"><ele>189.2</ele><time>2026-03-29T08:40:44.05Z</time></trkpt><trkpt lat="44.4218248" lon="11.1069537"><ele>189.6</ele><time>2026-03-29T08:40:46.051Z</time></trkpt><trkpt lat="44.4217491" lon="11.1068556"><ele>190.0</ele><time>2026-03-29T08:40:48.05Z</time></trkpt><trkpt lat="44.4216911" lon="11.1068001"><ele>190.0</ele><time>2026-03-29T08:40:49.051Z</time></trkpt><trkpt lat="44.4216339" lon="11.1067546"><ele>190.0</ele><time>2026-03-29T08:40:51.051Z</time></trkpt><trkpt lat="44.4215692" lon="11.1067602"><ele>190.0</ele><time>2026-03-29T08:40:54.051Z</time></trkpt><trkpt lat="44.4215286" lon="11.1066859"><ele>190.0</ele><time>2026-03-29T08:40:56.051Z</time></trkpt><trkpt lat="44.4214892" lon="11.1066113"><ele>190.0</ele><time>2026-03-29T08:40:58.051Z</time></trkpt><trkpt lat="44.4214279" lon="11.1065665"><ele>190.0</ele><time>2026-03-29T08:41:00.051Z</time></trkpt><trkpt lat="44.4213527" lon="11.1065254"><ele>190.0</ele><time>2026-03-29T08:41:02.05Z</time></trkpt><trkpt lat="44.4212711" lon="11.1064647"><ele>190.0</ele><time>2026-03-29T08:41:04.05Z</time></trkpt><trkpt lat="44.4211998" lon="11.1064239"><ele>190.0</ele><time>2026-03-29T08:41:06.051Z</time></trkpt><trkpt lat="44.4211359" lon="11.1063766"><ele>190.0</ele><time>2026-03-29T08:41:08.051Z</time></trkpt><trkpt lat="44.4210544" lon="11.1063204"><ele>190.0</ele><time>2026-03-29T08:41:10.051Z</time></trkpt><trkpt lat="44.4209913" lon="11.106267"><ele>190.0</ele><time>2026-03-29T08:41:12.051Z</time></trkpt><trkpt lat="44.4209299" lon="11.1062208"><ele>190.0</ele><time>2026-03-29T08:41:14.05Z</time></trkpt><trkpt lat="44.4208446" lon="11.1061827"><ele>190.0</ele><time>2026-03-29T08:41:16.05Z</time></trkpt><trkpt lat="44.4207025" lon="11.1061111"><ele>190.0</ele><time>2026-03-29T08:41:18.051Z</time></trkpt><trkpt lat="44.4206249" lon="11.1060528"><ele>190.0</ele><time>2026-03-29T08:41:19.051Z</time></trkpt><trkpt lat="44.4205617" lon="11.1060157"><ele>190.0</ele><time>2026-03-29T08:41:20.051Z</time></trkpt><trkpt lat="44.420486" lon="11.1059316"><ele>190.0</ele><time>2026-03-29T08:41:21.05Z</time></trkpt><trkpt lat="44.4204402" lon="11.1058709"><ele>190.2</ele><time>2026-03-29T08:41:23.051Z</time></trkpt><trkpt lat="44.4203248" lon="11.1058407"><ele>190.4</ele><time>2026-03-29T08:41:26.051Z</time></trkpt><trkpt lat="44.4202108" lon="11.1057437"><ele>190.60000000000002</ele><time>2026-03-29T08:41:28.051Z</time></trkpt><trkpt lat="44.420141" lon="11.1057041"><ele>190.8</ele><time>2026-03-29T08:41:29.051Z</time></trkpt><trkpt lat="44.4200421" lon="11.1056164"><ele>191.0</ele><time>2026-03-29T08:41:30.051Z</time></trkpt><trkpt lat="44.4199687" lon="11.1055584"><ele>191.0</ele><time>2026-03-29T08:41:31.051Z</time></trkpt><trkpt lat="44.4198973" lon="11.1055201"><ele>191.0</ele><time>2026-03-29T08:41:32.051Z</time></trkpt><trkpt lat="44.4198352" lon="11.1054986"><ele>191.0</ele><time>2026-03-29T08:41:33.051Z</time></trkpt><trkpt lat="44.4197733" lon="11.1054518"><ele>191.0</ele><time>2026-03-29T08:41:34.05Z</time></trkpt><trkpt lat="44.4196988" lon="11.1053885"><ele>191.0</ele><time>2026-03-29T08:41:35.051Z</time></trkpt><trkpt lat="44.4196321" lon="11.1053462"><ele>191.0</ele><time>2026-03-29T08:41:36.051Z</time></trkpt><trkpt lat="44.4195552" lon="11.1052943"><ele>191.33333333333331</ele><time>2026-03-29T08:41:37.051Z</time></trkpt><trkpt lat="44.419471" lon="11.1052591"><ele>191.66666666666666</ele><time>2026-03-29T08:41:38.051Z</time></trkpt><trkpt lat="44.4193981" lon="11.1052337"><ele>192.0</ele><time>2026-03-29T08:41:39.051Z</time></trkpt><trkpt lat="44.419323" lon="11.1051682"><ele>192.33333333333331</ele><time>2026-03-29T08:41:40.05Z</time></trkpt><trkpt lat="44.4192486" lon="11.1051346"><ele>192.66666666666666</ele><time>2026-03-29T08:41:41.051Z</time></trkpt><trkpt lat="44.4191873" lon="11.1051026"><ele>193.0</ele><time>2026-03-29T08:41:42.051Z</time></trkpt><trkpt lat="44.4191242" lon="11.1050728"><ele>193.0</ele><time>2026-03-29T08:41:44.051Z</time></trkpt><trkpt lat="44.4190092" lon="11.1049875"><ele>193.0</ele><time>2026-03-29T08:41:46.05Z</time></trkpt><trkpt lat="44.4189339" lon="11.1049498"><ele>193.0</ele><time>2026-03-29T08:41:47.051Z</time></trkpt><trkpt lat="44.4188793" lon="11.1048887"><ele>193.0</ele><time>2026-03-29T08:41:48.05Z</time></trkpt><trkpt lat="44.4188081" lon="11.1048598"><ele>193.0</ele><time>2026-03-29T08:41:50.05Z</time></trkpt><trkpt lat="44.418732" lon="11.104745"><ele>193.2</ele><time>2026-03-29T08:41:51.051Z</time></trkpt><trkpt lat="44.4186628" lon="11.1047081"><ele>193.4</ele><time>2026-03-29T08:41:53.051Z</time></trkpt><trkpt lat="44.4185424" lon="11.1046651"><ele>193.6</ele><time>2026-03-29T08:41:55.051Z</time></trkpt><trkpt lat="44.4184716" lon="11.1046032"><ele>193.79999999999998</ele><time>2026-03-29T08:41:57.05Z</time></trkpt><trkpt lat="44.4183674" lon="11.1045594"><ele>194.0</ele><time>2026-03-29T08:41:59.05Z</time></trkpt><trkpt lat="44.4183053" lon="11.1045424"><ele>194.00000000000003</ele><time>2026-03-29T08:42:01.05Z</time></trkpt><trkpt lat="44.418248" lon="11.1044974"><ele>194.0</ele><time>2026-03-29T08:42:03.051Z</time></trkpt><trkpt lat="44.4181729" lon="11.1044756"><ele>194.0</ele><time>2026-03-29T08:42:06.05Z</time></trkpt><trkpt lat="44.4181149" lon="11.1044354"><ele>194.0</ele><time>2026-03-29T08:42:08.051Z</time></trkpt><trkpt lat="44.4180342" lon="11.1043922"><ele>194.00000000000003</ele><time>2026-03-29T08:42:10.05Z</time></trkpt><trkpt lat="44.4179722" lon="11.1043542"><ele>194.0</ele><time>2026-03-29T08:42:12.051Z</time></trkpt><trkpt lat="44.4178911" lon="11.1043043"><ele>194.14285714285714</ele><time>2026-03-29T08:42:15.051Z</time></trkpt><trkpt lat="44.417825" lon="11.1042784"><ele>194.2857142857143</ele><time>2026-03-29T08:42:17.05Z</time></trkpt><trkpt lat="44.4177737" lon="11.1042249"><ele>194.42857142857144</ele><time>2026-03-29T08:42:20.051Z</time></trkpt><trkpt lat="44.417723" lon="11.1041682"><ele>194.57142857142856</ele><time>2026-03-29T08:42:23.051Z</time></trkpt><trkpt lat="44.4176616" lon="11.1040867"><ele>194.71428571428572</ele><time>2026-03-29T08:42:26.051Z</time></trkpt><trkpt lat="44.4175926" lon="11.1040569"><ele>194.85714285714286</ele><time>2026-03-29T08:44:20.051Z</time></trkpt><trkpt lat="44.4175474" lon="11.1039946"><ele>195.0</ele><time>2026-03-29T08:44:23.05Z</time></trkpt><trkpt lat="44.4175823" lon="11.1040726"><ele>195.0</ele><time>2026-03-29T08:44:43.051Z</time></trkpt><trkpt lat="44.4175125" lon="11.1040914"><ele>195.0</ele><time>2026-03-29T08:44:47.05Z</time></trkpt><trkpt lat="44.417432" lon="11.1040377"><ele>195.0</ele><time>2026-03-29T08:44:50.051Z</time></trkpt><trkpt lat="44.4173769" lon="11.1039882"><ele>195.0</ele><time>2026-03-29T08:44:53.051Z</time></trkpt><trkpt lat="44.417287" lon="11.1039529"><ele>195.0</ele><time>2026-03-29T08:44:56.051Z</time></trkpt><trkpt lat="44.4172183" lon="11.1039584"><ele>195.0</ele><time>2026-03-29T08:44:58.051Z</time></trkpt><trkpt lat="44.4171436" lon="11.103919"><ele>195.5</ele><time>2026-03-29T08:45:01.051Z</time></trkpt><trkpt lat="44.41707" lon="11.1038708"><ele>196.0</ele><time>2026-03-29T08:45:05.051Z</time></trkpt><trkpt lat="44.4170178" lon="11.1038152"><ele>196.5</ele><time>2026-03-29T08:45:11.051Z</time></trkpt><trkpt lat="44.4169457" lon="11.1037748"><ele>197.0</ele><time>2026-03-29T08:45:14.05Z</time></trkpt><trkpt lat="44.4168753" lon="11.1037725"><ele>197.5</ele><time>2026-03-29T08:45:16.05Z</time></trkpt><trkpt lat="44.4167817" lon="11.1037177"><ele>198.0</ele><time>2026-03-29T08:45:20.051Z</time></trkpt><trkpt lat="44.4167053" lon="11.1036899"><ele>198.0</ele><time>2026-03-29T08:45:25.051Z</time></trkpt><trkpt lat="44.4166535" lon="11.1036367"><ele>198.0</ele><time>2026-03-29T08:45:28.051Z</time></trkpt><trkpt lat="44.4165746" lon="11.1036127"><ele>198.0</ele><time>2026-03-29T08:45:32.051Z</time></trkpt><trkpt lat="44.4165037" lon="11.103589"><ele>198.0</ele><time>2026-03-29T08:45:35.051Z</time></trkpt><trkpt lat="44.4164555" lon="11.1035183"><ele>198.0</ele><time>2026-03-29T08:45:39.05Z</time></trkpt><trkpt lat="44.4163662" lon="11.1034623"><ele>198.0</ele><time>2026-03-29T08:45:41.051Z</time></trkpt><trkpt lat="44.4162964" lon="11.1034401"><ele>198.0</ele><time>2026-03-29T08:45:43.051Z</time></trkpt><trkpt lat="44.4162252" lon="11.1033915"><ele>198.0</ele><time>2026-03-29T08:45:47.051Z</time></trkpt><trkpt lat="44.4161677" lon="11.1033351"><ele>198.0</ele><time>2026-03-29T08:45:50.05Z</time></trkpt><trkpt lat="44.4161056" lon="11.1033161"><ele>198.0</ele><time>2026-03-29T08:45:52.051Z</time></trkpt><trkpt lat="44.4160258" lon="11.1032752"><ele>198.0</ele><time>2026-03-29T08:45:54.051Z</time></trkpt><trkpt lat="44.4159216" lon="11.1032134"><ele>198.0</ele><time>2026-03-29T08:45:56.051Z</time></trkpt><trkpt lat="44.4158145" lon="11.1031554"><ele>198.4</ele><time>2026-03-29T08:45:58.05Z</time></trkpt><trkpt lat="44.4157247" lon="11.1030876"><ele>198.8</ele><time>2026-03-29T08:46:00.051Z</time></trkpt><trkpt lat="44.4156662" lon="11.103021"><ele>199.2</ele><time>2026-03-29T08:46:01.051Z</time></trkpt><trkpt lat="44.4155771" lon="11.1029608"><ele>199.6</ele><time>2026-03-29T08:46:03.051Z</time></trkpt><trkpt lat="44.4154939" lon="11.1029317"><ele>200.0</ele><time>2026-03-29T08:46:05.051Z</time></trkpt><trkpt lat="44.41538" lon="11.1028277"><ele>200.00000000000003</ele><time>2026-03-29T08:46:07.051Z</time></trkpt><trkpt lat="44.4152911" lon="11.1027591"><ele>200.0</ele><time>2026-03-29T08:46:09.051Z</time></trkpt><trkpt lat="44.4152679" lon="11.1026219"><ele>200.0</ele><time>2026-03-29T08:46:15.051Z</time></trkpt><trkpt lat="44.4152064" lon="11.1025577"><ele>200.0</ele><time>2026-03-29T08:46:17.05Z</time></trkpt><trkpt lat="44.4151473" lon="11.1024645"><ele>200.00000000000003</ele><time>2026-03-29T08:46:20.051Z</time></trkpt><trkpt lat="44.4151599" lon="11.1023535"><ele>200.0</ele><time>2026-03-29T08:46:23.051Z</time></trkpt><trkpt lat="44.4151909" lon="11.1022395"><ele>200.00000000000003</ele><time>2026-03-29T08:46:27.05Z</time></trkpt><trkpt lat="44.4152411" lon="11.10213"><ele>200.0</ele><time>2026-03-29T08:46:29.051Z</time></trkpt><trkpt lat="44.4152514" lon="11.1020163"><ele>200.0</ele><time>2026-03-29T08:46:31.05Z</time></trkpt><trkpt lat="44.415306" lon="11.1018928"><ele>200.0</ele><time>2026-03-29T08:46:33.051Z</time></trkpt><trkpt lat="44.415284" lon="11.1018046"><ele>200.00000000000003</ele><time>2026-03-29T08:46:34.05Z</time></trkpt><trkpt lat="44.4152716" lon="11.1017146"><ele>200.0</ele><time>2026-03-29T08:46:35.051Z</time></trkpt><trkpt lat="44.4152415" lon="11.1016209"><ele>199.8</ele><time>2026-03-29T08:46:36.051Z</time></trkpt><trkpt lat="44.4152031" lon="11.1015267"><ele>199.6</ele><time>2026-03-29T08:46:37.051Z</time></trkpt><trkpt lat="44.4151536" lon="11.1014342"><ele>199.39999999999998</ele><time>2026-03-29T08:46:38.05Z</time></trkpt><trkpt lat="44.4150855" lon="11.1013369"><ele>199.2</ele><time>2026-03-29T08:46:39.051Z</time></trkpt><trkpt lat="44.4150015" lon="11.1012315"><ele>199.0</ele><time>2026-03-29T08:46:40.051Z</time></trkpt><trkpt lat="44.4149184" lon="11.1011249"><ele>199.0</ele><time>2026-03-29T08:46:41.05Z</time></trkpt><trkpt lat="44.4148413" lon="11.1010244"><ele>199.0</ele><time>2026-03-29T08:46:42.05Z</time></trkpt><trkpt lat="44.4147635" lon="11.1009127"><ele>199.0</ele><time>2026-03-29T08:46:43.05Z</time></trkpt><trkpt lat="44.4146903" lon="11.1008085"><ele>199.0</ele><time>2026-03-29T08:46:44.05Z</time></trkpt><trkpt lat="44.4146149" lon="11.1007047"><ele>199.0</ele><time>2026-03-29T08:46:45.051Z</time></trkpt><trkpt lat="44.4145423" lon="11.1005942"><ele>199.66666666666666</ele><time>2026-03-29T08:46:46.05Z</time></trkpt><trkpt lat="44.4144728" lon="11.1005086"><ele>200.33333333333331</ele><time>2026-03-29T08:46:47.051Z</time></trkpt><trkpt lat="44.4144184" lon="11.1004289"><ele>201.0</ele><time>2026-03-29T08:46:48.05Z</time></trkpt><trkpt lat="44.414359" lon="11.100365"><ele>201.66666666666669</ele><time>2026-03-29T08:46:49.051Z</time></trkpt><trkpt lat="44.4143109" lon="11.1003065"><ele>202.33333333333334</ele><time>2026-03-29T08:46:50.051Z</time></trkpt><trkpt lat="44.4143113" lon="11.1001911"><ele>203.0</ele><time>2026-03-29T08:46:53.05Z</time></trkpt><trkpt lat="44.414333" lon="11.1000834"><ele>203.0</ele><time>2026-03-29T08:46:55.051Z</time></trkpt><trkpt lat="44.4143664" lon="11.0999981"><ele>203.0</ele><time>2026-03-29T08:46:56.051Z</time></trkpt><trkpt lat="44.4144189" lon="11.0999036"><ele>203.0</ele><time>2026-03-29T08:46:57.051Z</time></trkpt><trkpt lat="44.4144781" lon="11.0998012"><ele>203.0</ele><time>2026-03-29T08:46:58.05Z</time></trkpt><trkpt lat="44.4145392" lon="11.0996905"><ele>203.0</ele><time>2026-03-29T08:46:59.051Z</time></trkpt><trkpt lat="44.4146059" lon="11.0995798"><ele>204.60000000000002</ele><time>2026-03-29T08:47:00.05Z</time></trkpt><trkpt lat="44.4146798" lon="11.0994652"><ele>206.20000000000002</ele><time>2026-03-29T08:47:01.051Z</time></trkpt><trkpt lat="44.4147558" lon="11.0993608"><ele>207.8</ele><time>2026-03-29T08:47:02.051Z</time></trkpt><trkpt lat="44.4148419" lon="11.0992743"><ele>209.4</ele><time>2026-03-29T08:47:03.051Z</time></trkpt><trkpt lat="44.41493" lon="11.0991932"><ele>211.0</ele><time>2026-03-29T08:47:04.05Z</time></trkpt><trkpt lat="44.4150223" lon="11.0991165"><ele>212.20000000000002</ele><time>2026-03-29T08:47:05.051Z</time></trkpt><trkpt lat="44.415115" lon="11.0990443"><ele>213.4</ele><time>2026-03-29T08:47:06.051Z</time></trkpt><trkpt lat="44.4152009" lon="11.098971"><ele>214.6</ele><time>2026-03-29T08:47:07.051Z</time></trkpt><trkpt lat="44.4152784" lon="11.0988873"><ele>215.8</ele><time>2026-03-29T08:47:08.051Z</time></trkpt><trkpt lat="44.4153445" lon="11.0987831"><ele>217.0</ele><time>2026-03-29T08:47:09.051Z</time></trkpt><trkpt lat="44.4154169" lon="11.0986855"><ele>217.0</ele><time>2026-03-29T08:47:10.051Z</time></trkpt><trkpt lat="44.4154677" lon="11.0985965"><ele>217.0</ele><time>2026-03-29T08:47:11.051Z</time></trkpt><trkpt lat="44.4155149" lon="11.0985274"><ele>217.0</ele><time>2026-03-29T08:47:12.051Z</time></trkpt><trkpt lat="44.415549" lon="11.0984531"><ele>217.0</ele><time>2026-03-29T08:47:13.051Z</time></trkpt><trkpt lat="44.4155858" lon="11.0983636"><ele>217.0</ele><time>2026-03-29T08:47:14.05Z</time></trkpt><trkpt lat="44.415621" lon="11.0982641"><ele>217.0</ele><time>2026-03-29T08:47:15.051Z</time></trkpt><trkpt lat="44.4156693" lon="11.0981715"><ele>217.0</ele><time>2026-03-29T08:47:16.05Z</time></trkpt><trkpt lat="44.4157041" lon="11.0980828"><ele>218.57142857142856</ele><time>2026-03-29T08:47:17.051Z</time></trkpt><trkpt lat="44.4157449" lon="11.0980015"><ele>220.14285714285714</ele><time>2026-03-29T08:47:18.051Z</time></trkpt><trkpt lat="44.4157829" lon="11.097911"><ele>221.71428571428572</ele><time>2026-03-29T08:47:19.051Z</time></trkpt><trkpt lat="44.4158235" lon="11.097827"><ele>223.28571428571428</ele><time>2026-03-29T08:47:20.051Z</time></trkpt><trkpt lat="44.4158625" lon="11.0977398"><ele>224.85714285714283</ele><time>2026-03-29T08:47:21.051Z</time></trkpt><trkpt lat="44.4158962" lon="11.0976623"><ele>226.42857142857142</ele><time>2026-03-29T08:47:22.051Z</time></trkpt><trkpt lat="44.4159261" lon="11.0975814"><ele>228.0</ele><time>2026-03-29T08:47:23.051Z</time></trkpt><trkpt lat="44.4159832" lon="11.0974548"><ele>228.33333333333334</ele><time>2026-03-29T08:47:25.05Z</time></trkpt><trkpt lat="44.4160172" lon="11.0973788"><ele>228.66666666666669</ele><time>2026-03-29T08:47:27.051Z</time></trkpt><trkpt lat="44.4160767" lon="11.0973348"><ele>229.0</ele><time>2026-03-29T08:47:39.051Z</time></trkpt><trkpt lat="44.4161138" lon="11.0974186"><ele>229.33333333333334</ele><time>2026-03-29T08:48:00.051Z</time></trkpt><trkpt lat="44.4160634" lon="11.0973185"><ele>229.66666666666669</ele><time>2026-03-29T08:48:03.051Z</time></trkpt><trkpt lat="44.4160017" lon="11.0972542"><ele>230.0</ele><time>2026-03-29T08:48:04.05Z</time></trkpt><trkpt lat="44.4159139" lon="11.0971796"><ele>230.0</ele><time>2026-03-29T08:48:05.05Z</time></trkpt><trkpt lat="44.4158228" lon="11.0970883"><ele>230.0</ele><time>2026-03-29T08:48:06.051Z</time></trkpt><trkpt lat="44.4157124" lon="11.0969718"><ele>230.0</ele><time>2026-03-29T08:48:07.051Z</time></trkpt><trkpt lat="44.4155924" lon="11.0968623"><ele>230.0</ele><time>2026-03-29T08:48:08.051Z</time></trkpt><trkpt lat="44.4154702" lon="11.0967389"><ele>230.0</ele><time>2026-03-29T08:48:09.05Z</time></trkpt><trkpt lat="44.4153466" lon="11.0966193"><ele>230.0</ele><time>2026-03-29T08:48:10.051Z</time></trkpt><trkpt lat="44.4152293" lon="11.0964993"><ele>230.0</ele><time>2026-03-29T08:48:11.051Z</time></trkpt><trkpt lat="44.4151121" lon="11.096379"><ele>230.0</ele><time>2026-03-29T08:48:12.05Z</time></trkpt><trkpt lat="44.4149941" lon="11.0962682"><ele>230.0</ele><time>2026-03-29T08:48:13.051Z</time></trkpt><trkpt lat="44.4148788" lon="11.0961611"><ele>230.0</ele><time>2026-03-29T08:48:14.051Z</time></trkpt><trkpt lat="44.4147652" lon="11.0960536"><ele>230.0</ele><time>2026-03-29T08:48:15.051Z</time></trkpt><trkpt lat="44.4146485" lon="11.0959422"><ele>230.0</ele><time>2026-03-29T08:48:16.051Z</time></trkpt><trkpt lat="44.4145319" lon="11.0958278"><ele>230.25</ele><time>2026-03-29T08:48:17.051Z</time></trkpt><trkpt lat="44.4144132" lon="11.0957098"><ele>230.5</ele><time>2026-03-29T08:48:18.05Z</time></trkpt><trkpt lat="44.4142965" lon="11.0955914"><ele>230.75</ele><time>2026-03-29T08:48:19.051Z</time></trkpt><trkpt lat="44.4141802" lon="11.0954681"><ele>231.0</ele><time>2026-03-29T08:48:20.051Z</time></trkpt><trkpt lat="44.4140669" lon="11.0953335"><ele>231.0</ele><time>2026-03-29T08:48:21.051Z</time></trkpt><trkpt lat="44.4139517" lon="11.0951957"><ele>231.0</ele><time>2026-03-29T08:48:22.051Z</time></trkpt><trkpt lat="44.4138369" lon="11.0950526"><ele>231.0</ele><time>2026-03-29T08:48:23.051Z</time></trkpt><trkpt lat="44.4137252" lon="11.0949092"><ele>230.66666666666669</ele><time>2026-03-29T08:48:24.051Z</time></trkpt><trkpt lat="44.4136122" lon="11.0947665"><ele>230.33333333333334</ele><time>2026-03-29T08:48:25.051Z</time></trkpt><trkpt lat="44.4134984" lon="11.0946241"><ele>230.0</ele><time>2026-03-29T08:48:26.051Z</time></trkpt><trkpt lat="44.4133867" lon="11.0944841"><ele>230.0</ele><time>2026-03-29T08:48:27.05Z</time></trkpt><trkpt lat="44.4132801" lon="11.0943436"><ele>230.0</ele><time>2026-03-29T08:48:28.051Z</time></trkpt><trkpt lat="44.4131753" lon="11.0942142"><ele>230.0</ele><time>2026-03-29T08:48:29.051Z</time></trkpt><trkpt lat="44.4130747" lon="11.0940916"><ele>230.0</ele><time>2026-03-29T08:48:30.051Z</time></trkpt><trkpt lat="44.4129731" lon="11.0939763"><ele>232.0</ele><time>2026-03-29T08:48:31.051Z</time></trkpt><trkpt lat="44.412862" lon="11.0938666"><ele>234.0</ele><time>2026-03-29T08:48:32.051Z</time></trkpt><trkpt lat="44.4127492" lon="11.0937575"><ele>236.0</ele><time>2026-03-29T08:48:33.05Z</time></trkpt><trkpt lat="44.4125092" lon="11.093547"><ele>236.0</ele><time>2026-03-29T08:48:35.051Z</time></trkpt><trkpt lat="44.412392" lon="11.0934313"><ele>236.0</ele><time>2026-03-29T08:48:36.051Z</time></trkpt><trkpt lat="44.4122801" lon="11.0933104"><ele>236.0</ele><time>2026-03-29T08:48:37.051Z</time></trkpt><trkpt lat="44.4121648" lon="11.0931889"><ele>236.0</ele><time>2026-03-29T08:48:38.051Z</time></trkpt><trkpt lat="44.4120527" lon="11.0930645"><ele>234.5</ele><time>2026-03-29T08:48:39.051Z</time></trkpt><trkpt lat="44.4119409" lon="11.0929491"><ele>233.0</ele><time>2026-03-29T08:48:40.051Z</time></trkpt><trkpt lat="44.4118275" lon="11.0928294"><ele>231.5</ele><time>2026-03-29T08:48:41.051Z</time></trkpt><trkpt lat="44.4117121" lon="11.0927108"><ele>230.0</ele><time>2026-03-29T08:48:42.051Z</time></trkpt><trkpt lat="44.41159" lon="11.0925901"><ele>230.0</ele><time>2026-03-29T08:48:43.05Z</time></trkpt><trkpt lat="44.4114747" lon="11.0924739"><ele>230.0</ele><time>2026-03-29T08:48:44.051Z</time></trkpt><trkpt lat="44.411361" lon="11.0923504"><ele>230.0</ele><time>2026-03-29T08:48:45.051Z</time></trkpt><trkpt lat="44.4112426" lon="11.0922286"><ele>230.0</ele><time>2026-03-29T08:48:46.051Z</time></trkpt><trkpt lat="44.4111332" lon="11.0921076"><ele>228.25</ele><time>2026-03-29T08:48:47.051Z</time></trkpt><trkpt lat="44.4110197" lon="11.0919902"><ele>226.5</ele><time>2026-03-29T08:48:48.051Z</time></trkpt><trkpt lat="44.4109127" lon="11.0918726"><ele>224.75</ele><time>2026-03-29T08:48:49.051Z</time></trkpt><trkpt lat="44.4107999" lon="11.0917461"><ele>223.0</ele><time>2026-03-29T08:48:50.05Z</time></trkpt><trkpt lat="44.4106887" lon="11.0916229"><ele>223.0</ele><time>2026-03-29T08:48:51.05Z</time></trkpt><trkpt lat="44.4105758" lon="11.0914985"><ele>223.0</ele><time>2026-03-29T08:48:52.051Z</time></trkpt><trkpt lat="44.4104639" lon="11.0913681"><ele>223.0</ele><time>2026-03-29T08:48:53.05Z</time></trkpt><trkpt lat="44.4103516" lon="11.091236"><ele>223.0</ele><time>2026-03-29T08:48:54.05Z</time></trkpt><trkpt lat="44.4102404" lon="11.0911082"><ele>223.0</ele><time>2026-03-29T08:48:55.051Z</time></trkpt><trkpt lat="44.4101281" lon="11.0909763"><ele>223.0</ele><time>2026-03-29T08:48:56.051Z</time></trkpt><trkpt lat="44.4100162" lon="11.0908474"><ele>223.0</ele><time>2026-03-29T08:48:57.05Z</time></trkpt><trkpt lat="44.4099052" lon="11.0907195"><ele>223.0</ele><time>2026-03-29T08:48:58.05Z</time></trkpt><trkpt lat="44.4097899" lon="11.0905966"><ele>224.25</ele><time>2026-03-29T08:48:59.05Z</time></trkpt><trkpt lat="44.4096742" lon="11.0904824"><ele>225.5</ele><time>2026-03-29T08:49:00.051Z</time></trkpt><trkpt lat="44.4095596" lon="11.0903667"><ele>226.75</ele><time>2026-03-29T08:49:01.051Z</time></trkpt><trkpt lat="44.4094428" lon="11.0902571"><ele>228.0</ele><time>2026-03-29T08:49:02.05Z</time></trkpt><trkpt lat="44.4093287" lon="11.0901463"><ele>227.5</ele><time>2026-03-29T08:49:03.05Z</time></trkpt><trkpt lat="44.4092126" lon="11.0900398"><ele>227.0</ele><time>2026-03-29T08:49:04.051Z</time></trkpt><trkpt lat="44.4090985" lon="11.0899357"><ele>226.5</ele><time>2026-03-29T08:49:05.051Z</time></trkpt><trkpt lat="44.4089843" lon="11.0898279"><ele>226.0</ele><time>2026-03-29T08:49:06.05Z</time></trkpt><trkpt lat="44.4088747" lon="11.0897279"><ele>225.0</ele><time>2026-03-29T08:49:07.05Z</time></trkpt><trkpt lat="44.4087694" lon="11.0896257"><ele>224.0</ele><time>2026-03-29T08:49:08.05Z</time></trkpt><trkpt lat="44.4086607" lon="11.0895272"><ele>223.0</ele><time>2026-03-29T08:49:09.051Z</time></trkpt><trkpt lat="44.4085422" lon="11.0894195"><ele>222.0</ele><time>2026-03-29T08:49:10.051Z</time></trkpt><trkpt lat="44.4084182" lon="11.0893026"><ele>222.0</ele><time>2026-03-29T08:49:11.051Z</time></trkpt><trkpt lat="44.4082943" lon="11.0891811"><ele>222.0</ele><time>2026-03-29T08:49:12.051Z</time></trkpt><trkpt lat="44.4081684" lon="11.0890585"><ele>222.0</ele><time>2026-03-29T08:49:13.05Z</time></trkpt><trkpt lat="44.4080428" lon="11.0889356"><ele>222.25</ele><time>2026-03-29T08:49:14.05Z</time></trkpt><trkpt lat="44.4079179" lon="11.0888125"><ele>222.5</ele><time>2026-03-29T08:49:15.05Z</time></trkpt><trkpt lat="44.4078025" lon="11.0886851"><ele>222.75</ele><time>2026-03-29T08:49:16.051Z</time></trkpt><trkpt lat="44.4076904" lon="11.0885527"><ele>223.0</ele><time>2026-03-29T08:49:17.051Z</time></trkpt><trkpt lat="44.407583" lon="11.088415"><ele>223.0</ele><time>2026-03-29T08:49:18.05Z</time></trkpt><trkpt lat="44.4074755" lon="11.0882735"><ele>223.0</ele><time>2026-03-29T08:49:19.05Z</time></trkpt><trkpt lat="44.4073735" lon="11.0881284"><ele>223.0</ele><time>2026-03-29T08:49:20.051Z</time></trkpt><trkpt lat="44.4072707" lon="11.0879787"><ele>223.0</ele><time>2026-03-29T08:49:21.051Z</time></trkpt><trkpt lat="44.4071693" lon="11.0878335"><ele>223.0</ele><time>2026-03-29T08:49:22.05Z</time></trkpt><trkpt lat="44.407067" lon="11.087685"><ele>223.0</ele><time>2026-03-29T08:49:23.05Z</time></trkpt><trkpt lat="44.4069642" lon="11.0875389"><ele>223.0</ele><time>2026-03-29T08:49:24.05Z</time></trkpt><trkpt lat="44.4068605" lon="11.0873938"><ele>223.0</ele><time>2026-03-29T08:49:25.05Z</time></trkpt><trkpt lat="44.4067567" lon="11.0872486"><ele>225.25</ele><time>2026-03-29T08:49:26.051Z</time></trkpt><trkpt lat="44.406654" lon="11.087104"><ele>227.5</ele><time>2026-03-29T08:49:27.051Z</time></trkpt><trkpt lat="44.4065524" lon="11.0869543"><ele>229.75</ele><time>2026-03-29T08:49:28.051Z</time></trkpt><trkpt lat="44.4064497" lon="11.086807"><ele>232.0</ele><time>2026-03-29T08:49:29.051Z</time></trkpt><trkpt lat="44.4063547" lon="11.0866613"><ele>230.5</ele><time>2026-03-29T08:49:30.051Z</time></trkpt><trkpt lat="44.406256" lon="11.0865066"><ele>229.0</ele><time>2026-03-29T08:49:31.051Z</time></trkpt><trkpt lat="44.406161" lon="11.0863508"><ele>227.5</ele><time>2026-03-29T08:49:32.051Z</time></trkpt><trkpt lat="44.4060697" lon="11.0861864"><ele>226.0</ele><time>2026-03-29T08:49:33.051Z</time></trkpt><trkpt lat="44.4059804" lon="11.0860228"><ele>226.0</ele><time>2026-03-29T08:49:34.05Z</time></trkpt><trkpt lat="44.4058845" lon="11.0858581"><ele>226.0</ele><time>2026-03-29T08:49:35.05Z</time></trkpt><trkpt lat="44.4057894" lon="11.0856997"><ele>226.0</ele><time>2026-03-29T08:49:36.051Z</time></trkpt><trkpt lat="44.4056953" lon="11.0855388"><ele>226.0</ele><time>2026-03-29T08:49:37.051Z</time></trkpt><trkpt lat="44.405606" lon="11.0853768"><ele>226.5</ele><time>2026-03-29T08:49:38.05Z</time></trkpt><trkpt lat="44.405515" lon="11.0852154"><ele>227.0</ele><time>2026-03-29T08:49:39.051Z</time></trkpt><trkpt lat="44.4054215" lon="11.085053"><ele>227.5</ele><time>2026-03-29T08:49:40.051Z</time></trkpt><trkpt lat="44.4053293" lon="11.0848884"><ele>228.0</ele><time>2026-03-29T08:49:41.051Z</time></trkpt><trkpt lat="44.4052328" lon="11.0847229"><ele>229.33333333333331</ele><time>2026-03-29T08:49:42.05Z</time></trkpt><trkpt lat="44.4051388" lon="11.0845528"><ele>230.66666666666666</ele><time>2026-03-29T08:49:43.05Z</time></trkpt><trkpt lat="44.405045" lon="11.0843873"><ele>232.0</ele><time>2026-03-29T08:49:44.05Z</time></trkpt><trkpt lat="44.4049511" lon="11.0842197"><ele>233.0</ele><time>2026-03-29T08:49:45.051Z</time></trkpt><trkpt lat="44.4048573" lon="11.0840522"><ele>234.0</ele><time>2026-03-29T08:49:46.051Z</time></trkpt><trkpt lat="44.4047617" lon="11.0838875"><ele>235.0</ele><time>2026-03-29T08:49:47.051Z</time></trkpt><trkpt lat="44.4046639" lon="11.0837227"><ele>235.0</ele><time>2026-03-29T08:49:48.051Z</time></trkpt><trkpt lat="44.4045688" lon="11.0835578"><ele>235.0</ele><time>2026-03-29T08:49:49.05Z</time></trkpt><trkpt lat="44.4044764" lon="11.0833907"><ele>235.0</ele><time>2026-03-29T08:49:50.05Z</time></trkpt><trkpt lat="44.4043821" lon="11.0832262"><ele>235.0</ele><time>2026-03-29T08:49:51.05Z</time></trkpt><trkpt lat="44.4042879" lon="11.0830714"><ele>235.0</ele><time>2026-03-29T08:49:52.051Z</time></trkpt><trkpt lat="44.4041867" lon="11.0829265"><ele>235.0</ele><time>2026-03-29T08:49:53.05Z</time></trkpt><trkpt lat="44.4040806" lon="11.0827899"><ele>235.0</ele><time>2026-03-29T08:49:54.051Z</time></trkpt><trkpt lat="44.4039699" lon="11.0826643"><ele>235.0</ele><time>2026-03-29T08:49:55.051Z</time></trkpt><trkpt lat="44.4038552" lon="11.0825489"><ele>235.0</ele><time>2026-03-29T08:49:56.05Z</time></trkpt><trkpt lat="44.4037381" lon="11.0824394"><ele>235.0</ele><time>2026-03-29T08:49:57.051Z</time></trkpt><trkpt lat="44.4036185" lon="11.0823342"><ele>235.0</ele><time>2026-03-29T08:49:58.051Z</time></trkpt><trkpt lat="44.4035023" lon="11.0822311"><ele>235.75</ele><time>2026-03-29T08:49:59.05Z</time></trkpt><trkpt lat="44.4033883" lon="11.0821291"><ele>236.5</ele><time>2026-03-29T08:50:00.051Z</time></trkpt><trkpt lat="44.4032728" lon="11.0820229"><ele>237.25</ele><time>2026-03-29T08:50:01.05Z</time></trkpt><trkpt lat="44.4031558" lon="11.0819118"><ele>238.0</ele><time>2026-03-29T08:50:02.051Z</time></trkpt><trkpt lat="44.4030386" lon="11.0817988"><ele>238.0</ele><time>2026-03-29T08:50:03.051Z</time></trkpt><trkpt lat="44.4029187" lon="11.0816826"><ele>238.0</ele><time>2026-03-29T08:50:04.051Z</time></trkpt><trkpt lat="44.4028006" lon="11.0815683"><ele>238.0</ele><time>2026-03-29T08:50:05.051Z</time></trkpt><trkpt lat="44.4026761" lon="11.0814562"><ele>238.0</ele><time>2026-03-29T08:50:06.051Z</time></trkpt><trkpt lat="44.4025551" lon="11.0813426"><ele>238.0</ele><time>2026-03-29T08:50:07.05Z</time></trkpt><trkpt lat="44.4024298" lon="11.0812293"><ele>238.0</ele><time>2026-03-29T08:50:08.05Z</time></trkpt><trkpt lat="44.4023065" lon="11.0811166"><ele>238.0</ele><time>2026-03-29T08:50:09.051Z</time></trkpt><trkpt lat="44.4021847" lon="11.0810008"><ele>238.0</ele><time>2026-03-29T08:50:10.05Z</time></trkpt><trkpt lat="44.4020639" lon="11.0808859"><ele>238.0</ele><time>2026-03-29T08:50:11.05Z</time></trkpt><trkpt lat="44.4019433" lon="11.0807721"><ele>238.0</ele><time>2026-03-29T08:50:12.051Z</time></trkpt><trkpt lat="44.4018214" lon="11.0806588"><ele>238.0</ele><time>2026-03-29T08:50:13.05Z</time></trkpt><trkpt lat="44.401697" lon="11.0805407"><ele>238.0</ele><time>2026-03-29T08:50:14.05Z</time></trkpt><trkpt lat="44.401573" lon="11.0804225"><ele>238.75</ele><time>2026-03-29T08:50:15.05Z</time></trkpt><trkpt lat="44.4014518" lon="11.0803031"><ele>239.5</ele><time>2026-03-29T08:50:16.051Z</time></trkpt><trkpt lat="44.4013314" lon="11.0801846"><ele>240.25</ele><time>2026-03-29T08:50:17.05Z</time></trkpt><trkpt lat="44.4012085" lon="11.080071"><ele>241.0</ele><time>2026-03-29T08:50:18.051Z</time></trkpt><trkpt lat="44.4010904" lon="11.0799522"><ele>242.75</ele><time>2026-03-29T08:50:19.051Z</time></trkpt><trkpt lat="44.4009757" lon="11.079826"><ele>244.5</ele><time>2026-03-29T08:50:20.05Z</time></trkpt><trkpt lat="44.4008605" lon="11.0796905"><ele>246.25</ele><time>2026-03-29T08:50:21.051Z</time></trkpt><trkpt lat="44.4007574" lon="11.0795479"><ele>248.0</ele><time>2026-03-29T08:50:22.051Z</time></trkpt><trkpt lat="44.4006632" lon="11.0794046"><ele>248.0</ele><time>2026-03-29T08:50:23.051Z</time></trkpt><trkpt lat="44.4005725" lon="11.0792582"><ele>248.0</ele><time>2026-03-29T08:50:24.051Z</time></trkpt><trkpt lat="44.4004837" lon="11.0791095"><ele>248.0</ele><time>2026-03-29T08:50:25.051Z</time></trkpt><trkpt lat="44.4003899" lon="11.0789619"><ele>248.0</ele><time>2026-03-29T08:50:26.05Z</time></trkpt><trkpt lat="44.4002963" lon="11.0788103"><ele>247.75</ele><time>2026-03-29T08:50:27.05Z</time></trkpt><trkpt lat="44.4002048" lon="11.0786633"><ele>247.5</ele><time>2026-03-29T08:50:28.051Z</time></trkpt><trkpt lat="44.4001139" lon="11.0785204"><ele>247.25</ele><time>2026-03-29T08:50:29.051Z</time></trkpt><trkpt lat="44.4000239" lon="11.0783873"><ele>247.0</ele><time>2026-03-29T08:50:30.05Z</time></trkpt><trkpt lat="44.3999386" lon="11.0782494"><ele>247.0</ele><time>2026-03-29T08:50:31.051Z</time></trkpt><trkpt lat="44.3998609" lon="11.0781167"><ele>247.0</ele><time>2026-03-29T08:50:32.05Z</time></trkpt><trkpt lat="44.3997897" lon="11.0779908"><ele>247.0</ele><time>2026-03-29T08:50:33.05Z</time></trkpt><trkpt lat="44.399724" lon="11.0778756"><ele>247.0</ele><time>2026-03-29T08:50:34.05Z</time></trkpt><trkpt lat="44.3996675" lon="11.0777738"><ele>247.0</ele><time>2026-03-29T08:50:35.05Z</time></trkpt><trkpt lat="44.399622" lon="11.0777005"><ele>246.66666666666666</ele><time>2026-03-29T08:50:36.05Z</time></trkpt><trkpt lat="44.3995927" lon="11.077612"><ele>246.33333333333331</ele><time>2026-03-29T08:50:39.051Z</time></trkpt><trkpt lat="44.3995354" lon="11.077542"><ele>246.0</ele><time>2026-03-29T08:52:42.049Z</time></trkpt><trkpt lat="44.3994762" lon="11.0774449"><ele>245.66666666666669</ele><time>2026-03-29T08:52:44.049Z</time></trkpt><trkpt lat="44.3994025" lon="11.0772915"><ele>245.33333333333334</ele><time>2026-03-29T08:52:46.049Z</time></trkpt><trkpt lat="44.3993867" lon="11.0772029"><ele>245.0</ele><time>2026-03-29T08:52:47.049Z</time></trkpt><trkpt lat="44.3993678" lon="11.0770197"><ele>246.2</ele><time>2026-03-29T08:52:49.049Z</time></trkpt><trkpt lat="44.3993609" lon="11.0768318"><ele>247.4</ele><time>2026-03-29T08:52:51.048Z</time></trkpt><trkpt lat="44.3993415" lon="11.0767286"><ele>248.60000000000002</ele><time>2026-03-29T08:52:52.049Z</time></trkpt><trkpt lat="44.3993362" lon="11.0766231"><ele>249.8</ele><time>2026-03-29T08:52:53.049Z</time></trkpt><trkpt lat="44.3993221" lon="11.0764939"><ele>251.0</ele><time>2026-03-29T08:52:54.048Z</time></trkpt><trkpt lat="44.3993266" lon="11.0763532"><ele>251.60000000000002</ele><time>2026-03-29T08:52:55.048Z</time></trkpt><trkpt lat="44.3993246" lon="11.0761997"><ele>252.20000000000002</ele><time>2026-03-29T08:52:56.049Z</time></trkpt><trkpt lat="44.3993322" lon="11.0760443"><ele>252.79999999999998</ele><time>2026-03-29T08:52:57.049Z</time></trkpt><trkpt lat="44.3993327" lon="11.0758897"><ele>253.39999999999998</ele><time>2026-03-29T08:52:58.049Z</time></trkpt><trkpt lat="44.3993295" lon="11.0757419"><ele>254.0</ele><time>2026-03-29T08:52:59.049Z</time></trkpt><trkpt lat="44.3993251" lon="11.0756002"><ele>254.16666666666669</ele><time>2026-03-29T08:53:00.049Z</time></trkpt><trkpt lat="44.3993297" lon="11.0754721"><ele>254.33333333333334</ele><time>2026-03-29T08:53:01.049Z</time></trkpt><trkpt lat="44.3993437" lon="11.0753595"><ele>254.5</ele><time>2026-03-29T08:53:02.048Z</time></trkpt><trkpt lat="44.3993587" lon="11.0752381"><ele>254.66666666666669</ele><time>2026-03-29T08:53:03.049Z</time></trkpt><trkpt lat="44.3993745" lon="11.0751249"><ele>254.83333333333334</ele><time>2026-03-29T08:53:04.049Z</time></trkpt><trkpt lat="44.3993822" lon="11.0750163"><ele>255.0</ele><time>2026-03-29T08:53:05.048Z</time></trkpt><trkpt lat="44.3993868" lon="11.0749095"><ele>255.33333333333334</ele><time>2026-03-29T08:53:06.048Z</time></trkpt><trkpt lat="44.3993926" lon="11.0748031"><ele>255.66666666666669</ele><time>2026-03-29T08:53:07.049Z</time></trkpt><trkpt lat="44.3994073" lon="11.0746853"><ele>256.0</ele><time>2026-03-29T08:53:08.048Z</time></trkpt><trkpt lat="44.3994245" lon="11.0745764"><ele>256.33333333333337</ele><time>2026-03-29T08:53:09.049Z</time></trkpt><trkpt lat="44.3994452" lon="11.0744633"><ele>256.6666666666667</ele><time>2026-03-29T08:53:10.049Z</time></trkpt><trkpt lat="44.3994705" lon="11.0743539"><ele>257.0</ele><time>2026-03-29T08:53:11.049Z</time></trkpt><trkpt lat="44.3994798" lon="11.0742427"><ele>257.0</ele><time>2026-03-29T08:53:12.048Z</time></trkpt><trkpt lat="44.3994858" lon="11.0741138"><ele>257.0</ele><time>2026-03-29T08:53:13.049Z</time></trkpt><trkpt lat="44.3994862" lon="11.073977"><ele>257.0</ele><time>2026-03-29T08:53:14.049Z</time></trkpt><trkpt lat="44.3994815" lon="11.0738537"><ele>257.0</ele><time>2026-03-29T08:53:15.048Z</time></trkpt><trkpt lat="44.3994804" lon="11.0737395"><ele>257.0</ele><time>2026-03-29T08:53:16.049Z</time></trkpt><trkpt lat="44.3994823" lon="11.0736229"><ele>257.0</ele><time>2026-03-29T08:53:17.048Z</time></trkpt><trkpt lat="44.3994739" lon="11.0735003"><ele>257.8</ele><time>2026-03-29T08:53:18.048Z</time></trkpt><trkpt lat="44.3994869" lon="11.0733086"><ele>258.6</ele><time>2026-03-29T08:53:20.049Z</time></trkpt><trkpt lat="44.3995326" lon="11.0731623"><ele>259.40000000000003</ele><time>2026-03-29T08:53:22.049Z</time></trkpt><trkpt lat="44.3995823" lon="11.0730906"><ele>260.2</ele><time>2026-03-29T08:53:23.048Z</time></trkpt><trkpt lat="44.399629" lon="11.0729949"><ele>261.0</ele><time>2026-03-29T08:53:24.049Z</time></trkpt><trkpt lat="44.3996881" lon="11.0729353"><ele>261.3333333333333</ele><time>2026-03-29T08:53:25.049Z</time></trkpt><trkpt lat="44.3997928" lon="11.072916"><ele>261.6666666666667</ele><time>2026-03-29T08:53:26.048Z</time></trkpt><trkpt lat="44.3998789" lon="11.0728736"><ele>262.0</ele><time>2026-03-29T08:53:27.049Z</time></trkpt><trkpt lat="44.3999382" lon="11.0728031"><ele>262.33333333333337</ele><time>2026-03-29T08:53:28.048Z</time></trkpt><trkpt lat="44.4000052" lon="11.0727491"><ele>262.6666666666667</ele><time>2026-03-29T08:53:29.049Z</time></trkpt><trkpt lat="44.400061" lon="11.0726953"><ele>263.0</ele><time>2026-03-29T08:53:30.048Z</time></trkpt><trkpt lat="44.4001121" lon="11.072619"><ele>263.0</ele><time>2026-03-29T08:53:31.049Z</time></trkpt><trkpt lat="44.400162" lon="11.0725304"><ele>263.0</ele><time>2026-03-29T08:53:32.049Z</time></trkpt><trkpt lat="44.4002131" lon="11.0723883"><ele>263.0</ele><time>2026-03-29T08:53:33.049Z</time></trkpt><trkpt lat="44.4002753" lon="11.0722678"><ele>263.0</ele><time>2026-03-29T08:53:34.049Z</time></trkpt><trkpt lat="44.4003471" lon="11.072171"><ele>263.0</ele><time>2026-03-29T08:53:35.049Z</time></trkpt><trkpt lat="44.4004006" lon="11.0720935"><ele>265.4</ele><time>2026-03-29T08:53:36.049Z</time></trkpt><trkpt lat="44.40047" lon="11.0720336"><ele>267.8</ele><time>2026-03-29T08:53:37.049Z</time></trkpt><trkpt lat="44.4005427" lon="11.0719767"><ele>270.2</ele><time>2026-03-29T08:53:38.048Z</time></trkpt><trkpt lat="44.4006272" lon="11.071928"><ele>272.6</ele><time>2026-03-29T08:53:39.049Z</time></trkpt><trkpt lat="44.4007266" lon="11.0718834"><ele>275.0</ele><time>2026-03-29T08:53:40.049Z</time></trkpt><trkpt lat="44.4008249" lon="11.0718495"><ele>275.0</ele><time>2026-03-29T08:53:41.049Z</time></trkpt><trkpt lat="44.4009524" lon="11.0718499"><ele>275.0</ele><time>2026-03-29T08:53:42.049Z</time></trkpt><trkpt lat="44.4010732" lon="11.0718407"><ele>275.0</ele><time>2026-03-29T08:53:43.049Z</time></trkpt><trkpt lat="44.401184" lon="11.0718158"><ele>275.0</ele><time>2026-03-29T08:53:44.049Z</time></trkpt><trkpt lat="44.4013032" lon="11.0717928"><ele>275.0</ele><time>2026-03-29T08:53:45.049Z</time></trkpt><trkpt lat="44.4013911" lon="11.0717613"><ele>275.0</ele><time>2026-03-29T08:53:46.048Z</time></trkpt><trkpt lat="44.4014721" lon="11.0717325"><ele>275.0</ele><time>2026-03-29T08:53:47.049Z</time></trkpt><trkpt lat="44.4015407" lon="11.0716957"><ele>275.0</ele><time>2026-03-29T08:53:48.049Z</time></trkpt><trkpt lat="44.4016045" lon="11.0716539"><ele>275.0</ele><time>2026-03-29T08:53:49.049Z</time></trkpt><trkpt lat="44.4016588" lon="11.0715882"><ele>275.0</ele><time>2026-03-29T08:53:50.048Z</time></trkpt><trkpt lat="44.4017343" lon="11.0715"><ele>278.33333333333337</ele><time>2026-03-29T08:53:51.049Z</time></trkpt><trkpt lat="44.4018168" lon="11.0714066"><ele>281.6666666666667</ele><time>2026-03-29T08:53:52.049Z</time></trkpt><trkpt lat="44.4018802" lon="11.0713272"><ele>285.0</ele><time>2026-03-29T08:53:53.049Z</time></trkpt><trkpt lat="44.4019437" lon="11.0712704"><ele>288.3333333333333</ele><time>2026-03-29T08:53:54.049Z</time></trkpt><trkpt lat="44.4019981" lon="11.0712203"><ele>291.66666666666663</ele><time>2026-03-29T08:53:55.049Z</time></trkpt><trkpt lat="44.4020553" lon="11.0711769"><ele>295.0</ele><time>2026-03-29T08:53:56.048Z</time></trkpt><trkpt lat="44.4021079" lon="11.0711174"><ele>295.0</ele><time>2026-03-29T08:53:57.049Z</time></trkpt><trkpt lat="44.4021307" lon="11.0710168"><ele>295.0</ele><time>2026-03-29T08:53:58.048Z</time></trkpt><trkpt lat="44.4021598" lon="11.0709325"><ele>295.0</ele><time>2026-03-29T08:53:59.049Z</time></trkpt><trkpt lat="44.40217" lon="11.070818"><ele>295.0</ele><time>2026-03-29T08:54:00.049Z</time></trkpt><trkpt lat="44.4021583" lon="11.0706876"><ele>295.0</ele><time>2026-03-29T08:54:01.049Z</time></trkpt><trkpt lat="44.4021547" lon="11.0705576"><ele>295.0</ele><time>2026-03-29T08:54:02.049Z</time></trkpt><trkpt lat="44.4021488" lon="11.0704053"><ele>297.4</ele><time>2026-03-29T08:54:03.049Z</time></trkpt><trkpt lat="44.4021345" lon="11.0702612"><ele>299.8</ele><time>2026-03-29T08:54:04.049Z</time></trkpt><trkpt lat="44.4021293" lon="11.0701213"><ele>302.2</ele><time>2026-03-29T08:54:05.049Z</time></trkpt><trkpt lat="44.4020943" lon="11.0699808"><ele>304.6</ele><time>2026-03-29T08:54:06.049Z</time></trkpt><trkpt lat="44.402097" lon="11.0698566"><ele>307.0</ele><time>2026-03-29T08:54:07.049Z</time></trkpt><trkpt lat="44.4020956" lon="11.0697345"><ele>308.8</ele><time>2026-03-29T08:54:08.049Z</time></trkpt><trkpt lat="44.40208" lon="11.0696127"><ele>310.6</ele><time>2026-03-29T08:54:09.049Z</time></trkpt><trkpt lat="44.4020546" lon="11.069492"><ele>312.40000000000003</ele><time>2026-03-29T08:54:10.048Z</time></trkpt><trkpt lat="44.4020292" lon="11.0693536"><ele>314.2</ele><time>2026-03-29T08:54:11.049Z</time></trkpt><trkpt lat="44.4020113" lon="11.0692083"><ele>316.0</ele><time>2026-03-29T08:54:12.049Z</time></trkpt><trkpt lat="44.4019917" lon="11.0690802"><ele>316.66666666666663</ele><time>2026-03-29T08:54:13.049Z</time></trkpt><trkpt lat="44.4019652" lon="11.0689451"><ele>317.3333333333333</ele><time>2026-03-29T08:54:14.049Z</time></trkpt><trkpt lat="44.4019445" lon="11.0688193"><ele>318.0</ele><time>2026-03-29T08:54:15.049Z</time></trkpt><trkpt lat="44.4019174" lon="11.068694"><ele>318.6666666666667</ele><time>2026-03-29T08:54:16.049Z</time></trkpt><trkpt lat="44.4018902" lon="11.0685998"><ele>319.33333333333337</ele><time>2026-03-29T08:54:17.048Z</time></trkpt><trkpt lat="44.4018466" lon="11.068513"><ele>320.0</ele><time>2026-03-29T08:54:18.048Z</time></trkpt><trkpt lat="44.4019097" lon="11.0685871"><ele>320.0</ele><time>2026-03-29T08:55:42.048Z</time></trkpt><trkpt lat="44.4019292" lon="11.0686966"><ele>320.0</ele><time>2026-03-29T08:55:44.049Z</time></trkpt><trkpt lat="44.4019549" lon="11.0688742"><ele>320.0</ele><time>2026-03-29T08:55:46.049Z</time></trkpt><trkpt lat="44.4019743" lon="11.0689794"><ele>320.0</ele><time>2026-03-29T08:55:47.049Z</time></trkpt><trkpt lat="44.4019932" lon="11.0690917"><ele>320.0</ele><time>2026-03-29T08:55:48.048Z</time></trkpt><trkpt lat="44.4020121" lon="11.0692048"><ele>319.33333333333337</ele><time>2026-03-29T08:55:49.049Z</time></trkpt><trkpt lat="44.4020307" lon="11.0693279"><ele>318.6666666666667</ele><time>2026-03-29T08:55:50.049Z</time></trkpt><trkpt lat="44.4020494" lon="11.0694445"><ele>318.0</ele><time>2026-03-29T08:55:51.049Z</time></trkpt><trkpt lat="44.4020732" lon="11.0695548"><ele>317.3333333333333</ele><time>2026-03-29T08:55:52.048Z</time></trkpt><trkpt lat="44.4020919" lon="11.0696603"><ele>316.66666666666663</ele><time>2026-03-29T08:55:53.049Z</time></trkpt><trkpt lat="44.402109" lon="11.0697682"><ele>316.0</ele><time>2026-03-29T08:55:54.049Z</time></trkpt><trkpt lat="44.4021106" lon="11.0698867"><ele>314.5</ele><time>2026-03-29T08:55:55.048Z</time></trkpt><trkpt lat="44.4021159" lon="11.0700151"><ele>313.0</ele><time>2026-03-29T08:55:56.049Z</time></trkpt><trkpt lat="44.4021272" lon="11.0701327"><ele>311.5</ele><time>2026-03-29T08:55:57.048Z</time></trkpt><trkpt lat="44.4021353" lon="11.0702554"><ele>310.0</ele><time>2026-03-29T08:55:58.049Z</time></trkpt><trkpt lat="44.402147" lon="11.0703796"><ele>308.5</ele><time>2026-03-29T08:55:59.048Z</time></trkpt><trkpt lat="44.4021498" lon="11.0705009"><ele>307.0</ele><time>2026-03-29T08:56:00.048Z</time></trkpt><trkpt lat="44.4021539" lon="11.0706193"><ele>306.99999999999994</ele><time>2026-03-29T08:56:01.049Z</time></trkpt><trkpt lat="44.4021573" lon="11.0707279"><ele>307.0</ele><time>2026-03-29T08:56:02.049Z</time></trkpt><trkpt lat="44.4021534" lon="11.0708349"><ele>307.0</ele><time>2026-03-29T08:56:03.049Z</time></trkpt><trkpt lat="44.4021402" lon="11.0709317"><ele>307.0</ele><time>2026-03-29T08:56:04.048Z</time></trkpt><trkpt lat="44.4021304" lon="11.0710246"><ele>307.0</ele><time>2026-03-29T08:56:05.048Z</time></trkpt><trkpt lat="44.4020991" lon="11.0711111"><ele>306.99999999999994</ele><time>2026-03-29T08:56:06.049Z</time></trkpt><trkpt lat="44.402057" lon="11.0711774"><ele>307.0</ele><time>2026-03-29T08:56:07.049Z</time></trkpt><trkpt lat="44.4019971" lon="11.0712505"><ele>305.0</ele><time>2026-03-29T08:56:08.049Z</time></trkpt><trkpt lat="44.4019219" lon="11.0713141"><ele>303.0</ele><time>2026-03-29T08:56:09.049Z</time></trkpt><trkpt lat="44.4018457" lon="11.0713734"><ele>301.0</ele><time>2026-03-29T08:56:10.048Z</time></trkpt><trkpt lat="44.4017814" lon="11.0714412"><ele>299.0</ele><time>2026-03-29T08:56:11.048Z</time></trkpt><trkpt lat="44.4017181" lon="11.071512"><ele>297.0</ele><time>2026-03-29T08:56:12.049Z</time></trkpt><trkpt lat="44.4016613" lon="11.0715776"><ele>295.0</ele><time>2026-03-29T08:56:13.049Z</time></trkpt><trkpt lat="44.4016044" lon="11.0716346"><ele>292.14285714285717</ele><time>2026-03-29T08:56:14.049Z</time></trkpt><trkpt lat="44.4015385" lon="11.0716799"><ele>289.2857142857143</ele><time>2026-03-29T08:56:15.049Z</time></trkpt><trkpt lat="44.4014756" lon="11.0717147"><ele>286.42857142857144</ele><time>2026-03-29T08:56:16.048Z</time></trkpt><trkpt lat="44.4014005" lon="11.0717462"><ele>283.57142857142856</ele><time>2026-03-29T08:56:17.049Z</time></trkpt><trkpt lat="44.4013262" lon="11.0717659"><ele>280.7142857142857</ele><time>2026-03-29T08:56:18.048Z</time></trkpt><trkpt lat="44.4012564" lon="11.0717812"><ele>277.8571428571429</ele><time>2026-03-29T08:56:19.049Z</time></trkpt><trkpt lat="44.4011888" lon="11.0717998"><ele>275.0</ele><time>2026-03-29T08:56:20.049Z</time></trkpt><trkpt lat="44.4011207" lon="11.0718068"><ele>275.0</ele><time>2026-03-29T08:56:21.048Z</time></trkpt><trkpt lat="44.401051" lon="11.0718162"><ele>275.0</ele><time>2026-03-29T08:56:22.048Z</time></trkpt><trkpt lat="44.4009864" lon="11.0718377"><ele>275.0</ele><time>2026-03-29T08:56:23.048Z</time></trkpt><trkpt lat="44.4009186" lon="11.0718252"><ele>275.0</ele><time>2026-03-29T08:56:24.048Z</time></trkpt><trkpt lat="44.4007999" lon="11.07183"><ele>275.0</ele><time>2026-03-29T08:56:26.049Z</time></trkpt><trkpt lat="44.4006908" lon="11.0718654"><ele>275.0</ele><time>2026-03-29T08:56:28.049Z</time></trkpt><trkpt lat="44.4005715" lon="11.0719242"><ele>275.0</ele><time>2026-03-29T08:56:30.049Z</time></trkpt><trkpt lat="44.4004739" lon="11.0719878"><ele>275.0</ele><time>2026-03-29T08:56:32.049Z</time></trkpt><trkpt lat="44.4004126" lon="11.0720381"><ele>275.0</ele><time>2026-03-29T08:56:34.049Z</time></trkpt><trkpt lat="44.4003496" lon="11.0720899"><ele>275.0</ele><time>2026-03-29T08:56:37.048Z</time></trkpt><trkpt lat="44.4003074" lon="11.0721867"><ele>275.0</ele><time>2026-03-29T08:57:40.049Z</time></trkpt><trkpt lat="44.4003627" lon="11.0721273"><ele>275.0</ele><time>2026-03-29T08:57:44.049Z</time></trkpt><trkpt lat="44.4004644" lon="11.0720247"><ele>275.0</ele><time>2026-03-29T08:57:46.048Z</time></trkpt><trkpt lat="44.4005303" lon="11.0719842"><ele>275.0</ele><time>2026-03-29T08:57:47.049Z</time></trkpt><trkpt lat="44.4005986" lon="11.071957"><ele>275.0</ele><time>2026-03-29T08:57:48.049Z</time></trkpt><trkpt lat="44.4006643" lon="11.0719189"><ele>275.0</ele><time>2026-03-29T08:57:49.048Z</time></trkpt><trkpt lat="44.4007896" lon="11.0718722"><ele>275.0</ele><time>2026-03-29T08:57:51.049Z</time></trkpt><trkpt lat="44.4008545" lon="11.0718611"><ele>275.0</ele><time>2026-03-29T08:57:52.049Z</time></trkpt><trkpt lat="44.4009222" lon="11.0718555"><ele>275.0</ele><time>2026-03-29T08:57:53.048Z</time></trkpt><trkpt lat="44.4009875" lon="11.0718509"><ele>275.0</ele><time>2026-03-29T08:57:54.048Z</time></trkpt><trkpt lat="44.4011081" lon="11.0718364"><ele>275.0</ele><time>2026-03-29T08:57:56.049Z</time></trkpt><trkpt lat="44.4011807" lon="11.0718194"><ele>275.0</ele><time>2026-03-29T08:57:57.048Z</time></trkpt><trkpt lat="44.4013113" lon="11.0717983"><ele>275.0</ele><time>2026-03-29T08:57:59.049Z</time></trkpt><trkpt lat="44.4013798" lon="11.0717781"><ele>275.0</ele><time>2026-03-29T08:58:00.048Z</time></trkpt><trkpt lat="44.4014961" lon="11.071722"><ele>275.0</ele><time>2026-03-29T08:58:02.048Z</time></trkpt><trkpt lat="44.4015632" lon="11.071682"><ele>275.0</ele><time>2026-03-29T08:58:04.049Z</time></trkpt><trkpt lat="44.4015405" lon="11.0715833"><ele>275.0</ele><time>2026-03-29T08:58:26.049Z</time></trkpt><trkpt lat="44.4014795" lon="11.0715162"><ele>275.0</ele><time>2026-03-29T08:58:29.049Z</time></trkpt><trkpt lat="44.4014348" lon="11.0714418"><ele>275.0</ele><time>2026-03-29T08:58:31.048Z</time></trkpt><trkpt lat="44.4013734" lon="11.0713584"><ele>279.0</ele><time>2026-03-29T08:58:33.048Z</time></trkpt><trkpt lat="44.4012954" lon="11.0712647"><ele>283.0</ele><time>2026-03-29T08:58:35.049Z</time></trkpt><trkpt lat="44.4012542" lon="11.0711253"><ele>287.0</ele><time>2026-03-29T08:58:37.048Z</time></trkpt><trkpt lat="44.4012505" lon="11.0709738"><ele>291.0</ele><time>2026-03-29T08:58:39.049Z</time></trkpt><trkpt lat="44.4012611" lon="11.0708789"><ele>295.0</ele><time>2026-03-29T08:58:59.049Z</time></trkpt><trkpt lat="44.4013325" lon="11.0709207"><ele>295.0</ele><time>2026-03-29T09:03:49.048Z</time></trkpt><trkpt lat="44.4014005" lon="11.0709336"><ele>295.0</ele><time>2026-03-29T09:03:54.049Z</time></trkpt><trkpt lat="44.4013295" lon="11.0709367"><ele>295.0</ele><time>2026-03-29T09:04:54.911Z</time></trkpt><trkpt lat="44.4012356" lon="11.0708887"><ele>295.0</ele><time>2026-03-29T09:06:30.048Z</time></trkpt><trkpt lat="44.4012463" lon="11.0708015"><ele>295.0</ele><time>2026-03-29T09:07:16.049Z</time></trkpt><trkpt lat="44.4012109" lon="11.0707252"><ele>295.0</ele><time>2026-03-29T09:07:56.049Z</time></trkpt><trkpt lat="44.4011682" lon="11.0706178"><ele>299.0</ele><time>2026-03-29T09:08:00.049Z</time></trkpt><trkpt lat="44.4011226" lon="11.0705009"><ele>303.0</ele><time>2026-03-29T09:08:03.049Z</time></trkpt><trkpt lat="44.40109" lon="11.0703966"><ele>307.0</ele><time>2026-03-29T09:08:06.048Z</time></trkpt><trkpt lat="44.4010623" lon="11.0703006"><ele>311.0</ele><time>2026-03-29T09:08:09.049Z</time></trkpt><trkpt lat="44.4010216" lon="11.0702045"><ele>315.0</ele><time>2026-03-29T09:08:12.049Z</time></trkpt><trkpt lat="44.400975" lon="11.0700856"><ele>319.0</ele><time>2026-03-29T09:08:15.048Z</time></trkpt><trkpt lat="44.4009427" lon="11.0700054"><ele>321.42857142857144</ele><time>2026-03-29T09:08:17.049Z</time></trkpt><trkpt lat="44.4008976" lon="11.0699286"><ele>323.85714285714283</ele><time>2026-03-29T09:08:20.048Z</time></trkpt><trkpt lat="44.4008809" lon="11.0698372"><ele>326.2857142857143</ele><time>2026-03-29T09:09:43.048Z</time></trkpt><trkpt lat="44.4008675" lon="11.0697403"><ele>328.7142857142857</ele><time>2026-03-29T09:09:47.048Z</time></trkpt><trkpt lat="44.4008919" lon="11.0696472"><ele>331.1428571428571</ele><time>2026-03-29T09:09:50.049Z</time></trkpt><trkpt lat="44.4008824" lon="11.0695319"><ele>333.57142857142856</ele><time>2026-03-29T09:10:40.048Z</time></trkpt><trkpt lat="44.4008961" lon="11.0694132"><ele>336.0</ele><time>2026-03-29T09:10:43.048Z</time></trkpt><trkpt lat="44.4009107" lon="11.069327"><ele>336.0</ele><time>2026-03-29T09:10:45.048Z</time></trkpt><trkpt lat="44.4009274" lon="11.0692077"><ele>336.0</ele><time>2026-03-29T09:10:48.048Z</time></trkpt><trkpt lat="44.4009406" lon="11.069116"><ele>336.0</ele><time>2026-03-29T09:10:50.048Z</time></trkpt><trkpt lat="44.4009605" lon="11.0690107"><ele>336.0</ele><time>2026-03-29T09:10:54.049Z</time></trkpt><trkpt lat="44.4009791" lon="11.0689059"><ele>336.0</ele><time>2026-03-29T09:10:57.048Z</time></trkpt><trkpt lat="44.4010111" lon="11.0688152"><ele>336.0</ele><time>2026-03-29T09:11:00.049Z</time></trkpt><trkpt lat="44.4010407" lon="11.0687214"><ele>336.7142857142857</ele><time>2026-03-29T09:11:03.049Z</time></trkpt><trkpt lat="44.4010754" lon="11.0686207"><ele>337.42857142857144</ele><time>2026-03-29T09:11:06.048Z</time></trkpt><trkpt lat="44.4010915" lon="11.0685074"><ele>338.1428571428571</ele><time>2026-03-29T09:11:09.049Z</time></trkpt><trkpt lat="44.4011093" lon="11.0684155"><ele>338.8571428571429</ele><time>2026-03-29T09:11:16.049Z</time></trkpt><trkpt lat="44.4011586" lon="11.0684709"><ele>339.57142857142856</ele><time>2026-03-29T09:12:11.048Z</time></trkpt><trkpt lat="44.4011752" lon="11.0685562"><ele>340.2857142857143</ele><time>2026-03-29T09:12:14.049Z</time></trkpt><trkpt lat="44.4011231" lon="11.0686266"><ele>341.0</ele><time>2026-03-29T09:12:18.049Z</time></trkpt><trkpt lat="44.401061" lon="11.0686836"><ele>341.0</ele><time>2026-03-29T09:12:21.049Z</time></trkpt><trkpt lat="44.4010328" lon="11.0687755"><ele>341.0</ele><time>2026-03-29T09:12:23.049Z</time></trkpt><trkpt lat="44.4010003" lon="11.0688936"><ele>341.0</ele><time>2026-03-29T09:12:26.048Z</time></trkpt><trkpt lat="44.4009698" lon="11.069013"><ele>341.0</ele><time>2026-03-29T09:12:29.049Z</time></trkpt><trkpt lat="44.4009543" lon="11.0691023"><ele>341.0</ele><time>2026-03-29T09:12:31.048Z</time></trkpt><trkpt lat="44.4009431" lon="11.0692116"><ele>341.0</ele><time>2026-03-29T09:12:33.049Z</time></trkpt><trkpt lat="44.400937" lon="11.0693359"><ele>340.1666666666667</ele><time>2026-03-29T09:12:35.048Z</time></trkpt><trkpt lat="44.4009273" lon="11.0694293"><ele>339.33333333333337</ele><time>2026-03-29T09:12:37.048Z</time></trkpt><trkpt lat="44.4009174" lon="11.0695627"><ele>338.5</ele><time>2026-03-29T09:12:40.049Z</time></trkpt><trkpt lat="44.4008965" lon="11.0696567"><ele>337.6666666666667</ele><time>2026-03-29T09:13:57.049Z</time></trkpt><trkpt lat="44.4008753" lon="11.0697634"><ele>336.8333333333333</ele><time>2026-03-29T09:14:01.048Z</time></trkpt><trkpt lat="44.4008884" lon="11.0698695"><ele>336.0</ele><time>2026-03-29T09:14:11.049Z</time></trkpt><trkpt lat="44.4009158" lon="11.0699702"><ele>333.1666666666667</ele><time>2026-03-29T09:14:17.049Z</time></trkpt><trkpt lat="44.4009533" lon="11.0700512"><ele>330.3333333333333</ele><time>2026-03-29T09:14:20.048Z</time></trkpt><trkpt lat="44.4009826" lon="11.0701502"><ele>327.5</ele><time>2026-03-29T09:14:23.049Z</time></trkpt><trkpt lat="44.4010315" lon="11.0702631"><ele>324.66666666666663</ele><time>2026-03-29T09:14:26.049Z</time></trkpt><trkpt lat="44.4010614" lon="11.0703585"><ele>321.8333333333333</ele><time>2026-03-29T09:14:30.049Z</time></trkpt><trkpt lat="44.4010864" lon="11.0704406"><ele>319.0</ele><time>2026-03-29T09:14:35.048Z</time></trkpt><trkpt lat="44.401126" lon="11.0705368"><ele>319.0</ele><time>2026-03-29T09:14:39.049Z</time></trkpt><trkpt lat="44.4011604" lon="11.0706161"><ele>319.0</ele><time>2026-03-29T09:14:42.048Z</time></trkpt><trkpt lat="44.401198" lon="11.0706968"><ele>319.0</ele><time>2026-03-29T09:14:45.049Z</time></trkpt><trkpt lat="44.4012307" lon="11.0707797"><ele>319.0</ele><time>2026-03-29T09:14:48.049Z</time></trkpt><trkpt lat="44.4012471" lon="11.0708715"><ele>319.0</ele><time>2026-03-29T09:14:51.049Z</time></trkpt><trkpt lat="44.401255" lon="11.0709641"><ele>319.0</ele><time>2026-03-29T09:14:54.048Z</time></trkpt><trkpt lat="44.4012476" lon="11.0710829"><ele>319.0</ele><time>2026-03-29T09:15:02.049Z</time></trkpt><trkpt lat="44.4012616" lon="11.071179"><ele>315.5</ele><time>2026-03-29T09:15:04.049Z</time></trkpt><trkpt lat="44.4012998" lon="11.0712975"><ele>312.0</ele><time>2026-03-29T09:15:07.049Z</time></trkpt><trkpt lat="44.4013448" lon="11.0713601"><ele>308.5</ele><time>2026-03-29T09:15:09.049Z</time></trkpt><trkpt lat="44.4014006" lon="11.0714136"><ele>305.0</ele><time>2026-03-29T09:15:11.049Z</time></trkpt><trkpt lat="44.4014629" lon="11.0715038"><ele>301.5</ele><time>2026-03-29T09:15:14.049Z</time></trkpt><trkpt lat="44.4015134" lon="11.071574"><ele>298.0</ele><time>2026-03-29T09:15:17.048Z</time></trkpt><trkpt lat="44.4015658" lon="11.0716477"><ele>294.16666666666663</ele><time>2026-03-29T09:15:20.048Z</time></trkpt><trkpt lat="44.4015583" lon="11.07174"><ele>290.3333333333333</ele><time>2026-03-29T09:15:23.049Z</time></trkpt><trkpt lat="44.4014945" lon="11.0717677"><ele>286.5</ele><time>2026-03-29T09:15:25.048Z</time></trkpt><trkpt lat="44.4014151" lon="11.0717851"><ele>282.6666666666667</ele><time>2026-03-29T09:15:27.049Z</time></trkpt><trkpt lat="44.4013531" lon="11.0717558"><ele>278.83333333333337</ele><time>2026-03-29T09:16:07.048Z</time></trkpt><trkpt lat="44.4012789" lon="11.0717792"><ele>275.0</ele><time>2026-03-29T09:16:09.049Z</time></trkpt><trkpt lat="44.4011754" lon="11.0717955"><ele>275.0</ele><time>2026-03-29T09:16:11.048Z</time></trkpt><trkpt lat="44.4010598" lon="11.071814"><ele>275.0</ele><time>2026-03-29T09:16:13.049Z</time></trkpt><trkpt lat="44.4009308" lon="11.0718231"><ele>275.0</ele><time>2026-03-29T09:16:15.049Z</time></trkpt><trkpt lat="44.4008651" lon="11.0718304"><ele>275.0</ele><time>2026-03-29T09:16:16.048Z</time></trkpt><trkpt lat="44.4007994" lon="11.0718348"><ele>275.0</ele><time>2026-03-29T09:16:17.049Z</time></trkpt><trkpt lat="44.4007336" lon="11.0718431"><ele>275.0</ele><time>2026-03-29T09:16:18.048Z</time></trkpt><trkpt lat="44.4006704" lon="11.0718636"><ele>275.0</ele><time>2026-03-29T09:16:19.049Z</time></trkpt><trkpt lat="44.400608" lon="11.0718915"><ele>275.0</ele><time>2026-03-29T09:16:20.048Z</time></trkpt><trkpt lat="44.4005441" lon="11.0719248"><ele>275.0</ele><time>2026-03-29T09:16:21.049Z</time></trkpt><trkpt lat="44.4004776" lon="11.0719564"><ele>275.0</ele><time>2026-03-29T09:16:22.048Z</time></trkpt><trkpt lat="44.4003706" lon="11.0720536"><ele>275.0</ele><time>2026-03-29T09:16:24.048Z</time></trkpt><trkpt lat="44.400287" lon="11.0721881"><ele>275.0</ele><time>2026-03-29T09:16:26.048Z</time></trkpt><trkpt lat="44.4002503" lon="11.0722684"><ele>275.0</ele><time>2026-03-29T09:16:27.049Z</time></trkpt><trkpt lat="44.4002101" lon="11.072355"><ele>275.0</ele><time>2026-03-29T09:16:28.049Z</time></trkpt><trkpt lat="44.400176" lon="11.0724481"><ele>275.0</ele><time>2026-03-29T09:16:29.048Z</time></trkpt><trkpt lat="44.4001436" lon="11.0725429"><ele>275.0</ele><time>2026-03-29T09:16:30.049Z</time></trkpt><trkpt lat="44.400108" lon="11.0726341"><ele>275.0</ele><time>2026-03-29T09:16:31.048Z</time></trkpt><trkpt lat="44.400065" lon="11.0727147"><ele>275.0</ele><time>2026-03-29T09:16:32.049Z</time></trkpt><trkpt lat="44.400008" lon="11.0727669"><ele>274.33333333333337</ele><time>2026-03-29T09:16:33.048Z</time></trkpt><trkpt lat="44.3999517" lon="11.0728115"><ele>273.6666666666667</ele><time>2026-03-29T09:16:34.049Z</time></trkpt><trkpt lat="44.3998371" lon="11.0728756"><ele>273.0</ele><time>2026-03-29T09:16:36.049Z</time></trkpt><trkpt lat="44.3997686" lon="11.0728933"><ele>272.3333333333333</ele><time>2026-03-29T09:16:37.048Z</time></trkpt><trkpt lat="44.3997026" lon="11.0729077"><ele>271.66666666666663</ele><time>2026-03-29T09:16:38.049Z</time></trkpt><trkpt lat="44.3996434" lon="11.0729475"><ele>271.0</ele><time>2026-03-29T09:16:39.049Z</time></trkpt><trkpt lat="44.3995395" lon="11.0730607"><ele>271.0</ele><time>2026-03-29T09:16:41.049Z</time></trkpt><trkpt lat="44.3995048" lon="11.0731465"><ele>271.0</ele><time>2026-03-29T09:16:42.049Z</time></trkpt><trkpt lat="44.3994768" lon="11.0732301"><ele>271.0</ele><time>2026-03-29T09:16:43.049Z</time></trkpt><trkpt lat="44.3994508" lon="11.0734118"><ele>271.0</ele><time>2026-03-29T09:16:45.049Z</time></trkpt><trkpt lat="44.3994516" lon="11.0735253"><ele>271.0</ele><time>2026-03-29T09:16:46.049Z</time></trkpt><trkpt lat="44.3994607" lon="11.0736505"><ele>271.0</ele><time>2026-03-29T09:16:47.048Z</time></trkpt><trkpt lat="44.3994628" lon="11.0737851"><ele>269.3333333333333</ele><time>2026-03-29T09:16:48.049Z</time></trkpt><trkpt lat="44.3994781" lon="11.0739091"><ele>267.66666666666663</ele><time>2026-03-29T09:16:49.048Z</time></trkpt><trkpt lat="44.3994859" lon="11.074026"><ele>266.0</ele><time>2026-03-29T09:16:50.049Z</time></trkpt><trkpt lat="44.399481" lon="11.0741341"><ele>264.3333333333333</ele><time>2026-03-29T09:16:51.049Z</time></trkpt><trkpt lat="44.3994749" lon="11.0742491"><ele>262.6666666666667</ele><time>2026-03-29T09:16:52.049Z</time></trkpt><trkpt lat="44.3994511" lon="11.0743782"><ele>261.0</ele><time>2026-03-29T09:16:53.049Z</time></trkpt><trkpt lat="44.3994204" lon="11.0744967"><ele>260.2</ele><time>2026-03-29T09:16:54.049Z</time></trkpt><trkpt lat="44.3993882" lon="11.0746144"><ele>259.40000000000003</ele><time>2026-03-29T09:16:55.049Z</time></trkpt><trkpt lat="44.3993859" lon="11.0747498"><ele>258.6</ele><time>2026-03-29T09:16:56.049Z</time></trkpt><trkpt lat="44.3993775" lon="11.074895"><ele>257.8</ele><time>2026-03-29T09:16:57.048Z</time></trkpt><trkpt lat="44.3993636" lon="11.0750603"><ele>257.0</ele><time>2026-03-29T09:16:58.049Z</time></trkpt><trkpt lat="44.3993457" lon="11.0752267"><ele>256.5</ele><time>2026-03-29T09:16:59.049Z</time></trkpt><trkpt lat="44.3993321" lon="11.0753887"><ele>256.0</ele><time>2026-03-29T09:17:00.049Z</time></trkpt><trkpt lat="44.3993359" lon="11.075584"><ele>255.5</ele><time>2026-03-29T09:17:01.049Z</time></trkpt><trkpt lat="44.3993297" lon="11.0757716"><ele>255.0</ele><time>2026-03-29T09:17:02.049Z</time></trkpt><trkpt lat="44.3993343" lon="11.0759526"><ele>254.75</ele><time>2026-03-29T09:17:03.049Z</time></trkpt><trkpt lat="44.3993375" lon="11.0761176"><ele>254.5</ele><time>2026-03-29T09:17:04.049Z</time></trkpt><trkpt lat="44.3993352" lon="11.0762688"><ele>254.25</ele><time>2026-03-29T09:17:05.049Z</time></trkpt><trkpt lat="44.3993401" lon="11.076438"><ele>254.0</ele><time>2026-03-29T09:17:06.049Z</time></trkpt><trkpt lat="44.3993527" lon="11.0765936"><ele>253.39999999999998</ele><time>2026-03-29T09:17:07.049Z</time></trkpt><trkpt lat="44.3993608" lon="11.0767506"><ele>252.79999999999998</ele><time>2026-03-29T09:17:08.049Z</time></trkpt><trkpt lat="44.3993608" lon="11.076896"><ele>252.20000000000002</ele><time>2026-03-29T09:17:09.049Z</time></trkpt><trkpt lat="44.399365" lon="11.0770197"><ele>251.60000000000002</ele><time>2026-03-29T09:17:10.049Z</time></trkpt><trkpt lat="44.3993715" lon="11.0771408"><ele>251.0</ele><time>2026-03-29T09:17:11.049Z</time></trkpt><trkpt lat="44.3993757" lon="11.0772326"><ele>251.00000000000003</ele><time>2026-03-29T09:17:12.048Z</time></trkpt><trkpt lat="44.3993822" lon="11.0773537"><ele>251.0</ele><time>2026-03-29T09:17:14.048Z</time></trkpt><trkpt lat="44.3993745" lon="11.0774785"><ele>251.0</ele><time>2026-03-29T09:17:56.049Z</time></trkpt><trkpt lat="44.3992935" lon="11.0774723"><ele>251.0</ele><time>2026-03-29T09:17:58.049Z</time></trkpt><trkpt lat="44.3992206" lon="11.0774351"><ele>251.00000000000003</ele><time>2026-03-29T09:17:59.049Z</time></trkpt><trkpt lat="44.3991406" lon="11.0773942"><ele>251.0</ele><time>2026-03-29T09:18:00.049Z</time></trkpt><trkpt lat="44.39905" lon="11.077343"><ele>251.0</ele><time>2026-03-29T09:18:01.048Z</time></trkpt><trkpt lat="44.3989544" lon="11.0772927"><ele>251.00000000000003</ele><time>2026-03-29T09:18:02.049Z</time></trkpt><trkpt lat="44.3988569" lon="11.0772351"><ele>251.00000000000003</ele><time>2026-03-29T09:18:03.049Z</time></trkpt><trkpt lat="44.3987568" lon="11.07718"><ele>251.0</ele><time>2026-03-29T09:18:04.048Z</time></trkpt><trkpt lat="44.3986524" lon="11.0771266"><ele>251.0</ele><time>2026-03-29T09:18:05.048Z</time></trkpt><trkpt lat="44.3985416" lon="11.0770712"><ele>252.0</ele><time>2026-03-29T09:18:06.049Z</time></trkpt><trkpt lat="44.398431" lon="11.077012"><ele>253.0</ele><time>2026-03-29T09:18:07.049Z</time></trkpt><trkpt lat="44.3981996" lon="11.0768886"><ele>254.0</ele><time>2026-03-29T09:18:09.049Z</time></trkpt><trkpt lat="44.3980834" lon="11.0768231"><ele>253.5</ele><time>2026-03-29T09:18:10.048Z</time></trkpt><trkpt lat="44.3979661" lon="11.0767639"><ele>253.0</ele><time>2026-03-29T09:18:11.048Z</time></trkpt><trkpt lat="44.397851" lon="11.0767082"><ele>252.5</ele><time>2026-03-29T09:18:12.048Z</time></trkpt><trkpt lat="44.397738" lon="11.07665"><ele>252.0</ele><time>2026-03-29T09:18:13.048Z</time></trkpt><trkpt lat="44.3976263" lon="11.0765853"><ele>253.75</ele><time>2026-03-29T09:18:14.049Z</time></trkpt><trkpt lat="44.397519" lon="11.076505"><ele>255.5</ele><time>2026-03-29T09:18:15.048Z</time></trkpt><trkpt lat="44.3974193" lon="11.0764179"><ele>257.25</ele><time>2026-03-29T09:18:16.049Z</time></trkpt><trkpt lat="44.3973309" lon="11.0763045"><ele>259.0</ele><time>2026-03-29T09:18:17.049Z</time></trkpt><trkpt lat="44.3972529" lon="11.0761677"><ele>259.0</ele><time>2026-03-29T09:18:18.049Z</time></trkpt><trkpt lat="44.3971931" lon="11.0760243"><ele>259.0</ele><time>2026-03-29T09:18:19.049Z</time></trkpt><trkpt lat="44.3971468" lon="11.0758838"><ele>259.0</ele><time>2026-03-29T09:18:20.049Z</time></trkpt><trkpt lat="44.3970939" lon="11.0757455"><ele>259.0</ele><time>2026-03-29T09:18:21.048Z</time></trkpt><trkpt lat="44.3970399" lon="11.0756115"><ele>258.5</ele><time>2026-03-29T09:18:22.048Z</time></trkpt><trkpt lat="44.3969801" lon="11.075479"><ele>258.0</ele><time>2026-03-29T09:18:23.048Z</time></trkpt><trkpt lat="44.3969113" lon="11.0753476"><ele>257.5</ele><time>2026-03-29T09:18:24.048Z</time></trkpt><trkpt lat="44.3968257" lon="11.0752326"><ele>257.0</ele><time>2026-03-29T09:18:25.049Z</time></trkpt><trkpt lat="44.3967318" lon="11.0751225"><ele>257.0</ele><time>2026-03-29T09:18:26.048Z</time></trkpt><trkpt lat="44.3966362" lon="11.0750156"><ele>257.0</ele><time>2026-03-29T09:18:27.049Z</time></trkpt><trkpt lat="44.3965337" lon="11.0749058"><ele>257.0</ele><time>2026-03-29T09:18:28.048Z</time></trkpt><trkpt lat="44.3964316" lon="11.0747981"><ele>257.0</ele><time>2026-03-29T09:18:29.049Z</time></trkpt><trkpt lat="44.3963312" lon="11.0746902"><ele>257.0</ele><time>2026-03-29T09:18:30.049Z</time></trkpt><trkpt lat="44.3962256" lon="11.0745836"><ele>257.0</ele><time>2026-03-29T09:18:31.048Z</time></trkpt><trkpt lat="44.3961264" lon="11.0744811"><ele>257.0</ele><time>2026-03-29T09:18:32.049Z</time></trkpt><trkpt lat="44.3960269" lon="11.074377"><ele>257.0</ele><time>2026-03-29T09:18:33.049Z</time></trkpt><trkpt lat="44.3959271" lon="11.0742787"><ele>257.0</ele><time>2026-03-29T09:18:34.049Z</time></trkpt><trkpt lat="44.395835" lon="11.0741828"><ele>257.0</ele><time>2026-03-29T09:18:35.049Z</time></trkpt><trkpt lat="44.3957379" lon="11.0740895"><ele>257.0</ele><time>2026-03-29T09:18:36.048Z</time></trkpt><trkpt lat="44.3956466" lon="11.073997"><ele>257.0</ele><time>2026-03-29T09:18:37.049Z</time></trkpt><trkpt lat="44.3955595" lon="11.0738975"><ele>256.4</ele><time>2026-03-29T09:18:38.048Z</time></trkpt><trkpt lat="44.3954833" lon="11.0737989"><ele>255.79999999999998</ele><time>2026-03-29T09:18:39.049Z</time></trkpt><trkpt lat="44.3954286" lon="11.0737183"><ele>255.2</ele><time>2026-03-29T09:18:40.048Z</time></trkpt><trkpt lat="44.3953887" lon="11.073625"><ele>254.6</ele><time>2026-03-29T09:18:42.048Z</time></trkpt><trkpt lat="44.3953472" lon="11.0735149"><ele>254.0</ele><time>2026-03-29T09:19:27.048Z</time></trkpt><trkpt lat="44.3952948" lon="11.0733425"><ele>254.79999999999998</ele><time>2026-03-29T09:19:29.048Z</time></trkpt><trkpt lat="44.3952732" lon="11.0732192"><ele>255.59999999999997</ele><time>2026-03-29T09:19:30.049Z</time></trkpt><trkpt lat="44.3952593" lon="11.073077"><ele>256.4</ele><time>2026-03-29T09:19:31.048Z</time></trkpt><trkpt lat="44.395255" lon="11.0729413"><ele>257.2</ele><time>2026-03-29T09:19:32.048Z</time></trkpt><trkpt lat="44.3952377" lon="11.0727917"><ele>258.0</ele><time>2026-03-29T09:19:33.049Z</time></trkpt><trkpt lat="44.395225" lon="11.0726475"><ele>258.0</ele><time>2026-03-29T09:19:34.049Z</time></trkpt><trkpt lat="44.3952114" lon="11.0725089"><ele>258.0</ele><time>2026-03-29T09:19:35.049Z</time></trkpt><trkpt lat="44.3951997" lon="11.0723696"><ele>258.0</ele><time>2026-03-29T09:19:36.049Z</time></trkpt><trkpt lat="44.3951868" lon="11.0722316"><ele>258.0</ele><time>2026-03-29T09:19:37.049Z</time></trkpt><trkpt lat="44.3951665" lon="11.0720956"><ele>258.0</ele><time>2026-03-29T09:19:38.048Z</time></trkpt><trkpt lat="44.3951516" lon="11.071963"><ele>259.4</ele><time>2026-03-29T09:19:39.048Z</time></trkpt><trkpt lat="44.395126" lon="11.0718371"><ele>260.8</ele><time>2026-03-29T09:19:40.049Z</time></trkpt><trkpt lat="44.3951015" lon="11.071693"><ele>262.2</ele><time>2026-03-29T09:19:41.049Z</time></trkpt><trkpt lat="44.3950754" lon="11.0715288"><ele>263.6</ele><time>2026-03-29T09:19:42.048Z</time></trkpt><trkpt lat="44.395051" lon="11.0713625"><ele>265.0</ele><time>2026-03-29T09:19:43.048Z</time></trkpt><trkpt lat="44.3950332" lon="11.0712086"><ele>265.4</ele><time>2026-03-29T09:19:44.049Z</time></trkpt><trkpt lat="44.3950129" lon="11.0710691"><ele>265.8</ele><time>2026-03-29T09:19:45.049Z</time></trkpt><trkpt lat="44.3949927" lon="11.0709204"><ele>266.2</ele><time>2026-03-29T09:19:46.049Z</time></trkpt><trkpt lat="44.3949646" lon="11.0707702"><ele>266.6</ele><time>2026-03-29T09:19:47.049Z</time></trkpt><trkpt lat="44.3949488" lon="11.0706121"><ele>267.0</ele><time>2026-03-29T09:19:48.049Z</time></trkpt><trkpt lat="44.3949266" lon="11.070469"><ele>267.4</ele><time>2026-03-29T09:19:49.049Z</time></trkpt><trkpt lat="44.3948859" lon="11.070324"><ele>267.79999999999995</ele><time>2026-03-29T09:19:50.049Z</time></trkpt><trkpt lat="44.3948408" lon="11.0701956"><ele>268.2</ele><time>2026-03-29T09:19:51.049Z</time></trkpt><trkpt lat="44.3948034" lon="11.0700735"><ele>268.59999999999997</ele><time>2026-03-29T09:19:52.049Z</time></trkpt><trkpt lat="44.3947613" lon="11.0699537"><ele>269.0</ele><time>2026-03-29T09:19:53.049Z</time></trkpt><trkpt lat="44.3947334" lon="11.0698378"><ele>269.8</ele><time>2026-03-29T09:19:54.048Z</time></trkpt><trkpt lat="44.3947137" lon="11.0697288"><ele>270.59999999999997</ele><time>2026-03-29T09:19:55.049Z</time></trkpt><trkpt lat="44.3947029" lon="11.0696073"><ele>271.4</ele><time>2026-03-29T09:19:56.049Z</time></trkpt><trkpt lat="44.3946956" lon="11.0694867"><ele>272.2</ele><time>2026-03-29T09:19:57.048Z</time></trkpt><trkpt lat="44.3946918" lon="11.0693706"><ele>273.0</ele><time>2026-03-29T09:19:58.049Z</time></trkpt><trkpt lat="44.3946751" lon="11.0691983"><ele>273.57142857142856</ele><time>2026-03-29T09:20:00.049Z</time></trkpt><trkpt lat="44.3946668" lon="11.0691067"><ele>274.1428571428571</ele><time>2026-03-29T09:20:01.048Z</time></trkpt><trkpt lat="44.3946533" lon="11.0690101"><ele>274.7142857142857</ele><time>2026-03-29T09:20:02.048Z</time></trkpt><trkpt lat="44.3946459" lon="11.0689013"><ele>275.2857142857143</ele><time>2026-03-29T09:20:03.049Z</time></trkpt><trkpt lat="44.394645" lon="11.068798"><ele>275.85714285714283</ele><time>2026-03-29T09:20:04.049Z</time></trkpt><trkpt lat="44.3946483" lon="11.0686919"><ele>276.42857142857144</ele><time>2026-03-29T09:20:05.049Z</time></trkpt><trkpt lat="44.3946604" lon="11.0685818"><ele>277.0</ele><time>2026-03-29T09:20:06.049Z</time></trkpt><trkpt lat="44.3946844" lon="11.0684361"><ele>277.2</ele><time>2026-03-29T09:20:07.049Z</time></trkpt><trkpt lat="44.3947075" lon="11.0683011"><ele>277.4</ele><time>2026-03-29T09:20:08.049Z</time></trkpt><trkpt lat="44.3947148" lon="11.0681458"><ele>277.6</ele><time>2026-03-29T09:20:09.049Z</time></trkpt><trkpt lat="44.3947204" lon="11.0679678"><ele>277.8</ele><time>2026-03-29T09:20:10.049Z</time></trkpt><trkpt lat="44.3947269" lon="11.0678118"><ele>278.0</ele><time>2026-03-29T09:20:11.049Z</time></trkpt><trkpt lat="44.3947234" lon="11.0676607"><ele>278.6</ele><time>2026-03-29T09:20:12.049Z</time></trkpt><trkpt lat="44.3947209" lon="11.0675283"><ele>279.20000000000005</ele><time>2026-03-29T09:20:13.049Z</time></trkpt><trkpt lat="44.3947229" lon="11.0674228"><ele>279.8</ele><time>2026-03-29T09:20:14.049Z</time></trkpt><trkpt lat="44.3947429" lon="11.0672664"><ele>280.40000000000003</ele><time>2026-03-29T09:20:16.049Z</time></trkpt><trkpt lat="44.3947412" lon="11.0671246"><ele>281.0</ele><time>2026-03-29T09:20:18.049Z</time></trkpt><trkpt lat="44.3946912" lon="11.0669779"><ele>282.0</ele><time>2026-03-29T09:20:20.048Z</time></trkpt><trkpt lat="44.3946739" lon="11.0668804"><ele>283.0</ele><time>2026-03-29T09:20:21.049Z</time></trkpt><trkpt lat="44.3946115" lon="11.0666097"><ele>284.0</ele><time>2026-03-29T09:20:23.048Z</time></trkpt><trkpt lat="44.3946224" lon="11.0665132"><ele>285.0</ele><time>2026-03-29T09:20:24.049Z</time></trkpt><trkpt lat="44.3946581" lon="11.0664065"><ele>286.0</ele><time>2026-03-29T09:20:25.048Z</time></trkpt><trkpt lat="44.394701" lon="11.0662941"><ele>287.16666666666663</ele><time>2026-03-29T09:20:26.049Z</time></trkpt><trkpt lat="44.3947302" lon="11.0661756"><ele>288.3333333333333</ele><time>2026-03-29T09:20:27.049Z</time></trkpt><trkpt lat="44.3947388" lon="11.0660631"><ele>289.5</ele><time>2026-03-29T09:20:28.049Z</time></trkpt><trkpt lat="44.394738" lon="11.0659498"><ele>290.6666666666667</ele><time>2026-03-29T09:20:29.048Z</time></trkpt><trkpt lat="44.3947287" lon="11.0658421"><ele>291.83333333333337</ele><time>2026-03-29T09:20:30.048Z</time></trkpt><trkpt lat="44.3947489" lon="11.065735"><ele>293.0</ele><time>2026-03-29T09:20:31.049Z</time></trkpt><trkpt lat="44.3947883" lon="11.0656356"><ele>294.25</ele><time>2026-03-29T09:20:32.048Z</time></trkpt><trkpt lat="44.3947993" lon="11.0655328"><ele>295.5</ele><time>2026-03-29T09:20:33.049Z</time></trkpt><trkpt lat="44.3947908" lon="11.0653644"><ele>296.75</ele><time>2026-03-29T09:20:35.048Z</time></trkpt><trkpt lat="44.3946985" lon="11.0651799"><ele>298.0</ele><time>2026-03-29T09:20:37.049Z</time></trkpt><trkpt lat="44.394623" lon="11.0650864"><ele>298.66666666666663</ele><time>2026-03-29T09:20:38.049Z</time></trkpt><trkpt lat="44.3945829" lon="11.0649966"><ele>299.3333333333333</ele><time>2026-03-29T09:20:39.048Z</time></trkpt><trkpt lat="44.3945864" lon="11.0649047"><ele>300.0</ele><time>2026-03-29T09:20:45.049Z</time></trkpt><trkpt lat="44.3946334" lon="11.0648435"><ele>300.6666666666667</ele><time>2026-03-29T09:20:47.049Z</time></trkpt><trkpt lat="44.3945651" lon="11.06489"><ele>301.33333333333337</ele><time>2026-03-29T09:21:05.049Z</time></trkpt><trkpt lat="44.3944982" lon="11.0648568"><ele>302.0</ele><time>2026-03-29T09:21:07.049Z</time></trkpt><trkpt lat="44.394381" lon="11.0648313"><ele>303.4</ele><time>2026-03-29T09:21:09.048Z</time></trkpt><trkpt lat="44.3943137" lon="11.0648684"><ele>304.79999999999995</ele><time>2026-03-29T09:21:10.049Z</time></trkpt><trkpt lat="44.3942134" lon="11.064855"><ele>306.2</ele><time>2026-03-29T09:21:12.049Z</time></trkpt><trkpt lat="44.3941456" lon="11.0647812"><ele>307.59999999999997</ele><time>2026-03-29T09:21:14.048Z</time></trkpt><trkpt lat="44.3940721" lon="11.0646925"><ele>309.0</ele><time>2026-03-29T09:21:16.049Z</time></trkpt><trkpt lat="44.3939874" lon="11.0646152"><ele>309.0</ele><time>2026-03-29T09:21:18.049Z</time></trkpt><trkpt lat="44.3939057" lon="11.0645366"><ele>309.0</ele><time>2026-03-29T09:21:20.049Z</time></trkpt><trkpt lat="44.3938394" lon="11.0644793"><ele>309.0</ele><time>2026-03-29T09:21:22.049Z</time></trkpt><trkpt lat="44.3937607" lon="11.0644708"><ele>309.0</ele><time>2026-03-29T09:21:28.048Z</time></trkpt><trkpt lat="44.3937015" lon="11.0644271"><ele>309.0</ele><time>2026-03-29T09:21:31.048Z</time></trkpt><trkpt lat="44.3936599" lon="11.064345"><ele>309.0</ele><time>2026-03-29T09:21:32.049Z</time></trkpt><trkpt lat="44.3935925" lon="11.0642284"><ele>310.4</ele><time>2026-03-29T09:21:34.049Z</time></trkpt><trkpt lat="44.3936035" lon="11.0641193"><ele>311.79999999999995</ele><time>2026-03-29T09:21:36.049Z</time></trkpt><trkpt lat="44.3937158" lon="11.0639889"><ele>313.20000000000005</ele><time>2026-03-29T09:21:38.049Z</time></trkpt><trkpt lat="44.3937726" lon="11.0639355"><ele>314.6</ele><time>2026-03-29T09:21:39.049Z</time></trkpt><trkpt lat="44.3938435" lon="11.0638616"><ele>316.0</ele><time>2026-03-29T09:21:45.048Z</time></trkpt><trkpt lat="44.3939241" lon="11.0637762"><ele>316.0</ele><time>2026-03-29T09:21:47.049Z</time></trkpt><trkpt lat="44.3939984" lon="11.063696"><ele>316.0</ele><time>2026-03-29T09:21:49.049Z</time></trkpt><trkpt lat="44.3940677" lon="11.0635891"><ele>316.0</ele><time>2026-03-29T09:21:52.049Z</time></trkpt><trkpt lat="44.3941587" lon="11.0634781"><ele>316.0</ele><time>2026-03-29T09:21:54.049Z</time></trkpt><trkpt lat="44.3942207" lon="11.0634261"><ele>316.0</ele><time>2026-03-29T09:21:55.049Z</time></trkpt><trkpt lat="44.3942849" lon="11.0633721"><ele>316.0</ele><time>2026-03-29T09:21:56.048Z</time></trkpt><trkpt lat="44.3943398" lon="11.0633026"><ele>316.0</ele><time>2026-03-29T09:21:57.048Z</time></trkpt><trkpt lat="44.3943933" lon="11.063216"><ele>316.0</ele><time>2026-03-29T09:21:58.049Z</time></trkpt><trkpt lat="44.3944404" lon="11.0631059"><ele>316.0</ele><time>2026-03-29T09:21:59.048Z</time></trkpt><trkpt lat="44.3944682" lon="11.06297"><ele>316.0</ele><time>2026-03-29T09:22:00.048Z</time></trkpt><trkpt lat="44.3944783" lon="11.0628385"><ele>316.0</ele><time>2026-03-29T09:22:01.049Z</time></trkpt><trkpt lat="44.3944673" lon="11.0626994"><ele>318.25</ele><time>2026-03-29T09:22:02.049Z</time></trkpt><trkpt lat="44.3944497" lon="11.0625482"><ele>320.5</ele><time>2026-03-29T09:22:03.049Z</time></trkpt><trkpt lat="44.3944159" lon="11.0623894"><ele>322.75</ele><time>2026-03-29T09:22:04.049Z</time></trkpt><trkpt lat="44.394377" lon="11.0622287"><ele>325.0</ele><time>2026-03-29T09:22:05.049Z</time></trkpt><trkpt lat="44.3943447" lon="11.0620635"><ele>326.6</ele><time>2026-03-29T09:22:06.049Z</time></trkpt><trkpt lat="44.3943185" lon="11.0619038"><ele>328.2</ele><time>2026-03-29T09:22:07.049Z</time></trkpt><trkpt lat="44.3943114" lon="11.0617614"><ele>329.79999999999995</ele><time>2026-03-29T09:22:08.049Z</time></trkpt><trkpt lat="44.3943016" lon="11.0616038"><ele>331.4</ele><time>2026-03-29T09:22:09.048Z</time></trkpt><trkpt lat="44.3942892" lon="11.061456"><ele>333.0</ele><time>2026-03-29T09:22:10.049Z</time></trkpt><trkpt lat="44.3942779" lon="11.0613147"><ele>333.59999999999997</ele><time>2026-03-29T09:22:11.049Z</time></trkpt><trkpt lat="44.3942511" lon="11.0611853"><ele>334.2</ele><time>2026-03-29T09:22:12.048Z</time></trkpt><trkpt lat="44.3942088" lon="11.0610688"><ele>334.8</ele><time>2026-03-29T09:22:13.049Z</time></trkpt><trkpt lat="44.3941453" lon="11.0609734"><ele>335.4</ele><time>2026-03-29T09:22:14.049Z</time></trkpt><trkpt lat="44.3940882" lon="11.0609174"><ele>336.0</ele><time>2026-03-29T09:22:15.048Z</time></trkpt><trkpt lat="44.3940089" lon="11.0608111"><ele>336.8333333333333</ele><time>2026-03-29T09:22:17.049Z</time></trkpt><trkpt lat="44.3939365" lon="11.0607402"><ele>337.6666666666667</ele><time>2026-03-29T09:22:20.048Z</time></trkpt><trkpt lat="44.3938608" lon="11.0607247"><ele>338.5</ele><time>2026-03-29T09:22:22.049Z</time></trkpt><trkpt lat="44.393739" lon="11.0607055"><ele>339.33333333333337</ele><time>2026-03-29T09:22:24.049Z</time></trkpt><trkpt lat="44.3936686" lon="11.0607024"><ele>340.1666666666667</ele><time>2026-03-29T09:22:25.049Z</time></trkpt><trkpt lat="44.393596" lon="11.0607082"><ele>341.0</ele><time>2026-03-29T09:22:26.049Z</time></trkpt><trkpt lat="44.3935009" lon="11.0607081"><ele>342.0</ele><time>2026-03-29T09:22:27.048Z</time></trkpt><trkpt lat="44.3934077" lon="11.0606939"><ele>343.0</ele><time>2026-03-29T09:22:28.049Z</time></trkpt><trkpt lat="44.3933272" lon="11.0606827"><ele>344.0</ele><time>2026-03-29T09:22:29.049Z</time></trkpt><trkpt lat="44.393265" lon="11.0606539"><ele>345.0</ele><time>2026-03-29T09:22:30.049Z</time></trkpt><trkpt lat="44.393197" lon="11.0605848"><ele>346.0</ele><time>2026-03-29T09:22:31.048Z</time></trkpt><trkpt lat="44.3931192" lon="11.060474"><ele>347.0</ele><time>2026-03-29T09:22:32.049Z</time></trkpt><trkpt lat="44.3930471" lon="11.0603629"><ele>349.40000000000003</ele><time>2026-03-29T09:22:33.048Z</time></trkpt><trkpt lat="44.3929715" lon="11.0602516"><ele>351.8</ele><time>2026-03-29T09:22:34.049Z</time></trkpt><trkpt lat="44.392893" lon="11.0601534"><ele>354.2</ele><time>2026-03-29T09:22:35.049Z</time></trkpt><trkpt lat="44.392807" lon="11.0600432"><ele>356.6</ele><time>2026-03-29T09:22:36.049Z</time></trkpt><trkpt lat="44.3927302" lon="11.0599409"><ele>359.0</ele><time>2026-03-29T09:22:37.049Z</time></trkpt><trkpt lat="44.3926513" lon="11.0598228"><ele>360.2</ele><time>2026-03-29T09:22:38.048Z</time></trkpt><trkpt lat="44.3925749" lon="11.0597087"><ele>361.4</ele><time>2026-03-29T09:22:39.049Z</time></trkpt><trkpt lat="44.3925018" lon="11.0595968"><ele>362.6</ele><time>2026-03-29T09:22:40.049Z</time></trkpt><trkpt lat="44.3924532" lon="11.059472"><ele>363.8</ele><time>2026-03-29T09:22:41.048Z</time></trkpt><trkpt lat="44.3924233" lon="11.0593315"><ele>365.0</ele><time>2026-03-29T09:22:42.048Z</time></trkpt><trkpt lat="44.3924134" lon="11.0592043"><ele>365.5</ele><time>2026-03-29T09:22:43.049Z</time></trkpt><trkpt lat="44.3923978" lon="11.0590805"><ele>366.0</ele><time>2026-03-29T09:22:44.049Z</time></trkpt><trkpt lat="44.3923748" lon="11.0589602"><ele>366.5</ele><time>2026-03-29T09:22:45.049Z</time></trkpt><trkpt lat="44.3923559" lon="11.0588659"><ele>367.0</ele><time>2026-03-29T09:22:46.048Z</time></trkpt><trkpt lat="44.3923324" lon="11.0587817"><ele>367.5</ele><time>2026-03-29T09:22:47.049Z</time></trkpt><trkpt lat="44.3923048" lon="11.0586933"><ele>368.0</ele><time>2026-03-29T09:22:48.048Z</time></trkpt><trkpt lat="44.3922699" lon="11.0586077"><ele>368.0</ele><time>2026-03-29T09:22:49.049Z</time></trkpt><trkpt lat="44.3922213" lon="11.0585155"><ele>368.0</ele><time>2026-03-29T09:22:50.049Z</time></trkpt><trkpt lat="44.3921425" lon="11.0584097"><ele>368.0</ele><time>2026-03-29T09:22:51.049Z</time></trkpt><trkpt lat="44.39206" lon="11.0583286"><ele>368.0</ele><time>2026-03-29T09:22:52.049Z</time></trkpt><trkpt lat="44.3919693" lon="11.0582558"><ele>368.0</ele><time>2026-03-29T09:22:53.049Z</time></trkpt><trkpt lat="44.3918738" lon="11.0581973"><ele>370.83333333333337</ele><time>2026-03-29T09:22:54.049Z</time></trkpt><trkpt lat="44.3917929" lon="11.0581312"><ele>373.6666666666667</ele><time>2026-03-29T09:22:55.049Z</time></trkpt><trkpt lat="44.3917256" lon="11.058074"><ele>376.5</ele><time>2026-03-29T09:22:56.048Z</time></trkpt><trkpt lat="44.3916684" lon="11.0580014"><ele>379.33333333333337</ele><time>2026-03-29T09:22:57.048Z</time></trkpt><trkpt lat="44.3916109" lon="11.0579506"><ele>382.1666666666667</ele><time>2026-03-29T09:22:58.048Z</time></trkpt><trkpt lat="44.3915365" lon="11.0579074"><ele>385.0</ele><time>2026-03-29T09:22:59.049Z</time></trkpt><trkpt lat="44.3914695" lon="11.0578677"><ele>385.0</ele><time>2026-03-29T09:23:00.049Z</time></trkpt><trkpt lat="44.3913579" lon="11.0578193"><ele>385.0</ele><time>2026-03-29T09:23:02.048Z</time></trkpt><trkpt lat="44.3912647" lon="11.0578184"><ele>385.0</ele><time>2026-03-29T09:23:04.049Z</time></trkpt><trkpt lat="44.3912001" lon="11.0578258"><ele>385.0</ele><time>2026-03-29T09:23:05.049Z</time></trkpt><trkpt lat="44.3911048" lon="11.057825"><ele>385.0</ele><time>2026-03-29T09:23:07.048Z</time></trkpt><trkpt lat="44.391058" lon="11.0577296"><ele>387.6</ele><time>2026-03-29T09:24:44.049Z</time></trkpt><trkpt lat="44.3910374" lon="11.0575988"><ele>390.2</ele><time>2026-03-29T09:24:46.049Z</time></trkpt><trkpt lat="44.3910017" lon="11.0574291"><ele>392.79999999999995</ele><time>2026-03-29T09:24:48.049Z</time></trkpt><trkpt lat="44.3909225" lon="11.0573"><ele>395.4</ele><time>2026-03-29T09:24:50.049Z</time></trkpt><trkpt lat="44.3908712" lon="11.0572356"><ele>398.0</ele><time>2026-03-29T09:24:51.048Z</time></trkpt><trkpt lat="44.3908125" lon="11.0571556"><ele>399.4</ele><time>2026-03-29T09:24:52.048Z</time></trkpt><trkpt lat="44.390779" lon="11.0570717"><ele>400.79999999999995</ele><time>2026-03-29T09:24:53.049Z</time></trkpt><trkpt lat="44.3907686" lon="11.0569568"><ele>402.2</ele><time>2026-03-29T09:24:54.049Z</time></trkpt><trkpt lat="44.3907666" lon="11.0568292"><ele>403.6</ele><time>2026-03-29T09:24:55.048Z</time></trkpt><trkpt lat="44.3907976" lon="11.0566715"><ele>405.0</ele><time>2026-03-29T09:24:56.048Z</time></trkpt><trkpt lat="44.3908146" lon="11.0565453"><ele>405.6</ele><time>2026-03-29T09:24:57.049Z</time></trkpt><trkpt lat="44.3908408" lon="11.0564129"><ele>406.2</ele><time>2026-03-29T09:24:58.049Z</time></trkpt><trkpt lat="44.3908881" lon="11.0563037"><ele>406.79999999999995</ele><time>2026-03-29T09:24:59.048Z</time></trkpt><trkpt lat="44.3909445" lon="11.0561914"><ele>407.4</ele><time>2026-03-29T09:25:00.048Z</time></trkpt><trkpt lat="44.3910119" lon="11.0560777"><ele>408.0</ele><time>2026-03-29T09:25:01.049Z</time></trkpt><trkpt lat="44.3910636" lon="11.0559495"><ele>408.0</ele><time>2026-03-29T09:25:02.048Z</time></trkpt><trkpt lat="44.3911072" lon="11.055799"><ele>408.0</ele><time>2026-03-29T09:25:03.048Z</time></trkpt><trkpt lat="44.3911505" lon="11.0556389"><ele>408.0</ele><time>2026-03-29T09:25:04.048Z</time></trkpt><trkpt lat="44.3911839" lon="11.0554719"><ele>408.0</ele><time>2026-03-29T09:25:05.049Z</time></trkpt><trkpt lat="44.391185" lon="11.0553044"><ele>408.0</ele><time>2026-03-29T09:25:06.048Z</time></trkpt><trkpt lat="44.3911767" lon="11.0551593"><ele>408.0</ele><time>2026-03-29T09:25:07.049Z</time></trkpt><trkpt lat="44.3912" lon="11.0550232"><ele>408.0</ele><time>2026-03-29T09:25:08.049Z</time></trkpt><trkpt lat="44.3912437" lon="11.0548908"><ele>408.0</ele><time>2026-03-29T09:25:09.049Z</time></trkpt><trkpt lat="44.3913209" lon="11.0547582"><ele>408.0</ele><time>2026-03-29T09:25:10.049Z</time></trkpt><trkpt lat="44.3914088" lon="11.0546341"><ele>408.0</ele><time>2026-03-29T09:25:11.049Z</time></trkpt><trkpt lat="44.3914999" lon="11.0545251"><ele>408.0</ele><time>2026-03-29T09:25:12.049Z</time></trkpt><trkpt lat="44.3915876" lon="11.0544137"><ele>408.0</ele><time>2026-03-29T09:25:13.049Z</time></trkpt><trkpt lat="44.3916739" lon="11.0543098"><ele>408.0</ele><time>2026-03-29T09:25:14.048Z</time></trkpt><trkpt lat="44.3917505" lon="11.0541999"><ele>411.0</ele><time>2026-03-29T09:25:15.049Z</time></trkpt><trkpt lat="44.3918266" lon="11.0540799"><ele>414.0</ele><time>2026-03-29T09:25:16.048Z</time></trkpt><trkpt lat="44.3918911" lon="11.053946"><ele>417.0</ele><time>2026-03-29T09:25:17.048Z</time></trkpt><trkpt lat="44.3919458" lon="11.0538107"><ele>420.0</ele><time>2026-03-29T09:25:18.049Z</time></trkpt><trkpt lat="44.3919773" lon="11.0536654"><ele>420.0</ele><time>2026-03-29T09:25:19.049Z</time></trkpt><trkpt lat="44.391994" lon="11.0535281"><ele>420.0</ele><time>2026-03-29T09:25:20.048Z</time></trkpt><trkpt lat="44.3919854" lon="11.0534045"><ele>420.0</ele><time>2026-03-29T09:25:21.049Z</time></trkpt><trkpt lat="44.3919551" lon="11.053312"><ele>420.0</ele><time>2026-03-29T09:25:22.049Z</time></trkpt><trkpt lat="44.3919503" lon="11.0532229"><ele>420.0</ele><time>2026-03-29T09:25:24.048Z</time></trkpt><trkpt lat="44.3919819" lon="11.0531455"><ele>420.0</ele><time>2026-03-29T09:25:25.048Z</time></trkpt><trkpt lat="44.3920527" lon="11.0530841"><ele>421.6666666666667</ele><time>2026-03-29T09:25:26.048Z</time></trkpt><trkpt lat="44.3921375" lon="11.0530442"><ele>423.33333333333337</ele><time>2026-03-29T09:25:27.048Z</time></trkpt><trkpt lat="44.3922563" lon="11.0530524"><ele>425.0</ele><time>2026-03-29T09:25:28.048Z</time></trkpt><trkpt lat="44.3923183" lon="11.053078"><ele>426.6666666666667</ele><time>2026-03-29T09:25:29.049Z</time></trkpt><trkpt lat="44.3923857" lon="11.0530876"><ele>428.33333333333337</ele><time>2026-03-29T09:25:30.049Z</time></trkpt><trkpt lat="44.392461" lon="11.0531145"><ele>430.0</ele><time>2026-03-29T09:25:31.049Z</time></trkpt><trkpt lat="44.392541" lon="11.0531017"><ele>430.0</ele><time>2026-03-29T09:25:32.049Z</time></trkpt><trkpt lat="44.3926147" lon="11.0530739"><ele>430.0</ele><time>2026-03-29T09:25:33.049Z</time></trkpt><trkpt lat="44.3926833" lon="11.0530426"><ele>430.0</ele><time>2026-03-29T09:25:34.048Z</time></trkpt><trkpt lat="44.3927297" lon="11.0529255"><ele>430.0</ele><time>2026-03-29T09:25:36.049Z</time></trkpt><trkpt lat="44.39272" lon="11.0528043"><ele>430.0</ele><time>2026-03-29T09:25:38.048Z</time></trkpt><trkpt lat="44.3927062" lon="11.0529736"><ele>430.0</ele><time>2026-03-29T09:25:52.049Z</time></trkpt><trkpt lat="44.3926298" lon="11.0530903"><ele>430.0</ele><time>2026-03-29T09:25:54.049Z</time></trkpt><trkpt lat="44.3925115" lon="11.0532031"><ele>430.0</ele><time>2026-03-29T09:25:56.049Z</time></trkpt><trkpt lat="44.3923897" lon="11.0531887"><ele>430.0</ele><time>2026-03-29T09:25:58.049Z</time></trkpt><trkpt lat="44.3922755" lon="11.0531414"><ele>430.00000000000006</ele><time>2026-03-29T09:26:00.048Z</time></trkpt><trkpt lat="44.3922137" lon="11.0530939"><ele>430.0</ele><time>2026-03-29T09:26:01.048Z</time></trkpt><trkpt lat="44.3921436" lon="11.053059"><ele>430.0</ele><time>2026-03-29T09:26:02.049Z</time></trkpt><trkpt lat="44.3920894" lon="11.053107"><ele>430.0</ele><time>2026-03-29T09:26:03.048Z</time></trkpt><trkpt lat="44.3919953" lon="11.0531598"><ele>430.00000000000006</ele><time>2026-03-29T09:26:05.049Z</time></trkpt><trkpt lat="44.3919077" lon="11.0531739"><ele>430.0</ele><time>2026-03-29T09:26:13.049Z</time></trkpt><trkpt lat="44.3917931" lon="11.0531401"><ele>430.2</ele><time>2026-03-29T09:26:43.049Z</time></trkpt><trkpt lat="44.3917182" lon="11.0530721"><ele>430.4</ele><time>2026-03-29T09:26:44.049Z</time></trkpt><trkpt lat="44.3916388" lon="11.0529747"><ele>430.6</ele><time>2026-03-29T09:26:45.049Z</time></trkpt><trkpt lat="44.3915725" lon="11.0528675"><ele>430.8</ele><time>2026-03-29T09:26:46.048Z</time></trkpt><trkpt lat="44.391508" lon="11.0527549"><ele>431.0</ele><time>2026-03-29T09:26:47.049Z</time></trkpt><trkpt lat="44.3914382" lon="11.0526567"><ele>431.0</ele><time>2026-03-29T09:26:48.048Z</time></trkpt><trkpt lat="44.3913759" lon="11.0525542"><ele>431.0</ele><time>2026-03-29T09:26:49.049Z</time></trkpt><trkpt lat="44.391321" lon="11.0524381"><ele>431.0</ele><time>2026-03-29T09:26:50.049Z</time></trkpt><trkpt lat="44.3912779" lon="11.0523095"><ele>431.0</ele><time>2026-03-29T09:26:51.049Z</time></trkpt><trkpt lat="44.3912409" lon="11.0521969"><ele>431.0</ele><time>2026-03-29T09:26:52.049Z</time></trkpt><trkpt lat="44.391198" lon="11.0521067"><ele>433.16666666666663</ele><time>2026-03-29T09:26:53.049Z</time></trkpt><trkpt lat="44.3911539" lon="11.0520332"><ele>435.3333333333333</ele><time>2026-03-29T09:26:54.048Z</time></trkpt><trkpt lat="44.3911135" lon="11.0519325"><ele>437.5</ele><time>2026-03-29T09:26:56.048Z</time></trkpt><trkpt lat="44.3910657" lon="11.0518688"><ele>439.66666666666663</ele><time>2026-03-29T09:26:59.049Z</time></trkpt><trkpt lat="44.3909973" lon="11.0518126"><ele>441.8333333333333</ele><time>2026-03-29T09:27:01.049Z</time></trkpt><trkpt lat="44.3909205" lon="11.0517703"><ele>444.0</ele><time>2026-03-29T09:27:03.048Z</time></trkpt><trkpt lat="44.3908567" lon="11.0516618"><ele>446.79999999999995</ele><time>2026-03-29T09:27:05.049Z</time></trkpt><trkpt lat="44.3907724" lon="11.0515287"><ele>449.59999999999997</ele><time>2026-03-29T09:27:07.049Z</time></trkpt><trkpt lat="44.3906981" lon="11.051439"><ele>452.4</ele><time>2026-03-29T09:27:09.048Z</time></trkpt><trkpt lat="44.3906456" lon="11.0512925"><ele>455.2</ele><time>2026-03-29T09:27:11.049Z</time></trkpt><trkpt lat="44.3906104" lon="11.0512024"><ele>458.0</ele><time>2026-03-29T09:27:12.049Z</time></trkpt><trkpt lat="44.3905794" lon="11.0511127"><ele>457.99999999999994</ele><time>2026-03-29T09:27:13.049Z</time></trkpt><trkpt lat="44.3905551" lon="11.0510291"><ele>458.0</ele><time>2026-03-29T09:27:14.049Z</time></trkpt><trkpt lat="44.3905445" lon="11.0509302"><ele>458.0</ele><time>2026-03-29T09:27:15.049Z</time></trkpt><trkpt lat="44.3905326" lon="11.0508347"><ele>458.0</ele><time>2026-03-29T09:27:16.049Z</time></trkpt><trkpt lat="44.3905131" lon="11.0506803"><ele>457.99999999999994</ele><time>2026-03-29T09:27:18.049Z</time></trkpt><trkpt lat="44.3904615" lon="11.0505506"><ele>458.0</ele><time>2026-03-29T09:27:20.048Z</time></trkpt><trkpt lat="44.3904859" lon="11.0504163"><ele>461.49999999999994</ele><time>2026-03-29T09:27:22.048Z</time></trkpt><trkpt lat="44.3904829" lon="11.0503201"><ele>465.0</ele><time>2026-03-29T09:27:24.049Z</time></trkpt><trkpt lat="44.3904163" lon="11.050237"><ele>468.5</ele><time>2026-03-29T09:27:26.048Z</time></trkpt><trkpt lat="44.3903423" lon="11.0501222"><ele>472.0</ele><time>2026-03-29T09:27:28.049Z</time></trkpt><trkpt lat="44.3903047" lon="11.050029"><ele>475.49999999999994</ele><time>2026-03-29T09:27:31.049Z</time></trkpt><trkpt lat="44.390331" lon="11.0499073"><ele>479.0</ele><time>2026-03-29T09:27:33.049Z</time></trkpt><trkpt lat="44.3903385" lon="11.0498165"><ele>480.2</ele><time>2026-03-29T09:27:34.049Z</time></trkpt><trkpt lat="44.3903468" lon="11.0496703"><ele>481.4</ele><time>2026-03-29T09:27:36.048Z</time></trkpt><trkpt lat="44.390274" lon="11.0495109"><ele>482.6</ele><time>2026-03-29T09:27:38.049Z</time></trkpt><trkpt lat="44.3902251" lon="11.0494252"><ele>483.8</ele><time>2026-03-29T09:27:39.049Z</time></trkpt><trkpt lat="44.3901754" lon="11.0493509"><ele>485.0</ele><time>2026-03-29T09:27:40.049Z</time></trkpt><trkpt lat="44.3901252" lon="11.0492608"><ele>484.99999999999994</ele><time>2026-03-29T09:27:41.049Z</time></trkpt><trkpt lat="44.3900811" lon="11.0491646"><ele>485.0</ele><time>2026-03-29T09:27:42.049Z</time></trkpt><trkpt lat="44.3900211" lon="11.0490789"><ele>485.0</ele><time>2026-03-29T09:27:43.049Z</time></trkpt><trkpt lat="44.3899501" lon="11.0489925"><ele>485.0</ele><time>2026-03-29T09:27:44.048Z</time></trkpt><trkpt lat="44.3898879" lon="11.04891"><ele>484.99999999999994</ele><time>2026-03-29T09:27:45.049Z</time></trkpt><trkpt lat="44.389854" lon="11.0488076"><ele>485.0</ele><time>2026-03-29T09:27:46.049Z</time></trkpt><trkpt lat="44.3898326" lon="11.0486817"><ele>485.49999999999994</ele><time>2026-03-29T09:27:47.048Z</time></trkpt><trkpt lat="44.3898292" lon="11.0485806"><ele>486.0</ele><time>2026-03-29T09:27:48.049Z</time></trkpt><trkpt lat="44.3898273" lon="11.0484306"><ele>486.5</ele><time>2026-03-29T09:27:50.048Z</time></trkpt><trkpt lat="44.3898886" lon="11.0483511"><ele>487.0</ele><time>2026-03-29T09:27:52.048Z</time></trkpt><trkpt lat="44.3899113" lon="11.0482562"><ele>487.49999999999994</ele><time>2026-03-29T09:27:54.049Z</time></trkpt><trkpt lat="44.3898575" lon="11.0481337"><ele>488.0</ele><time>2026-03-29T09:27:56.048Z</time></trkpt><trkpt lat="44.3898906" lon="11.0480304"><ele>489.4</ele><time>2026-03-29T09:27:58.049Z</time></trkpt><trkpt lat="44.3900089" lon="11.0479466"><ele>490.79999999999995</ele><time>2026-03-29T09:28:00.049Z</time></trkpt><trkpt lat="44.3900985" lon="11.0479076"><ele>492.2</ele><time>2026-03-29T09:28:01.048Z</time></trkpt><trkpt lat="44.3901806" lon="11.0478718"><ele>493.6</ele><time>2026-03-29T09:28:02.048Z</time></trkpt><trkpt lat="44.3902508" lon="11.0478534"><ele>495.0</ele><time>2026-03-29T09:28:03.049Z</time></trkpt><trkpt lat="44.3903195" lon="11.0478662"><ele>495.0</ele><time>2026-03-29T09:28:04.049Z</time></trkpt><trkpt lat="44.3904191" lon="11.0479137"><ele>495.0</ele><time>2026-03-29T09:28:05.048Z</time></trkpt><trkpt lat="44.3905079" lon="11.0479346"><ele>495.0</ele><time>2026-03-29T09:28:06.048Z</time></trkpt><trkpt lat="44.3905943" lon="11.0479515"><ele>495.0</ele><time>2026-03-29T09:28:07.049Z</time></trkpt><trkpt lat="44.3906801" lon="11.0479645"><ele>495.0</ele><time>2026-03-29T09:28:08.049Z</time></trkpt><trkpt lat="44.3907506" lon="11.0479706"><ele>495.0</ele><time>2026-03-29T09:28:09.048Z</time></trkpt><trkpt lat="44.3908162" lon="11.0479724"><ele>497.0</ele><time>2026-03-29T09:28:10.049Z</time></trkpt><trkpt lat="44.3909137" lon="11.047965"><ele>499.0</ele><time>2026-03-29T09:28:12.049Z</time></trkpt><trkpt lat="44.3909325" lon="11.0478625"><ele>501.0</ele><time>2026-03-29T09:28:14.048Z</time></trkpt><trkpt lat="44.3908986" lon="11.0476864"><ele>503.0</ele><time>2026-03-29T09:28:16.048Z</time></trkpt><trkpt lat="44.3908823" lon="11.0475627"><ele>505.0</ele><time>2026-03-29T09:28:17.049Z</time></trkpt><trkpt lat="44.3908623" lon="11.0474537"><ele>505.00000000000006</ele><time>2026-03-29T09:28:18.049Z</time></trkpt><trkpt lat="44.3908302" lon="11.0473538"><ele>505.0</ele><time>2026-03-29T09:28:19.048Z</time></trkpt><trkpt lat="44.3907467" lon="11.0471561"><ele>505.0</ele><time>2026-03-29T09:28:21.048Z</time></trkpt><trkpt lat="44.3907129" lon="11.0470817"><ele>505.0</ele><time>2026-03-29T09:28:22.049Z</time></trkpt><trkpt lat="44.3907176" lon="11.0469875"><ele>505.00000000000006</ele><time>2026-03-29T09:28:41.048Z</time></trkpt><trkpt lat="44.3906622" lon="11.0469207"><ele>505.0</ele><time>2026-03-29T09:28:44.049Z</time></trkpt><trkpt lat="44.3905643" lon="11.0468273"><ele>505.00000000000006</ele><time>2026-03-29T09:28:46.049Z</time></trkpt><trkpt lat="44.3905087" lon="11.0467406"><ele>505.0</ele><time>2026-03-29T09:28:47.049Z</time></trkpt><trkpt lat="44.3904424" lon="11.046664"><ele>505.0</ele><time>2026-03-29T09:28:48.049Z</time></trkpt><trkpt lat="44.3903854" lon="11.0465974"><ele>505.0</ele><time>2026-03-29T09:28:49.049Z</time></trkpt><trkpt lat="44.3903341" lon="11.0465341"><ele>505.00000000000006</ele><time>2026-03-29T09:28:50.049Z</time></trkpt><trkpt lat="44.3902761" lon="11.0464679"><ele>505.0</ele><time>2026-03-29T09:28:51.048Z</time></trkpt><trkpt lat="44.3902256" lon="11.0464057"><ele>504.6</ele><time>2026-03-29T09:28:52.049Z</time></trkpt><trkpt lat="44.3901656" lon="11.0463175"><ele>504.2</ele><time>2026-03-29T09:28:54.048Z</time></trkpt><trkpt lat="44.3900854" lon="11.0462188"><ele>503.79999999999995</ele><time>2026-03-29T09:29:06.049Z</time></trkpt><trkpt lat="44.3899855" lon="11.0461312"><ele>503.4</ele><time>2026-03-29T09:29:08.049Z</time></trkpt><trkpt lat="44.3899266" lon="11.04607"><ele>503.0</ele><time>2026-03-29T09:29:09.049Z</time></trkpt><trkpt lat="44.3898348" lon="11.045985"><ele>502.99999999999994</ele><time>2026-03-29T09:29:11.049Z</time></trkpt><trkpt lat="44.3897642" lon="11.045933"><ele>503.0</ele><time>2026-03-29T09:29:13.048Z</time></trkpt><trkpt lat="44.3896958" lon="11.0458951"><ele>503.0</ele><time>2026-03-29T09:29:21.048Z</time></trkpt><trkpt lat="44.3896339" lon="11.0458708"><ele>503.0</ele><time>2026-03-29T09:29:23.049Z</time></trkpt><trkpt lat="44.3895646" lon="11.0458494"><ele>502.99999999999994</ele><time>2026-03-29T09:29:25.049Z</time></trkpt><trkpt lat="44.389482" lon="11.0457923"><ele>503.0</ele><time>2026-03-29T09:29:27.049Z</time></trkpt><trkpt lat="44.3894137" lon="11.0457128"><ele>506.59999999999997</ele><time>2026-03-29T09:29:29.048Z</time></trkpt><trkpt lat="44.3893209" lon="11.0456871"><ele>510.19999999999993</ele><time>2026-03-29T09:29:32.049Z</time></trkpt><trkpt lat="44.3892455" lon="11.0456478"><ele>513.8</ele><time>2026-03-29T09:29:34.049Z</time></trkpt><trkpt lat="44.389181" lon="11.0455726"><ele>517.4</ele><time>2026-03-29T09:29:36.049Z</time></trkpt><trkpt lat="44.389101" lon="11.0454799"><ele>521.0</ele><time>2026-03-29T09:29:38.048Z</time></trkpt><trkpt lat="44.3889953" lon="11.0454249"><ele>521.0</ele><time>2026-03-29T09:29:40.049Z</time></trkpt><trkpt lat="44.3889277" lon="11.0453765"><ele>521.0</ele><time>2026-03-29T09:29:42.048Z</time></trkpt><trkpt lat="44.3888485" lon="11.0453056"><ele>521.0</ele><time>2026-03-29T09:29:44.049Z</time></trkpt><trkpt lat="44.3888014" lon="11.0452308"><ele>521.0</ele><time>2026-03-29T09:29:46.049Z</time></trkpt><trkpt lat="44.3887701" lon="11.045112"><ele>521.0</ele><time>2026-03-29T09:29:48.049Z</time></trkpt><trkpt lat="44.3887383" lon="11.0450005"><ele>521.0</ele><time>2026-03-29T09:29:50.049Z</time></trkpt><trkpt lat="44.3887069" lon="11.044892"><ele>525.1666666666666</ele><time>2026-03-29T09:29:52.049Z</time></trkpt><trkpt lat="44.3886738" lon="11.044778"><ele>529.3333333333333</ele><time>2026-03-29T09:29:54.049Z</time></trkpt><trkpt lat="44.3886465" lon="11.0446531"><ele>533.5</ele><time>2026-03-29T09:29:56.048Z</time></trkpt><trkpt lat="44.3886133" lon="11.0445542"><ele>537.6666666666666</ele><time>2026-03-29T09:29:58.048Z</time></trkpt><trkpt lat="44.3885652" lon="11.0444479"><ele>541.8333333333334</ele><time>2026-03-29T09:30:00.049Z</time></trkpt><trkpt lat="44.3885187" lon="11.0443818"><ele>546.0</ele><time>2026-03-29T09:30:13.049Z</time></trkpt><trkpt lat="44.3884346" lon="11.0443803"><ele>546.0</ele><time>2026-03-29T09:30:16.048Z</time></trkpt><trkpt lat="44.3883705" lon="11.0444108"><ele>546.0</ele><time>2026-03-29T09:30:19.049Z</time></trkpt><trkpt lat="44.3882766" lon="11.0444099"><ele>546.0</ele><time>2026-03-29T09:30:21.049Z</time></trkpt><trkpt lat="44.3882138" lon="11.044397"><ele>546.0</ele><time>2026-03-29T09:30:22.048Z</time></trkpt><trkpt lat="44.3881168" lon="11.0443652"><ele>546.0</ele><time>2026-03-29T09:30:24.049Z</time></trkpt><trkpt lat="44.3880271" lon="11.0443186"><ele>546.0</ele><time>2026-03-29T09:30:26.049Z</time></trkpt><trkpt lat="44.3879254" lon="11.0442444"><ele>549.1666666666666</ele><time>2026-03-29T09:30:28.048Z</time></trkpt><trkpt lat="44.3878493" lon="11.0442127"><ele>552.3333333333334</ele><time>2026-03-29T09:30:29.048Z</time></trkpt><trkpt lat="44.3877703" lon="11.0441843"><ele>555.5</ele><time>2026-03-29T09:30:30.049Z</time></trkpt><trkpt lat="44.3876874" lon="11.0441685"><ele>558.6666666666667</ele><time>2026-03-29T09:30:31.049Z</time></trkpt><trkpt lat="44.3876064" lon="11.0441589"><ele>561.8333333333334</ele><time>2026-03-29T09:30:32.048Z</time></trkpt><trkpt lat="44.3875308" lon="11.0441551"><ele>565.0</ele><time>2026-03-29T09:30:33.049Z</time></trkpt><trkpt lat="44.3874555" lon="11.0441537"><ele>565.0</ele><time>2026-03-29T09:30:34.049Z</time></trkpt><trkpt lat="44.3873688" lon="11.0441554"><ele>565.0</ele><time>2026-03-29T09:30:35.048Z</time></trkpt><trkpt lat="44.3872747" lon="11.0441461"><ele>565.0</ele><time>2026-03-29T09:30:36.048Z</time></trkpt><trkpt lat="44.387168" lon="11.0441386"><ele>565.0</ele><time>2026-03-29T09:30:37.048Z</time></trkpt><trkpt lat="44.3870538" lon="11.0441362"><ele>565.0</ele><time>2026-03-29T09:30:38.049Z</time></trkpt><trkpt lat="44.3869302" lon="11.0441263"><ele>562.0</ele><time>2026-03-29T09:30:39.048Z</time></trkpt><trkpt lat="44.3868049" lon="11.0441143"><ele>559.0</ele><time>2026-03-29T09:30:40.048Z</time></trkpt><trkpt lat="44.3867013" lon="11.0440994"><ele>556.0</ele><time>2026-03-29T09:30:41.049Z</time></trkpt><trkpt lat="44.3866041" lon="11.0440887"><ele>553.0</ele><time>2026-03-29T09:30:42.049Z</time></trkpt><trkpt lat="44.3864741" lon="11.0440772"><ele>553.0</ele><time>2026-03-29T09:30:44.049Z</time></trkpt><trkpt lat="44.3863682" lon="11.0440466"><ele>553.0</ele><time>2026-03-29T09:30:46.049Z</time></trkpt><trkpt lat="44.3862652" lon="11.0440083"><ele>553.0</ele><time>2026-03-29T09:30:48.048Z</time></trkpt><trkpt lat="44.3861874" lon="11.0439633"><ele>553.0</ele><time>2026-03-29T09:30:50.048Z</time></trkpt><trkpt lat="44.386106" lon="11.0439037"><ele>553.0</ele><time>2026-03-29T09:30:53.049Z</time></trkpt><trkpt lat="44.3860212" lon="11.043847"><ele>554.6</ele><time>2026-03-29T09:30:55.048Z</time></trkpt><trkpt lat="44.3859492" lon="11.0437585"><ele>556.1999999999999</ele><time>2026-03-29T09:30:57.049Z</time></trkpt><trkpt lat="44.3858889" lon="11.0436567"><ele>557.8</ele><time>2026-03-29T09:30:59.048Z</time></trkpt><trkpt lat="44.3858416" lon="11.0435534"><ele>559.4</ele><time>2026-03-29T09:31:01.048Z</time></trkpt><trkpt lat="44.385781" lon="11.0434068"><ele>561.0</ele><time>2026-03-29T09:31:03.049Z</time></trkpt><trkpt lat="44.3857484" lon="11.0433165"><ele>559.6</ele><time>2026-03-29T09:31:04.049Z</time></trkpt><trkpt lat="44.3857152" lon="11.0432191"><ele>558.2</ele><time>2026-03-29T09:31:05.049Z</time></trkpt><trkpt lat="44.3856334" lon="11.0429985"><ele>556.8</ele><time>2026-03-29T09:31:07.048Z</time></trkpt><trkpt lat="44.3855967" lon="11.0429084"><ele>555.4</ele><time>2026-03-29T09:31:08.049Z</time></trkpt><trkpt lat="44.385564" lon="11.0428096"><ele>554.0</ele><time>2026-03-29T09:31:09.048Z</time></trkpt><trkpt lat="44.3855265" lon="11.0427197"><ele>554.4</ele><time>2026-03-29T09:31:10.049Z</time></trkpt><trkpt lat="44.3854981" lon="11.0426391"><ele>554.8</ele><time>2026-03-29T09:31:11.048Z</time></trkpt><trkpt lat="44.3854334" lon="11.0424982"><ele>555.2</ele><time>2026-03-29T09:31:13.049Z</time></trkpt><trkpt lat="44.3853881" lon="11.0424346"><ele>555.6</ele><time>2026-03-29T09:31:14.049Z</time></trkpt><trkpt lat="44.3853022" lon="11.0423143"><ele>556.0</ele><time>2026-03-29T09:31:16.049Z</time></trkpt><trkpt lat="44.3852087" lon="11.0422016"><ele>556.4</ele><time>2026-03-29T09:31:18.049Z</time></trkpt><trkpt lat="44.385153" lon="11.0421514"><ele>556.8</ele><time>2026-03-29T09:31:19.049Z</time></trkpt><trkpt lat="44.3850514" lon="11.0420609"><ele>557.1999999999999</ele><time>2026-03-29T09:31:21.048Z</time></trkpt><trkpt lat="44.3849468" lon="11.0419923"><ele>557.6</ele><time>2026-03-29T09:31:23.049Z</time></trkpt><trkpt lat="44.3848312" lon="11.0419314"><ele>558.0</ele><time>2026-03-29T09:31:25.049Z</time></trkpt><trkpt lat="44.3847668" lon="11.0418828"><ele>558.0</ele><time>2026-03-29T09:31:26.049Z</time></trkpt><trkpt lat="44.3846961" lon="11.0418353"><ele>558.0</ele><time>2026-03-29T09:31:27.048Z</time></trkpt><trkpt lat="44.3846385" lon="11.0417857"><ele>558.0</ele><time>2026-03-29T09:31:28.048Z</time></trkpt><trkpt lat="44.3845517" lon="11.0417079"><ele>558.0</ele><time>2026-03-29T09:31:30.049Z</time></trkpt><trkpt lat="44.3845056" lon="11.0416431"><ele>558.0</ele><time>2026-03-29T09:32:00.048Z</time></trkpt><trkpt lat="44.3844355" lon="11.0416121"><ele>558.0</ele><time>2026-03-29T09:32:02.048Z</time></trkpt><trkpt lat="44.384337" lon="11.0415723"><ele>558.5</ele><time>2026-03-29T09:32:04.049Z</time></trkpt><trkpt lat="44.3842747" lon="11.041544"><ele>559.0</ele><time>2026-03-29T09:32:05.048Z</time></trkpt><trkpt lat="44.3842127" lon="11.0415184"><ele>559.5</ele><time>2026-03-29T09:32:06.049Z</time></trkpt><trkpt lat="44.3841513" lon="11.0414898"><ele>560.0</ele><time>2026-03-29T09:32:07.048Z</time></trkpt><trkpt lat="44.3840332" lon="11.0414312"><ele>560.5</ele><time>2026-03-29T09:32:09.048Z</time></trkpt><trkpt lat="44.3839754" lon="11.0413925"><ele>561.0</ele><time>2026-03-29T09:32:10.049Z</time></trkpt><trkpt lat="44.3839144" lon="11.0413572"><ele>561.0</ele><time>2026-03-29T09:32:11.049Z</time></trkpt><trkpt lat="44.3838557" lon="11.041321"><ele>561.0</ele><time>2026-03-29T09:32:12.049Z</time></trkpt><trkpt lat="44.3837986" lon="11.0412828"><ele>561.0</ele><time>2026-03-29T09:32:13.049Z</time></trkpt><trkpt lat="44.3837389" lon="11.0412346"><ele>561.0</ele><time>2026-03-29T09:32:14.049Z</time></trkpt><trkpt lat="44.3836822" lon="11.0411845"><ele>561.0</ele><time>2026-03-29T09:32:15.048Z</time></trkpt><trkpt lat="44.3836186" lon="11.0411161"><ele>561.0</ele><time>2026-03-29T09:32:16.049Z</time></trkpt><trkpt lat="44.3835473" lon="11.0410457"><ele>561.0</ele><time>2026-03-29T09:32:17.049Z</time></trkpt><trkpt lat="44.3834634" lon="11.0409698"><ele>565.25</ele><time>2026-03-29T09:32:18.049Z</time></trkpt><trkpt lat="44.383361" lon="11.0408988"><ele>569.5</ele><time>2026-03-29T09:32:19.048Z</time></trkpt><trkpt lat="44.3832451" lon="11.0408358"><ele>573.75</ele><time>2026-03-29T09:32:20.048Z</time></trkpt><trkpt lat="44.3831377" lon="11.0407761"><ele>578.0</ele><time>2026-03-29T09:32:21.048Z</time></trkpt><trkpt lat="44.3830448" lon="11.040711"><ele>581.8</ele><time>2026-03-29T09:32:22.049Z</time></trkpt><trkpt lat="44.3829493" lon="11.0406356"><ele>585.5999999999999</ele><time>2026-03-29T09:32:23.049Z</time></trkpt><trkpt lat="44.3828511" lon="11.0405642"><ele>589.4000000000001</ele><time>2026-03-29T09:32:24.049Z</time></trkpt><trkpt lat="44.3827647" lon="11.0404915"><ele>593.2</ele><time>2026-03-29T09:32:25.049Z</time></trkpt><trkpt lat="44.382686" lon="11.0404366"><ele>597.0</ele><time>2026-03-29T09:32:26.049Z</time></trkpt><trkpt lat="44.3826096" lon="11.0403751"><ele>597.0</ele><time>2026-03-29T09:32:27.048Z</time></trkpt><trkpt lat="44.3825479" lon="11.0403395"><ele>597.0</ele><time>2026-03-29T09:32:28.049Z</time></trkpt><trkpt lat="44.3824913" lon="11.0402978"><ele>597.0</ele><time>2026-03-29T09:32:29.049Z</time></trkpt><trkpt lat="44.3824089" lon="11.0402074"><ele>597.0</ele><time>2026-03-29T09:32:31.049Z</time></trkpt><trkpt lat="44.3823558" lon="11.0401336"><ele>597.0</ele><time>2026-03-29T09:32:33.048Z</time></trkpt><trkpt lat="44.3822984" lon="11.0400923"><ele>597.0</ele><time>2026-03-29T09:32:35.048Z</time></trkpt><trkpt lat="44.3822167" lon="11.0400814"><ele>598.4</ele><time>2026-03-29T09:33:03.049Z</time></trkpt><trkpt lat="44.3821001" lon="11.0401292"><ele>599.8000000000001</ele><time>2026-03-29T09:33:05.049Z</time></trkpt><trkpt lat="44.3819968" lon="11.0401729"><ele>601.2</ele><time>2026-03-29T09:33:07.049Z</time></trkpt><trkpt lat="44.3819193" lon="11.0401643"><ele>602.6</ele><time>2026-03-29T09:33:09.049Z</time></trkpt><trkpt lat="44.3817932" lon="11.0401204"><ele>604.0</ele><time>2026-03-29T09:33:11.049Z</time></trkpt><trkpt lat="44.3817214" lon="11.0400605"><ele>604.0</ele><time>2026-03-29T09:33:12.048Z</time></trkpt><trkpt lat="44.3816576" lon="11.0400203"><ele>604.0</ele><time>2026-03-29T09:33:13.049Z</time></trkpt><trkpt lat="44.3816014" lon="11.0399653"><ele>604.0</ele><time>2026-03-29T09:33:14.049Z</time></trkpt><trkpt lat="44.3815429" lon="11.0398888"><ele>604.0</ele><time>2026-03-29T09:33:15.048Z</time></trkpt><trkpt lat="44.3814786" lon="11.0398135"><ele>604.0</ele><time>2026-03-29T09:33:16.049Z</time></trkpt><trkpt lat="44.3813954" lon="11.0397055"><ele>604.0</ele><time>2026-03-29T09:33:18.048Z</time></trkpt><trkpt lat="44.3813062" lon="11.0396064"><ele>605.0</ele><time>2026-03-29T09:33:20.048Z</time></trkpt><trkpt lat="44.3812216" lon="11.0394865"><ele>606.0</ele><time>2026-03-29T09:33:22.048Z</time></trkpt><trkpt lat="44.3811847" lon="11.0394124"><ele>607.0</ele><time>2026-03-29T09:33:23.049Z</time></trkpt><trkpt lat="44.3810919" lon="11.0393119"><ele>608.0</ele><time>2026-03-29T09:33:25.049Z</time></trkpt><trkpt lat="44.3810344" lon="11.039274"><ele>609.0</ele><time>2026-03-29T09:33:28.049Z</time></trkpt><trkpt lat="44.3809715" lon="11.0392614"><ele>610.0</ele><time>2026-03-29T09:33:32.048Z</time></trkpt><trkpt lat="44.3809041" lon="11.0392555"><ele>610.0</ele><time>2026-03-29T09:33:36.049Z</time></trkpt><trkpt lat="44.3808234" lon="11.0391857"><ele>610.0</ele><time>2026-03-29T09:33:39.048Z</time></trkpt><trkpt lat="44.3807594" lon="11.0391432"><ele>610.0</ele><time>2026-03-29T09:33:41.049Z</time></trkpt><trkpt lat="44.3806967" lon="11.0391114"><ele>610.0</ele><time>2026-03-29T09:33:43.048Z</time></trkpt><trkpt lat="44.3806263" lon="11.0390565"><ele>610.0</ele><time>2026-03-29T09:33:46.048Z</time></trkpt><trkpt lat="44.3805568" lon="11.039011"><ele>610.0</ele><time>2026-03-29T09:34:15.049Z</time></trkpt><trkpt lat="44.3804717" lon="11.0389784"><ele>610.4285714285714</ele><time>2026-03-29T09:34:18.049Z</time></trkpt><trkpt lat="44.3804032" lon="11.0389649"><ele>610.8571428571428</ele><time>2026-03-29T09:35:36.048Z</time></trkpt><trkpt lat="44.3803326" lon="11.0389616"><ele>611.2857142857142</ele><time>2026-03-29T09:35:41.049Z</time></trkpt><trkpt lat="44.3802522" lon="11.0389617"><ele>611.7142857142858</ele><time>2026-03-29T09:35:43.049Z</time></trkpt><trkpt lat="44.3801731" lon="11.0389458"><ele>612.1428571428571</ele><time>2026-03-29T09:35:45.049Z</time></trkpt><trkpt lat="44.3800979" lon="11.0389181"><ele>612.5714285714286</ele><time>2026-03-29T09:35:56.049Z</time></trkpt><trkpt lat="44.3800371" lon="11.0388805"><ele>613.0</ele><time>2026-03-29T09:35:58.048Z</time></trkpt><trkpt lat="44.3799488" lon="11.0388011"><ele>613.0</ele><time>2026-03-29T09:36:00.048Z</time></trkpt><trkpt lat="44.3798459" lon="11.0387732"><ele>613.0</ele><time>2026-03-29T09:36:02.049Z</time></trkpt><trkpt lat="44.3797699" lon="11.038775"><ele>613.0</ele><time>2026-03-29T09:36:04.049Z</time></trkpt><trkpt lat="44.3796979" lon="11.0387736"><ele>613.0</ele><time>2026-03-29T09:36:11.049Z</time></trkpt><trkpt lat="44.3796265" lon="11.0387489"><ele>613.0</ele><time>2026-03-29T09:36:13.048Z</time></trkpt><trkpt lat="44.3795453" lon="11.0387087"><ele>613.0</ele><time>2026-03-29T09:36:15.049Z</time></trkpt><trkpt lat="44.3794411" lon="11.0386837"><ele>615.5</ele><time>2026-03-29T09:36:17.049Z</time></trkpt><trkpt lat="44.3793255" lon="11.0386507"><ele>618.0</ele><time>2026-03-29T09:36:19.049Z</time></trkpt><trkpt lat="44.3792129" lon="11.0385852"><ele>620.5</ele><time>2026-03-29T09:36:21.049Z</time></trkpt><trkpt lat="44.3791058" lon="11.0385515"><ele>623.0</ele><time>2026-03-29T09:36:23.049Z</time></trkpt><trkpt lat="44.3790104" lon="11.0385046"><ele>623.0</ele><time>2026-03-29T09:36:25.048Z</time></trkpt><trkpt lat="44.3789381" lon="11.0384736"><ele>623.0</ele><time>2026-03-29T09:36:27.049Z</time></trkpt><trkpt lat="44.3788706" lon="11.0384626"><ele>623.0</ele><time>2026-03-29T09:36:35.049Z</time></trkpt><trkpt lat="44.3788065" lon="11.038441"><ele>623.0</ele><time>2026-03-29T09:36:38.049Z</time></trkpt><trkpt lat="44.3787433" lon="11.0383994"><ele>623.0</ele><time>2026-03-29T09:36:42.049Z</time></trkpt><trkpt lat="44.3786737" lon="11.0383704"><ele>623.0</ele><time>2026-03-29T09:36:45.048Z</time></trkpt><trkpt lat="44.3786074" lon="11.0383292"><ele>623.0</ele><time>2026-03-29T09:36:48.048Z</time></trkpt><trkpt lat="44.3785399" lon="11.0382861"><ele>624.5</ele><time>2026-03-29T09:36:54.049Z</time></trkpt><trkpt lat="44.3784796" lon="11.03823"><ele>626.0</ele><time>2026-03-29T09:37:01.049Z</time></trkpt><trkpt lat="44.3785264" lon="11.0382892"><ele>627.5</ele><time>2026-03-29T09:41:28.049Z</time></trkpt><trkpt lat="44.3786225" lon="11.0383782"><ele>629.0</ele><time>2026-03-29T09:42:38.048Z</time></trkpt><trkpt lat="44.3786925" lon="11.038416"><ele>630.5</ele><time>2026-03-29T09:44:12.049Z</time></trkpt><trkpt lat="44.378756" lon="11.0384536"><ele>632.0</ele><time>2026-03-29T09:44:32.049Z</time></trkpt><trkpt lat="44.3788237" lon="11.0384819"><ele>630.5</ele><time>2026-03-29T09:44:36.048Z</time></trkpt><trkpt lat="44.3788874" lon="11.0385"><ele>629.0</ele><time>2026-03-29T09:44:40.048Z</time></trkpt><trkpt lat="44.3789619" lon="11.0385019"><ele>627.5</ele><time>2026-03-29T09:44:43.049Z</time></trkpt><trkpt lat="44.3790399" lon="11.0385436"><ele>626.0</ele><time>2026-03-29T09:44:45.049Z</time></trkpt><trkpt lat="44.3791246" lon="11.0385904"><ele>624.5</ele><time>2026-03-29T09:44:47.048Z</time></trkpt><trkpt lat="44.3791944" lon="11.0386156"><ele>623.0</ele><time>2026-03-29T09:44:49.049Z</time></trkpt><trkpt lat="44.3792663" lon="11.0386512"><ele>623.0</ele><time>2026-03-29T09:44:51.048Z</time></trkpt><trkpt lat="44.3793706" lon="11.0386984"><ele>623.0</ele><time>2026-03-29T09:44:53.049Z</time></trkpt><trkpt lat="44.37944" lon="11.038718"><ele>623.0</ele><time>2026-03-29T09:44:54.049Z</time></trkpt><trkpt lat="44.3795096" lon="11.0387346"><ele>623.0</ele><time>2026-03-29T09:44:55.049Z</time></trkpt><trkpt lat="44.3795743" lon="11.0387566"><ele>623.0</ele><time>2026-03-29T09:44:56.048Z</time></trkpt><trkpt lat="44.3796621" lon="11.038804"><ele>623.0</ele><time>2026-03-29T09:44:58.049Z</time></trkpt><trkpt lat="44.3797473" lon="11.038813"><ele>621.0</ele><time>2026-03-29T09:45:00.049Z</time></trkpt><trkpt lat="44.3798675" lon="11.0388137"><ele>619.0</ele><time>2026-03-29T09:45:02.048Z</time></trkpt><trkpt lat="44.3799554" lon="11.0388407"><ele>617.0</ele><time>2026-03-29T09:45:04.049Z</time></trkpt><trkpt lat="44.3800829" lon="11.0389227"><ele>615.0</ele><time>2026-03-29T09:45:07.049Z</time></trkpt><trkpt lat="44.3801666" lon="11.0389681"><ele>613.0</ele><time>2026-03-29T09:45:09.049Z</time></trkpt><trkpt lat="44.3802469" lon="11.0390162"><ele>613.0</ele><time>2026-03-29T09:45:16.049Z</time></trkpt><trkpt lat="44.3803504" lon="11.0390187"><ele>613.0</ele><time>2026-03-29T09:45:19.048Z</time></trkpt><trkpt lat="44.3804174" lon="11.0390116"><ele>613.0</ele><time>2026-03-29T09:45:21.048Z</time></trkpt><trkpt lat="44.3804923" lon="11.039025"><ele>613.0</ele><time>2026-03-29T09:45:24.049Z</time></trkpt><trkpt lat="44.3805761" lon="11.0390127"><ele>613.0</ele><time>2026-03-29T09:45:27.048Z</time></trkpt><trkpt lat="44.3805327" lon="11.0388837"><ele>613.0</ele><time>2026-03-29T09:48:47.048Z</time></trkpt><trkpt lat="44.3804906" lon="11.0389508"><ele>613.0</ele><time>2026-03-29T09:49:41.049Z</time></trkpt><trkpt lat="44.3804861" lon="11.0390629"><ele>613.0</ele><time>2026-03-29T09:49:42.049Z</time></trkpt><trkpt lat="44.3804534" lon="11.0391782"><ele>613.0</ele><time>2026-03-29T09:49:43.049Z</time></trkpt><trkpt lat="44.3804001" lon="11.0392779"><ele>613.0</ele><time>2026-03-29T09:49:44.048Z</time></trkpt><trkpt lat="44.3803277" lon="11.0393462"><ele>613.0</ele><time>2026-03-29T09:49:45.048Z</time></trkpt><trkpt lat="44.3802259" lon="11.0394067"><ele>613.8333333333334</ele><time>2026-03-29T09:49:46.049Z</time></trkpt><trkpt lat="44.3801331" lon="11.0394497"><ele>614.6666666666667</ele><time>2026-03-29T09:49:47.048Z</time></trkpt><trkpt lat="44.3800459" lon="11.0394745"><ele>615.5</ele><time>2026-03-29T09:49:48.049Z</time></trkpt><trkpt lat="44.3799585" lon="11.0395085"><ele>616.3333333333334</ele><time>2026-03-29T09:49:49.048Z</time></trkpt><trkpt lat="44.3798765" lon="11.0395469"><ele>617.1666666666666</ele><time>2026-03-29T09:49:50.049Z</time></trkpt><trkpt lat="44.3798061" lon="11.0396006"><ele>618.0</ele><time>2026-03-29T09:49:51.049Z</time></trkpt><trkpt lat="44.3797628" lon="11.0396919"><ele>618.0</ele><time>2026-03-29T09:49:52.049Z</time></trkpt><trkpt lat="44.3797444" lon="11.0397893"><ele>618.0</ele><time>2026-03-29T09:49:53.049Z</time></trkpt><trkpt lat="44.3798079" lon="11.0398846"><ele>618.0</ele><time>2026-03-29T09:49:54.049Z</time></trkpt><trkpt lat="44.3798931" lon="11.0399415"><ele>618.0</ele><time>2026-03-29T09:49:55.048Z</time></trkpt><trkpt lat="44.3799888" lon="11.0399477"><ele>618.0</ele><time>2026-03-29T09:49:56.048Z</time></trkpt><trkpt lat="44.3800921" lon="11.0399414"><ele>618.0</ele><time>2026-03-29T09:49:57.049Z</time></trkpt><trkpt lat="44.3801983" lon="11.0399206"><ele>618.0</ele><time>2026-03-29T09:49:58.049Z</time></trkpt><trkpt lat="44.3803155" lon="11.0399099"><ele>618.0</ele><time>2026-03-29T09:49:59.049Z</time></trkpt><trkpt lat="44.380435" lon="11.039899"><ele>618.0</ele><time>2026-03-29T09:50:00.049Z</time></trkpt><trkpt lat="44.3805502" lon="11.0399098"><ele>616.4</ele><time>2026-03-29T09:50:01.049Z</time></trkpt><trkpt lat="44.3806556" lon="11.0399251"><ele>614.8</ele><time>2026-03-29T09:50:02.048Z</time></trkpt><trkpt lat="44.3807475" lon="11.0399627"><ele>613.2</ele><time>2026-03-29T09:50:03.049Z</time></trkpt><trkpt lat="44.3808356" lon="11.0400266"><ele>611.6</ele><time>2026-03-29T09:50:04.049Z</time></trkpt><trkpt lat="44.3809088" lon="11.0401209"><ele>610.0</ele><time>2026-03-29T09:50:05.048Z</time></trkpt><trkpt lat="44.3809621" lon="11.0401974"><ele>608.1666666666667</ele><time>2026-03-29T09:50:06.049Z</time></trkpt><trkpt lat="44.3810008" lon="11.040267"><ele>606.3333333333334</ele><time>2026-03-29T09:50:07.048Z</time></trkpt><trkpt lat="44.3810187" lon="11.0403592"><ele>604.5</ele><time>2026-03-29T09:50:08.049Z</time></trkpt><trkpt lat="44.3810189" lon="11.0404674"><ele>602.6666666666666</ele><time>2026-03-29T09:50:09.049Z</time></trkpt><trkpt lat="44.3810398" lon="11.040625"><ele>600.8333333333333</ele><time>2026-03-29T09:50:11.049Z</time></trkpt><trkpt lat="44.3810554" lon="11.0407584"><ele>599.0</ele><time>2026-03-29T09:50:13.049Z</time></trkpt><trkpt lat="44.3810548" lon="11.0408631"><ele>599.0</ele><time>2026-03-29T09:50:15.048Z</time></trkpt><trkpt lat="44.3809855" lon="11.0407998"><ele>599.0</ele><time>2026-03-29T09:50:20.048Z</time></trkpt><trkpt lat="44.3810624" lon="11.0407819"><ele>599.0</ele><time>2026-03-29T09:50:22.049Z</time></trkpt><trkpt lat="44.381158" lon="11.0407406"><ele>599.0</ele><time>2026-03-29T09:50:24.049Z</time></trkpt><trkpt lat="44.3812482" lon="11.0406635"><ele>599.0</ele><time>2026-03-29T09:50:26.048Z</time></trkpt><trkpt lat="44.3813533" lon="11.0406231"><ele>599.8333333333333</ele><time>2026-03-29T09:50:28.049Z</time></trkpt><trkpt lat="44.3814168" lon="11.0406272"><ele>600.6666666666666</ele><time>2026-03-29T09:50:29.049Z</time></trkpt><trkpt lat="44.3814826" lon="11.0406348"><ele>601.5</ele><time>2026-03-29T09:50:30.049Z</time></trkpt><trkpt lat="44.3815487" lon="11.0406543"><ele>602.3333333333334</ele><time>2026-03-29T09:50:31.049Z</time></trkpt><trkpt lat="44.3816361" lon="11.0406744"><ele>603.1666666666667</ele><time>2026-03-29T09:50:33.049Z</time></trkpt><trkpt lat="44.3816937" lon="11.0407276"><ele>604.0</ele><time>2026-03-29T09:50:35.048Z</time></trkpt><trkpt lat="44.3816488" lon="11.0408752"><ele>601.5</ele><time>2026-03-29T09:50:37.049Z</time></trkpt><trkpt lat="44.3815656" lon="11.0409129"><ele>599.0</ele><time>2026-03-29T09:50:38.048Z</time></trkpt><trkpt lat="44.3814631" lon="11.040912"><ele>596.5</ele><time>2026-03-29T09:50:39.049Z</time></trkpt><trkpt lat="44.3813559" lon="11.0408979"><ele>594.0</ele><time>2026-03-29T09:50:40.049Z</time></trkpt><trkpt lat="44.3812782" lon="11.0408943"><ele>591.5</ele><time>2026-03-29T09:50:41.048Z</time></trkpt><trkpt lat="44.3812151" lon="11.0409015"><ele>589.0</ele><time>2026-03-29T09:50:42.049Z</time></trkpt><trkpt lat="44.3811142" lon="11.04093"><ele>588.3333333333334</ele><time>2026-03-29T09:50:44.049Z</time></trkpt><trkpt lat="44.3810611" lon="11.0410622"><ele>587.6666666666667</ele><time>2026-03-29T09:50:46.049Z</time></trkpt><trkpt lat="44.381063" lon="11.0411611"><ele>587.0</ele><time>2026-03-29T09:50:47.048Z</time></trkpt><trkpt lat="44.3810515" lon="11.0412491"><ele>586.3333333333334</ele><time>2026-03-29T09:50:48.049Z</time></trkpt><trkpt lat="44.3810512" lon="11.041348"><ele>585.6666666666666</ele><time>2026-03-29T09:50:49.049Z</time></trkpt><trkpt lat="44.3810732" lon="11.0414458"><ele>585.0</ele><time>2026-03-29T09:50:50.049Z</time></trkpt><trkpt lat="44.3811111" lon="11.0415319"><ele>585.0</ele><time>2026-03-29T09:50:51.049Z</time></trkpt><trkpt lat="44.3811542" lon="11.0416072"><ele>585.0</ele><time>2026-03-29T09:50:52.049Z</time></trkpt><trkpt lat="44.3812037" lon="11.0416685"><ele>585.0</ele><time>2026-03-29T09:50:53.048Z</time></trkpt><trkpt lat="44.3812569" lon="11.0417201"><ele>585.0</ele><time>2026-03-29T09:50:54.049Z</time></trkpt><trkpt lat="44.381367" lon="11.0418259"><ele>585.0</ele><time>2026-03-29T09:50:56.048Z</time></trkpt><trkpt lat="44.3814789" lon="11.0419325"><ele>583.1666666666666</ele><time>2026-03-29T09:50:58.049Z</time></trkpt><trkpt lat="44.3815333" lon="11.0419963"><ele>581.3333333333334</ele><time>2026-03-29T09:50:59.048Z</time></trkpt><trkpt lat="44.3815975" lon="11.0420716"><ele>579.5</ele><time>2026-03-29T09:51:00.049Z</time></trkpt><trkpt lat="44.381642" lon="11.0421664"><ele>577.6666666666667</ele><time>2026-03-29T09:51:01.048Z</time></trkpt><trkpt lat="44.3816947" lon="11.0422531"><ele>575.8333333333334</ele><time>2026-03-29T09:51:02.048Z</time></trkpt><trkpt lat="44.3817314" lon="11.0423383"><ele>574.0</ele><time>2026-03-29T09:51:03.049Z</time></trkpt><trkpt lat="44.3817789" lon="11.0424151"><ele>570.8333333333334</ele><time>2026-03-29T09:51:04.048Z</time></trkpt><trkpt lat="44.381847" lon="11.0425394"><ele>567.6666666666667</ele><time>2026-03-29T09:51:06.049Z</time></trkpt><trkpt lat="44.3818975" lon="11.0426485"><ele>564.5</ele><time>2026-03-29T09:51:08.049Z</time></trkpt><trkpt lat="44.3819193" lon="11.0427349"><ele>561.3333333333334</ele><time>2026-03-29T09:51:11.049Z</time></trkpt><trkpt lat="44.3819203" lon="11.0426414"><ele>558.1666666666666</ele><time>2026-03-29T09:51:46.049Z</time></trkpt><trkpt lat="44.3818751" lon="11.0425733"><ele>555.0</ele><time>2026-03-29T09:51:47.049Z</time></trkpt><trkpt lat="44.3818208" lon="11.0424881"><ele>558.8</ele><time>2026-03-29T09:51:48.049Z</time></trkpt><trkpt lat="44.3817683" lon="11.0423882"><ele>562.6</ele><time>2026-03-29T09:51:49.048Z</time></trkpt><trkpt lat="44.3817061" lon="11.0422766"><ele>566.4</ele><time>2026-03-29T09:51:50.048Z</time></trkpt><trkpt lat="44.3816437" lon="11.0421643"><ele>570.2</ele><time>2026-03-29T09:51:51.049Z</time></trkpt><trkpt lat="44.3815701" lon="11.0420509"><ele>574.0</ele><time>2026-03-29T09:51:52.048Z</time></trkpt><trkpt lat="44.3814864" lon="11.0419629"><ele>574.0</ele><time>2026-03-29T09:51:53.049Z</time></trkpt><trkpt lat="44.3814077" lon="11.0418851"><ele>574.0</ele><time>2026-03-29T09:51:54.049Z</time></trkpt><trkpt lat="44.3813306" lon="11.0418113"><ele>574.0</ele><time>2026-03-29T09:51:55.048Z</time></trkpt><trkpt lat="44.3812584" lon="11.0417336"><ele>574.0</ele><time>2026-03-29T09:51:56.048Z</time></trkpt><trkpt lat="44.3811858" lon="11.0416531"><ele>574.0</ele><time>2026-03-29T09:51:57.049Z</time></trkpt><trkpt lat="44.381126" lon="11.0415709"><ele>576.2</ele><time>2026-03-29T09:51:58.048Z</time></trkpt><trkpt lat="44.3810847" lon="11.0414633"><ele>578.4</ele><time>2026-03-29T09:51:59.049Z</time></trkpt><trkpt lat="44.3810612" lon="11.0413391"><ele>580.6</ele><time>2026-03-29T09:52:00.048Z</time></trkpt><trkpt lat="44.3810515" lon="11.0412037"><ele>582.8</ele><time>2026-03-29T09:52:01.049Z</time></trkpt><trkpt lat="44.3810551" lon="11.0410699"><ele>585.0</ele><time>2026-03-29T09:52:02.048Z</time></trkpt><trkpt lat="44.3810471" lon="11.0409544"><ele>585.0</ele><time>2026-03-29T09:52:04.049Z</time></trkpt><trkpt lat="44.3809251" lon="11.0409181"><ele>585.0</ele><time>2026-03-29T09:52:07.049Z</time></trkpt><trkpt lat="44.3808396" lon="11.0409087"><ele>585.0</ele><time>2026-03-29T09:52:08.049Z</time></trkpt><trkpt lat="44.3807482" lon="11.0409115"><ele>585.0</ele><time>2026-03-29T09:52:09.048Z</time></trkpt><trkpt lat="44.3806409" lon="11.0409129"><ele>585.0</ele><time>2026-03-29T09:52:10.048Z</time></trkpt><trkpt lat="44.3805351" lon="11.0409137"><ele>585.1666666666666</ele><time>2026-03-29T09:52:11.049Z</time></trkpt><trkpt lat="44.380433" lon="11.0409154"><ele>585.3333333333334</ele><time>2026-03-29T09:52:12.048Z</time></trkpt><trkpt lat="44.3803339" lon="11.040915"><ele>585.5</ele><time>2026-03-29T09:52:13.048Z</time></trkpt><trkpt lat="44.3802557" lon="11.0409469"><ele>585.6666666666667</ele><time>2026-03-29T09:52:14.049Z</time></trkpt><trkpt lat="44.380202" lon="11.0410133"><ele>585.8333333333334</ele><time>2026-03-29T09:52:15.049Z</time></trkpt><trkpt lat="44.3801855" lon="11.0411117"><ele>586.0</ele><time>2026-03-29T09:52:16.049Z</time></trkpt><trkpt lat="44.3802193" lon="11.0411947"><ele>586.0</ele><time>2026-03-29T09:52:17.048Z</time></trkpt><trkpt lat="44.3802859" lon="11.0412658"><ele>586.0</ele><time>2026-03-29T09:52:18.048Z</time></trkpt><trkpt lat="44.3803915" lon="11.0413021"><ele>586.0</ele><time>2026-03-29T09:52:19.048Z</time></trkpt><trkpt lat="44.3805068" lon="11.0413474"><ele>586.0</ele><time>2026-03-29T09:52:20.049Z</time></trkpt><trkpt lat="44.3806292" lon="11.0414103"><ele>586.0</ele><time>2026-03-29T09:52:21.049Z</time></trkpt><trkpt lat="44.3807461" lon="11.0415092"><ele>585.75</ele><time>2026-03-29T09:52:22.049Z</time></trkpt><trkpt lat="44.38086" lon="11.0416142"><ele>585.5</ele><time>2026-03-29T09:52:23.049Z</time></trkpt><trkpt lat="44.3809795" lon="11.041715"><ele>585.25</ele><time>2026-03-29T09:52:24.048Z</time></trkpt><trkpt lat="44.3810989" lon="11.0418114"><ele>585.0</ele><time>2026-03-29T09:52:25.049Z</time></trkpt><trkpt lat="44.3812182" lon="11.0419024"><ele>582.25</ele><time>2026-03-29T09:52:26.049Z</time></trkpt><trkpt lat="44.3813393" lon="11.0420029"><ele>579.5</ele><time>2026-03-29T09:52:27.048Z</time></trkpt><trkpt lat="44.3814483" lon="11.0421148"><ele>576.75</ele><time>2026-03-29T09:52:28.049Z</time></trkpt><trkpt lat="44.3815477" lon="11.0422409"><ele>574.0</ele><time>2026-03-29T09:52:29.049Z</time></trkpt><trkpt lat="44.3816426" lon="11.0423764"><ele>569.25</ele><time>2026-03-29T09:52:30.049Z</time></trkpt><trkpt lat="44.3817283" lon="11.0425154"><ele>564.5</ele><time>2026-03-29T09:52:31.048Z</time></trkpt><trkpt lat="44.3818049" lon="11.042654"><ele>559.75</ele><time>2026-03-29T09:52:32.048Z</time></trkpt><trkpt lat="44.381879" lon="11.0427914"><ele>555.0</ele><time>2026-03-29T09:52:33.049Z</time></trkpt><trkpt lat="44.3819452" lon="11.0429215"><ele>555.0</ele><time>2026-03-29T09:52:34.049Z</time></trkpt><trkpt lat="44.3819854" lon="11.0430402"><ele>555.0</ele><time>2026-03-29T09:52:35.048Z</time></trkpt><trkpt lat="44.3819935" lon="11.0431478"><ele>555.0</ele><time>2026-03-29T09:52:36.049Z</time></trkpt><trkpt lat="44.3819672" lon="11.0432444"><ele>555.0</ele><time>2026-03-29T09:52:37.049Z</time></trkpt><trkpt lat="44.3819226" lon="11.0433281"><ele>555.0</ele><time>2026-03-29T09:52:38.049Z</time></trkpt><trkpt lat="44.3817571" lon="11.0432932"><ele>555.0</ele><time>2026-03-29T09:52:40.048Z</time></trkpt><trkpt lat="44.3816623" lon="11.0432438"><ele>555.0</ele><time>2026-03-29T09:52:41.049Z</time></trkpt><trkpt lat="44.3815655" lon="11.0431754"><ele>555.0</ele><time>2026-03-29T09:52:42.049Z</time></trkpt><trkpt lat="44.3814634" lon="11.0431006"><ele>555.0</ele><time>2026-03-29T09:52:43.049Z</time></trkpt><trkpt lat="44.3813715" lon="11.0430255"><ele>555.0</ele><time>2026-03-29T09:52:44.048Z</time></trkpt><trkpt lat="44.3812805" lon="11.0429476"><ele>554.3333333333334</ele><time>2026-03-29T09:52:45.049Z</time></trkpt><trkpt lat="44.3811996" lon="11.0428731"><ele>553.6666666666666</ele><time>2026-03-29T09:52:46.048Z</time></trkpt><trkpt lat="44.3811292" lon="11.0427949"><ele>553.0</ele><time>2026-03-29T09:52:47.048Z</time></trkpt><trkpt lat="44.3810607" lon="11.0427453"><ele>552.3333333333333</ele><time>2026-03-29T09:52:48.049Z</time></trkpt><trkpt lat="44.3809926" lon="11.0427481"><ele>551.6666666666666</ele><time>2026-03-29T09:52:49.048Z</time></trkpt><trkpt lat="44.3809667" lon="11.0429064"><ele>551.0</ele><time>2026-03-29T09:52:51.048Z</time></trkpt><trkpt lat="44.3810148" lon="11.0430165"><ele>551.0</ele><time>2026-03-29T09:52:52.048Z</time></trkpt><trkpt lat="44.3810932" lon="11.0431283"><ele>551.0</ele><time>2026-03-29T09:52:53.048Z</time></trkpt><trkpt lat="44.3811719" lon="11.0432701"><ele>551.0</ele><time>2026-03-29T09:52:54.049Z</time></trkpt><trkpt lat="44.3812479" lon="11.0434204"><ele>551.0</ele><time>2026-03-29T09:52:55.048Z</time></trkpt><trkpt lat="44.3813156" lon="11.0435726"><ele>549.75</ele><time>2026-03-29T09:52:56.049Z</time></trkpt><trkpt lat="44.3813788" lon="11.0437234"><ele>548.5</ele><time>2026-03-29T09:52:57.049Z</time></trkpt><trkpt lat="44.3814373" lon="11.0438709"><ele>547.25</ele><time>2026-03-29T09:52:58.049Z</time></trkpt><trkpt lat="44.3814882" lon="11.0440123"><ele>546.0</ele><time>2026-03-29T09:52:59.049Z</time></trkpt><trkpt lat="44.3815315" lon="11.0441608"><ele>544.0</ele><time>2026-03-29T09:53:00.049Z</time></trkpt><trkpt lat="44.3815634" lon="11.0442985"><ele>542.0</ele><time>2026-03-29T09:53:01.049Z</time></trkpt><trkpt lat="44.3815835" lon="11.0444487"><ele>540.0</ele><time>2026-03-29T09:53:02.049Z</time></trkpt><trkpt lat="44.3815932" lon="11.0445888"><ele>538.0</ele><time>2026-03-29T09:53:03.049Z</time></trkpt><trkpt lat="44.3815982" lon="11.0447222"><ele>536.0</ele><time>2026-03-29T09:53:04.049Z</time></trkpt><trkpt lat="44.3816008" lon="11.0448512"><ele>534.1666666666666</ele><time>2026-03-29T09:53:05.048Z</time></trkpt><trkpt lat="44.3816067" lon="11.0449797"><ele>532.3333333333333</ele><time>2026-03-29T09:53:06.048Z</time></trkpt><trkpt lat="44.3816041" lon="11.0450919"><ele>530.5</ele><time>2026-03-29T09:53:07.049Z</time></trkpt><trkpt lat="44.3815871" lon="11.0451936"><ele>528.6666666666666</ele><time>2026-03-29T09:53:08.049Z</time></trkpt><trkpt lat="44.381553" lon="11.0452801"><ele>526.8333333333334</ele><time>2026-03-29T09:53:09.049Z</time></trkpt><trkpt lat="44.3814667" lon="11.0453459"><ele>525.0</ele><time>2026-03-29T09:53:11.049Z</time></trkpt><trkpt lat="44.3813618" lon="11.0452348"><ele>524.8</ele><time>2026-03-29T09:53:12.049Z</time></trkpt><trkpt lat="44.3812859" lon="11.0451323"><ele>524.6</ele><time>2026-03-29T09:53:13.048Z</time></trkpt><trkpt lat="44.3812343" lon="11.0450052"><ele>524.4</ele><time>2026-03-29T09:53:14.049Z</time></trkpt><trkpt lat="44.3812117" lon="11.0448604"><ele>524.2</ele><time>2026-03-29T09:53:15.049Z</time></trkpt><trkpt lat="44.3812022" lon="11.0447046"><ele>524.0</ele><time>2026-03-29T09:53:16.048Z</time></trkpt><trkpt lat="44.3811855" lon="11.04456"><ele>524.0</ele><time>2026-03-29T09:53:17.049Z</time></trkpt><trkpt lat="44.3811535" lon="11.0444231"><ele>524.0</ele><time>2026-03-29T09:53:18.049Z</time></trkpt><trkpt lat="44.3811146" lon="11.0442958"><ele>524.0</ele><time>2026-03-29T09:53:19.048Z</time></trkpt><trkpt lat="44.3810624" lon="11.0441934"><ele>524.0</ele><time>2026-03-29T09:53:20.049Z</time></trkpt><trkpt lat="44.3810003" lon="11.0441167"><ele>524.0</ele><time>2026-03-29T09:53:21.049Z</time></trkpt><trkpt lat="44.3809256" lon="11.0440868"><ele>524.0</ele><time>2026-03-29T09:53:22.048Z</time></trkpt><trkpt lat="44.3808368" lon="11.0441086"><ele>524.0</ele><time>2026-03-29T09:53:23.049Z</time></trkpt><trkpt lat="44.3807607" lon="11.0441953"><ele>524.0</ele><time>2026-03-29T09:53:24.048Z</time></trkpt><trkpt lat="44.3806806" lon="11.0443129"><ele>524.0</ele><time>2026-03-29T09:53:25.049Z</time></trkpt><trkpt lat="44.3805984" lon="11.044456"><ele>524.0</ele><time>2026-03-29T09:53:26.049Z</time></trkpt><trkpt lat="44.3805019" lon="11.0446059"><ele>522.25</ele><time>2026-03-29T09:53:27.048Z</time></trkpt><trkpt lat="44.3804038" lon="11.0447513"><ele>520.5</ele><time>2026-03-29T09:53:28.049Z</time></trkpt><trkpt lat="44.3803048" lon="11.0448932"><ele>518.75</ele><time>2026-03-29T09:53:29.049Z</time></trkpt><trkpt lat="44.3802042" lon="11.0450259"><ele>517.0</ele><time>2026-03-29T09:53:30.049Z</time></trkpt><trkpt lat="44.3801086" lon="11.0451561"><ele>515.0</ele><time>2026-03-29T09:53:31.048Z</time></trkpt><trkpt lat="44.380016" lon="11.045284"><ele>513.0</ele><time>2026-03-29T09:53:32.048Z</time></trkpt><trkpt lat="44.3799276" lon="11.0454074"><ele>511.0</ele><time>2026-03-29T09:53:33.049Z</time></trkpt><trkpt lat="44.3798487" lon="11.0455318"><ele>509.0</ele><time>2026-03-29T09:53:34.048Z</time></trkpt><trkpt lat="44.3797788" lon="11.0456634"><ele>509.0</ele><time>2026-03-29T09:53:35.049Z</time></trkpt><trkpt lat="44.3797243" lon="11.0457992"><ele>509.0</ele><time>2026-03-29T09:53:36.049Z</time></trkpt><trkpt lat="44.3796815" lon="11.0459351"><ele>509.0</ele><time>2026-03-29T09:53:37.049Z</time></trkpt><trkpt lat="44.3796218" lon="11.046049"><ele>509.0</ele><time>2026-03-29T09:53:38.049Z</time></trkpt><trkpt lat="44.3795415" lon="11.0461417"><ele>509.0</ele><time>2026-03-29T09:53:39.048Z</time></trkpt><trkpt lat="44.3794417" lon="11.0461996"><ele>509.0</ele><time>2026-03-29T09:53:40.048Z</time></trkpt><trkpt lat="44.3793434" lon="11.0462285"><ele>509.0</ele><time>2026-03-29T09:53:41.048Z</time></trkpt><trkpt lat="44.3792487" lon="11.0462416"><ele>509.0</ele><time>2026-03-29T09:53:42.049Z</time></trkpt><trkpt lat="44.3791693" lon="11.0462407"><ele>509.0</ele><time>2026-03-29T09:53:43.049Z</time></trkpt><trkpt lat="44.3790922" lon="11.0462505"><ele>509.0</ele><time>2026-03-29T09:53:44.049Z</time></trkpt><trkpt lat="44.3790264" lon="11.046382"><ele>508.99999999999994</ele><time>2026-03-29T09:53:46.048Z</time></trkpt><trkpt lat="44.3790093" lon="11.0464754"><ele>509.0</ele><time>2026-03-29T09:53:49.049Z</time></trkpt><trkpt lat="44.3789749" lon="11.0465572"><ele>509.0</ele><time>2026-03-29T09:54:35.049Z</time></trkpt><trkpt lat="44.3789126" lon="11.0466577"><ele>509.0</ele><time>2026-03-29T09:54:38.048Z</time></trkpt><trkpt lat="44.3788629" lon="11.0467195"><ele>508.99999999999994</ele><time>2026-03-29T09:54:39.049Z</time></trkpt><trkpt lat="44.3787999" lon="11.0467926"><ele>509.0</ele><time>2026-03-29T09:54:41.048Z</time></trkpt><trkpt lat="44.3787307" lon="11.046823"><ele>508.1428571428571</ele><time>2026-03-29T09:54:50.049Z</time></trkpt><trkpt lat="44.3786651" lon="11.0467985"><ele>507.2857142857143</ele><time>2026-03-29T09:54:52.049Z</time></trkpt><trkpt lat="44.3786065" lon="11.0467558"><ele>506.42857142857144</ele><time>2026-03-29T09:54:54.049Z</time></trkpt><trkpt lat="44.3785454" lon="11.0466994"><ele>505.57142857142856</ele><time>2026-03-29T09:54:57.049Z</time></trkpt><trkpt lat="44.3786061" lon="11.0467916"><ele>504.7142857142858</ele><time>2026-03-29T09:55:19.049Z</time></trkpt><trkpt lat="44.3786627" lon="11.0468523"><ele>503.8571428571429</ele><time>2026-03-29T09:55:21.049Z</time></trkpt><trkpt lat="44.3787312" lon="11.0468785"><ele>503.0</ele><time>2026-03-29T09:55:23.049Z</time></trkpt><trkpt lat="44.3788033" lon="11.0469271"><ele>502.99999999999994</ele><time>2026-03-29T09:55:26.049Z</time></trkpt><trkpt lat="44.3788388" lon="11.047022"><ele>503.0</ele><time>2026-03-29T09:55:29.049Z</time></trkpt><trkpt lat="44.3789098" lon="11.0470819"><ele>503.0</ele><time>2026-03-29T09:55:32.049Z</time></trkpt><trkpt lat="44.3789787" lon="11.0471428"><ele>503.0</ele><time>2026-03-29T09:55:35.048Z</time></trkpt><trkpt lat="44.3789713" lon="11.0472568"><ele>502.99999999999994</ele><time>2026-03-29T09:55:39.049Z</time></trkpt><trkpt lat="44.3789553" lon="11.0474008"><ele>503.0</ele><time>2026-03-29T09:55:42.048Z</time></trkpt><trkpt lat="44.3789539" lon="11.0475461"><ele>500.99999999999994</ele><time>2026-03-29T09:55:44.049Z</time></trkpt><trkpt lat="44.378925" lon="11.0476795"><ele>499.0</ele><time>2026-03-29T09:55:46.049Z</time></trkpt><trkpt lat="44.3788918" lon="11.0477701"><ele>497.0</ele><time>2026-03-29T09:55:48.049Z</time></trkpt><trkpt lat="44.378853" lon="11.0478753"><ele>495.0</ele><time>2026-03-29T09:55:52.049Z</time></trkpt><trkpt lat="44.3788365" lon="11.0479761"><ele>492.99999999999994</ele><time>2026-03-29T09:55:56.048Z</time></trkpt><trkpt lat="44.3788622" lon="11.0478642"><ele>491.0</ele><time>2026-03-29T09:56:11.049Z</time></trkpt><trkpt lat="44.3788935" lon="11.0477858"><ele>492.0</ele><time>2026-03-29T09:56:13.049Z</time></trkpt><trkpt lat="44.3789067" lon="11.047637"><ele>493.0</ele><time>2026-03-29T09:56:15.048Z</time></trkpt><trkpt lat="44.3789294" lon="11.047461"><ele>494.0</ele><time>2026-03-29T09:56:17.049Z</time></trkpt><trkpt lat="44.3789547" lon="11.0473332"><ele>495.0</ele><time>2026-03-29T09:56:19.049Z</time></trkpt><trkpt lat="44.3789729" lon="11.0472145"><ele>496.0</ele><time>2026-03-29T09:56:21.049Z</time></trkpt><trkpt lat="44.3789286" lon="11.0471"><ele>496.00000000000006</ele><time>2026-03-29T09:56:24.048Z</time></trkpt><trkpt lat="44.3788341" lon="11.0470495"><ele>496.0</ele><time>2026-03-29T09:56:26.049Z</time></trkpt><trkpt lat="44.3787765" lon="11.0469729"><ele>496.0</ele><time>2026-03-29T09:56:28.049Z</time></trkpt><trkpt lat="44.3787531" lon="11.0468763"><ele>496.0</ele><time>2026-03-29T09:56:30.048Z</time></trkpt><trkpt lat="44.3788159" lon="11.0467763"><ele>496.00000000000006</ele><time>2026-03-29T09:56:32.048Z</time></trkpt><trkpt lat="44.3788616" lon="11.0467109"><ele>496.0</ele><time>2026-03-29T09:56:33.049Z</time></trkpt><trkpt lat="44.37892" lon="11.0465988"><ele>498.6</ele><time>2026-03-29T09:56:35.049Z</time></trkpt><trkpt lat="44.3789864" lon="11.0465109"><ele>501.20000000000005</ele><time>2026-03-29T09:56:37.049Z</time></trkpt><trkpt lat="44.3790788" lon="11.0465123"><ele>503.79999999999995</ele><time>2026-03-29T09:56:39.048Z</time></trkpt><trkpt lat="44.3791577" lon="11.0465228"><ele>506.4</ele><time>2026-03-29T09:56:40.048Z</time></trkpt><trkpt lat="44.3792493" lon="11.0465266"><ele>509.0</ele><time>2026-03-29T09:56:41.049Z</time></trkpt><trkpt lat="44.3793479" lon="11.0465253"><ele>509.0</ele><time>2026-03-29T09:56:42.048Z</time></trkpt><trkpt lat="44.379455" lon="11.0465307"><ele>509.0</ele><time>2026-03-29T09:56:43.049Z</time></trkpt><trkpt lat="44.3795656" lon="11.0465365"><ele>509.0</ele><time>2026-03-29T09:56:44.049Z</time></trkpt><trkpt lat="44.3796826" lon="11.0465426"><ele>509.0</ele><time>2026-03-29T09:56:45.049Z</time></trkpt><trkpt lat="44.3798036" lon="11.0465458"><ele>507.4</ele><time>2026-03-29T09:56:46.048Z</time></trkpt><trkpt lat="44.3799162" lon="11.0465463"><ele>505.79999999999995</ele><time>2026-03-29T09:56:47.049Z</time></trkpt><trkpt lat="44.3800278" lon="11.0465575"><ele>504.20000000000005</ele><time>2026-03-29T09:56:48.049Z</time></trkpt><trkpt lat="44.3801449" lon="11.0465649"><ele>502.6</ele><time>2026-03-29T09:56:49.049Z</time></trkpt><trkpt lat="44.3802477" lon="11.0465798"><ele>501.0</ele><time>2026-03-29T09:56:50.048Z</time></trkpt><trkpt lat="44.380352" lon="11.0465924"><ele>501.0</ele><time>2026-03-29T09:56:51.049Z</time></trkpt><trkpt lat="44.3804617" lon="11.0466149"><ele>501.0</ele><time>2026-03-29T09:56:52.048Z</time></trkpt><trkpt lat="44.3805682" lon="11.0466595"><ele>501.0</ele><time>2026-03-29T09:56:53.049Z</time></trkpt><trkpt lat="44.3806719" lon="11.046736"><ele>501.0</ele><time>2026-03-29T09:56:54.048Z</time></trkpt><trkpt lat="44.3807608" lon="11.0468317"><ele>497.25</ele><time>2026-03-29T09:56:55.048Z</time></trkpt><trkpt lat="44.3808417" lon="11.0469583"><ele>493.5</ele><time>2026-03-29T09:56:56.049Z</time></trkpt><trkpt lat="44.3809127" lon="11.047099"><ele>489.75</ele><time>2026-03-29T09:56:57.048Z</time></trkpt><trkpt lat="44.3809851" lon="11.0472529"><ele>486.0</ele><time>2026-03-29T09:56:58.048Z</time></trkpt><trkpt lat="44.3810433" lon="11.0474163"><ele>483.25</ele><time>2026-03-29T09:56:59.049Z</time></trkpt><trkpt lat="44.3811106" lon="11.0475823"><ele>480.5</ele><time>2026-03-29T09:57:00.048Z</time></trkpt><trkpt lat="44.3811781" lon="11.0477388"><ele>477.75</ele><time>2026-03-29T09:57:01.049Z</time></trkpt><trkpt lat="44.3812488" lon="11.0478988"><ele>475.0</ele><time>2026-03-29T09:57:02.049Z</time></trkpt><trkpt lat="44.3813251" lon="11.0480414"><ele>474.75</ele><time>2026-03-29T09:57:03.049Z</time></trkpt><trkpt lat="44.3814068" lon="11.0481694"><ele>474.5</ele><time>2026-03-29T09:57:04.049Z</time></trkpt><trkpt lat="44.3814967" lon="11.0482794"><ele>474.25</ele><time>2026-03-29T09:57:05.048Z</time></trkpt><trkpt lat="44.3815981" lon="11.0483679"><ele>474.0</ele><time>2026-03-29T09:57:06.049Z</time></trkpt><trkpt lat="44.3817052" lon="11.048407"><ele>474.0</ele><time>2026-03-29T09:57:07.048Z</time></trkpt><trkpt lat="44.3818193" lon="11.0484202"><ele>474.0</ele><time>2026-03-29T09:57:08.048Z</time></trkpt><trkpt lat="44.3819372" lon="11.048417"><ele>474.0</ele><time>2026-03-29T09:57:09.048Z</time></trkpt><trkpt lat="44.3820464" lon="11.0484173"><ele>474.0</ele><time>2026-03-29T09:57:10.048Z</time></trkpt><trkpt lat="44.3821479" lon="11.0484166"><ele>474.0</ele><time>2026-03-29T09:57:11.049Z</time></trkpt><trkpt lat="44.382233" lon="11.0484374"><ele>474.0</ele><time>2026-03-29T09:57:12.049Z</time></trkpt><trkpt lat="44.3823" lon="11.0484884"><ele>474.0</ele><time>2026-03-29T09:57:13.048Z</time></trkpt><trkpt lat="44.3823379" lon="11.0485755"><ele>474.0</ele><time>2026-03-29T09:57:14.048Z</time></trkpt><trkpt lat="44.3822633" lon="11.0486888"><ele>474.0</ele><time>2026-03-29T09:57:16.049Z</time></trkpt><trkpt lat="44.3821751" lon="11.0486893"><ele>474.0</ele><time>2026-03-29T09:57:17.049Z</time></trkpt><trkpt lat="44.3820677" lon="11.0486735"><ele>474.0</ele><time>2026-03-29T09:57:18.049Z</time></trkpt><trkpt lat="44.3819404" lon="11.0486748"><ele>474.0</ele><time>2026-03-29T09:57:19.048Z</time></trkpt><trkpt lat="44.3818143" lon="11.0486983"><ele>474.0</ele><time>2026-03-29T09:57:20.048Z</time></trkpt><trkpt lat="44.3816943" lon="11.048729"><ele>474.0</ele><time>2026-03-29T09:57:21.048Z</time></trkpt><trkpt lat="44.3815787" lon="11.048749"><ele>474.0</ele><time>2026-03-29T09:57:22.048Z</time></trkpt><trkpt lat="44.3814623" lon="11.0487517"><ele>474.0</ele><time>2026-03-29T09:57:23.049Z</time></trkpt><trkpt lat="44.3813435" lon="11.048747"><ele>474.0</ele><time>2026-03-29T09:57:24.049Z</time></trkpt><trkpt lat="44.3812212" lon="11.048739"><ele>474.0</ele><time>2026-03-29T09:57:25.049Z</time></trkpt><trkpt lat="44.3810996" lon="11.0487488"><ele>472.25</ele><time>2026-03-29T09:57:26.049Z</time></trkpt><trkpt lat="44.3809813" lon="11.0487806"><ele>470.5</ele><time>2026-03-29T09:57:27.049Z</time></trkpt><trkpt lat="44.3808678" lon="11.0488228"><ele>468.75</ele><time>2026-03-29T09:57:28.049Z</time></trkpt><trkpt lat="44.3807559" lon="11.048872"><ele>467.0</ele><time>2026-03-29T09:57:29.048Z</time></trkpt><trkpt lat="44.3806459" lon="11.0489143"><ele>467.0</ele><time>2026-03-29T09:57:30.049Z</time></trkpt><trkpt lat="44.3805445" lon="11.0489501"><ele>467.00000000000006</ele><time>2026-03-29T09:57:31.048Z</time></trkpt><trkpt lat="44.3804475" lon="11.0489921"><ele>467.00000000000006</ele><time>2026-03-29T09:57:32.049Z</time></trkpt><trkpt lat="44.3803603" lon="11.0490693"><ele>467.0</ele><time>2026-03-29T09:57:33.048Z</time></trkpt><trkpt lat="44.3802989" lon="11.049183"><ele>467.0</ele><time>2026-03-29T09:57:34.049Z</time></trkpt><trkpt lat="44.3802635" lon="11.0493185"><ele>464.0</ele><time>2026-03-29T09:57:35.049Z</time></trkpt><trkpt lat="44.3802703" lon="11.0494793"><ele>461.0</ele><time>2026-03-29T09:57:36.049Z</time></trkpt><trkpt lat="44.3803099" lon="11.0496562"><ele>458.0</ele><time>2026-03-29T09:57:37.049Z</time></trkpt><trkpt lat="44.3803587" lon="11.0498425"><ele>455.0</ele><time>2026-03-29T09:57:38.049Z</time></trkpt><trkpt lat="44.3804044" lon="11.0500326"><ele>453.75</ele><time>2026-03-29T09:57:39.049Z</time></trkpt><trkpt lat="44.3804504" lon="11.0502188"><ele>452.5</ele><time>2026-03-29T09:57:40.049Z</time></trkpt><trkpt lat="44.3804969" lon="11.0504026"><ele>451.25</ele><time>2026-03-29T09:57:41.049Z</time></trkpt><trkpt lat="44.3805394" lon="11.050578"><ele>450.0</ele><time>2026-03-29T09:57:42.049Z</time></trkpt><trkpt lat="44.3805819" lon="11.0507504"><ele>448.4</ele><time>2026-03-29T09:57:43.049Z</time></trkpt><trkpt lat="44.3806202" lon="11.0509096"><ele>446.8</ele><time>2026-03-29T09:57:44.049Z</time></trkpt><trkpt lat="44.3806668" lon="11.0510449"><ele>445.20000000000005</ele><time>2026-03-29T09:57:45.048Z</time></trkpt><trkpt lat="44.3807419" lon="11.0511322"><ele>443.6</ele><time>2026-03-29T09:57:46.049Z</time></trkpt><trkpt lat="44.3808282" lon="11.0511461"><ele>442.0</ele><time>2026-03-29T09:57:47.048Z</time></trkpt><trkpt lat="44.380915" lon="11.0510837"><ele>442.0</ele><time>2026-03-29T09:57:48.049Z</time></trkpt><trkpt lat="44.3810036" lon="11.050986"><ele>442.00000000000006</ele><time>2026-03-29T09:57:49.049Z</time></trkpt><trkpt lat="44.3810875" lon="11.0508776"><ele>442.00000000000006</ele><time>2026-03-29T09:57:50.049Z</time></trkpt><trkpt lat="44.3811655" lon="11.0507679"><ele>442.0</ele><time>2026-03-29T09:57:51.049Z</time></trkpt><trkpt lat="44.381246" lon="11.0506684"><ele>442.0</ele><time>2026-03-29T09:57:52.049Z</time></trkpt><trkpt lat="44.3813237" lon="11.0505786"><ele>443.0</ele><time>2026-03-29T09:57:53.048Z</time></trkpt><trkpt lat="44.3814147" lon="11.0505026"><ele>444.00000000000006</ele><time>2026-03-29T09:57:54.049Z</time></trkpt><trkpt lat="44.3815159" lon="11.0504524"><ele>445.00000000000006</ele><time>2026-03-29T09:57:55.048Z</time></trkpt><trkpt lat="44.381615" lon="11.0504332"><ele>446.0</ele><time>2026-03-29T09:57:56.048Z</time></trkpt><trkpt lat="44.3817059" lon="11.050475"><ele>447.0</ele><time>2026-03-29T09:57:57.049Z</time></trkpt><trkpt lat="44.3817804" lon="11.0505577"><ele>447.0</ele><time>2026-03-29T09:57:58.049Z</time></trkpt><trkpt lat="44.3818278" lon="11.0506926"><ele>447.0</ele><time>2026-03-29T09:57:59.049Z</time></trkpt><trkpt lat="44.3818493" lon="11.0508545"><ele>447.0</ele><time>2026-03-29T09:58:00.049Z</time></trkpt><trkpt lat="44.3818586" lon="11.0510373"><ele>447.0</ele><time>2026-03-29T09:58:01.049Z</time></trkpt><trkpt lat="44.3818615" lon="11.0512271"><ele>445.0</ele><time>2026-03-29T09:58:02.049Z</time></trkpt><trkpt lat="44.3818702" lon="11.0514253"><ele>443.0</ele><time>2026-03-29T09:58:03.048Z</time></trkpt><trkpt lat="44.3818833" lon="11.0516158"><ele>441.0</ele><time>2026-03-29T09:58:04.049Z</time></trkpt><trkpt lat="44.3818944" lon="11.0518031"><ele>439.0</ele><time>2026-03-29T09:58:05.048Z</time></trkpt><trkpt lat="44.381888" lon="11.0519882"><ele>438.0</ele><time>2026-03-29T09:58:06.048Z</time></trkpt><trkpt lat="44.3818641" lon="11.0521796"><ele>437.0</ele><time>2026-03-29T09:58:07.049Z</time></trkpt><trkpt lat="44.3818292" lon="11.0523689"><ele>436.0</ele><time>2026-03-29T09:58:08.049Z</time></trkpt><trkpt lat="44.3817855" lon="11.052568"><ele>435.0</ele><time>2026-03-29T09:58:09.048Z</time></trkpt><trkpt lat="44.3817406" lon="11.0527679"><ele>433.5</ele><time>2026-03-29T09:58:10.048Z</time></trkpt><trkpt lat="44.3817005" lon="11.0529633"><ele>432.0</ele><time>2026-03-29T09:58:11.049Z</time></trkpt><trkpt lat="44.3816651" lon="11.0531518"><ele>430.5</ele><time>2026-03-29T09:58:12.049Z</time></trkpt><trkpt lat="44.3816262" lon="11.0533296"><ele>429.0</ele><time>2026-03-29T09:58:13.049Z</time></trkpt><trkpt lat="44.3815883" lon="11.053505"><ele>429.75</ele><time>2026-03-29T09:58:14.048Z</time></trkpt><trkpt lat="44.3815434" lon="11.0536728"><ele>430.5</ele><time>2026-03-29T09:58:15.048Z</time></trkpt><trkpt lat="44.3814943" lon="11.0538355"><ele>431.25</ele><time>2026-03-29T09:58:16.049Z</time></trkpt><trkpt lat="44.3814413" lon="11.0539767"><ele>432.0</ele><time>2026-03-29T09:58:17.049Z</time></trkpt><trkpt lat="44.3813401" lon="11.0540975"><ele>429.75</ele><time>2026-03-29T09:58:18.048Z</time></trkpt><trkpt lat="44.3812278" lon="11.0542172"><ele>427.5</ele><time>2026-03-29T09:58:19.049Z</time></trkpt><trkpt lat="44.3811042" lon="11.0543236"><ele>425.25</ele><time>2026-03-29T09:58:20.048Z</time></trkpt><trkpt lat="44.380987" lon="11.0544465"><ele>423.0</ele><time>2026-03-29T09:58:21.048Z</time></trkpt><trkpt lat="44.3807721" lon="11.0547216"><ele>423.0</ele><time>2026-03-29T09:58:23.049Z</time></trkpt><trkpt lat="44.3806704" lon="11.0548577"><ele>423.0</ele><time>2026-03-29T09:58:24.048Z</time></trkpt><trkpt lat="44.3805772" lon="11.0549909"><ele>423.0</ele><time>2026-03-29T09:58:25.049Z</time></trkpt><trkpt lat="44.3805022" lon="11.0551539"><ele>423.0</ele><time>2026-03-29T09:58:26.049Z</time></trkpt><trkpt lat="44.3804562" lon="11.055338"><ele>419.0</ele><time>2026-03-29T09:58:27.048Z</time></trkpt><trkpt lat="44.3804212" lon="11.055544"><ele>415.0</ele><time>2026-03-29T09:58:28.049Z</time></trkpt><trkpt lat="44.3803519" lon="11.055731"><ele>411.0</ele><time>2026-03-29T09:58:29.048Z</time></trkpt><trkpt lat="44.3802835" lon="11.0559054"><ele>407.0</ele><time>2026-03-29T09:58:30.049Z</time></trkpt><trkpt lat="44.3802114" lon="11.0560916"><ele>405.0</ele><time>2026-03-29T09:58:31.049Z</time></trkpt><trkpt lat="44.38015" lon="11.056263"><ele>403.0</ele><time>2026-03-29T09:58:32.049Z</time></trkpt><trkpt lat="44.380086" lon="11.0564405"><ele>401.0</ele><time>2026-03-29T09:58:33.049Z</time></trkpt><trkpt lat="44.3800369" lon="11.056604"><ele>399.0</ele><time>2026-03-29T09:58:34.049Z</time></trkpt><trkpt lat="44.379992" lon="11.0567491"><ele>398.0</ele><time>2026-03-29T09:58:35.049Z</time></trkpt><trkpt lat="44.379961" lon="11.0568676"><ele>397.0</ele><time>2026-03-29T09:58:36.049Z</time></trkpt><trkpt lat="44.3799504" lon="11.0569697"><ele>396.0</ele><time>2026-03-29T09:58:37.049Z</time></trkpt><trkpt lat="44.3799393" lon="11.0571017"><ele>395.0</ele><time>2026-03-29T09:58:39.049Z</time></trkpt><trkpt lat="44.3798718" lon="11.0572325"><ele>394.0</ele><time>2026-03-29T09:58:41.049Z</time></trkpt><trkpt lat="44.3798551" lon="11.0573237"><ele>393.0</ele><time>2026-03-29T09:58:42.049Z</time></trkpt><trkpt lat="44.3798261" lon="11.0574459"><ele>392.4</ele><time>2026-03-29T09:58:43.049Z</time></trkpt><trkpt lat="44.3797736" lon="11.0575813"><ele>391.79999999999995</ele><time>2026-03-29T09:58:45.049Z</time></trkpt><trkpt lat="44.3797408" lon="11.0577177"><ele>391.2</ele><time>2026-03-29T09:58:47.049Z</time></trkpt><trkpt lat="44.3797312" lon="11.0578583"><ele>390.6</ele><time>2026-03-29T09:58:49.049Z</time></trkpt><trkpt lat="44.3797558" lon="11.0579686"><ele>390.0</ele><time>2026-03-29T09:58:51.048Z</time></trkpt><trkpt lat="44.3797849" lon="11.058065"><ele>390.0</ele><time>2026-03-29T09:58:53.048Z</time></trkpt><trkpt lat="44.3797701" lon="11.0581792"><ele>390.0</ele><time>2026-03-29T09:58:55.049Z</time></trkpt><trkpt lat="44.3797659" lon="11.0583168"><ele>390.0</ele><time>2026-03-29T09:58:57.048Z</time></trkpt><trkpt lat="44.3797966" lon="11.0585046"><ele>390.0</ele><time>2026-03-29T09:58:59.049Z</time></trkpt><trkpt lat="44.3798161" lon="11.0586398"><ele>390.0</ele><time>2026-03-29T09:59:00.049Z</time></trkpt><trkpt lat="44.3798264" lon="11.0587798"><ele>389.0</ele><time>2026-03-29T09:59:01.049Z</time></trkpt><trkpt lat="44.3798259" lon="11.0589118"><ele>388.0</ele><time>2026-03-29T09:59:02.048Z</time></trkpt><trkpt lat="44.3798223" lon="11.0590243"><ele>387.0</ele><time>2026-03-29T09:59:03.049Z</time></trkpt><trkpt lat="44.3798173" lon="11.0591301"><ele>386.0</ele><time>2026-03-29T09:59:04.049Z</time></trkpt><trkpt lat="44.3798149" lon="11.0592335"><ele>385.0</ele><time>2026-03-29T09:59:05.048Z</time></trkpt><trkpt lat="44.3798221" lon="11.0593329"><ele>384.0</ele><time>2026-03-29T09:59:06.048Z</time></trkpt><trkpt lat="44.3798293" lon="11.0594275"><ele>382.57142857142856</ele><time>2026-03-29T09:59:07.049Z</time></trkpt><trkpt lat="44.3798276" lon="11.0595174"><ele>381.1428571428571</ele><time>2026-03-29T09:59:08.049Z</time></trkpt><trkpt lat="44.3798227" lon="11.0596183"><ele>379.71428571428567</ele><time>2026-03-29T09:59:09.048Z</time></trkpt><trkpt lat="44.3798167" lon="11.0597233"><ele>378.2857142857143</ele><time>2026-03-29T09:59:10.049Z</time></trkpt><trkpt lat="44.3798125" lon="11.0598191"><ele>376.8571428571429</ele><time>2026-03-29T09:59:11.048Z</time></trkpt><trkpt lat="44.3798094" lon="11.0599548"><ele>375.4285714285714</ele><time>2026-03-29T09:59:13.049Z</time></trkpt><trkpt lat="44.3797984" lon="11.0600509"><ele>374.0</ele><time>2026-03-29T09:59:16.049Z</time></trkpt><trkpt lat="44.3798011" lon="11.0601637"><ele>372.0</ele><time>2026-03-29T09:59:18.049Z</time></trkpt><trkpt lat="44.3798329" lon="11.0602806"><ele>370.0</ele><time>2026-03-29T09:59:20.048Z</time></trkpt><trkpt lat="44.379828" lon="11.0603916"><ele>368.0</ele><time>2026-03-29T09:59:22.049Z</time></trkpt><trkpt lat="44.3798092" lon="11.0604857"><ele>366.0</ele><time>2026-03-29T09:59:24.049Z</time></trkpt><trkpt lat="44.3798415" lon="11.0605639"><ele>364.0</ele><time>2026-03-29T09:59:26.048Z</time></trkpt><trkpt lat="44.3799245" lon="11.0605523"><ele>362.0</ele><time>2026-03-29T09:59:28.049Z</time></trkpt><trkpt lat="44.3799905" lon="11.0605326"><ele>362.0</ele><time>2026-03-29T09:59:29.049Z</time></trkpt><trkpt lat="44.3801087" lon="11.0604669"><ele>362.0</ele><time>2026-03-29T09:59:31.048Z</time></trkpt><trkpt lat="44.3801584" lon="11.060409"><ele>362.0</ele><time>2026-03-29T09:59:32.048Z</time></trkpt><trkpt lat="44.3802054" lon="11.0603447"><ele>362.0</ele><time>2026-03-29T09:59:33.049Z</time></trkpt><trkpt lat="44.3802625" lon="11.0602453"><ele>362.0</ele><time>2026-03-29T09:59:35.049Z</time></trkpt><trkpt lat="44.3803319" lon="11.0602173"><ele>362.0</ele><time>2026-03-29T09:59:39.049Z</time></trkpt><trkpt lat="44.3803229" lon="11.0603557"><ele>362.0</ele><time>2026-03-29T09:59:41.049Z</time></trkpt><trkpt lat="44.3803095" lon="11.0604814"><ele>362.0</ele><time>2026-03-29T09:59:42.048Z</time></trkpt><trkpt lat="44.3802981" lon="11.0606058"><ele>362.0</ele><time>2026-03-29T09:59:43.049Z</time></trkpt><trkpt lat="44.3802915" lon="11.0607507"><ele>362.0</ele><time>2026-03-29T09:59:44.048Z</time></trkpt><trkpt lat="44.3802873" lon="11.0608976"><ele>362.0</ele><time>2026-03-29T09:59:45.049Z</time></trkpt><trkpt lat="44.3802619" lon="11.0610451"><ele>360.40000000000003</ele><time>2026-03-29T09:59:46.048Z</time></trkpt><trkpt lat="44.3802024" lon="11.0611823"><ele>358.8</ele><time>2026-03-29T09:59:47.048Z</time></trkpt><trkpt lat="44.3801368" lon="11.0613082"><ele>357.2</ele><time>2026-03-29T09:59:48.049Z</time></trkpt><trkpt lat="44.3800655" lon="11.0614159"><ele>355.6</ele><time>2026-03-29T09:59:49.049Z</time></trkpt><trkpt lat="44.3799955" lon="11.0615192"><ele>354.0</ele><time>2026-03-29T09:59:50.048Z</time></trkpt><trkpt lat="44.3799252" lon="11.0616237"><ele>352.3333333333333</ele><time>2026-03-29T09:59:51.048Z</time></trkpt><trkpt lat="44.3798679" lon="11.061738"><ele>350.6666666666667</ele><time>2026-03-29T09:59:52.048Z</time></trkpt><trkpt lat="44.379841" lon="11.0618458"><ele>349.0</ele><time>2026-03-29T09:59:53.049Z</time></trkpt><trkpt lat="44.3798465" lon="11.0619403"><ele>347.33333333333337</ele><time>2026-03-29T09:59:54.048Z</time></trkpt><trkpt lat="44.3798747" lon="11.0620221"><ele>345.6666666666667</ele><time>2026-03-29T09:59:55.049Z</time></trkpt><trkpt lat="44.3799816" lon="11.0620638"><ele>344.0</ele><time>2026-03-29T09:59:57.048Z</time></trkpt><trkpt lat="44.380051" lon="11.0620315"><ele>344.0</ele><time>2026-03-29T09:59:58.049Z</time></trkpt><trkpt lat="44.3802042" lon="11.0619627"><ele>344.0</ele><time>2026-03-29T10:00:00.049Z</time></trkpt><trkpt lat="44.3802821" lon="11.0618689"><ele>344.0</ele><time>2026-03-29T10:00:01.049Z</time></trkpt><trkpt lat="44.38034" lon="11.061776"><ele>344.0</ele><time>2026-03-29T10:00:02.049Z</time></trkpt><trkpt lat="44.3804054" lon="11.0616639"><ele>343.79999999999995</ele><time>2026-03-29T10:00:03.049Z</time></trkpt><trkpt lat="44.3804676" lon="11.0615524"><ele>343.59999999999997</ele><time>2026-03-29T10:00:04.048Z</time></trkpt><trkpt lat="44.3805349" lon="11.0614535"><ele>343.4</ele><time>2026-03-29T10:00:05.049Z</time></trkpt><trkpt lat="44.3806102" lon="11.0613822"><ele>343.2</ele><time>2026-03-29T10:00:06.049Z</time></trkpt><trkpt lat="44.3806935" lon="11.0613475"><ele>343.0</ele><time>2026-03-29T10:00:07.049Z</time></trkpt><trkpt lat="44.3807786" lon="11.0613363"><ele>343.0</ele><time>2026-03-29T10:00:08.049Z</time></trkpt><trkpt lat="44.3808233" lon="11.0614548"><ele>343.0</ele><time>2026-03-29T10:00:09.049Z</time></trkpt><trkpt lat="44.3808668" lon="11.0615921"><ele>343.0</ele><time>2026-03-29T10:00:10.049Z</time></trkpt><trkpt lat="44.3808817" lon="11.0617764"><ele>343.0</ele><time>2026-03-29T10:00:11.048Z</time></trkpt><trkpt lat="44.3808951" lon="11.0619666"><ele>341.0</ele><time>2026-03-29T10:00:12.049Z</time></trkpt><trkpt lat="44.3808959" lon="11.0621696"><ele>339.0</ele><time>2026-03-29T10:00:13.049Z</time></trkpt><trkpt lat="44.3808893" lon="11.062364"><ele>337.0</ele><time>2026-03-29T10:00:14.049Z</time></trkpt><trkpt lat="44.380885" lon="11.0625543"><ele>335.0</ele><time>2026-03-29T10:00:15.049Z</time></trkpt><trkpt lat="44.3808782" lon="11.0627373"><ele>332.75</ele><time>2026-03-29T10:00:16.049Z</time></trkpt><trkpt lat="44.3808673" lon="11.0629138"><ele>330.5</ele><time>2026-03-29T10:00:17.049Z</time></trkpt><trkpt lat="44.3808488" lon="11.0630889"><ele>328.25</ele><time>2026-03-29T10:00:18.048Z</time></trkpt><trkpt lat="44.3808195" lon="11.063241"><ele>326.0</ele><time>2026-03-29T10:00:19.049Z</time></trkpt><trkpt lat="44.3807713" lon="11.0633708"><ele>326.0</ele><time>2026-03-29T10:00:20.049Z</time></trkpt><trkpt lat="44.3806618" lon="11.0634643"><ele>326.0</ele><time>2026-03-29T10:00:21.049Z</time></trkpt><trkpt lat="44.3805509" lon="11.0635181"><ele>326.0</ele><time>2026-03-29T10:00:22.049Z</time></trkpt><trkpt lat="44.3804409" lon="11.0635899"><ele>326.0</ele><time>2026-03-29T10:00:23.049Z</time></trkpt><trkpt lat="44.3803357" lon="11.0636648"><ele>326.0</ele><time>2026-03-29T10:00:24.048Z</time></trkpt><trkpt lat="44.3802335" lon="11.0637217"><ele>326.0</ele><time>2026-03-29T10:00:25.049Z</time></trkpt><trkpt lat="44.3801442" lon="11.0637982"><ele>326.0</ele><time>2026-03-29T10:00:26.048Z</time></trkpt><trkpt lat="44.3800504" lon="11.0638767"><ele>326.0</ele><time>2026-03-29T10:00:27.048Z</time></trkpt><trkpt lat="44.3799848" lon="11.0639606"><ele>326.0</ele><time>2026-03-29T10:00:28.049Z</time></trkpt><trkpt lat="44.3799194" lon="11.064037"><ele>326.0</ele><time>2026-03-29T10:00:29.049Z</time></trkpt><trkpt lat="44.3798462" lon="11.0640895"><ele>326.0</ele><time>2026-03-29T10:00:30.049Z</time></trkpt><trkpt lat="44.3797685" lon="11.0641014"><ele>326.0</ele><time>2026-03-29T10:00:31.049Z</time></trkpt><trkpt lat="44.379689" lon="11.0640904"><ele>326.0</ele><time>2026-03-29T10:00:32.049Z</time></trkpt><trkpt lat="44.3796035" lon="11.064077"><ele>326.0</ele><time>2026-03-29T10:00:33.049Z</time></trkpt><trkpt lat="44.3795212" lon="11.0640639"><ele>326.0</ele><time>2026-03-29T10:00:34.049Z</time></trkpt><trkpt lat="44.3794497" lon="11.06406"><ele>325.6666666666667</ele><time>2026-03-29T10:00:35.048Z</time></trkpt><trkpt lat="44.3793724" lon="11.0640858"><ele>325.33333333333337</ele><time>2026-03-29T10:00:36.049Z</time></trkpt><trkpt lat="44.3793033" lon="11.0641259"><ele>325.0</ele><time>2026-03-29T10:00:37.049Z</time></trkpt><trkpt lat="44.3792491" lon="11.0641918"><ele>324.6666666666667</ele><time>2026-03-29T10:00:38.049Z</time></trkpt><trkpt lat="44.3791738" lon="11.0642824"><ele>324.3333333333333</ele><time>2026-03-29T10:00:40.048Z</time></trkpt><trkpt lat="44.3791682" lon="11.0643935"><ele>324.0</ele><time>2026-03-29T10:02:11.049Z</time></trkpt><trkpt lat="44.379204" lon="11.0645485"><ele>322.8</ele><time>2026-03-29T10:02:13.049Z</time></trkpt><trkpt lat="44.3792206" lon="11.0646461"><ele>321.59999999999997</ele><time>2026-03-29T10:02:14.048Z</time></trkpt><trkpt lat="44.3792428" lon="11.064765"><ele>320.4</ele><time>2026-03-29T10:02:15.049Z</time></trkpt><trkpt lat="44.3792772" lon="11.0649051"><ele>319.2</ele><time>2026-03-29T10:02:16.049Z</time></trkpt><trkpt lat="44.3793501" lon="11.0650284"><ele>318.0</ele><time>2026-03-29T10:02:17.049Z</time></trkpt><trkpt lat="44.3794415" lon="11.0651313"><ele>317.8</ele><time>2026-03-29T10:02:18.048Z</time></trkpt><trkpt lat="44.3795368" lon="11.0652239"><ele>317.6</ele><time>2026-03-29T10:02:19.049Z</time></trkpt><trkpt lat="44.3796223" lon="11.0653241"><ele>317.4</ele><time>2026-03-29T10:02:20.049Z</time></trkpt><trkpt lat="44.3797003" lon="11.0654278"><ele>317.2</ele><time>2026-03-29T10:02:21.049Z</time></trkpt><trkpt lat="44.3797736" lon="11.065536"><ele>317.0</ele><time>2026-03-29T10:02:22.049Z</time></trkpt><trkpt lat="44.3798265" lon="11.065655"><ele>315.4</ele><time>2026-03-29T10:02:23.048Z</time></trkpt><trkpt lat="44.3798648" lon="11.0657876"><ele>313.79999999999995</ele><time>2026-03-29T10:02:24.049Z</time></trkpt><trkpt lat="44.3798863" lon="11.0659248"><ele>312.2</ele><time>2026-03-29T10:02:25.048Z</time></trkpt><trkpt lat="44.3798937" lon="11.0660834"><ele>310.59999999999997</ele><time>2026-03-29T10:02:26.049Z</time></trkpt><trkpt lat="44.3798995" lon="11.0662518"><ele>309.0</ele><time>2026-03-29T10:02:27.048Z</time></trkpt><trkpt lat="44.3799039" lon="11.0664251"><ele>309.0</ele><time>2026-03-29T10:02:28.048Z</time></trkpt><trkpt lat="44.3799044" lon="11.0665989"><ele>309.0</ele><time>2026-03-29T10:02:29.049Z</time></trkpt><trkpt lat="44.3799017" lon="11.0667697"><ele>309.0</ele><time>2026-03-29T10:02:30.048Z</time></trkpt><trkpt lat="44.3798889" lon="11.0669422"><ele>309.0</ele><time>2026-03-29T10:02:31.049Z</time></trkpt><trkpt lat="44.3798711" lon="11.0671196"><ele>308.5</ele><time>2026-03-29T10:02:32.049Z</time></trkpt><trkpt lat="44.3798534" lon="11.0672868"><ele>308.0</ele><time>2026-03-29T10:02:33.049Z</time></trkpt><trkpt lat="44.3798403" lon="11.0674466"><ele>307.5</ele><time>2026-03-29T10:02:34.048Z</time></trkpt><trkpt lat="44.3798311" lon="11.0675999"><ele>307.0</ele><time>2026-03-29T10:02:35.049Z</time></trkpt><trkpt lat="44.3798197" lon="11.0677472"><ele>306.0</ele><time>2026-03-29T10:02:36.049Z</time></trkpt><trkpt lat="44.37981" lon="11.0679033"><ele>305.0</ele><time>2026-03-29T10:02:37.049Z</time></trkpt><trkpt lat="44.3797988" lon="11.0680401"><ele>304.0</ele><time>2026-03-29T10:02:38.049Z</time></trkpt><trkpt lat="44.3797808" lon="11.0681702"><ele>303.0</ele><time>2026-03-29T10:02:39.048Z</time></trkpt><trkpt lat="44.3797608" lon="11.0682841"><ele>302.0</ele><time>2026-03-29T10:02:40.049Z</time></trkpt><trkpt lat="44.3797456" lon="11.0683833"><ele>301.33333333333337</ele><time>2026-03-29T10:02:41.049Z</time></trkpt><trkpt lat="44.3797281" lon="11.0684681"><ele>300.6666666666667</ele><time>2026-03-29T10:02:42.049Z</time></trkpt><trkpt lat="44.3797093" lon="11.0685797"><ele>300.0</ele><time>2026-03-29T10:02:44.049Z</time></trkpt><trkpt lat="44.3796974" lon="11.0686734"><ele>299.3333333333333</ele><time>2026-03-29T10:02:47.048Z</time></trkpt><trkpt lat="44.379753" lon="11.0687582"><ele>298.66666666666663</ele><time>2026-03-29T10:03:01.049Z</time></trkpt><trkpt lat="44.3798061" lon="11.0688348"><ele>298.0</ele><time>2026-03-29T10:03:02.049Z</time></trkpt><trkpt lat="44.3798824" lon="11.0689404"><ele>298.0</ele><time>2026-03-29T10:03:03.048Z</time></trkpt><trkpt lat="44.3799601" lon="11.0690436"><ele>298.0</ele><time>2026-03-29T10:03:04.048Z</time></trkpt><trkpt lat="44.3800403" lon="11.0691472"><ele>298.0</ele><time>2026-03-29T10:03:05.049Z</time></trkpt><trkpt lat="44.380126" lon="11.0692534"><ele>298.0</ele><time>2026-03-29T10:03:06.048Z</time></trkpt><trkpt lat="44.3802165" lon="11.0693666"><ele>295.75</ele><time>2026-03-29T10:03:07.048Z</time></trkpt><trkpt lat="44.3802976" lon="11.0694802"><ele>293.5</ele><time>2026-03-29T10:03:08.049Z</time></trkpt><trkpt lat="44.3803815" lon="11.0695996"><ele>291.25</ele><time>2026-03-29T10:03:09.049Z</time></trkpt><trkpt lat="44.3804716" lon="11.069712"><ele>289.0</ele><time>2026-03-29T10:03:10.049Z</time></trkpt><trkpt lat="44.3805591" lon="11.06982"><ele>288.0</ele><time>2026-03-29T10:03:11.049Z</time></trkpt><trkpt lat="44.3806173" lon="11.0699488"><ele>287.0</ele><time>2026-03-29T10:03:12.049Z</time></trkpt><trkpt lat="44.3806549" lon="11.070089"><ele>286.0</ele><time>2026-03-29T10:03:13.049Z</time></trkpt><trkpt lat="44.3806678" lon="11.0702485"><ele>285.0</ele><time>2026-03-29T10:03:14.049Z</time></trkpt><trkpt lat="44.3806863" lon="11.0704156"><ele>285.0</ele><time>2026-03-29T10:03:15.049Z</time></trkpt><trkpt lat="44.3807367" lon="11.0705704"><ele>285.0</ele><time>2026-03-29T10:03:16.049Z</time></trkpt><trkpt lat="44.3808145" lon="11.0707116"><ele>285.0</ele><time>2026-03-29T10:03:17.048Z</time></trkpt><trkpt lat="44.3809179" lon="11.0708242"><ele>285.0</ele><time>2026-03-29T10:03:18.048Z</time></trkpt><trkpt lat="44.3810442" lon="11.0709147"><ele>283.3333333333333</ele><time>2026-03-29T10:03:19.048Z</time></trkpt><trkpt lat="44.3811833" lon="11.0709909"><ele>281.66666666666663</ele><time>2026-03-29T10:03:20.049Z</time></trkpt><trkpt lat="44.381335" lon="11.0710721"><ele>280.0</ele><time>2026-03-29T10:03:21.048Z</time></trkpt><trkpt lat="44.381485" lon="11.0711506"><ele>279.66666666666663</ele><time>2026-03-29T10:03:22.049Z</time></trkpt><trkpt lat="44.3816433" lon="11.0712299"><ele>279.3333333333333</ele><time>2026-03-29T10:03:23.049Z</time></trkpt><trkpt lat="44.3818103" lon="11.0713045"><ele>279.0</ele><time>2026-03-29T10:03:24.048Z</time></trkpt><trkpt lat="44.3819783" lon="11.071365"><ele>279.0</ele><time>2026-03-29T10:03:25.048Z</time></trkpt><trkpt lat="44.3821457" lon="11.0714173"><ele>279.0</ele><time>2026-03-29T10:03:26.049Z</time></trkpt><trkpt lat="44.3823157" lon="11.0714459"><ele>279.0</ele><time>2026-03-29T10:03:27.049Z</time></trkpt><trkpt lat="44.3824842" lon="11.0714734"><ele>278.3333333333333</ele><time>2026-03-29T10:03:28.049Z</time></trkpt><trkpt lat="44.382656" lon="11.0714742"><ele>277.66666666666663</ele><time>2026-03-29T10:03:29.049Z</time></trkpt><trkpt lat="44.3828213" lon="11.0714846"><ele>277.0</ele><time>2026-03-29T10:03:30.049Z</time></trkpt><trkpt lat="44.3829894" lon="11.0714818"><ele>277.3333333333333</ele><time>2026-03-29T10:03:31.049Z</time></trkpt><trkpt lat="44.3831591" lon="11.0714829"><ele>277.6666666666667</ele><time>2026-03-29T10:03:32.049Z</time></trkpt><trkpt lat="44.3833217" lon="11.0714758"><ele>278.0</ele><time>2026-03-29T10:03:33.048Z</time></trkpt><trkpt lat="44.3834848" lon="11.0714725"><ele>278.0</ele><time>2026-03-29T10:03:34.049Z</time></trkpt><trkpt lat="44.3836451" lon="11.0714621"><ele>278.0</ele><time>2026-03-29T10:03:35.048Z</time></trkpt><trkpt lat="44.3838091" lon="11.0714579"><ele>278.0</ele><time>2026-03-29T10:03:36.049Z</time></trkpt><trkpt lat="44.3839712" lon="11.071447"><ele>277.0</ele><time>2026-03-29T10:03:37.048Z</time></trkpt><trkpt lat="44.3841327" lon="11.0714336"><ele>276.0</ele><time>2026-03-29T10:03:38.049Z</time></trkpt><trkpt lat="44.3842961" lon="11.0714149"><ele>275.0</ele><time>2026-03-29T10:03:39.048Z</time></trkpt><trkpt lat="44.3844536" lon="11.0714076"><ele>275.0</ele><time>2026-03-29T10:03:40.049Z</time></trkpt><trkpt lat="44.38461" lon="11.0714029"><ele>275.0</ele><time>2026-03-29T10:03:41.049Z</time></trkpt><trkpt lat="44.3847685" lon="11.0713957"><ele>275.0</ele><time>2026-03-29T10:03:42.048Z</time></trkpt><trkpt lat="44.3849172" lon="11.0713843"><ele>274.5</ele><time>2026-03-29T10:03:43.048Z</time></trkpt><trkpt lat="44.3850627" lon="11.0713772"><ele>274.0</ele><time>2026-03-29T10:03:44.048Z</time></trkpt><trkpt lat="44.3852088" lon="11.0713731"><ele>273.5</ele><time>2026-03-29T10:03:45.049Z</time></trkpt><trkpt lat="44.3853533" lon="11.0713674"><ele>273.0</ele><time>2026-03-29T10:03:46.049Z</time></trkpt><trkpt lat="44.3854999" lon="11.0713584"><ele>273.0</ele><time>2026-03-29T10:03:47.049Z</time></trkpt><trkpt lat="44.3856447" lon="11.0713547"><ele>273.0</ele><time>2026-03-29T10:03:48.048Z</time></trkpt><trkpt lat="44.385792" lon="11.0713468"><ele>273.0</ele><time>2026-03-29T10:03:49.049Z</time></trkpt><trkpt lat="44.3859374" lon="11.0713384"><ele>273.0</ele><time>2026-03-29T10:03:50.048Z</time></trkpt><trkpt lat="44.3860854" lon="11.0713312"><ele>273.0</ele><time>2026-03-29T10:03:51.048Z</time></trkpt><trkpt lat="44.3862327" lon="11.0713246"><ele>273.0</ele><time>2026-03-29T10:03:52.048Z</time></trkpt><trkpt lat="44.3863819" lon="11.0713199"><ele>273.0</ele><time>2026-03-29T10:03:53.049Z</time></trkpt><trkpt lat="44.3865259" lon="11.0713174"><ele>273.0</ele><time>2026-03-29T10:03:54.049Z</time></trkpt><trkpt lat="44.3866738" lon="11.071312"><ele>272.5</ele><time>2026-03-29T10:03:55.049Z</time></trkpt><trkpt lat="44.38682" lon="11.0713036"><ele>272.0</ele><time>2026-03-29T10:03:56.049Z</time></trkpt><trkpt lat="44.386964" lon="11.0712954"><ele>271.5</ele><time>2026-03-29T10:03:57.048Z</time></trkpt><trkpt lat="44.3871038" lon="11.0712884"><ele>271.0</ele><time>2026-03-29T10:03:58.049Z</time></trkpt><trkpt lat="44.3872417" lon="11.0712801"><ele>270.25</ele><time>2026-03-29T10:03:59.049Z</time></trkpt><trkpt lat="44.3873867" lon="11.0712746"><ele>269.5</ele><time>2026-03-29T10:04:00.049Z</time></trkpt><trkpt lat="44.3875307" lon="11.071262"><ele>268.75</ele><time>2026-03-29T10:04:01.049Z</time></trkpt><trkpt lat="44.3876771" lon="11.0712498"><ele>268.0</ele><time>2026-03-29T10:04:02.049Z</time></trkpt><trkpt lat="44.3878232" lon="11.0712399"><ele>268.0</ele><time>2026-03-29T10:04:03.049Z</time></trkpt><trkpt lat="44.3879736" lon="11.0712306"><ele>268.0</ele><time>2026-03-29T10:04:04.049Z</time></trkpt><trkpt lat="44.3881225" lon="11.0712241"><ele>268.0</ele><time>2026-03-29T10:04:05.049Z</time></trkpt><trkpt lat="44.3882693" lon="11.0712173"><ele>268.0</ele><time>2026-03-29T10:04:06.049Z</time></trkpt><trkpt lat="44.3884105" lon="11.0712132"><ele>268.0</ele><time>2026-03-29T10:04:07.048Z</time></trkpt><trkpt lat="44.3885394" lon="11.0712122"><ele>268.0</ele><time>2026-03-29T10:04:08.048Z</time></trkpt><trkpt lat="44.3886575" lon="11.0712132"><ele>268.0</ele><time>2026-03-29T10:04:09.049Z</time></trkpt><trkpt lat="44.388766" lon="11.0712297"><ele>268.0</ele><time>2026-03-29T10:04:10.049Z</time></trkpt><trkpt lat="44.3888508" lon="11.0712742"><ele>268.0</ele><time>2026-03-29T10:04:11.048Z</time></trkpt><trkpt lat="44.3889099" lon="11.0713542"><ele>267.2</ele><time>2026-03-29T10:04:12.049Z</time></trkpt><trkpt lat="44.3889435" lon="11.0714632"><ele>266.4</ele><time>2026-03-29T10:04:13.049Z</time></trkpt><trkpt lat="44.3889504" lon="11.0715991"><ele>265.59999999999997</ele><time>2026-03-29T10:04:14.049Z</time></trkpt><trkpt lat="44.388957" lon="11.0717553"><ele>264.8</ele><time>2026-03-29T10:04:15.049Z</time></trkpt><trkpt lat="44.3889657" lon="11.0719155"><ele>264.0</ele><time>2026-03-29T10:04:16.048Z</time></trkpt><trkpt lat="44.3889721" lon="11.0720662"><ele>263.6666666666667</ele><time>2026-03-29T10:04:17.049Z</time></trkpt><trkpt lat="44.3889786" lon="11.0722058"><ele>263.3333333333333</ele><time>2026-03-29T10:04:18.049Z</time></trkpt><trkpt lat="44.3889862" lon="11.0723392"><ele>263.0</ele><time>2026-03-29T10:04:19.049Z</time></trkpt><trkpt lat="44.3889906" lon="11.0724602"><ele>262.66666666666663</ele><time>2026-03-29T10:04:20.049Z</time></trkpt><trkpt lat="44.3889925" lon="11.0725715"><ele>262.3333333333333</ele><time>2026-03-29T10:04:21.048Z</time></trkpt><trkpt lat="44.3889816" lon="11.0726742"><ele>262.0</ele><time>2026-03-29T10:04:22.049Z</time></trkpt><trkpt lat="44.3889512" lon="11.0727646"><ele>262.0</ele><time>2026-03-29T10:04:23.049Z</time></trkpt><trkpt lat="44.3888871" lon="11.0729009"><ele>262.0</ele><time>2026-03-29T10:04:25.048Z</time></trkpt><trkpt lat="44.3889282" lon="11.073049"><ele>262.0</ele><time>2026-03-29T10:04:27.049Z</time></trkpt><trkpt lat="44.388946" lon="11.0731981"><ele>262.0</ele><time>2026-03-29T10:04:29.048Z</time></trkpt><trkpt lat="44.3888931" lon="11.0732722"><ele>262.0</ele><time>2026-03-29T10:04:31.049Z</time></trkpt><trkpt lat="44.3888271" lon="11.0732651"><ele>262.16666666666663</ele><time>2026-03-29T10:04:34.049Z</time></trkpt><trkpt lat="44.3887997" lon="11.0731847"><ele>262.3333333333333</ele><time>2026-03-29T10:09:14.049Z</time></trkpt><trkpt lat="44.3888409" lon="11.073268"><ele>262.5</ele><time>2026-03-29T10:10:55.049Z</time></trkpt><trkpt lat="44.3887665" lon="11.0733382"><ele>262.6666666666667</ele><time>2026-03-29T10:10:57.049Z</time></trkpt><trkpt lat="44.3887861" lon="11.0734534"><ele>262.83333333333337</ele><time>2026-03-29T10:10:59.048Z</time></trkpt><trkpt lat="44.3888508" lon="11.0734892"><ele>263.0</ele><time>2026-03-29T10:11:00.049Z</time></trkpt><trkpt lat="44.38894" lon="11.0735054"><ele>263.4</ele><time>2026-03-29T10:11:02.049Z</time></trkpt><trkpt lat="44.3890293" lon="11.0735251"><ele>263.8</ele><time>2026-03-29T10:11:04.049Z</time></trkpt><trkpt lat="44.3891156" lon="11.0735581"><ele>264.2</ele><time>2026-03-29T10:11:06.049Z</time></trkpt><trkpt lat="44.3891918" lon="11.0735646"><ele>264.6</ele><time>2026-03-29T10:11:08.049Z</time></trkpt><trkpt lat="44.3893205" lon="11.0735693"><ele>265.0</ele><time>2026-03-29T10:11:10.049Z</time></trkpt><trkpt lat="44.3894043" lon="11.0736362"><ele>265.0</ele><time>2026-03-29T10:11:11.049Z</time></trkpt><trkpt lat="44.3894832" lon="11.0737049"><ele>265.0</ele><time>2026-03-29T10:11:12.048Z</time></trkpt><trkpt lat="44.389557" lon="11.0737467"><ele>265.0</ele><time>2026-03-29T10:11:13.048Z</time></trkpt><trkpt lat="44.389634" lon="11.0737741"><ele>265.0</ele><time>2026-03-29T10:11:14.049Z</time></trkpt><trkpt lat="44.3896985" lon="11.0738019"><ele>265.0</ele><time>2026-03-29T10:11:15.048Z</time></trkpt><trkpt lat="44.3898079" lon="11.0738578"><ele>265.0</ele><time>2026-03-29T10:11:17.048Z</time></trkpt><trkpt lat="44.3897493" lon="11.0737444"><ele>264.5</ele><time>2026-03-29T10:12:05.048Z</time></trkpt><trkpt lat="44.3897998" lon="11.0738264"><ele>264.0</ele><time>2026-03-29T10:12:09.049Z</time></trkpt><trkpt lat="44.3898729" lon="11.0738588"><ele>263.5</ele><time>2026-03-29T10:12:11.048Z</time></trkpt><trkpt lat="44.3899545" lon="11.0739002"><ele>263.0</ele><time>2026-03-29T10:12:13.048Z</time></trkpt><trkpt lat="44.3900311" lon="11.0739374"><ele>262.5</ele><time>2026-03-29T10:12:15.048Z</time></trkpt><trkpt lat="44.3901017" lon="11.0739659"><ele>262.0</ele><time>2026-03-29T10:12:17.049Z</time></trkpt><trkpt lat="44.3901709" lon="11.0740022"><ele>262.0</ele><time>2026-03-29T10:12:19.048Z</time></trkpt><trkpt lat="44.390252" lon="11.0740278"><ele>262.0</ele><time>2026-03-29T10:12:22.048Z</time></trkpt><trkpt lat="44.3903306" lon="11.0740456"><ele>262.0</ele><time>2026-03-29T10:12:25.049Z</time></trkpt><trkpt lat="44.3903958" lon="11.0740357"><ele>262.0</ele><time>2026-03-29T10:12:35.049Z</time></trkpt><trkpt lat="44.3904609" lon="11.0740745"><ele>262.0</ele><time>2026-03-29T10:12:39.048Z</time></trkpt><trkpt lat="44.3905206" lon="11.074107"><ele>262.0</ele><time>2026-03-29T10:12:42.049Z</time></trkpt><trkpt lat="44.3904531" lon="11.0740881"><ele>262.0</ele><time>2026-03-29T10:12:43.048Z</time></trkpt><trkpt lat="44.3905008" lon="11.074155"><ele>262.6</ele><time>2026-03-29T10:16:58.049Z</time></trkpt><trkpt lat="44.390574" lon="11.0742073"><ele>263.2</ele><time>2026-03-29T10:17:00.049Z</time></trkpt><trkpt lat="44.3906217" lon="11.0742686"><ele>263.8</ele><time>2026-03-29T10:17:01.049Z</time></trkpt><trkpt lat="44.390645" lon="11.0743908"><ele>264.4</ele><time>2026-03-29T10:17:03.049Z</time></trkpt><trkpt lat="44.3905996" lon="11.0745565"><ele>265.0</ele><time>2026-03-29T10:17:04.049Z</time></trkpt><trkpt lat="44.3905789" lon="11.0746846"><ele>265.0</ele><time>2026-03-29T10:17:05.049Z</time></trkpt><trkpt lat="44.3905517" lon="11.0748045"><ele>265.0</ele><time>2026-03-29T10:17:06.048Z</time></trkpt><trkpt lat="44.3905315" lon="11.0749287"><ele>265.0</ele><time>2026-03-29T10:17:07.049Z</time></trkpt><trkpt lat="44.3905131" lon="11.0750234"><ele>265.0</ele><time>2026-03-29T10:17:08.049Z</time></trkpt><trkpt lat="44.390501" lon="11.0751615"><ele>265.0</ele><time>2026-03-29T10:17:09.049Z</time></trkpt><trkpt lat="44.3904861" lon="11.0753125"><ele>265.16666666666663</ele><time>2026-03-29T10:17:10.049Z</time></trkpt><trkpt lat="44.3904864" lon="11.0754233"><ele>265.3333333333333</ele><time>2026-03-29T10:17:11.048Z</time></trkpt><trkpt lat="44.3904642" lon="11.0755227"><ele>265.5</ele><time>2026-03-29T10:17:12.049Z</time></trkpt><trkpt lat="44.3904402" lon="11.0756659"><ele>265.6666666666667</ele><time>2026-03-29T10:17:14.049Z</time></trkpt><trkpt lat="44.3904148" lon="11.0757547"><ele>265.83333333333337</ele><time>2026-03-29T10:17:16.048Z</time></trkpt><trkpt lat="44.3903631" lon="11.0758339"><ele>266.0</ele><time>2026-03-29T10:17:54.049Z</time></trkpt><trkpt lat="44.3902322" lon="11.0757549"><ele>266.0</ele><time>2026-03-29T10:17:56.048Z</time></trkpt><trkpt lat="44.3901444" lon="11.0756894"><ele>266.0</ele><time>2026-03-29T10:17:57.049Z</time></trkpt><trkpt lat="44.3900323" lon="11.0756055"><ele>266.0</ele><time>2026-03-29T10:17:58.048Z</time></trkpt><trkpt lat="44.3899154" lon="11.0755122"><ele>266.0</ele><time>2026-03-29T10:17:59.049Z</time></trkpt><trkpt lat="44.3897766" lon="11.0754078"><ele>267.25</ele><time>2026-03-29T10:18:00.048Z</time></trkpt><trkpt lat="44.3896542" lon="11.0753113"><ele>268.5</ele><time>2026-03-29T10:18:01.048Z</time></trkpt><trkpt lat="44.3895387" lon="11.0752138"><ele>269.75</ele><time>2026-03-29T10:18:02.049Z</time></trkpt><trkpt lat="44.3894117" lon="11.0751212"><ele>271.0</ele><time>2026-03-29T10:18:03.049Z</time></trkpt><trkpt lat="44.3892783" lon="11.0750231"><ele>270.5</ele><time>2026-03-29T10:18:04.049Z</time></trkpt><trkpt lat="44.3891552" lon="11.0749323"><ele>270.0</ele><time>2026-03-29T10:18:05.049Z</time></trkpt><trkpt lat="44.3890372" lon="11.0748411"><ele>269.5</ele><time>2026-03-29T10:18:06.049Z</time></trkpt><trkpt lat="44.3889132" lon="11.0747521"><ele>269.0</ele><time>2026-03-29T10:18:07.049Z</time></trkpt><trkpt lat="44.3888057" lon="11.0746742"><ele>269.0</ele><time>2026-03-29T10:18:08.049Z</time></trkpt><trkpt lat="44.3886873" lon="11.0746018"><ele>269.0</ele><time>2026-03-29T10:18:09.049Z</time></trkpt><trkpt lat="44.3885759" lon="11.0745155"><ele>269.0</ele><time>2026-03-29T10:18:10.049Z</time></trkpt><trkpt lat="44.3884556" lon="11.0744236"><ele>269.0</ele><time>2026-03-29T10:18:11.049Z</time></trkpt><trkpt lat="44.3883145" lon="11.074355"><ele>269.0</ele><time>2026-03-29T10:18:12.049Z</time></trkpt><trkpt lat="44.3881657" lon="11.0742649"><ele>269.0</ele><time>2026-03-29T10:18:13.049Z</time></trkpt><trkpt lat="44.3880049" lon="11.074208"><ele>269.0</ele><time>2026-03-29T10:18:14.049Z</time></trkpt><trkpt lat="44.3878577" lon="11.0741468"><ele>268.25</ele><time>2026-03-29T10:18:15.049Z</time></trkpt><trkpt lat="44.3877162" lon="11.0740863"><ele>267.5</ele><time>2026-03-29T10:18:16.049Z</time></trkpt><trkpt lat="44.38757" lon="11.0740226"><ele>266.75</ele><time>2026-03-29T10:18:17.048Z</time></trkpt><trkpt lat="44.3874325" lon="11.0739675"><ele>266.0</ele><time>2026-03-29T10:18:18.049Z</time></trkpt><trkpt lat="44.387301" lon="11.0739201"><ele>266.0</ele><time>2026-03-29T10:18:19.048Z</time></trkpt><trkpt lat="44.3871826" lon="11.0738696"><ele>266.0</ele><time>2026-03-29T10:18:20.049Z</time></trkpt><trkpt lat="44.3870705" lon="11.0738245"><ele>266.0</ele><time>2026-03-29T10:18:21.049Z</time></trkpt><trkpt lat="44.386972" lon="11.07378"><ele>266.0</ele><time>2026-03-29T10:18:22.049Z</time></trkpt><trkpt lat="44.3868771" lon="11.0737421"><ele>266.0</ele><time>2026-03-29T10:18:23.048Z</time></trkpt><trkpt lat="44.3867909" lon="11.0736979"><ele>266.1666666666667</ele><time>2026-03-29T10:18:24.049Z</time></trkpt><trkpt lat="44.3867121" lon="11.0736635"><ele>266.33333333333337</ele><time>2026-03-29T10:18:25.049Z</time></trkpt><trkpt lat="44.3866363" lon="11.073626"><ele>266.5</ele><time>2026-03-29T10:18:26.049Z</time></trkpt><trkpt lat="44.386566" lon="11.0736062"><ele>266.6666666666667</ele><time>2026-03-29T10:18:27.049Z</time></trkpt><trkpt lat="44.386502" lon="11.0735069"><ele>266.8333333333333</ele><time>2026-03-29T10:18:29.049Z</time></trkpt><trkpt lat="44.3864222" lon="11.0734259"><ele>267.0</ele><time>2026-03-29T10:18:32.048Z</time></trkpt><trkpt lat="44.3863579" lon="11.0734266"><ele>267.2</ele><time>2026-03-29T10:18:33.048Z</time></trkpt><trkpt lat="44.3862534" lon="11.0734351"><ele>267.4</ele><time>2026-03-29T10:18:34.048Z</time></trkpt><trkpt lat="44.3861598" lon="11.0734443"><ele>267.6</ele><time>2026-03-29T10:18:35.049Z</time></trkpt><trkpt lat="44.3860583" lon="11.0734514"><ele>267.8</ele><time>2026-03-29T10:18:36.049Z</time></trkpt><trkpt lat="44.3859489" lon="11.0734646"><ele>268.0</ele><time>2026-03-29T10:18:37.048Z</time></trkpt><trkpt lat="44.3858326" lon="11.0734769"><ele>268.0</ele><time>2026-03-29T10:18:38.048Z</time></trkpt><trkpt lat="44.3857111" lon="11.0734865"><ele>268.0</ele><time>2026-03-29T10:18:39.048Z</time></trkpt><trkpt lat="44.3855925" lon="11.0734983"><ele>268.0</ele><time>2026-03-29T10:18:40.049Z</time></trkpt><trkpt lat="44.3854562" lon="11.0735098"><ele>268.0</ele><time>2026-03-29T10:18:41.048Z</time></trkpt><trkpt lat="44.3853207" lon="11.073524"><ele>268.5</ele><time>2026-03-29T10:18:42.048Z</time></trkpt><trkpt lat="44.3851833" lon="11.0735424"><ele>269.0</ele><time>2026-03-29T10:18:43.049Z</time></trkpt><trkpt lat="44.385041" lon="11.0735525"><ele>269.5</ele><time>2026-03-29T10:18:44.048Z</time></trkpt><trkpt lat="44.3849038" lon="11.0735713"><ele>270.0</ele><time>2026-03-29T10:18:45.049Z</time></trkpt><trkpt lat="44.3847742" lon="11.0735808"><ele>270.25</ele><time>2026-03-29T10:18:46.049Z</time></trkpt><trkpt lat="44.3846488" lon="11.0735945"><ele>270.5</ele><time>2026-03-29T10:18:47.049Z</time></trkpt><trkpt lat="44.3845285" lon="11.0736059"><ele>270.75</ele><time>2026-03-29T10:18:48.048Z</time></trkpt><trkpt lat="44.3844221" lon="11.0736171"><ele>271.0</ele><time>2026-03-29T10:18:49.049Z</time></trkpt><trkpt lat="44.3843096" lon="11.07363"><ele>271.0</ele><time>2026-03-29T10:18:50.048Z</time></trkpt><trkpt lat="44.3841916" lon="11.073642"><ele>271.0</ele><time>2026-03-29T10:18:51.048Z</time></trkpt><trkpt lat="44.3840667" lon="11.0736509"><ele>271.0</ele><time>2026-03-29T10:18:52.048Z</time></trkpt><trkpt lat="44.3839396" lon="11.0736551"><ele>271.0</ele><time>2026-03-29T10:18:53.049Z</time></trkpt><trkpt lat="44.3837995" lon="11.0736558"><ele>271.75</ele><time>2026-03-29T10:18:54.049Z</time></trkpt><trkpt lat="44.3836605" lon="11.0736455"><ele>272.5</ele><time>2026-03-29T10:18:55.048Z</time></trkpt><trkpt lat="44.3835162" lon="11.0736333"><ele>273.25</ele><time>2026-03-29T10:18:56.049Z</time></trkpt><trkpt lat="44.3833825" lon="11.0736097"><ele>274.0</ele><time>2026-03-29T10:18:57.049Z</time></trkpt><trkpt lat="44.3832514" lon="11.0735766"><ele>274.0</ele><time>2026-03-29T10:18:58.048Z</time></trkpt><trkpt lat="44.3831265" lon="11.0735421"><ele>274.0</ele><time>2026-03-29T10:18:59.049Z</time></trkpt><trkpt lat="44.3830004" lon="11.0735"><ele>274.0</ele><time>2026-03-29T10:19:00.049Z</time></trkpt><trkpt lat="44.3828806" lon="11.0734503"><ele>274.0</ele><time>2026-03-29T10:19:01.048Z</time></trkpt><trkpt lat="44.3827633" lon="11.0734035"><ele>274.0</ele><time>2026-03-29T10:19:02.049Z</time></trkpt><trkpt lat="44.3826475" lon="11.0733525"><ele>274.0</ele><time>2026-03-29T10:19:03.048Z</time></trkpt><trkpt lat="44.3825394" lon="11.0732885"><ele>274.0</ele><time>2026-03-29T10:19:04.048Z</time></trkpt><trkpt lat="44.382426" lon="11.073229"><ele>274.0</ele><time>2026-03-29T10:19:05.048Z</time></trkpt><trkpt lat="44.3823172" lon="11.0731599"><ele>274.0</ele><time>2026-03-29T10:19:06.049Z</time></trkpt><trkpt lat="44.3822113" lon="11.0730947"><ele>274.0</ele><time>2026-03-29T10:19:07.049Z</time></trkpt><trkpt lat="44.3821027" lon="11.0730291"><ele>274.0</ele><time>2026-03-29T10:19:08.048Z</time></trkpt><trkpt lat="44.3819971" lon="11.0729622"><ele>274.0</ele><time>2026-03-29T10:19:09.049Z</time></trkpt><trkpt lat="44.3818963" lon="11.0728961"><ele>274.5</ele><time>2026-03-29T10:19:10.049Z</time></trkpt><trkpt lat="44.3817861" lon="11.0728264"><ele>275.0</ele><time>2026-03-29T10:19:11.049Z</time></trkpt><trkpt lat="44.3816693" lon="11.0727461"><ele>275.5</ele><time>2026-03-29T10:19:12.049Z</time></trkpt><trkpt lat="44.3815439" lon="11.0726647"><ele>276.0</ele><time>2026-03-29T10:19:13.049Z</time></trkpt><trkpt lat="44.3814129" lon="11.0725778"><ele>276.5</ele><time>2026-03-29T10:19:14.048Z</time></trkpt><trkpt lat="44.3812718" lon="11.0724912"><ele>277.0</ele><time>2026-03-29T10:19:15.049Z</time></trkpt><trkpt lat="44.3811374" lon="11.072401"><ele>277.5</ele><time>2026-03-29T10:19:16.048Z</time></trkpt><trkpt lat="44.3810057" lon="11.0723156"><ele>278.0</ele><time>2026-03-29T10:19:17.049Z</time></trkpt><trkpt lat="44.3808701" lon="11.0722265"><ele>278.0</ele><time>2026-03-29T10:19:18.049Z</time></trkpt><trkpt lat="44.3807404" lon="11.0721379"><ele>278.0</ele><time>2026-03-29T10:19:19.049Z</time></trkpt><trkpt lat="44.3806092" lon="11.0720512"><ele>278.0</ele><time>2026-03-29T10:19:20.049Z</time></trkpt><trkpt lat="44.3804782" lon="11.071967"><ele>278.0</ele><time>2026-03-29T10:19:21.049Z</time></trkpt><trkpt lat="44.3803589" lon="11.0718808"><ele>278.25</ele><time>2026-03-29T10:19:22.049Z</time></trkpt><trkpt lat="44.380238" lon="11.071806"><ele>278.5</ele><time>2026-03-29T10:19:23.049Z</time></trkpt><trkpt lat="44.3801143" lon="11.0717368"><ele>278.75</ele><time>2026-03-29T10:19:24.049Z</time></trkpt><trkpt lat="44.3800033" lon="11.0716571"><ele>279.0</ele><time>2026-03-29T10:19:25.048Z</time></trkpt><trkpt lat="44.3798856" lon="11.0715782"><ele>279.0</ele><time>2026-03-29T10:19:26.048Z</time></trkpt><trkpt lat="44.3797677" lon="11.0714971"><ele>279.0</ele><time>2026-03-29T10:19:27.049Z</time></trkpt><trkpt lat="44.379649" lon="11.0714239"><ele>279.0</ele><time>2026-03-29T10:19:28.048Z</time></trkpt><trkpt lat="44.3795315" lon="11.0713452"><ele>279.0</ele><time>2026-03-29T10:19:29.048Z</time></trkpt><trkpt lat="44.3794195" lon="11.0712607"><ele>279.75</ele><time>2026-03-29T10:19:30.048Z</time></trkpt><trkpt lat="44.3793139" lon="11.0711771"><ele>280.5</ele><time>2026-03-29T10:19:31.049Z</time></trkpt><trkpt lat="44.3792124" lon="11.0710923"><ele>281.25</ele><time>2026-03-29T10:19:32.048Z</time></trkpt><trkpt lat="44.3791182" lon="11.0710173"><ele>282.0</ele><time>2026-03-29T10:19:33.048Z</time></trkpt><trkpt lat="44.3790212" lon="11.0709347"><ele>282.0</ele><time>2026-03-29T10:19:34.049Z</time></trkpt><trkpt lat="44.3789286" lon="11.0708483"><ele>282.0</ele><time>2026-03-29T10:19:35.049Z</time></trkpt><trkpt lat="44.3788414" lon="11.0707645"><ele>282.0</ele><time>2026-03-29T10:19:36.049Z</time></trkpt><trkpt lat="44.3787656" lon="11.0706807"><ele>282.0</ele><time>2026-03-29T10:19:37.049Z</time></trkpt><trkpt lat="44.3786987" lon="11.0706023"><ele>282.0</ele><time>2026-03-29T10:19:38.048Z</time></trkpt><trkpt lat="44.3786302" lon="11.0705353"><ele>282.6666666666667</ele><time>2026-03-29T10:19:39.049Z</time></trkpt><trkpt lat="44.3785713" lon="11.0704814"><ele>283.3333333333333</ele><time>2026-03-29T10:19:40.049Z</time></trkpt><trkpt lat="44.378477" lon="11.0704736"><ele>284.0</ele><time>2026-03-29T10:19:42.048Z</time></trkpt><trkpt lat="44.378423" lon="11.0705351"><ele>284.66666666666663</ele><time>2026-03-29T10:19:45.049Z</time></trkpt><trkpt lat="44.3783947" lon="11.0706145"><ele>285.3333333333333</ele><time>2026-03-29T10:20:29.049Z</time></trkpt><trkpt lat="44.3783369" lon="11.0707836"><ele>286.0</ele><time>2026-03-29T10:20:31.049Z</time></trkpt><trkpt lat="44.3782979" lon="11.0708704"><ele>286.5</ele><time>2026-03-29T10:20:32.049Z</time></trkpt><trkpt lat="44.3782617" lon="11.0709636"><ele>287.0</ele><time>2026-03-29T10:20:33.048Z</time></trkpt><trkpt lat="44.3782306" lon="11.0710626"><ele>287.5</ele><time>2026-03-29T10:20:34.048Z</time></trkpt><trkpt lat="44.3782037" lon="11.0711458"><ele>288.0</ele><time>2026-03-29T10:20:35.049Z</time></trkpt><trkpt lat="44.3781854" lon="11.0712327"><ele>288.5</ele><time>2026-03-29T10:20:36.048Z</time></trkpt><trkpt lat="44.378164" lon="11.0713899"><ele>289.0</ele><time>2026-03-29T10:20:38.049Z</time></trkpt><trkpt lat="44.378183" lon="11.0715354"><ele>290.3333333333333</ele><time>2026-03-29T10:20:40.049Z</time></trkpt><trkpt lat="44.3781727" lon="11.0716611"><ele>291.66666666666663</ele><time>2026-03-29T10:20:42.048Z</time></trkpt><trkpt lat="44.3781355" lon="11.0717456"><ele>293.0</ele><time>2026-03-29T10:20:51.049Z</time></trkpt><trkpt lat="44.3781124" lon="11.0718331"><ele>294.3333333333333</ele><time>2026-03-29T10:20:52.049Z</time></trkpt><trkpt lat="44.378102" lon="11.0719335"><ele>295.6666666666667</ele><time>2026-03-29T10:20:53.049Z</time></trkpt><trkpt lat="44.3780132" lon="11.0720631"><ele>297.0</ele><time>2026-03-29T10:20:55.049Z</time></trkpt><trkpt lat="44.3779296" lon="11.0721667"><ele>302.6666666666667</ele><time>2026-03-29T10:20:57.049Z</time></trkpt><trkpt lat="44.3778782" lon="11.072278"><ele>308.3333333333333</ele><time>2026-03-29T10:20:59.049Z</time></trkpt><trkpt lat="44.3778412" lon="11.0723676"><ele>314.0</ele><time>2026-03-29T10:21:00.048Z</time></trkpt><trkpt lat="44.3777999" lon="11.072447"><ele>319.66666666666663</ele><time>2026-03-29T10:21:01.049Z</time></trkpt><trkpt lat="44.3777517" lon="11.0725282"><ele>325.3333333333333</ele><time>2026-03-29T10:21:02.049Z</time></trkpt><trkpt lat="44.3776927" lon="11.0725711"><ele>331.0</ele><time>2026-03-29T10:21:03.049Z</time></trkpt><trkpt lat="44.3775824" lon="11.0726593"><ele>333.0</ele><time>2026-03-29T10:21:05.048Z</time></trkpt><trkpt lat="44.3775328" lon="11.0727146"><ele>335.0</ele><time>2026-03-29T10:21:06.049Z</time></trkpt><trkpt lat="44.3774812" lon="11.0727805"><ele>337.0</ele><time>2026-03-29T10:21:07.048Z</time></trkpt><trkpt lat="44.3774362" lon="11.0728429"><ele>339.0</ele><time>2026-03-29T10:21:08.049Z</time></trkpt><trkpt lat="44.377395" lon="11.0729288"><ele>341.0</ele><time>2026-03-29T10:21:09.048Z</time></trkpt><trkpt lat="44.3773143" lon="11.0730675"><ele>343.0</ele><time>2026-03-29T10:21:11.049Z</time></trkpt><trkpt lat="44.3772367" lon="11.0732144"><ele>345.2</ele><time>2026-03-29T10:21:13.048Z</time></trkpt><trkpt lat="44.3772152" lon="11.0733237"><ele>347.4</ele><time>2026-03-29T10:21:14.048Z</time></trkpt><trkpt lat="44.3771773" lon="11.0734204"><ele>349.59999999999997</ele><time>2026-03-29T10:21:15.049Z</time></trkpt><trkpt lat="44.3771096" lon="11.0735534"><ele>351.79999999999995</ele><time>2026-03-29T10:21:17.048Z</time></trkpt><trkpt lat="44.377057" lon="11.0736035"><ele>354.0</ele><time>2026-03-29T10:21:18.049Z</time></trkpt><trkpt lat="44.376957" lon="11.0736804"><ele>361.0</ele><time>2026-03-29T10:21:20.048Z</time></trkpt><trkpt lat="44.376892" lon="11.0737853"><ele>368.0</ele><time>2026-03-29T10:21:22.048Z</time></trkpt><trkpt lat="44.3768604" lon="11.0738771"><ele>375.0</ele><time>2026-03-29T10:21:24.049Z</time></trkpt><trkpt lat="44.3768221" lon="11.0739774"><ele>382.0</ele><time>2026-03-29T10:21:26.049Z</time></trkpt><trkpt lat="44.3768171" lon="11.0741233"><ele>389.0</ele><time>2026-03-29T10:21:28.049Z</time></trkpt><trkpt lat="44.3768405" lon="11.0742889"><ele>389.3333333333333</ele><time>2026-03-29T10:21:30.048Z</time></trkpt><trkpt lat="44.3768901" lon="11.0743672"><ele>389.66666666666663</ele><time>2026-03-29T10:21:31.049Z</time></trkpt><trkpt lat="44.3769276" lon="11.0744534"><ele>390.0</ele><time>2026-03-29T10:21:32.049Z</time></trkpt><trkpt lat="44.377008" lon="11.0745134"><ele>390.33333333333337</ele><time>2026-03-29T10:21:33.049Z</time></trkpt><trkpt lat="44.37706" lon="11.0745996"><ele>390.6666666666667</ele><time>2026-03-29T10:21:34.048Z</time></trkpt><trkpt lat="44.3771092" lon="11.0746943"><ele>391.0</ele><time>2026-03-29T10:21:35.049Z</time></trkpt><trkpt lat="44.3771419" lon="11.0748116"><ele>393.8</ele><time>2026-03-29T10:21:37.049Z</time></trkpt><trkpt lat="44.3771031" lon="11.0749457"><ele>396.6</ele><time>2026-03-29T10:21:39.049Z</time></trkpt><trkpt lat="44.3770594" lon="11.0750628"><ele>399.4</ele><time>2026-03-29T10:21:41.049Z</time></trkpt><trkpt lat="44.377013" lon="11.0752406"><ele>402.2</ele><time>2026-03-29T10:21:43.049Z</time></trkpt><trkpt lat="44.3769625" lon="11.0753532"><ele>405.0</ele><time>2026-03-29T10:21:45.049Z</time></trkpt><trkpt lat="44.3769183" lon="11.0754781"><ele>405.0</ele><time>2026-03-29T10:21:47.049Z</time></trkpt><trkpt lat="44.3768577" lon="11.0755419"><ele>405.0</ele><time>2026-03-29T10:22:13.048Z</time></trkpt><trkpt lat="44.3768214" lon="11.0754387"><ele>405.0</ele><time>2026-03-29T10:22:16.049Z</time></trkpt><trkpt lat="44.3768149" lon="11.0753409"><ele>405.0</ele><time>2026-03-29T10:22:40.048Z</time></trkpt><trkpt lat="44.3767394" lon="11.0753313"><ele>405.0</ele><time>2026-03-29T10:22:42.049Z</time></trkpt><trkpt lat="44.3766495" lon="11.0751279"><ele>405.0</ele><time>2026-03-29T10:22:44.049Z</time></trkpt><trkpt lat="44.376591" lon="11.0749921"><ele>405.0</ele><time>2026-03-29T10:22:45.048Z</time></trkpt><trkpt lat="44.3765395" lon="11.0748773"><ele>405.0</ele><time>2026-03-29T10:22:46.049Z</time></trkpt><trkpt lat="44.3764857" lon="11.0746873"><ele>405.0</ele><time>2026-03-29T10:22:47.049Z</time></trkpt><trkpt lat="44.3764337" lon="11.0745007"><ele>402.6666666666667</ele><time>2026-03-29T10:22:48.049Z</time></trkpt><trkpt lat="44.3763709" lon="11.0743697"><ele>400.33333333333337</ele><time>2026-03-29T10:22:49.049Z</time></trkpt><trkpt lat="44.3763293" lon="11.0743027"><ele>398.0</ele><time>2026-03-29T10:22:50.049Z</time></trkpt><trkpt lat="44.3762642" lon="11.0742182"><ele>395.6666666666667</ele><time>2026-03-29T10:22:51.049Z</time></trkpt><trkpt lat="44.3761891" lon="11.0741215"><ele>393.33333333333337</ele><time>2026-03-29T10:22:52.049Z</time></trkpt><trkpt lat="44.3761121" lon="11.0741565"><ele>391.0</ele><time>2026-03-29T10:22:53.049Z</time></trkpt><trkpt lat="44.3760353" lon="11.0741362"><ele>398.75</ele><time>2026-03-29T10:22:54.049Z</time></trkpt><trkpt lat="44.3758869" lon="11.0740668"><ele>406.5</ele><time>2026-03-29T10:22:56.048Z</time></trkpt><trkpt lat="44.3758588" lon="11.0739797"><ele>414.25</ele><time>2026-03-29T10:22:57.049Z</time></trkpt><trkpt lat="44.3758198" lon="11.0738819"><ele>422.0</ele><time>2026-03-29T10:22:58.048Z</time></trkpt><trkpt lat="44.3758276" lon="11.073664"><ele>422.0</ele><time>2026-03-29T10:22:59.049Z</time></trkpt><trkpt lat="44.3758281" lon="11.0734784"><ele>422.0</ele><time>2026-03-29T10:23:00.049Z</time></trkpt><trkpt lat="44.3758231" lon="11.0732948"><ele>422.0</ele><time>2026-03-29T10:23:01.048Z</time></trkpt><trkpt lat="44.3758404" lon="11.0731647"><ele>422.0</ele><time>2026-03-29T10:23:02.048Z</time></trkpt><trkpt lat="44.3758478" lon="11.0729956"><ele>422.0</ele><time>2026-03-29T10:23:03.048Z</time></trkpt><trkpt lat="44.375871" lon="11.0728274"><ele>422.0</ele><time>2026-03-29T10:23:04.049Z</time></trkpt><trkpt lat="44.3758718" lon="11.0726826"><ele>422.0</ele><time>2026-03-29T10:23:05.049Z</time></trkpt><trkpt lat="44.375888" lon="11.0725446"><ele>422.0</ele><time>2026-03-29T10:23:06.049Z</time></trkpt><trkpt lat="44.3759045" lon="11.0724586"><ele>422.0</ele><time>2026-03-29T10:23:07.049Z</time></trkpt><trkpt lat="44.3758304" lon="11.0723971"><ele>421.99999999999994</ele><time>2026-03-29T10:23:08.049Z</time></trkpt><trkpt lat="44.3758139" lon="11.0723097"><ele>422.0</ele><time>2026-03-29T10:23:10.048Z</time></trkpt><trkpt lat="44.3758117" lon="11.0724129"><ele>422.0</ele><time>2026-03-29T10:23:49.049Z</time></trkpt><trkpt lat="44.375767" lon="11.0724764"><ele>422.0</ele><time>2026-03-29T10:23:51.049Z</time></trkpt><trkpt lat="44.3756751" lon="11.072469"><ele>421.99999999999994</ele><time>2026-03-29T10:23:54.048Z</time></trkpt><trkpt lat="44.3755922" lon="11.0724453"><ele>422.0</ele><time>2026-03-29T10:23:56.048Z</time></trkpt><trkpt lat="44.3754672" lon="11.0724407"><ele>423.40000000000003</ele><time>2026-03-29T10:23:58.049Z</time></trkpt><trkpt lat="44.3754153" lon="11.0723556"><ele>424.8</ele><time>2026-03-29T10:23:59.049Z</time></trkpt><trkpt lat="44.3753502" lon="11.0722731"><ele>426.2</ele><time>2026-03-29T10:24:00.048Z</time></trkpt><trkpt lat="44.3752778" lon="11.0722373"><ele>427.6</ele><time>2026-03-29T10:24:01.049Z</time></trkpt><trkpt lat="44.3751738" lon="11.0722524"><ele>429.0</ele><time>2026-03-29T10:24:03.049Z</time></trkpt><trkpt lat="44.3750509" lon="11.0723203"><ele>429.0</ele><time>2026-03-29T10:24:04.049Z</time></trkpt><trkpt lat="44.3749798" lon="11.0723795"><ele>429.0</ele><time>2026-03-29T10:24:05.048Z</time></trkpt><trkpt lat="44.3749351" lon="11.072465"><ele>429.0</ele><time>2026-03-29T10:24:07.049Z</time></trkpt><trkpt lat="44.3748618" lon="11.0726152"><ele>429.0</ele><time>2026-03-29T10:24:09.049Z</time></trkpt><trkpt lat="44.3748704" lon="11.0727241"><ele>429.0</ele><time>2026-03-29T10:24:10.049Z</time></trkpt><trkpt lat="44.3748708" lon="11.07285"><ele>432.4</ele><time>2026-03-29T10:24:11.049Z</time></trkpt><trkpt lat="44.3748414" lon="11.0729961"><ele>435.79999999999995</ele><time>2026-03-29T10:24:12.048Z</time></trkpt><trkpt lat="44.3748265" lon="11.0731263"><ele>439.20000000000005</ele><time>2026-03-29T10:24:13.049Z</time></trkpt><trkpt lat="44.3747933" lon="11.0732675"><ele>442.6</ele><time>2026-03-29T10:24:14.048Z</time></trkpt><trkpt lat="44.3747473" lon="11.0733881"><ele>446.0</ele><time>2026-03-29T10:24:15.049Z</time></trkpt><trkpt lat="44.3747099" lon="11.0735118"><ele>446.20000000000005</ele><time>2026-03-29T10:24:16.048Z</time></trkpt><trkpt lat="44.3747117" lon="11.0736427"><ele>446.40000000000003</ele><time>2026-03-29T10:24:17.049Z</time></trkpt><trkpt lat="44.3746822" lon="11.0737604"><ele>446.6</ele><time>2026-03-29T10:24:18.048Z</time></trkpt><trkpt lat="44.3746817" lon="11.0739538"><ele>446.8</ele><time>2026-03-29T10:24:20.049Z</time></trkpt><trkpt lat="44.3746716" lon="11.0741216"><ele>447.0</ele><time>2026-03-29T10:24:21.049Z</time></trkpt><trkpt lat="44.374673" lon="11.0742404"><ele>452.0</ele><time>2026-03-29T10:24:22.048Z</time></trkpt><trkpt lat="44.3746418" lon="11.0743556"><ele>457.0</ele><time>2026-03-29T10:24:23.048Z</time></trkpt><trkpt lat="44.374607" lon="11.0744692"><ele>462.0</ele><time>2026-03-29T10:24:24.049Z</time></trkpt><trkpt lat="44.3745877" lon="11.0745887"><ele>467.0</ele><time>2026-03-29T10:24:25.049Z</time></trkpt><trkpt lat="44.374579" lon="11.0747061"><ele>472.0</ele><time>2026-03-29T10:24:26.049Z</time></trkpt><trkpt lat="44.3745767" lon="11.0748338"><ele>477.0</ele><time>2026-03-29T10:24:27.049Z</time></trkpt><trkpt lat="44.3745905" lon="11.0749433"><ele>480.0</ele><time>2026-03-29T10:24:28.049Z</time></trkpt><trkpt lat="44.37458" lon="11.0751736"><ele>483.0</ele><time>2026-03-29T10:24:30.049Z</time></trkpt><trkpt lat="44.3745713" lon="11.0753241"><ele>486.0</ele><time>2026-03-29T10:24:31.049Z</time></trkpt><trkpt lat="44.3745625" lon="11.0755123"><ele>489.0</ele><time>2026-03-29T10:24:33.049Z</time></trkpt><trkpt lat="44.3746301" lon="11.0756383"><ele>489.0</ele><time>2026-03-29T10:24:34.049Z</time></trkpt><trkpt lat="44.3746684" lon="11.0757517"><ele>489.0</ele><time>2026-03-29T10:24:35.049Z</time></trkpt><trkpt lat="44.3747186" lon="11.0758792"><ele>489.0</ele><time>2026-03-29T10:24:36.048Z</time></trkpt><trkpt lat="44.3747813" lon="11.0760017"><ele>489.0</ele><time>2026-03-29T10:24:37.049Z</time></trkpt><trkpt lat="44.3748317" lon="11.0761153"><ele>489.0</ele><time>2026-03-29T10:24:38.049Z</time></trkpt><trkpt lat="44.374878" lon="11.0761976"><ele>490.1666666666667</ele><time>2026-03-29T10:24:39.048Z</time></trkpt><trkpt lat="44.3748682" lon="11.0763072"><ele>491.33333333333337</ele><time>2026-03-29T10:24:40.049Z</time></trkpt><trkpt lat="44.3748898" lon="11.076432"><ele>492.5</ele><time>2026-03-29T10:24:41.049Z</time></trkpt><trkpt lat="44.3749204" lon="11.0765552"><ele>493.6666666666667</ele><time>2026-03-29T10:24:42.049Z</time></trkpt><trkpt lat="44.3749321" lon="11.0766789"><ele>494.83333333333337</ele><time>2026-03-29T10:24:43.049Z</time></trkpt><trkpt lat="44.3749095" lon="11.0767836"><ele>496.0</ele><time>2026-03-29T10:24:44.048Z</time></trkpt><trkpt lat="44.3748685" lon="11.0768851"><ele>496.6</ele><time>2026-03-29T10:24:45.049Z</time></trkpt><trkpt lat="44.3748381" lon="11.0769948"><ele>497.20000000000005</ele><time>2026-03-29T10:24:46.049Z</time></trkpt><trkpt lat="44.3748276" lon="11.0771197"><ele>497.79999999999995</ele><time>2026-03-29T10:24:47.049Z</time></trkpt><trkpt lat="44.3748175" lon="11.0772437"><ele>498.4</ele><time>2026-03-29T10:24:48.049Z</time></trkpt><trkpt lat="44.3748537" lon="11.0774022"><ele>499.0</ele><time>2026-03-29T10:24:49.049Z</time></trkpt><trkpt lat="44.3748766" lon="11.0775467"><ele>499.0</ele><time>2026-03-29T10:24:50.048Z</time></trkpt><trkpt lat="44.3749001" lon="11.0776899"><ele>499.0</ele><time>2026-03-29T10:24:51.049Z</time></trkpt><trkpt lat="44.3748905" lon="11.0778057"><ele>499.0</ele><time>2026-03-29T10:24:52.049Z</time></trkpt><trkpt lat="44.3748452" lon="11.0779283"><ele>499.0</ele><time>2026-03-29T10:24:53.049Z</time></trkpt><trkpt lat="44.3748084" lon="11.0780477"><ele>499.0</ele><time>2026-03-29T10:24:54.048Z</time></trkpt><trkpt lat="44.3747932" lon="11.0781513"><ele>499.00000000000006</ele><time>2026-03-29T10:24:55.049Z</time></trkpt><trkpt lat="44.3747943" lon="11.078267"><ele>499.0</ele><time>2026-03-29T10:24:56.048Z</time></trkpt><trkpt lat="44.374782" lon="11.0783837"><ele>499.0</ele><time>2026-03-29T10:24:57.049Z</time></trkpt><trkpt lat="44.3747829" lon="11.078499"><ele>499.0</ele><time>2026-03-29T10:24:58.049Z</time></trkpt><trkpt lat="44.3747792" lon="11.0786101"><ele>499.00000000000006</ele><time>2026-03-29T10:24:59.048Z</time></trkpt><trkpt lat="44.3747552" lon="11.0787078"><ele>499.0</ele><time>2026-03-29T10:25:00.048Z</time></trkpt><trkpt lat="44.3747393" lon="11.0788272"><ele>499.50000000000006</ele><time>2026-03-29T10:25:01.048Z</time></trkpt><trkpt lat="44.3747488" lon="11.0789838"><ele>500.0</ele><time>2026-03-29T10:25:02.049Z</time></trkpt><trkpt lat="44.3747536" lon="11.0791041"><ele>500.5</ele><time>2026-03-29T10:25:03.048Z</time></trkpt><trkpt lat="44.374783" lon="11.0792095"><ele>501.0</ele><time>2026-03-29T10:25:04.048Z</time></trkpt><trkpt lat="44.3748283" lon="11.0793205"><ele>501.50000000000006</ele><time>2026-03-29T10:25:05.049Z</time></trkpt><trkpt lat="44.374868" lon="11.0794145"><ele>502.0</ele><time>2026-03-29T10:25:06.049Z</time></trkpt><trkpt lat="44.3749292" lon="11.0794855"><ele>503.20000000000005</ele><time>2026-03-29T10:25:07.049Z</time></trkpt><trkpt lat="44.3750045" lon="11.07953"><ele>504.40000000000003</ele><time>2026-03-29T10:25:08.048Z</time></trkpt><trkpt lat="44.3750618" lon="11.0796218"><ele>505.59999999999997</ele><time>2026-03-29T10:25:09.049Z</time></trkpt><trkpt lat="44.3751487" lon="11.0796408"><ele>506.79999999999995</ele><time>2026-03-29T10:25:10.049Z</time></trkpt><trkpt lat="44.3752239" lon="11.0797385"><ele>508.0</ele><time>2026-03-29T10:25:12.048Z</time></trkpt><trkpt lat="44.3752738" lon="11.0798896"><ele>509.59999999999997</ele><time>2026-03-29T10:25:14.048Z</time></trkpt><trkpt lat="44.3752405" lon="11.0800329"><ele>511.19999999999993</ele><time>2026-03-29T10:25:15.049Z</time></trkpt><trkpt lat="44.3752168" lon="11.0801596"><ele>512.8</ele><time>2026-03-29T10:25:16.048Z</time></trkpt><trkpt lat="44.3752162" lon="11.0803037"><ele>514.4</ele><time>2026-03-29T10:25:17.049Z</time></trkpt><trkpt lat="44.3752372" lon="11.0804482"><ele>516.0</ele><time>2026-03-29T10:25:18.048Z</time></trkpt><trkpt lat="44.3752584" lon="11.08061"><ele>516.0</ele><time>2026-03-29T10:25:19.049Z</time></trkpt><trkpt lat="44.3752819" lon="11.0807603"><ele>516.0</ele><time>2026-03-29T10:25:20.049Z</time></trkpt><trkpt lat="44.3753078" lon="11.0808956"><ele>516.0</ele><time>2026-03-29T10:25:21.049Z</time></trkpt><trkpt lat="44.3753144" lon="11.0810111"><ele>516.0</ele><time>2026-03-29T10:25:22.048Z</time></trkpt><trkpt lat="44.3753029" lon="11.0811488"><ele>516.0</ele><time>2026-03-29T10:25:24.048Z</time></trkpt><trkpt lat="44.3752852" lon="11.0812944"><ele>516.6666666666666</ele><time>2026-03-29T10:25:26.049Z</time></trkpt><trkpt lat="44.3752738" lon="11.0813925"><ele>517.3333333333334</ele><time>2026-03-29T10:25:27.049Z</time></trkpt><trkpt lat="44.3752651" lon="11.081511"><ele>518.0</ele><time>2026-03-29T10:25:28.048Z</time></trkpt><trkpt lat="44.375284" lon="11.0815951"><ele>518.6666666666667</ele><time>2026-03-29T10:25:29.049Z</time></trkpt><trkpt lat="44.3753345" lon="11.0816799"><ele>519.3333333333334</ele><time>2026-03-29T10:25:30.049Z</time></trkpt><trkpt lat="44.375386" lon="11.0817661"><ele>520.0</ele><time>2026-03-29T10:25:31.048Z</time></trkpt><trkpt lat="44.3754965" lon="11.0817778"><ele>521.6666666666667</ele><time>2026-03-29T10:25:32.048Z</time></trkpt><trkpt lat="44.375574" lon="11.0818322"><ele>523.3333333333334</ele><time>2026-03-29T10:25:33.048Z</time></trkpt><trkpt lat="44.3756344" lon="11.0818912"><ele>525.0</ele><time>2026-03-29T10:25:34.049Z</time></trkpt><trkpt lat="44.3756502" lon="11.0819861"><ele>526.6666666666666</ele><time>2026-03-29T10:25:36.048Z</time></trkpt><trkpt lat="44.3755859" lon="11.0820781"><ele>528.3333333333333</ele><time>2026-03-29T10:25:38.049Z</time></trkpt><trkpt lat="44.3755197" lon="11.082093"><ele>530.0</ele><time>2026-03-29T10:25:39.049Z</time></trkpt><trkpt lat="44.3754252" lon="11.0821159"><ele>530.0</ele><time>2026-03-29T10:25:40.049Z</time></trkpt><trkpt lat="44.3753319" lon="11.0821468"><ele>530.0</ele><time>2026-03-29T10:25:41.049Z</time></trkpt><trkpt lat="44.3752494" lon="11.0821806"><ele>530.0</ele><time>2026-03-29T10:25:42.048Z</time></trkpt><trkpt lat="44.3751897" lon="11.0822356"><ele>530.0</ele><time>2026-03-29T10:25:43.048Z</time></trkpt><trkpt lat="44.3751442" lon="11.0823258"><ele>530.0</ele><time>2026-03-29T10:25:44.048Z</time></trkpt><trkpt lat="44.3751133" lon="11.0824463"><ele>530.0</ele><time>2026-03-29T10:25:45.048Z</time></trkpt><trkpt lat="44.3750863" lon="11.0825999"><ele>533.8</ele><time>2026-03-29T10:25:46.048Z</time></trkpt><trkpt lat="44.3750589" lon="11.0827612"><ele>537.6</ele><time>2026-03-29T10:25:47.049Z</time></trkpt><trkpt lat="44.3750298" lon="11.082903"><ele>541.4</ele><time>2026-03-29T10:25:48.049Z</time></trkpt><trkpt lat="44.3750118" lon="11.0829992"><ele>545.2</ele><time>2026-03-29T10:25:49.049Z</time></trkpt><trkpt lat="44.3749434" lon="11.0831201"><ele>549.0</ele><time>2026-03-29T10:25:51.048Z</time></trkpt><trkpt lat="44.3748957" lon="11.0831862"><ele>549.4</ele><time>2026-03-29T10:25:52.049Z</time></trkpt><trkpt lat="44.3748463" lon="11.0832686"><ele>549.8</ele><time>2026-03-29T10:25:53.049Z</time></trkpt><trkpt lat="44.3747982" lon="11.0833259"><ele>550.2</ele><time>2026-03-29T10:25:54.049Z</time></trkpt><trkpt lat="44.374666" lon="11.083456"><ele>550.6</ele><time>2026-03-29T10:25:57.048Z</time></trkpt><trkpt lat="44.3745757" lon="11.0835609"><ele>551.0</ele><time>2026-03-29T10:25:59.049Z</time></trkpt><trkpt lat="44.3744811" lon="11.0836751"><ele>551.0</ele><time>2026-03-29T10:26:01.049Z</time></trkpt><trkpt lat="44.3744337" lon="11.0837352"><ele>551.0</ele><time>2026-03-29T10:26:02.049Z</time></trkpt><trkpt lat="44.3743525" lon="11.0838522"><ele>551.0</ele><time>2026-03-29T10:26:04.048Z</time></trkpt><trkpt lat="44.3743155" lon="11.0839275"><ele>551.0</ele><time>2026-03-29T10:27:31.048Z</time></trkpt><trkpt lat="44.3742691" lon="11.0840187"><ele>551.0</ele><time>2026-03-29T10:27:33.049Z</time></trkpt><trkpt lat="44.3741769" lon="11.0841682"><ele>553.0</ele><time>2026-03-29T10:27:35.048Z</time></trkpt><trkpt lat="44.3741188" lon="11.0842568"><ele>555.0</ele><time>2026-03-29T10:27:36.049Z</time></trkpt><trkpt lat="44.3740602" lon="11.0843345"><ele>557.0</ele><time>2026-03-29T10:27:37.049Z</time></trkpt><trkpt lat="44.3739936" lon="11.0844241"><ele>559.0</ele><time>2026-03-29T10:27:38.049Z</time></trkpt><trkpt lat="44.3739286" lon="11.0845046"><ele>561.0</ele><time>2026-03-29T10:27:39.049Z</time></trkpt><trkpt lat="44.3738559" lon="11.0845737"><ele>563.0</ele><time>2026-03-29T10:27:40.048Z</time></trkpt><trkpt lat="44.373768" lon="11.0846265"><ele>564.0</ele><time>2026-03-29T10:27:41.049Z</time></trkpt><trkpt lat="44.3736811" lon="11.0846821"><ele>565.0</ele><time>2026-03-29T10:27:42.049Z</time></trkpt><trkpt lat="44.3735915" lon="11.0847375"><ele>566.0</ele><time>2026-03-29T10:27:43.049Z</time></trkpt><trkpt lat="44.3735067" lon="11.0848054"><ele>567.0</ele><time>2026-03-29T10:27:44.049Z</time></trkpt><trkpt lat="44.3734259" lon="11.0848883"><ele>568.0</ele><time>2026-03-29T10:27:45.049Z</time></trkpt><trkpt lat="44.3733565" lon="11.0849894"><ele>571.1999999999999</ele><time>2026-03-29T10:27:46.049Z</time></trkpt><trkpt lat="44.3732888" lon="11.0851001"><ele>574.4</ele><time>2026-03-29T10:27:47.049Z</time></trkpt><trkpt lat="44.3732367" lon="11.0852215"><ele>577.5999999999999</ele><time>2026-03-29T10:27:48.049Z</time></trkpt><trkpt lat="44.3731838" lon="11.0853413"><ele>580.8</ele><time>2026-03-29T10:27:49.049Z</time></trkpt><trkpt lat="44.3731358" lon="11.0854818"><ele>584.0</ele><time>2026-03-29T10:27:50.048Z</time></trkpt><trkpt lat="44.3730871" lon="11.085612"><ele>584.0</ele><time>2026-03-29T10:27:51.049Z</time></trkpt><trkpt lat="44.3730477" lon="11.0857519"><ele>584.0</ele><time>2026-03-29T10:27:52.048Z</time></trkpt><trkpt lat="44.3730323" lon="11.0859043"><ele>584.0</ele><time>2026-03-29T10:27:53.049Z</time></trkpt><trkpt lat="44.3730401" lon="11.0860709"><ele>584.0</ele><time>2026-03-29T10:27:54.049Z</time></trkpt><trkpt lat="44.3730334" lon="11.0862572"><ele>585.0</ele><time>2026-03-29T10:27:55.048Z</time></trkpt><trkpt lat="44.3730286" lon="11.0864643"><ele>586.0</ele><time>2026-03-29T10:27:56.049Z</time></trkpt><trkpt lat="44.3730219" lon="11.0866616"><ele>587.0</ele><time>2026-03-29T10:27:57.049Z</time></trkpt><trkpt lat="44.3730141" lon="11.0868553"><ele>588.0</ele><time>2026-03-29T10:27:58.049Z</time></trkpt><trkpt lat="44.3730124" lon="11.0870415"><ele>588.0</ele><time>2026-03-29T10:27:59.049Z</time></trkpt><trkpt lat="44.3730046" lon="11.0872131"><ele>588.0</ele><time>2026-03-29T10:28:00.048Z</time></trkpt><trkpt lat="44.3729865" lon="11.0873731"><ele>588.0</ele><time>2026-03-29T10:28:01.049Z</time></trkpt><trkpt lat="44.3729618" lon="11.0875277"><ele>588.0</ele><time>2026-03-29T10:28:02.049Z</time></trkpt><trkpt lat="44.3729231" lon="11.0876826"><ele>588.0</ele><time>2026-03-29T10:28:03.049Z</time></trkpt><trkpt lat="44.3728651" lon="11.0878347"><ele>588.0</ele><time>2026-03-29T10:28:04.049Z</time></trkpt><trkpt lat="44.3727956" lon="11.08799"><ele>588.0</ele><time>2026-03-29T10:28:05.048Z</time></trkpt><trkpt lat="44.3727319" lon="11.0881752"><ele>588.0</ele><time>2026-03-29T10:28:06.048Z</time></trkpt><trkpt lat="44.3726688" lon="11.0883654"><ele>590.75</ele><time>2026-03-29T10:28:07.049Z</time></trkpt><trkpt lat="44.3726066" lon="11.0885551"><ele>593.5</ele><time>2026-03-29T10:28:08.049Z</time></trkpt><trkpt lat="44.3725501" lon="11.0887378"><ele>596.25</ele><time>2026-03-29T10:28:09.049Z</time></trkpt><trkpt lat="44.3724816" lon="11.0889119"><ele>599.0</ele><time>2026-03-29T10:28:10.049Z</time></trkpt><trkpt lat="44.3724185" lon="11.0890757"><ele>600.8</ele><time>2026-03-29T10:28:11.049Z</time></trkpt><trkpt lat="44.37237" lon="11.0892252"><ele>602.5999999999999</ele><time>2026-03-29T10:28:12.049Z</time></trkpt><trkpt lat="44.3723512" lon="11.0893729"><ele>604.4</ele><time>2026-03-29T10:28:13.049Z</time></trkpt><trkpt lat="44.3723445" lon="11.0895254"><ele>606.1999999999999</ele><time>2026-03-29T10:28:14.049Z</time></trkpt><trkpt lat="44.3723356" lon="11.0896781"><ele>608.0</ele><time>2026-03-29T10:28:15.048Z</time></trkpt><trkpt lat="44.3723229" lon="11.0898299"><ele>610.0</ele><time>2026-03-29T10:28:16.049Z</time></trkpt><trkpt lat="44.3723043" lon="11.0899824"><ele>612.0</ele><time>2026-03-29T10:28:17.049Z</time></trkpt><trkpt lat="44.3722842" lon="11.0901302"><ele>614.0</ele><time>2026-03-29T10:28:18.049Z</time></trkpt><trkpt lat="44.3722602" lon="11.0902815"><ele>616.0</ele><time>2026-03-29T10:28:19.048Z</time></trkpt><trkpt lat="44.3722343" lon="11.0904214"><ele>618.0</ele><time>2026-03-29T10:28:20.049Z</time></trkpt><trkpt lat="44.3722067" lon="11.0905561"><ele>617.6666666666666</ele><time>2026-03-29T10:28:21.049Z</time></trkpt><trkpt lat="44.3721882" lon="11.0906762"><ele>617.3333333333334</ele><time>2026-03-29T10:28:22.048Z</time></trkpt><trkpt lat="44.3721622" lon="11.0908069"><ele>617.0</ele><time>2026-03-29T10:28:23.049Z</time></trkpt><trkpt lat="44.3721347" lon="11.0909242"><ele>616.6666666666667</ele><time>2026-03-29T10:28:24.049Z</time></trkpt><trkpt lat="44.3721149" lon="11.0910394"><ele>616.3333333333334</ele><time>2026-03-29T10:28:25.048Z</time></trkpt><trkpt lat="44.3721201" lon="11.0911654"><ele>616.0</ele><time>2026-03-29T10:28:26.048Z</time></trkpt><trkpt lat="44.3721352" lon="11.091296"><ele>617.6</ele><time>2026-03-29T10:28:27.048Z</time></trkpt><trkpt lat="44.3721513" lon="11.0914391"><ele>619.2</ele><time>2026-03-29T10:28:28.049Z</time></trkpt><trkpt lat="44.372164" lon="11.0915933"><ele>620.8</ele><time>2026-03-29T10:28:29.049Z</time></trkpt><trkpt lat="44.3721662" lon="11.0917519"><ele>622.4</ele><time>2026-03-29T10:28:30.049Z</time></trkpt><trkpt lat="44.3721616" lon="11.0919157"><ele>624.0</ele><time>2026-03-29T10:28:31.049Z</time></trkpt><trkpt lat="44.3721599" lon="11.0920639"><ele>624.0</ele><time>2026-03-29T10:28:32.049Z</time></trkpt><trkpt lat="44.3721652" lon="11.0921946"><ele>624.0</ele><time>2026-03-29T10:28:33.049Z</time></trkpt><trkpt lat="44.3721745" lon="11.0922861"><ele>624.0</ele><time>2026-03-29T10:28:35.049Z</time></trkpt><trkpt lat="44.3721502" lon="11.0923755"><ele>624.0</ele><time>2026-03-29T10:28:42.049Z</time></trkpt><trkpt lat="44.372112" lon="11.0922631"><ele>624.0</ele><time>2026-03-29T10:28:45.049Z</time></trkpt><trkpt lat="44.3721696" lon="11.0922097"><ele>624.0</ele><time>2026-03-29T10:28:49.049Z</time></trkpt><trkpt lat="44.3722323" lon="11.092286"><ele>624.3333333333334</ele><time>2026-03-29T10:28:51.049Z</time></trkpt><trkpt lat="44.3722773" lon="11.0923546"><ele>624.6666666666666</ele><time>2026-03-29T10:28:52.049Z</time></trkpt><trkpt lat="44.3723265" lon="11.0924623"><ele>625.0</ele><time>2026-03-29T10:28:53.049Z</time></trkpt><trkpt lat="44.3723793" lon="11.0925808"><ele>625.3333333333333</ele><time>2026-03-29T10:28:54.049Z</time></trkpt><trkpt lat="44.3724219" lon="11.0926805"><ele>625.6666666666666</ele><time>2026-03-29T10:28:55.049Z</time></trkpt><trkpt lat="44.372447" lon="11.0927618"><ele>626.0</ele><time>2026-03-29T10:28:56.048Z</time></trkpt><trkpt lat="44.3724434" lon="11.0929221"><ele>626.0</ele><time>2026-03-29T10:28:58.049Z</time></trkpt><trkpt lat="44.3724253" lon="11.0930275"><ele>626.0</ele><time>2026-03-29T10:28:59.049Z</time></trkpt><trkpt lat="44.3724111" lon="11.0931581"><ele>626.0</ele><time>2026-03-29T10:29:00.048Z</time></trkpt><trkpt lat="44.3724078" lon="11.0933083"><ele>626.0</ele><time>2026-03-29T10:29:01.048Z</time></trkpt><trkpt lat="44.3723977" lon="11.0934483"><ele>626.0</ele><time>2026-03-29T10:29:02.049Z</time></trkpt><trkpt lat="44.3723912" lon="11.0935845"><ele>626.8</ele><time>2026-03-29T10:29:03.048Z</time></trkpt><trkpt lat="44.3723873" lon="11.0937306"><ele>627.6</ele><time>2026-03-29T10:29:04.048Z</time></trkpt><trkpt lat="44.3723781" lon="11.0938518"><ele>628.4</ele><time>2026-03-29T10:29:05.049Z</time></trkpt><trkpt lat="44.3723712" lon="11.0939822"><ele>629.2</ele><time>2026-03-29T10:29:06.049Z</time></trkpt><trkpt lat="44.3723678" lon="11.0941222"><ele>630.0</ele><time>2026-03-29T10:29:07.049Z</time></trkpt><trkpt lat="44.3723661" lon="11.0942636"><ele>631.6</ele><time>2026-03-29T10:29:08.048Z</time></trkpt><trkpt lat="44.3723664" lon="11.094415"><ele>633.2</ele><time>2026-03-29T10:29:09.049Z</time></trkpt><trkpt lat="44.3723752" lon="11.0945132"><ele>634.8</ele><time>2026-03-29T10:29:10.048Z</time></trkpt><trkpt lat="44.372401" lon="11.0946696"><ele>636.4</ele><time>2026-03-29T10:29:11.049Z</time></trkpt><trkpt lat="44.3724119" lon="11.094799"><ele>638.0</ele><time>2026-03-29T10:29:12.048Z</time></trkpt><trkpt lat="44.3724194" lon="11.0949351"><ele>638.8</ele><time>2026-03-29T10:29:13.049Z</time></trkpt><trkpt lat="44.3724151" lon="11.0950489"><ele>639.5999999999999</ele><time>2026-03-29T10:29:14.048Z</time></trkpt><trkpt lat="44.3724036" lon="11.0951911"><ele>640.4000000000001</ele><time>2026-03-29T10:29:15.048Z</time></trkpt><trkpt lat="44.372398" lon="11.0953345"><ele>641.2</ele><time>2026-03-29T10:29:16.048Z</time></trkpt><trkpt lat="44.3723759" lon="11.0954519"><ele>642.0</ele><time>2026-03-29T10:29:17.049Z</time></trkpt><trkpt lat="44.3723552" lon="11.0955785"><ele>642.0</ele><time>2026-03-29T10:29:18.048Z</time></trkpt><trkpt lat="44.3723126" lon="11.095718"><ele>642.0</ele><time>2026-03-29T10:29:19.048Z</time></trkpt><trkpt lat="44.3722799" lon="11.0958322"><ele>642.0</ele><time>2026-03-29T10:29:20.049Z</time></trkpt><trkpt lat="44.3722799" lon="11.0959826"><ele>642.0</ele><time>2026-03-29T10:29:22.049Z</time></trkpt><trkpt lat="44.3723101" lon="11.0961413"><ele>642.0</ele><time>2026-03-29T10:29:24.049Z</time></trkpt><trkpt lat="44.3723133" lon="11.0962607"><ele>644.4000000000001</ele><time>2026-03-29T10:29:26.048Z</time></trkpt><trkpt lat="44.3723043" lon="11.0964133"><ele>646.8000000000001</ele><time>2026-03-29T10:29:28.049Z</time></trkpt><trkpt lat="44.3723071" lon="11.0965807"><ele>649.2</ele><time>2026-03-29T10:29:30.048Z</time></trkpt><trkpt lat="44.3723265" lon="11.0966715"><ele>651.6</ele><time>2026-03-29T10:29:31.049Z</time></trkpt><trkpt lat="44.3723473" lon="11.096766"><ele>654.0</ele><time>2026-03-29T10:29:32.048Z</time></trkpt><trkpt lat="44.3723737" lon="11.0969401"><ele>654.8333333333334</ele><time>2026-03-29T10:29:34.049Z</time></trkpt><trkpt lat="44.3723963" lon="11.0970288"><ele>655.6666666666666</ele><time>2026-03-29T10:29:35.049Z</time></trkpt><trkpt lat="44.3724314" lon="11.0971091"><ele>656.5</ele><time>2026-03-29T10:29:36.048Z</time></trkpt><trkpt lat="44.3724852" lon="11.0972141"><ele>657.3333333333333</ele><time>2026-03-29T10:29:37.049Z</time></trkpt><trkpt lat="44.3725518" lon="11.0973173"><ele>658.1666666666666</ele><time>2026-03-29T10:29:38.048Z</time></trkpt><trkpt lat="44.3726053" lon="11.0974418"><ele>659.0</ele><time>2026-03-29T10:29:39.049Z</time></trkpt><trkpt lat="44.372638" lon="11.0975525"><ele>659.7142857142858</ele><time>2026-03-29T10:29:40.049Z</time></trkpt><trkpt lat="44.3726604" lon="11.0976571"><ele>660.4285714285713</ele><time>2026-03-29T10:29:41.049Z</time></trkpt><trkpt lat="44.3726761" lon="11.0977433"><ele>661.1428571428571</ele><time>2026-03-29T10:29:42.049Z</time></trkpt><trkpt lat="44.3726884" lon="11.0978297"><ele>661.8571428571429</ele><time>2026-03-29T10:29:43.049Z</time></trkpt><trkpt lat="44.3727003" lon="11.0979183"><ele>662.5714285714287</ele><time>2026-03-29T10:29:44.049Z</time></trkpt><trkpt lat="44.3727131" lon="11.0980513"><ele>663.2857142857142</ele><time>2026-03-29T10:29:46.049Z</time></trkpt><trkpt lat="44.3727185" lon="11.0981593"><ele>664.0</ele><time>2026-03-29T10:29:48.048Z</time></trkpt><trkpt lat="44.3727372" lon="11.0982454"><ele>664.0</ele><time>2026-03-29T10:29:51.049Z</time></trkpt><trkpt lat="44.3727995" lon="11.0982675"><ele>664.0</ele><time>2026-03-29T10:30:27.048Z</time></trkpt><trkpt lat="44.3727147" lon="11.0982434"><ele>664.0</ele><time>2026-03-29T10:30:31.049Z</time></trkpt><trkpt lat="44.372677" lon="11.098339"><ele>664.0</ele><time>2026-03-29T10:30:34.048Z</time></trkpt><trkpt lat="44.3726371" lon="11.0984677"><ele>664.0</ele><time>2026-03-29T10:30:36.048Z</time></trkpt><trkpt lat="44.3725838" lon="11.0985894"><ele>664.0</ele><time>2026-03-29T10:30:38.049Z</time></trkpt><trkpt lat="44.3725144" lon="11.0987071"><ele>665.0</ele><time>2026-03-29T10:30:40.049Z</time></trkpt><trkpt lat="44.3724388" lon="11.0988206"><ele>666.0</ele><time>2026-03-29T10:30:42.049Z</time></trkpt><trkpt lat="44.3723989" lon="11.0988921"><ele>667.0</ele><time>2026-03-29T10:30:43.049Z</time></trkpt><trkpt lat="44.3723436" lon="11.0990438"><ele>668.0</ele><time>2026-03-29T10:30:45.048Z</time></trkpt><trkpt lat="44.3723155" lon="11.0991306"><ele>669.0</ele><time>2026-03-29T10:30:46.048Z</time></trkpt><trkpt lat="44.372279" lon="11.099293"><ele>670.8333333333334</ele><time>2026-03-29T10:30:48.049Z</time></trkpt><trkpt lat="44.3722502" lon="11.099453"><ele>672.6666666666666</ele><time>2026-03-29T10:30:50.049Z</time></trkpt><trkpt lat="44.3722378" lon="11.0995847"><ele>674.5</ele><time>2026-03-29T10:30:52.049Z</time></trkpt><trkpt lat="44.3723089" lon="11.099634"><ele>676.3333333333333</ele><time>2026-03-29T10:36:39.048Z</time></trkpt><trkpt lat="44.3723732" lon="11.0996555"><ele>678.1666666666666</ele><time>2026-03-29T10:36:41.048Z</time></trkpt><trkpt lat="44.3724322" lon="11.0997009"><ele>680.0</ele><time>2026-03-29T10:36:43.048Z</time></trkpt><trkpt lat="44.3724814" lon="11.0997639"><ele>680.0</ele><time>2026-03-29T10:36:45.048Z</time></trkpt><trkpt lat="44.3725463" lon="11.0998405"><ele>680.0</ele><time>2026-03-29T10:36:47.049Z</time></trkpt><trkpt lat="44.3725964" lon="11.0999569"><ele>680.0</ele><time>2026-03-29T10:36:49.048Z</time></trkpt><trkpt lat="44.3726268" lon="11.1001024"><ele>680.0</ele><time>2026-03-29T10:36:51.049Z</time></trkpt><trkpt lat="44.3726374" lon="11.1002559"><ele>680.0</ele><time>2026-03-29T10:36:53.049Z</time></trkpt><trkpt lat="44.3726365" lon="11.1004204"><ele>681.8333333333333</ele><time>2026-03-29T10:36:55.048Z</time></trkpt><trkpt lat="44.3726335" lon="11.1005861"><ele>683.6666666666666</ele><time>2026-03-29T10:36:57.049Z</time></trkpt><trkpt lat="44.3726218" lon="11.100726"><ele>685.5</ele><time>2026-03-29T10:36:59.049Z</time></trkpt><trkpt lat="44.3726083" lon="11.1008258"><ele>687.3333333333334</ele><time>2026-03-29T10:37:01.049Z</time></trkpt><trkpt lat="44.3726293" lon="11.1009276"><ele>689.1666666666667</ele><time>2026-03-29T10:37:09.048Z</time></trkpt><trkpt lat="44.3726193" lon="11.1010284"><ele>691.0</ele><time>2026-03-29T10:37:11.048Z</time></trkpt><trkpt lat="44.3725875" lon="11.1011531"><ele>692.8333333333334</ele><time>2026-03-29T10:37:13.049Z</time></trkpt><trkpt lat="44.3725345" lon="11.1013105"><ele>694.6666666666667</ele><time>2026-03-29T10:37:15.049Z</time></trkpt><trkpt lat="44.3725067" lon="11.1013938"><ele>696.5</ele><time>2026-03-29T10:37:16.048Z</time></trkpt><trkpt lat="44.3724693" lon="11.101471"><ele>698.3333333333334</ele><time>2026-03-29T10:37:17.049Z</time></trkpt><trkpt lat="44.3724355" lon="11.1015466"><ele>700.1666666666666</ele><time>2026-03-29T10:37:18.049Z</time></trkpt><trkpt lat="44.3723901" lon="11.1016842"><ele>702.0</ele><time>2026-03-29T10:37:20.049Z</time></trkpt><trkpt lat="44.3723638" lon="11.1017667"><ele>702.8333333333334</ele><time>2026-03-29T10:37:21.049Z</time></trkpt><trkpt lat="44.3722954" lon="11.1018914"><ele>703.6666666666666</ele><time>2026-03-29T10:37:23.049Z</time></trkpt><trkpt lat="44.3722232" lon="11.1019707"><ele>704.5</ele><time>2026-03-29T10:37:25.049Z</time></trkpt><trkpt lat="44.3721692" lon="11.102039"><ele>705.3333333333333</ele><time>2026-03-29T10:37:27.049Z</time></trkpt><trkpt lat="44.3721049" lon="11.1021037"><ele>706.1666666666666</ele><time>2026-03-29T10:38:29.049Z</time></trkpt><trkpt lat="44.3720456" lon="11.1021353"><ele>707.0</ele><time>2026-03-29T10:38:30.049Z</time></trkpt><trkpt lat="44.3719696" lon="11.1021649"><ele>707.5</ele><time>2026-03-29T10:38:31.049Z</time></trkpt><trkpt lat="44.371873" lon="11.1021919"><ele>708.0</ele><time>2026-03-29T10:38:32.049Z</time></trkpt><trkpt lat="44.3717554" lon="11.1022273"><ele>708.5</ele><time>2026-03-29T10:38:33.048Z</time></trkpt><trkpt lat="44.3716152" lon="11.1022861"><ele>709.0</ele><time>2026-03-29T10:38:34.049Z</time></trkpt><trkpt lat="44.3714582" lon="11.1023651"><ele>706.6666666666667</ele><time>2026-03-29T10:38:35.048Z</time></trkpt><trkpt lat="44.3712946" lon="11.1024518"><ele>704.3333333333334</ele><time>2026-03-29T10:38:36.048Z</time></trkpt><trkpt lat="44.3711214" lon="11.1025471"><ele>702.0</ele><time>2026-03-29T10:38:37.049Z</time></trkpt><trkpt lat="44.3709546" lon="11.1026285"><ele>702.0</ele><time>2026-03-29T10:38:38.049Z</time></trkpt><trkpt lat="44.3707957" lon="11.102709"><ele>702.0</ele><time>2026-03-29T10:38:39.048Z</time></trkpt><trkpt lat="44.3706493" lon="11.102792"><ele>702.0</ele><time>2026-03-29T10:38:40.049Z</time></trkpt><trkpt lat="44.3705089" lon="11.1028847"><ele>698.25</ele><time>2026-03-29T10:38:41.049Z</time></trkpt><trkpt lat="44.37038" lon="11.1029721"><ele>694.5</ele><time>2026-03-29T10:38:42.049Z</time></trkpt><trkpt lat="44.3702599" lon="11.1030604"><ele>690.75</ele><time>2026-03-29T10:38:43.049Z</time></trkpt><trkpt lat="44.3701438" lon="11.1031478"><ele>687.0</ele><time>2026-03-29T10:38:44.048Z</time></trkpt><trkpt lat="44.3700279" lon="11.1032397"><ele>687.0</ele><time>2026-03-29T10:38:45.049Z</time></trkpt><trkpt lat="44.3699197" lon="11.1033279"><ele>687.0</ele><time>2026-03-29T10:38:46.049Z</time></trkpt><trkpt lat="44.3698145" lon="11.1033979"><ele>687.0</ele><time>2026-03-29T10:38:47.049Z</time></trkpt><trkpt lat="44.369717" lon="11.1034646"><ele>687.0</ele><time>2026-03-29T10:38:48.049Z</time></trkpt><trkpt lat="44.3696257" lon="11.1035257"><ele>685.4000000000001</ele><time>2026-03-29T10:38:49.049Z</time></trkpt><trkpt lat="44.3695386" lon="11.1035828"><ele>683.8000000000001</ele><time>2026-03-29T10:38:50.049Z</time></trkpt><trkpt lat="44.3694559" lon="11.1036317"><ele>682.2</ele><time>2026-03-29T10:38:51.048Z</time></trkpt><trkpt lat="44.3693752" lon="11.1036816"><ele>680.6</ele><time>2026-03-29T10:38:52.049Z</time></trkpt><trkpt lat="44.3692953" lon="11.1037379"><ele>679.0</ele><time>2026-03-29T10:38:53.048Z</time></trkpt><trkpt lat="44.3692098" lon="11.1038045"><ele>679.0</ele><time>2026-03-29T10:38:54.048Z</time></trkpt><trkpt lat="44.3691236" lon="11.1038778"><ele>679.0</ele><time>2026-03-29T10:38:55.048Z</time></trkpt><trkpt lat="44.3690304" lon="11.1039603"><ele>679.0</ele><time>2026-03-29T10:38:56.049Z</time></trkpt><trkpt lat="44.3689339" lon="11.1040441"><ele>679.0</ele><time>2026-03-29T10:38:57.048Z</time></trkpt><trkpt lat="44.3688281" lon="11.1041229"><ele>679.0</ele><time>2026-03-29T10:38:58.049Z</time></trkpt><trkpt lat="44.3687132" lon="11.1041917"><ele>679.0</ele><time>2026-03-29T10:38:59.048Z</time></trkpt><trkpt lat="44.3685936" lon="11.1042516"><ele>679.0</ele><time>2026-03-29T10:39:00.048Z</time></trkpt><trkpt lat="44.36847" lon="11.1043024"><ele>679.0</ele><time>2026-03-29T10:39:01.049Z</time></trkpt><trkpt lat="44.368345" lon="11.1043527"><ele>679.0</ele><time>2026-03-29T10:39:02.048Z</time></trkpt><trkpt lat="44.3682351" lon="11.1043998"><ele>679.0</ele><time>2026-03-29T10:39:03.048Z</time></trkpt><trkpt lat="44.3681193" lon="11.1044491"><ele>679.0</ele><time>2026-03-29T10:39:04.048Z</time></trkpt><trkpt lat="44.368006" lon="11.1044938"><ele>679.0</ele><time>2026-03-29T10:39:05.049Z</time></trkpt><trkpt lat="44.3678958" lon="11.1045448"><ele>679.0</ele><time>2026-03-29T10:39:06.048Z</time></trkpt><trkpt lat="44.3677926" lon="11.1045926"><ele>679.4000000000001</ele><time>2026-03-29T10:39:07.048Z</time></trkpt><trkpt lat="44.3676868" lon="11.1046348"><ele>679.8</ele><time>2026-03-29T10:39:08.049Z</time></trkpt><trkpt lat="44.367583" lon="11.104676"><ele>680.2</ele><time>2026-03-29T10:39:09.048Z</time></trkpt><trkpt lat="44.3674786" lon="11.1047236"><ele>680.5999999999999</ele><time>2026-03-29T10:39:10.049Z</time></trkpt><trkpt lat="44.3673711" lon="11.1047764"><ele>681.0</ele><time>2026-03-29T10:39:11.048Z</time></trkpt><trkpt lat="44.3672651" lon="11.1048278"><ele>680.8333333333334</ele><time>2026-03-29T10:39:12.048Z</time></trkpt><trkpt lat="44.3671697" lon="11.1048626"><ele>680.6666666666666</ele><time>2026-03-29T10:39:13.048Z</time></trkpt><trkpt lat="44.3670823" lon="11.104882"><ele>680.5</ele><time>2026-03-29T10:39:14.049Z</time></trkpt><trkpt lat="44.3670075" lon="11.1048929"><ele>680.3333333333333</ele><time>2026-03-29T10:39:15.049Z</time></trkpt><trkpt lat="44.3669362" lon="11.1049045"><ele>680.1666666666666</ele><time>2026-03-29T10:39:16.049Z</time></trkpt><trkpt lat="44.3668686" lon="11.10492"><ele>680.0</ele><time>2026-03-29T10:39:17.049Z</time></trkpt><trkpt lat="44.3667533" lon="11.1049397"><ele>681.0</ele><time>2026-03-29T10:39:19.049Z</time></trkpt><trkpt lat="44.3666725" lon="11.1049549"><ele>682.0</ele><time>2026-03-29T10:39:21.048Z</time></trkpt><trkpt lat="44.366762" lon="11.1049781"><ele>683.0</ele><time>2026-03-29T10:39:27.048Z</time></trkpt><trkpt lat="44.3668313" lon="11.104969"><ele>684.0</ele><time>2026-03-29T10:39:28.048Z</time></trkpt><trkpt lat="44.3668983" lon="11.1049621"><ele>685.0</ele><time>2026-03-29T10:39:29.049Z</time></trkpt><trkpt lat="44.3669981" lon="11.1049526"><ele>686.0</ele><time>2026-03-29T10:39:31.049Z</time></trkpt><trkpt lat="44.367041" lon="11.105023"><ele>686.0</ele><time>2026-03-29T10:39:34.049Z</time></trkpt><trkpt lat="44.3670684" lon="11.1051513"><ele>686.0</ele><time>2026-03-29T10:40:08.049Z</time></trkpt><trkpt lat="44.3670981" lon="11.105266"><ele>686.0</ele><time>2026-03-29T10:40:10.049Z</time></trkpt><trkpt lat="44.3671352" lon="11.105392"><ele>686.0</ele><time>2026-03-29T10:40:12.049Z</time></trkpt><trkpt lat="44.3671666" lon="11.1055239"><ele>686.0</ele><time>2026-03-29T10:40:14.049Z</time></trkpt><trkpt lat="44.367199" lon="11.1056836"><ele>684.8333333333333</ele><time>2026-03-29T10:40:16.049Z</time></trkpt><trkpt lat="44.3672193" lon="11.1057756"><ele>683.6666666666666</ele><time>2026-03-29T10:40:17.048Z</time></trkpt><trkpt lat="44.3672377" lon="11.1058636"><ele>682.5</ele><time>2026-03-29T10:40:18.048Z</time></trkpt><trkpt lat="44.3672528" lon="11.1059533"><ele>681.3333333333334</ele><time>2026-03-29T10:40:19.049Z</time></trkpt><trkpt lat="44.3672859" lon="11.1060968"><ele>680.1666666666667</ele><time>2026-03-29T10:40:21.049Z</time></trkpt><trkpt lat="44.3673116" lon="11.1062069"><ele>679.0</ele><time>2026-03-29T10:40:23.048Z</time></trkpt><trkpt lat="44.3673358" lon="11.1063349"><ele>679.0</ele><time>2026-03-29T10:40:25.049Z</time></trkpt><trkpt lat="44.3673707" lon="11.106483"><ele>679.0</ele><time>2026-03-29T10:40:27.049Z</time></trkpt><trkpt lat="44.3674015" lon="11.1066234"><ele>679.0</ele><time>2026-03-29T10:40:29.048Z</time></trkpt><trkpt lat="44.3673906" lon="11.1067108"><ele>679.0</ele><time>2026-03-29T10:40:43.048Z</time></trkpt><trkpt lat="44.3673318" lon="11.1066451"><ele>679.0</ele><time>2026-03-29T10:40:50.049Z</time></trkpt><trkpt lat="44.3673336" lon="11.1065523"><ele>679.0</ele><time>2026-03-29T10:40:52.049Z</time></trkpt><trkpt lat="44.3673231" lon="11.1064473"><ele>679.0</ele><time>2026-03-29T10:40:54.048Z</time></trkpt><trkpt lat="44.3672947" lon="11.106314"><ele>679.0</ele><time>2026-03-29T10:40:56.048Z</time></trkpt><trkpt lat="44.3672758" lon="11.1061768"><ele>679.0</ele><time>2026-03-29T10:40:58.049Z</time></trkpt><trkpt lat="44.36726" lon="11.1060627"><ele>679.0</ele><time>2026-03-29T10:41:00.048Z</time></trkpt><trkpt lat="44.3672441" lon="11.1059257"><ele>679.0</ele><time>2026-03-29T10:41:02.049Z</time></trkpt><trkpt lat="44.3672176" lon="11.1057835"><ele>680.75</ele><time>2026-03-29T10:41:04.048Z</time></trkpt><trkpt lat="44.367178" lon="11.1056334"><ele>682.5</ele><time>2026-03-29T10:41:06.048Z</time></trkpt><trkpt lat="44.3671454" lon="11.1054605"><ele>684.25</ele><time>2026-03-29T10:41:08.049Z</time></trkpt><trkpt lat="44.3671056" lon="11.1053057"><ele>686.0</ele><time>2026-03-29T10:41:10.048Z</time></trkpt><trkpt lat="44.3670731" lon="11.1051693"><ele>686.0</ele><time>2026-03-29T10:41:12.049Z</time></trkpt><trkpt lat="44.3670546" lon="11.1050508"><ele>686.0</ele><time>2026-03-29T10:41:14.049Z</time></trkpt><trkpt lat="44.3670452" lon="11.1049577"><ele>686.0</ele><time>2026-03-29T10:42:50.049Z</time></trkpt><trkpt lat="44.3669918" lon="11.1048958"><ele>686.0</ele><time>2026-03-29T10:42:54.049Z</time></trkpt><trkpt lat="44.3668707" lon="11.1049084"><ele>686.0</ele><time>2026-03-29T10:42:56.048Z</time></trkpt><trkpt lat="44.3667807" lon="11.1049214"><ele>686.0</ele><time>2026-03-29T10:42:57.048Z</time></trkpt><trkpt lat="44.366669" lon="11.104939"><ele>686.0</ele><time>2026-03-29T10:42:58.048Z</time></trkpt><trkpt lat="44.3665339" lon="11.1049549"><ele>686.0</ele><time>2026-03-29T10:42:59.049Z</time></trkpt><trkpt lat="44.366387" lon="11.1049712"><ele>686.0</ele><time>2026-03-29T10:43:00.048Z</time></trkpt><trkpt lat="44.3662197" lon="11.1049907"><ele>685.0</ele><time>2026-03-29T10:43:01.049Z</time></trkpt><trkpt lat="44.3660406" lon="11.1050139"><ele>684.0</ele><time>2026-03-29T10:43:02.049Z</time></trkpt><trkpt lat="44.365869" lon="11.1050382"><ele>683.0</ele><time>2026-03-29T10:43:03.049Z</time></trkpt><trkpt lat="44.3657137" lon="11.105064"><ele>683.0</ele><time>2026-03-29T10:43:04.049Z</time></trkpt><trkpt lat="44.365577" lon="11.1050879"><ele>683.0</ele><time>2026-03-29T10:43:05.049Z</time></trkpt><trkpt lat="44.3654522" lon="11.1051123"><ele>683.0</ele><time>2026-03-29T10:43:06.049Z</time></trkpt><trkpt lat="44.3653166" lon="11.1051335"><ele>683.0</ele><time>2026-03-29T10:43:07.048Z</time></trkpt><trkpt lat="44.3651814" lon="11.1051593"><ele>684.6666666666666</ele><time>2026-03-29T10:43:08.048Z</time></trkpt><trkpt lat="44.3650385" lon="11.1051871"><ele>686.3333333333334</ele><time>2026-03-29T10:43:09.048Z</time></trkpt><trkpt lat="44.3648836" lon="11.1052205"><ele>688.0</ele><time>2026-03-29T10:43:10.049Z</time></trkpt><trkpt lat="44.3647194" lon="11.1052528"><ele>688.3333333333334</ele><time>2026-03-29T10:43:11.049Z</time></trkpt><trkpt lat="44.3645662" lon="11.105285"><ele>688.6666666666666</ele><time>2026-03-29T10:43:12.049Z</time></trkpt><trkpt lat="44.3644173" lon="11.1053166"><ele>689.0</ele><time>2026-03-29T10:43:13.048Z</time></trkpt><trkpt lat="44.3642693" lon="11.1053533"><ele>689.0</ele><time>2026-03-29T10:43:14.049Z</time></trkpt><trkpt lat="44.3641221" lon="11.1053852"><ele>689.0</ele><time>2026-03-29T10:43:15.048Z</time></trkpt><trkpt lat="44.3639683" lon="11.1054226"><ele>689.0</ele><time>2026-03-29T10:43:16.049Z</time></trkpt><trkpt lat="44.3638083" lon="11.1054589"><ele>687.6666666666666</ele><time>2026-03-29T10:43:17.049Z</time></trkpt><trkpt lat="44.3636459" lon="11.105487"><ele>686.3333333333334</ele><time>2026-03-29T10:43:18.049Z</time></trkpt><trkpt lat="44.3634861" lon="11.105521"><ele>685.0</ele><time>2026-03-29T10:43:19.049Z</time></trkpt><trkpt lat="44.3633225" lon="11.105553"><ele>685.0</ele><time>2026-03-29T10:43:20.048Z</time></trkpt><trkpt lat="44.3631612" lon="11.1055814"><ele>685.0</ele><time>2026-03-29T10:43:21.048Z</time></trkpt><trkpt lat="44.3630022" lon="11.105606"><ele>685.0</ele><time>2026-03-29T10:43:22.048Z</time></trkpt><trkpt lat="44.3628448" lon="11.1056289"><ele>685.0</ele><time>2026-03-29T10:43:23.048Z</time></trkpt><trkpt lat="44.3626847" lon="11.1056568"><ele>685.0</ele><time>2026-03-29T10:43:24.048Z</time></trkpt><trkpt lat="44.3625183" lon="11.1056874"><ele>685.0</ele><time>2026-03-29T10:43:25.048Z</time></trkpt><trkpt lat="44.3623497" lon="11.1057199"><ele>685.6666666666667</ele><time>2026-03-29T10:43:26.049Z</time></trkpt><trkpt lat="44.3621794" lon="11.1057496"><ele>686.3333333333334</ele><time>2026-03-29T10:43:27.049Z</time></trkpt><trkpt lat="44.3620088" lon="11.1057837"><ele>687.0</ele><time>2026-03-29T10:43:28.049Z</time></trkpt><trkpt lat="44.3618475" lon="11.1058193"><ele>687.0</ele><time>2026-03-29T10:43:29.048Z</time></trkpt><trkpt lat="44.3616844" lon="11.1058487"><ele>687.0</ele><time>2026-03-29T10:43:30.049Z</time></trkpt><trkpt lat="44.3615189" lon="11.1058865"><ele>687.0</ele><time>2026-03-29T10:43:31.048Z</time></trkpt><trkpt lat="44.3613504" lon="11.1059046"><ele>686.6666666666666</ele><time>2026-03-29T10:43:32.048Z</time></trkpt><trkpt lat="44.3611841" lon="11.1059302"><ele>686.3333333333333</ele><time>2026-03-29T10:43:33.048Z</time></trkpt><trkpt lat="44.3610345" lon="11.105941"><ele>686.0</ele><time>2026-03-29T10:43:34.048Z</time></trkpt><trkpt lat="44.3608944" lon="11.1059509"><ele>686.0</ele><time>2026-03-29T10:43:35.048Z</time></trkpt><trkpt lat="44.3607552" lon="11.1059501"><ele>686.0</ele><time>2026-03-29T10:43:36.048Z</time></trkpt><trkpt lat="44.3606184" lon="11.1059418"><ele>686.0</ele><time>2026-03-29T10:43:37.049Z</time></trkpt><trkpt lat="44.3604782" lon="11.1059329"><ele>686.0</ele><time>2026-03-29T10:43:38.049Z</time></trkpt><trkpt lat="44.3603459" lon="11.1059207"><ele>686.0</ele><time>2026-03-29T10:43:39.049Z</time></trkpt><trkpt lat="44.3602202" lon="11.1059039"><ele>686.0</ele><time>2026-03-29T10:43:40.049Z</time></trkpt><trkpt lat="44.3601028" lon="11.1058829"><ele>686.0</ele><time>2026-03-29T10:43:41.049Z</time></trkpt><trkpt lat="44.3599899" lon="11.1058589"><ele>686.0</ele><time>2026-03-29T10:43:42.049Z</time></trkpt><trkpt lat="44.3598921" lon="11.1058353"><ele>686.0</ele><time>2026-03-29T10:43:43.049Z</time></trkpt><trkpt lat="44.3598037" lon="11.1058154"><ele>686.0</ele><time>2026-03-29T10:43:44.049Z</time></trkpt><trkpt lat="44.3597266" lon="11.1058026"><ele>686.0</ele><time>2026-03-29T10:43:45.048Z</time></trkpt><trkpt lat="44.3596582" lon="11.1058006"><ele>686.0</ele><time>2026-03-29T10:43:46.049Z</time></trkpt><trkpt lat="44.3595543" lon="11.1058213"><ele>686.0</ele><time>2026-03-29T10:43:48.049Z</time></trkpt><trkpt lat="44.3594882" lon="11.1058847"><ele>686.0</ele><time>2026-03-29T10:43:51.048Z</time></trkpt><trkpt lat="44.3595157" lon="11.1060097"><ele>686.0</ele><time>2026-03-29T10:43:53.048Z</time></trkpt><trkpt lat="44.3595734" lon="11.106094"><ele>686.0</ele><time>2026-03-29T10:43:54.049Z</time></trkpt><trkpt lat="44.3596391" lon="11.106183"><ele>686.0</ele><time>2026-03-29T10:43:55.049Z</time></trkpt><trkpt lat="44.3597175" lon="11.1062928"><ele>686.0</ele><time>2026-03-29T10:43:56.049Z</time></trkpt><trkpt lat="44.3598023" lon="11.1064147"><ele>686.0</ele><time>2026-03-29T10:43:57.048Z</time></trkpt><trkpt lat="44.3599022" lon="11.1065373"><ele>685.5</ele><time>2026-03-29T10:43:58.049Z</time></trkpt><trkpt lat="44.3600099" lon="11.1066604"><ele>685.0</ele><time>2026-03-29T10:43:59.048Z</time></trkpt><trkpt lat="44.360122" lon="11.1067836"><ele>684.5</ele><time>2026-03-29T10:44:00.049Z</time></trkpt><trkpt lat="44.3602414" lon="11.1069038"><ele>684.0</ele><time>2026-03-29T10:44:01.048Z</time></trkpt><trkpt lat="44.3603672" lon="11.1070188"><ele>684.0</ele><time>2026-03-29T10:44:02.049Z</time></trkpt><trkpt lat="44.3605026" lon="11.1071339"><ele>684.0</ele><time>2026-03-29T10:44:03.048Z</time></trkpt><trkpt lat="44.3606412" lon="11.1072491"><ele>684.0</ele><time>2026-03-29T10:44:04.048Z</time></trkpt><trkpt lat="44.3607836" lon="11.1073675"><ele>682.6666666666666</ele><time>2026-03-29T10:44:05.049Z</time></trkpt><trkpt lat="44.3609276" lon="11.1074822"><ele>681.3333333333333</ele><time>2026-03-29T10:44:06.049Z</time></trkpt><trkpt lat="44.3610699" lon="11.1076046"><ele>680.0</ele><time>2026-03-29T10:44:07.049Z</time></trkpt><trkpt lat="44.3612137" lon="11.1077315"><ele>680.0</ele><time>2026-03-29T10:44:08.049Z</time></trkpt><trkpt lat="44.3613561" lon="11.1078486"><ele>680.0</ele><time>2026-03-29T10:44:09.048Z</time></trkpt><trkpt lat="44.3614992" lon="11.1079688"><ele>680.0</ele><time>2026-03-29T10:44:10.049Z</time></trkpt><trkpt lat="44.361644" lon="11.1080885"><ele>679.3333333333333</ele><time>2026-03-29T10:44:11.049Z</time></trkpt><trkpt lat="44.3617842" lon="11.1082044"><ele>678.6666666666666</ele><time>2026-03-29T10:44:12.049Z</time></trkpt><trkpt lat="44.361922" lon="11.1083246"><ele>678.0</ele><time>2026-03-29T10:44:13.049Z</time></trkpt><trkpt lat="44.3620652" lon="11.1084382"><ele>679.6666666666666</ele><time>2026-03-29T10:44:14.049Z</time></trkpt><trkpt lat="44.3622041" lon="11.1085559"><ele>681.3333333333333</ele><time>2026-03-29T10:44:15.049Z</time></trkpt><trkpt lat="44.3623405" lon="11.1086708"><ele>683.0</ele><time>2026-03-29T10:44:16.048Z</time></trkpt><trkpt lat="44.3624786" lon="11.1087855"><ele>683.0</ele><time>2026-03-29T10:44:17.049Z</time></trkpt><trkpt lat="44.3626155" lon="11.1088983"><ele>683.0</ele><time>2026-03-29T10:44:18.048Z</time></trkpt><trkpt lat="44.3627478" lon="11.109007"><ele>683.0</ele><time>2026-03-29T10:44:19.049Z</time></trkpt><trkpt lat="44.3628765" lon="11.1091137"><ele>682.0</ele><time>2026-03-29T10:44:20.049Z</time></trkpt><trkpt lat="44.3630018" lon="11.1092212"><ele>681.0</ele><time>2026-03-29T10:44:21.048Z</time></trkpt><trkpt lat="44.3631245" lon="11.1093253"><ele>680.0</ele><time>2026-03-29T10:44:22.048Z</time></trkpt><trkpt lat="44.3632491" lon="11.1094236"><ele>679.0</ele><time>2026-03-29T10:44:23.049Z</time></trkpt><trkpt lat="44.36338" lon="11.1095129"><ele>679.0</ele><time>2026-03-29T10:44:24.048Z</time></trkpt><trkpt lat="44.3635144" lon="11.1095935"><ele>679.0</ele><time>2026-03-29T10:44:25.049Z</time></trkpt><trkpt lat="44.3636542" lon="11.1096685"><ele>679.0</ele><time>2026-03-29T10:44:26.049Z</time></trkpt><trkpt lat="44.3638017" lon="11.1097391"><ele>677.3333333333334</ele><time>2026-03-29T10:44:27.049Z</time></trkpt><trkpt lat="44.3639472" lon="11.1098135"><ele>675.6666666666666</ele><time>2026-03-29T10:44:28.049Z</time></trkpt><trkpt lat="44.3640947" lon="11.1098986"><ele>674.0</ele><time>2026-03-29T10:44:29.048Z</time></trkpt><trkpt lat="44.3642393" lon="11.1100036"><ele>672.0</ele><time>2026-03-29T10:44:30.049Z</time></trkpt><trkpt lat="44.3643644" lon="11.1101214"><ele>670.0</ele><time>2026-03-29T10:44:31.049Z</time></trkpt><trkpt lat="44.3644829" lon="11.1102687"><ele>668.0</ele><time>2026-03-29T10:44:32.049Z</time></trkpt><trkpt lat="44.3645839" lon="11.1104376"><ele>668.0</ele><time>2026-03-29T10:44:33.049Z</time></trkpt><trkpt lat="44.3646708" lon="11.1106235"><ele>668.0</ele><time>2026-03-29T10:44:34.048Z</time></trkpt><trkpt lat="44.364749" lon="11.1108203"><ele>668.0</ele><time>2026-03-29T10:44:35.049Z</time></trkpt><trkpt lat="44.3648217" lon="11.11102"><ele>664.6666666666666</ele><time>2026-03-29T10:44:36.049Z</time></trkpt><trkpt lat="44.3648895" lon="11.111212"><ele>661.3333333333334</ele><time>2026-03-29T10:44:37.049Z</time></trkpt><trkpt lat="44.364961" lon="11.1114031"><ele>658.0</ele><time>2026-03-29T10:44:38.048Z</time></trkpt><trkpt lat="44.3650311" lon="11.1115975"><ele>655.6666666666667</ele><time>2026-03-29T10:44:39.049Z</time></trkpt><trkpt lat="44.3651015" lon="11.1117903"><ele>653.3333333333334</ele><time>2026-03-29T10:44:40.049Z</time></trkpt><trkpt lat="44.3651731" lon="11.1119835"><ele>651.0</ele><time>2026-03-29T10:44:41.049Z</time></trkpt><trkpt lat="44.3652465" lon="11.1121786"><ele>651.0</ele><time>2026-03-29T10:44:42.049Z</time></trkpt><trkpt lat="44.3653199" lon="11.1123708"><ele>651.0</ele><time>2026-03-29T10:44:43.048Z</time></trkpt><trkpt lat="44.3653931" lon="11.1125586"><ele>651.0</ele><time>2026-03-29T10:44:44.049Z</time></trkpt><trkpt lat="44.3654747" lon="11.1127435"><ele>647.3333333333334</ele><time>2026-03-29T10:44:45.049Z</time></trkpt><trkpt lat="44.3655615" lon="11.1129176"><ele>643.6666666666667</ele><time>2026-03-29T10:44:46.049Z</time></trkpt><trkpt lat="44.3656585" lon="11.1130778"><ele>640.0</ele><time>2026-03-29T10:44:47.049Z</time></trkpt><trkpt lat="44.365758" lon="11.11324"><ele>638.6666666666667</ele><time>2026-03-29T10:44:48.049Z</time></trkpt><trkpt lat="44.3658608" lon="11.1133954"><ele>637.3333333333334</ele><time>2026-03-29T10:44:49.049Z</time></trkpt><trkpt lat="44.3659654" lon="11.11355"><ele>636.0</ele><time>2026-03-29T10:44:50.049Z</time></trkpt><trkpt lat="44.3660646" lon="11.1137039"><ele>636.0</ele><time>2026-03-29T10:44:51.049Z</time></trkpt><trkpt lat="44.3661627" lon="11.1138595"><ele>636.0</ele><time>2026-03-29T10:44:52.049Z</time></trkpt><trkpt lat="44.3662599" lon="11.1140162"><ele>636.0</ele><time>2026-03-29T10:44:53.049Z</time></trkpt><trkpt lat="44.3663589" lon="11.1141716"><ele>636.0</ele><time>2026-03-29T10:44:54.048Z</time></trkpt><trkpt lat="44.3664604" lon="11.1143223"><ele>634.5</ele><time>2026-03-29T10:44:55.049Z</time></trkpt><trkpt lat="44.3665627" lon="11.1144743"><ele>633.0</ele><time>2026-03-29T10:44:56.048Z</time></trkpt><trkpt lat="44.3666646" lon="11.1146235"><ele>631.5</ele><time>2026-03-29T10:44:57.048Z</time></trkpt><trkpt lat="44.3667731" lon="11.1147662"><ele>630.0</ele><time>2026-03-29T10:44:58.048Z</time></trkpt><trkpt lat="44.366887" lon="11.1149076"><ele>628.0</ele><time>2026-03-29T10:44:59.048Z</time></trkpt><trkpt lat="44.3670077" lon="11.1150437"><ele>626.0</ele><time>2026-03-29T10:45:00.049Z</time></trkpt><trkpt lat="44.3671301" lon="11.1151773"><ele>624.0</ele><time>2026-03-29T10:45:01.049Z</time></trkpt><trkpt lat="44.3672531" lon="11.1153043"><ele>623.0</ele><time>2026-03-29T10:45:02.048Z</time></trkpt><trkpt lat="44.3673698" lon="11.1154421"><ele>622.0</ele><time>2026-03-29T10:45:03.049Z</time></trkpt><trkpt lat="44.367469" lon="11.1155968"><ele>621.0</ele><time>2026-03-29T10:45:04.049Z</time></trkpt><trkpt lat="44.3675495" lon="11.1157773"><ele>620.3333333333334</ele><time>2026-03-29T10:45:05.049Z</time></trkpt><trkpt lat="44.3676125" lon="11.1159724"><ele>619.6666666666667</ele><time>2026-03-29T10:45:06.048Z</time></trkpt><trkpt lat="44.3676639" lon="11.1161777"><ele>619.0</ele><time>2026-03-29T10:45:07.048Z</time></trkpt><trkpt lat="44.3677146" lon="11.1163797"><ele>617.0</ele><time>2026-03-29T10:45:08.049Z</time></trkpt><trkpt lat="44.3677798" lon="11.1165718"><ele>615.0</ele><time>2026-03-29T10:45:09.049Z</time></trkpt><trkpt lat="44.367851" lon="11.1167613"><ele>613.0</ele><time>2026-03-29T10:45:10.048Z</time></trkpt><trkpt lat="44.3679251" lon="11.1169501"><ele>613.0</ele><time>2026-03-29T10:45:11.049Z</time></trkpt><trkpt lat="44.3680025" lon="11.1171379"><ele>613.0</ele><time>2026-03-29T10:45:12.049Z</time></trkpt><trkpt lat="44.368079" lon="11.1173238"><ele>613.0</ele><time>2026-03-29T10:45:13.048Z</time></trkpt><trkpt lat="44.368154" lon="11.1175146"><ele>611.3333333333334</ele><time>2026-03-29T10:45:14.049Z</time></trkpt><trkpt lat="44.3682242" lon="11.1177012"><ele>609.6666666666666</ele><time>2026-03-29T10:45:15.049Z</time></trkpt><trkpt lat="44.3682906" lon="11.1178872"><ele>608.0</ele><time>2026-03-29T10:45:16.048Z</time></trkpt><trkpt lat="44.3683549" lon="11.1180781"><ele>607.75</ele><time>2026-03-29T10:45:17.049Z</time></trkpt><trkpt lat="44.3684072" lon="11.1182698"><ele>607.5</ele><time>2026-03-29T10:45:18.049Z</time></trkpt><trkpt lat="44.3684471" lon="11.1184661"><ele>607.25</ele><time>2026-03-29T10:45:19.048Z</time></trkpt><trkpt lat="44.3684811" lon="11.1186609"><ele>607.0</ele><time>2026-03-29T10:45:20.049Z</time></trkpt><trkpt lat="44.3685155" lon="11.1188534"><ele>607.0</ele><time>2026-03-29T10:45:21.049Z</time></trkpt><trkpt lat="44.3685514" lon="11.1190451"><ele>607.0</ele><time>2026-03-29T10:45:22.048Z</time></trkpt><trkpt lat="44.3685838" lon="11.1192365"><ele>607.0</ele><time>2026-03-29T10:45:23.048Z</time></trkpt><trkpt lat="44.3686173" lon="11.1194254"><ele>607.0</ele><time>2026-03-29T10:45:24.049Z</time></trkpt><trkpt lat="44.3686511" lon="11.1196151"><ele>606.75</ele><time>2026-03-29T10:45:25.049Z</time></trkpt><trkpt lat="44.3686853" lon="11.1198071"><ele>606.5</ele><time>2026-03-29T10:45:26.049Z</time></trkpt><trkpt lat="44.3687171" lon="11.1199915"><ele>606.25</ele><time>2026-03-29T10:45:27.049Z</time></trkpt><trkpt lat="44.36875" lon="11.1201814"><ele>606.0</ele><time>2026-03-29T10:45:28.048Z</time></trkpt><trkpt lat="44.3687752" lon="11.1203739"><ele>606.0</ele><time>2026-03-29T10:45:29.049Z</time></trkpt><trkpt lat="44.3687943" lon="11.1205726"><ele>606.0</ele><time>2026-03-29T10:45:30.049Z</time></trkpt><trkpt lat="44.3688044" lon="11.1207767"><ele>606.0</ele><time>2026-03-29T10:45:31.049Z</time></trkpt><trkpt lat="44.3688023" lon="11.1209784"><ele>606.0</ele><time>2026-03-29T10:45:32.049Z</time></trkpt><trkpt lat="44.3687906" lon="11.1211895"><ele>605.6666666666666</ele><time>2026-03-29T10:45:33.048Z</time></trkpt><trkpt lat="44.3687625" lon="11.1214009"><ele>605.3333333333333</ele><time>2026-03-29T10:45:34.049Z</time></trkpt><trkpt lat="44.3687285" lon="11.121615"><ele>605.0</ele><time>2026-03-29T10:45:35.048Z</time></trkpt><trkpt lat="44.3686882" lon="11.1218241"><ele>605.0</ele><time>2026-03-29T10:45:36.048Z</time></trkpt><trkpt lat="44.3686425" lon="11.1220326"><ele>605.0</ele><time>2026-03-29T10:45:37.048Z</time></trkpt><trkpt lat="44.3685938" lon="11.1222237"><ele>605.0</ele><time>2026-03-29T10:45:38.049Z</time></trkpt><trkpt lat="44.3685461" lon="11.122405"><ele>605.0</ele><time>2026-03-29T10:45:39.048Z</time></trkpt><trkpt lat="44.3684973" lon="11.1225625"><ele>605.0</ele><time>2026-03-29T10:45:40.049Z</time></trkpt><trkpt lat="44.3684552" lon="11.1227149"><ele>605.0</ele><time>2026-03-29T10:45:41.048Z</time></trkpt><trkpt lat="44.3684198" lon="11.1228444"><ele>605.0</ele><time>2026-03-29T10:45:42.048Z</time></trkpt><trkpt lat="44.3683818" lon="11.1229574"><ele>605.0</ele><time>2026-03-29T10:45:43.048Z</time></trkpt><trkpt lat="44.3683477" lon="11.1230528"><ele>605.0</ele><time>2026-03-29T10:45:44.048Z</time></trkpt><trkpt lat="44.3683242" lon="11.1231345"><ele>605.0</ele><time>2026-03-29T10:45:45.048Z</time></trkpt><trkpt lat="44.368362" lon="11.1232707"><ele>604.8</ele><time>2026-03-29T10:45:47.048Z</time></trkpt><trkpt lat="44.3684532" lon="11.1234023"><ele>604.6</ele><time>2026-03-29T10:45:49.048Z</time></trkpt><trkpt lat="44.3685122" lon="11.1235335"><ele>604.4</ele><time>2026-03-29T10:45:51.048Z</time></trkpt><trkpt lat="44.3685025" lon="11.1236483"><ele>604.2</ele><time>2026-03-29T10:45:53.049Z</time></trkpt><trkpt lat="44.3684636" lon="11.1238107"><ele>604.0</ele><time>2026-03-29T10:45:55.049Z</time></trkpt><trkpt lat="44.3684592" lon="11.1239178"><ele>604.0</ele><time>2026-03-29T10:45:56.048Z</time></trkpt><trkpt lat="44.3684741" lon="11.1240471"><ele>604.0</ele><time>2026-03-29T10:45:57.048Z</time></trkpt><trkpt lat="44.3685035" lon="11.1241634"><ele>604.0</ele><time>2026-03-29T10:45:58.049Z</time></trkpt><trkpt lat="44.3685315" lon="11.1242732"><ele>604.0</ele><time>2026-03-29T10:45:59.049Z</time></trkpt><trkpt lat="44.3685482" lon="11.1243799"><ele>604.0</ele><time>2026-03-29T10:46:00.049Z</time></trkpt><trkpt lat="44.3685666" lon="11.1244819"><ele>604.0</ele><time>2026-03-29T10:46:01.049Z</time></trkpt><trkpt lat="44.3685858" lon="11.1245802"><ele>603.6</ele><time>2026-03-29T10:46:02.049Z</time></trkpt><trkpt lat="44.3686015" lon="11.1246786"><ele>603.2</ele><time>2026-03-29T10:46:03.049Z</time></trkpt><trkpt lat="44.3686119" lon="11.1247761"><ele>602.8000000000001</ele><time>2026-03-29T10:46:04.049Z</time></trkpt><trkpt lat="44.3686111" lon="11.1248874"><ele>602.4</ele><time>2026-03-29T10:46:06.048Z</time></trkpt><trkpt lat="44.3686093" lon="11.1246373"><ele>602.0</ele><time>2026-03-29T10:46:14.049Z</time></trkpt><trkpt lat="44.3685975" lon="11.1244858"><ele>602.0</ele><time>2026-03-29T10:46:16.049Z</time></trkpt><trkpt lat="44.3686506" lon="11.1244224"><ele>602.0</ele><time>2026-03-29T10:46:18.049Z</time></trkpt><trkpt lat="44.3687235" lon="11.1244596"><ele>602.0</ele><time>2026-03-29T10:46:19.049Z</time></trkpt><trkpt lat="44.3688019" lon="11.1245271"><ele>602.0</ele><time>2026-03-29T10:46:20.049Z</time></trkpt><trkpt lat="44.3688792" lon="11.1246168"><ele>602.0</ele><time>2026-03-29T10:46:21.049Z</time></trkpt><trkpt lat="44.3689342" lon="11.1247434"><ele>602.0</ele><time>2026-03-29T10:46:22.048Z</time></trkpt><trkpt lat="44.368971" lon="11.1248839"><ele>600.2</ele><time>2026-03-29T10:46:23.049Z</time></trkpt><trkpt lat="44.3690007" lon="11.1250292"><ele>598.4000000000001</ele><time>2026-03-29T10:46:24.049Z</time></trkpt><trkpt lat="44.3690275" lon="11.125178"><ele>596.5999999999999</ele><time>2026-03-29T10:46:25.049Z</time></trkpt><trkpt lat="44.3690489" lon="11.1253236"><ele>594.8</ele><time>2026-03-29T10:46:26.048Z</time></trkpt><trkpt lat="44.3690746" lon="11.1254545"><ele>593.0</ele><time>2026-03-29T10:46:27.049Z</time></trkpt><trkpt lat="44.369096" lon="11.1255856"><ele>593.0</ele><time>2026-03-29T10:46:28.049Z</time></trkpt><trkpt lat="44.3691205" lon="11.1257168"><ele>593.0</ele><time>2026-03-29T10:46:29.048Z</time></trkpt><trkpt lat="44.3691561" lon="11.1258373"><ele>593.0</ele><time>2026-03-29T10:46:30.048Z</time></trkpt><trkpt lat="44.369206" lon="11.1259481"><ele>593.0</ele><time>2026-03-29T10:46:31.049Z</time></trkpt><trkpt lat="44.3692675" lon="11.1260434"><ele>593.0</ele><time>2026-03-29T10:46:32.049Z</time></trkpt><trkpt lat="44.3693459" lon="11.1261011"><ele>592.4</ele><time>2026-03-29T10:46:33.049Z</time></trkpt><trkpt lat="44.3694053" lon="11.1261572"><ele>591.8</ele><time>2026-03-29T10:46:34.049Z</time></trkpt><trkpt lat="44.3694833" lon="11.1262167"><ele>591.2</ele><time>2026-03-29T10:46:36.049Z</time></trkpt><trkpt lat="44.3696306" lon="11.126174"><ele>590.6</ele><time>2026-03-29T10:47:06.048Z</time></trkpt><trkpt lat="44.3697042" lon="11.1261363"><ele>590.0</ele><time>2026-03-29T10:47:07.049Z</time></trkpt><trkpt lat="44.3697895" lon="11.1260807"><ele>588.8</ele><time>2026-03-29T10:47:08.049Z</time></trkpt><trkpt lat="44.3698878" lon="11.1260284"><ele>587.6</ele><time>2026-03-29T10:47:09.049Z</time></trkpt><trkpt lat="44.3699881" lon="11.1259685"><ele>586.4</ele><time>2026-03-29T10:47:10.049Z</time></trkpt><trkpt lat="44.3700869" lon="11.1258994"><ele>585.2</ele><time>2026-03-29T10:47:11.049Z</time></trkpt><trkpt lat="44.3701921" lon="11.1258235"><ele>584.0</ele><time>2026-03-29T10:47:12.049Z</time></trkpt><trkpt lat="44.3702903" lon="11.1257454"><ele>584.0</ele><time>2026-03-29T10:47:13.048Z</time></trkpt><trkpt lat="44.3703853" lon="11.1256737"><ele>584.0</ele><time>2026-03-29T10:47:14.049Z</time></trkpt><trkpt lat="44.3704791" lon="11.1255963"><ele>584.0</ele><time>2026-03-29T10:47:15.048Z</time></trkpt><trkpt lat="44.3705782" lon="11.1255172"><ele>584.0</ele><time>2026-03-29T10:47:16.049Z</time></trkpt><trkpt lat="44.3706751" lon="11.1254368"><ele>584.0</ele><time>2026-03-29T10:47:17.049Z</time></trkpt><trkpt lat="44.3708012" lon="11.1253494"><ele>584.0</ele><time>2026-03-29T10:47:18.048Z</time></trkpt><trkpt lat="44.3709172" lon="11.1252834"><ele>584.0</ele><time>2026-03-29T10:47:19.049Z</time></trkpt><trkpt lat="44.3710231" lon="11.1252277"><ele>584.0</ele><time>2026-03-29T10:47:20.049Z</time></trkpt><trkpt lat="44.3711225" lon="11.1251774"><ele>584.0</ele><time>2026-03-29T10:47:21.049Z</time></trkpt><trkpt lat="44.371224" lon="11.1251314"><ele>584.0</ele><time>2026-03-29T10:47:22.048Z</time></trkpt><trkpt lat="44.3713229" lon="11.125074"><ele>584.0</ele><time>2026-03-29T10:47:23.048Z</time></trkpt><trkpt lat="44.3714227" lon="11.125008"><ele>584.0</ele><time>2026-03-29T10:47:24.049Z</time></trkpt><trkpt lat="44.3715156" lon="11.1249504"><ele>584.0</ele><time>2026-03-29T10:47:25.048Z</time></trkpt><trkpt lat="44.3716071" lon="11.1248903"><ele>584.0</ele><time>2026-03-29T10:47:26.049Z</time></trkpt><trkpt lat="44.3716995" lon="11.1248247"><ele>584.4</ele><time>2026-03-29T10:47:27.048Z</time></trkpt><trkpt lat="44.3717883" lon="11.1247696"><ele>584.8</ele><time>2026-03-29T10:47:28.048Z</time></trkpt><trkpt lat="44.3718633" lon="11.1247207"><ele>585.2</ele><time>2026-03-29T10:47:29.048Z</time></trkpt><trkpt lat="44.371943" lon="11.1246701"><ele>585.6</ele><time>2026-03-29T10:47:30.048Z</time></trkpt><trkpt lat="44.3720188" lon="11.1247014"><ele>586.0</ele><time>2026-03-29T10:47:32.049Z</time></trkpt><trkpt lat="44.3720924" lon="11.1248413"><ele>584.8</ele><time>2026-03-29T10:47:34.048Z</time></trkpt><trkpt lat="44.3721206" lon="11.1249501"><ele>583.6</ele><time>2026-03-29T10:47:35.048Z</time></trkpt><trkpt lat="44.3721406" lon="11.1250727"><ele>582.4</ele><time>2026-03-29T10:47:36.048Z</time></trkpt><trkpt lat="44.3721708" lon="11.1252079"><ele>581.2</ele><time>2026-03-29T10:47:37.049Z</time></trkpt><trkpt lat="44.3721983" lon="11.1253578"><ele>580.0</ele><time>2026-03-29T10:47:38.049Z</time></trkpt><trkpt lat="44.3722219" lon="11.1254997"><ele>579.6</ele><time>2026-03-29T10:47:39.049Z</time></trkpt><trkpt lat="44.3722561" lon="11.1256419"><ele>579.2</ele><time>2026-03-29T10:47:40.049Z</time></trkpt><trkpt lat="44.3722954" lon="11.1257738"><ele>578.8</ele><time>2026-03-29T10:47:41.049Z</time></trkpt><trkpt lat="44.3723477" lon="11.1258948"><ele>578.4</ele><time>2026-03-29T10:47:42.049Z</time></trkpt><trkpt lat="44.3724094" lon="11.1260092"><ele>578.0</ele><time>2026-03-29T10:47:43.049Z</time></trkpt><trkpt lat="44.3724801" lon="11.1261204"><ele>577.0</ele><time>2026-03-29T10:47:44.049Z</time></trkpt><trkpt lat="44.3725582" lon="11.1262239"><ele>576.0</ele><time>2026-03-29T10:47:45.048Z</time></trkpt><trkpt lat="44.3726374" lon="11.1263258"><ele>575.0</ele><time>2026-03-29T10:47:46.049Z</time></trkpt><trkpt lat="44.3727157" lon="11.1264305"><ele>574.0</ele><time>2026-03-29T10:47:47.048Z</time></trkpt><trkpt lat="44.3727946" lon="11.1265389"><ele>573.0</ele><time>2026-03-29T10:47:48.049Z</time></trkpt><trkpt lat="44.3728697" lon="11.1266402"><ele>572.4</ele><time>2026-03-29T10:47:49.049Z</time></trkpt><trkpt lat="44.3729426" lon="11.1267411"><ele>571.8</ele><time>2026-03-29T10:47:50.049Z</time></trkpt><trkpt lat="44.373017" lon="11.1268466"><ele>571.2</ele><time>2026-03-29T10:47:51.049Z</time></trkpt><trkpt lat="44.3730987" lon="11.1269577"><ele>570.6</ele><time>2026-03-29T10:47:52.049Z</time></trkpt><trkpt lat="44.3731883" lon="11.1270597"><ele>570.0</ele><time>2026-03-29T10:47:53.049Z</time></trkpt><trkpt lat="44.373279" lon="11.1271732"><ele>569.0</ele><time>2026-03-29T10:47:54.049Z</time></trkpt><trkpt lat="44.3733805" lon="11.1272976"><ele>568.0</ele><time>2026-03-29T10:47:55.048Z</time></trkpt><trkpt lat="44.3734832" lon="11.127424"><ele>567.0</ele><time>2026-03-29T10:47:56.048Z</time></trkpt><trkpt lat="44.3735919" lon="11.1275543"><ele>566.0</ele><time>2026-03-29T10:47:57.049Z</time></trkpt><trkpt lat="44.3737028" lon="11.1276811"><ele>565.0</ele><time>2026-03-29T10:47:58.048Z</time></trkpt><trkpt lat="44.3738146" lon="11.1278058"><ele>564.0</ele><time>2026-03-29T10:47:59.049Z</time></trkpt><trkpt lat="44.3739231" lon="11.1279177"><ele>563.0</ele><time>2026-03-29T10:48:00.049Z</time></trkpt><trkpt lat="44.3740292" lon="11.128033"><ele>562.0</ele><time>2026-03-29T10:48:01.048Z</time></trkpt><trkpt lat="44.3741323" lon="11.1281415"><ele>560.25</ele><time>2026-03-29T10:48:02.049Z</time></trkpt><trkpt lat="44.3742326" lon="11.1282543"><ele>558.5</ele><time>2026-03-29T10:48:03.049Z</time></trkpt><trkpt lat="44.3743358" lon="11.1283593"><ele>556.75</ele><time>2026-03-29T10:48:04.049Z</time></trkpt><trkpt lat="44.3744437" lon="11.1284773"><ele>555.0</ele><time>2026-03-29T10:48:05.049Z</time></trkpt><trkpt lat="44.3745458" lon="11.128588"><ele>555.0</ele><time>2026-03-29T10:48:06.049Z</time></trkpt><trkpt lat="44.3746419" lon="11.1286911"><ele>555.0</ele><time>2026-03-29T10:48:07.048Z</time></trkpt><trkpt lat="44.3747364" lon="11.1287953"><ele>555.0</ele><time>2026-03-29T10:48:08.048Z</time></trkpt><trkpt lat="44.3748314" lon="11.1288767"><ele>555.0</ele><time>2026-03-29T10:48:09.048Z</time></trkpt><trkpt lat="44.3749081" lon="11.1289551"><ele>555.0</ele><time>2026-03-29T10:48:10.049Z</time></trkpt><trkpt lat="44.3749869" lon="11.1290238"><ele>554.4</ele><time>2026-03-29T10:48:11.049Z</time></trkpt><trkpt lat="44.3750619" lon="11.1290981"><ele>553.8</ele><time>2026-03-29T10:48:12.048Z</time></trkpt><trkpt lat="44.3751414" lon="11.1291634"><ele>553.2</ele><time>2026-03-29T10:48:13.049Z</time></trkpt><trkpt lat="44.3752172" lon="11.1292367"><ele>552.6</ele><time>2026-03-29T10:48:14.049Z</time></trkpt><trkpt lat="44.3752981" lon="11.1293123"><ele>552.0</ele><time>2026-03-29T10:48:15.049Z</time></trkpt><trkpt lat="44.375383" lon="11.1293981"><ele>552.0</ele><time>2026-03-29T10:48:16.049Z</time></trkpt><trkpt lat="44.375467" lon="11.1294819"><ele>552.0</ele><time>2026-03-29T10:48:17.048Z</time></trkpt><trkpt lat="44.3755559" lon="11.1295575"><ele>552.0</ele><time>2026-03-29T10:48:18.049Z</time></trkpt><trkpt lat="44.3756481" lon="11.1295984"><ele>552.0</ele><time>2026-03-29T10:48:19.049Z</time></trkpt><trkpt lat="44.3757502" lon="11.1296201"><ele>552.0</ele><time>2026-03-29T10:48:20.049Z</time></trkpt><trkpt lat="44.3758649" lon="11.1296178"><ele>550.6666666666666</ele><time>2026-03-29T10:48:21.049Z</time></trkpt><trkpt lat="44.375993" lon="11.1295866"><ele>549.3333333333333</ele><time>2026-03-29T10:48:22.048Z</time></trkpt><trkpt lat="44.3762592" lon="11.1295544"><ele>548.0</ele><time>2026-03-29T10:48:24.049Z</time></trkpt><trkpt lat="44.3763912" lon="11.1295318"><ele>545.5</ele><time>2026-03-29T10:48:25.049Z</time></trkpt><trkpt lat="44.3765229" lon="11.1294897"><ele>543.0</ele><time>2026-03-29T10:48:26.049Z</time></trkpt><trkpt lat="44.3766475" lon="11.1294721"><ele>540.5</ele><time>2026-03-29T10:48:27.048Z</time></trkpt><trkpt lat="44.3767704" lon="11.1294536"><ele>538.0</ele><time>2026-03-29T10:48:28.048Z</time></trkpt><trkpt lat="44.3768913" lon="11.1294581"><ele>538.0</ele><time>2026-03-29T10:48:29.049Z</time></trkpt><trkpt lat="44.3769958" lon="11.1294841"><ele>538.0</ele><time>2026-03-29T10:48:30.049Z</time></trkpt><trkpt lat="44.377082" lon="11.1295291"><ele>538.0</ele><time>2026-03-29T10:48:31.048Z</time></trkpt><trkpt lat="44.3771548" lon="11.1295837"><ele>538.0</ele><time>2026-03-29T10:48:32.049Z</time></trkpt><trkpt lat="44.3772225" lon="11.1296613"><ele>538.0</ele><time>2026-03-29T10:48:33.049Z</time></trkpt><trkpt lat="44.3772864" lon="11.1297592"><ele>536.4</ele><time>2026-03-29T10:48:34.049Z</time></trkpt><trkpt lat="44.3773625" lon="11.1298433"><ele>534.8</ele><time>2026-03-29T10:48:35.049Z</time></trkpt><trkpt lat="44.3774303" lon="11.1299382"><ele>533.2</ele><time>2026-03-29T10:48:36.049Z</time></trkpt><trkpt lat="44.3775023" lon="11.1300275"><ele>531.6</ele><time>2026-03-29T10:48:37.049Z</time></trkpt><trkpt lat="44.3775594" lon="11.1301212"><ele>530.0</ele><time>2026-03-29T10:48:38.049Z</time></trkpt><trkpt lat="44.3776078" lon="11.1302157"><ele>530.0</ele><time>2026-03-29T10:48:39.048Z</time></trkpt><trkpt lat="44.3776465" lon="11.130313"><ele>530.0</ele><time>2026-03-29T10:48:40.049Z</time></trkpt><trkpt lat="44.3776726" lon="11.1304131"><ele>530.0</ele><time>2026-03-29T10:48:41.048Z</time></trkpt><trkpt lat="44.377708" lon="11.1305171"><ele>530.0</ele><time>2026-03-29T10:48:42.048Z</time></trkpt><trkpt lat="44.3777548" lon="11.1306101"><ele>530.0</ele><time>2026-03-29T10:48:43.049Z</time></trkpt><trkpt lat="44.3778161" lon="11.130694"><ele>530.0</ele><time>2026-03-29T10:48:44.049Z</time></trkpt><trkpt lat="44.3778708" lon="11.1307663"><ele>529.5</ele><time>2026-03-29T10:48:45.049Z</time></trkpt><trkpt lat="44.3779256" lon="11.1308149"><ele>529.0</ele><time>2026-03-29T10:48:46.049Z</time></trkpt><trkpt lat="44.3779808" lon="11.1308711"><ele>528.5</ele><time>2026-03-29T10:48:47.048Z</time></trkpt><trkpt lat="44.3780819" lon="11.1309457"><ele>528.0</ele><time>2026-03-29T10:48:49.049Z</time></trkpt><trkpt lat="44.378141" lon="11.1309783"><ele>527.5</ele><time>2026-03-29T10:48:50.049Z</time></trkpt><trkpt lat="44.3782492" lon="11.1310666"><ele>527.0</ele><time>2026-03-29T10:48:52.049Z</time></trkpt><trkpt lat="44.3783099" lon="11.1311208"><ele>525.3333333333333</ele><time>2026-03-29T10:48:53.049Z</time></trkpt><trkpt lat="44.3783721" lon="11.1311846"><ele>523.6666666666666</ele><time>2026-03-29T10:48:54.049Z</time></trkpt><trkpt lat="44.378439" lon="11.1312364"><ele>522.0</ele><time>2026-03-29T10:48:55.049Z</time></trkpt><trkpt lat="44.3785007" lon="11.1312936"><ele>520.3333333333334</ele><time>2026-03-29T10:48:56.048Z</time></trkpt><trkpt lat="44.3785592" lon="11.1313535"><ele>518.6666666666667</ele><time>2026-03-29T10:48:57.048Z</time></trkpt><trkpt lat="44.3786162" lon="11.1314127"><ele>517.0</ele><time>2026-03-29T10:48:58.048Z</time></trkpt><trkpt lat="44.3786968" lon="11.1315206"><ele>516.1666666666667</ele><time>2026-03-29T10:49:00.049Z</time></trkpt><trkpt lat="44.378748" lon="11.1315923"><ele>515.3333333333334</ele><time>2026-03-29T10:49:02.048Z</time></trkpt><trkpt lat="44.3787887" lon="11.1316864"><ele>514.5</ele><time>2026-03-29T10:49:09.049Z</time></trkpt><trkpt lat="44.3788421" lon="11.1317407"><ele>513.6666666666666</ele><time>2026-03-29T10:49:10.049Z</time></trkpt><trkpt lat="44.3789232" lon="11.1317913"><ele>512.8333333333333</ele><time>2026-03-29T10:49:11.048Z</time></trkpt><trkpt lat="44.3790159" lon="11.1318575"><ele>512.0</ele><time>2026-03-29T10:49:12.049Z</time></trkpt><trkpt lat="44.3791055" lon="11.1319289"><ele>509.8</ele><time>2026-03-29T10:49:13.049Z</time></trkpt><trkpt lat="44.3791944" lon="11.1320047"><ele>507.6</ele><time>2026-03-29T10:49:14.049Z</time></trkpt><trkpt lat="44.3792811" lon="11.1320897"><ele>505.40000000000003</ele><time>2026-03-29T10:49:15.049Z</time></trkpt><trkpt lat="44.3793498" lon="11.1321735"><ele>503.20000000000005</ele><time>2026-03-29T10:49:16.048Z</time></trkpt><trkpt lat="44.3794145" lon="11.1322557"><ele>501.0</ele><time>2026-03-29T10:49:17.048Z</time></trkpt><trkpt lat="44.3794682" lon="11.1323375"><ele>500.1666666666667</ele><time>2026-03-29T10:49:18.049Z</time></trkpt><trkpt lat="44.3795179" lon="11.1324131"><ele>499.33333333333337</ele><time>2026-03-29T10:49:19.049Z</time></trkpt><trkpt lat="44.3795532" lon="11.1324921"><ele>498.5</ele><time>2026-03-29T10:49:20.049Z</time></trkpt><trkpt lat="44.3795992" lon="11.1325837"><ele>497.6666666666667</ele><time>2026-03-29T10:49:21.049Z</time></trkpt><trkpt lat="44.3796502" lon="11.1326729"><ele>496.83333333333337</ele><time>2026-03-29T10:49:22.049Z</time></trkpt><trkpt lat="44.3796937" lon="11.1327597"><ele>496.0</ele><time>2026-03-29T10:49:23.049Z</time></trkpt><trkpt lat="44.3797368" lon="11.1328449"><ele>493.6666666666667</ele><time>2026-03-29T10:49:24.049Z</time></trkpt><trkpt lat="44.3797812" lon="11.1329193"><ele>491.33333333333337</ele><time>2026-03-29T10:49:25.049Z</time></trkpt><trkpt lat="44.3798179" lon="11.1329913"><ele>489.0</ele><time>2026-03-29T10:49:26.048Z</time></trkpt><trkpt lat="44.3798554" lon="11.1330698"><ele>486.66666666666663</ele><time>2026-03-29T10:49:27.049Z</time></trkpt><trkpt lat="44.3799078" lon="11.1331368"><ele>484.3333333333333</ele><time>2026-03-29T10:49:29.049Z</time></trkpt><trkpt lat="44.3799711" lon="11.1331256"><ele>482.0</ele><time>2026-03-29T10:49:31.049Z</time></trkpt><trkpt lat="44.3800835" lon="11.1330559"><ele>481.99999999999994</ele><time>2026-03-29T10:49:33.048Z</time></trkpt><trkpt lat="44.3801543" lon="11.1330499"><ele>482.0</ele><time>2026-03-29T10:49:34.049Z</time></trkpt><trkpt lat="44.3802402" lon="11.1330387"><ele>482.0</ele><time>2026-03-29T10:49:35.049Z</time></trkpt><trkpt lat="44.3803239" lon="11.133013"><ele>482.0</ele><time>2026-03-29T10:49:36.049Z</time></trkpt><trkpt lat="44.3804113" lon="11.1329782"><ele>481.99999999999994</ele><time>2026-03-29T10:49:37.049Z</time></trkpt><trkpt lat="44.3804707" lon="11.13294"><ele>482.0</ele><time>2026-03-29T10:49:38.049Z</time></trkpt><trkpt lat="44.3805458" lon="11.1329265"><ele>480.49999999999994</ele><time>2026-03-29T10:49:39.049Z</time></trkpt><trkpt lat="44.3806228" lon="11.1329135"><ele>479.0</ele><time>2026-03-29T10:49:40.049Z</time></trkpt><trkpt lat="44.3806976" lon="11.1329038"><ele>477.5</ele><time>2026-03-29T10:49:41.049Z</time></trkpt><trkpt lat="44.3807666" lon="11.1329106"><ele>476.0</ele><time>2026-03-29T10:49:42.048Z</time></trkpt><trkpt lat="44.3808543" lon="11.1330182"><ele>474.49999999999994</ele><time>2026-03-29T10:49:44.048Z</time></trkpt><trkpt lat="44.3809152" lon="11.1331098"><ele>473.0</ele><time>2026-03-29T10:49:45.049Z</time></trkpt><trkpt lat="44.3809774" lon="11.1332304"><ele>473.0</ele><time>2026-03-29T10:49:46.049Z</time></trkpt><trkpt lat="44.3810353" lon="11.1333624"><ele>473.0</ele><time>2026-03-29T10:49:47.048Z</time></trkpt><trkpt lat="44.3811044" lon="11.1335019"><ele>473.0</ele><time>2026-03-29T10:49:48.049Z</time></trkpt><trkpt lat="44.3811719" lon="11.1336379"><ele>473.0</ele><time>2026-03-29T10:49:49.048Z</time></trkpt><trkpt lat="44.3812348" lon="11.1337559"><ele>472.99999999999994</ele><time>2026-03-29T10:49:50.049Z</time></trkpt><trkpt lat="44.3812902" lon="11.1338722"><ele>473.0</ele><time>2026-03-29T10:49:51.049Z</time></trkpt><trkpt lat="44.3813374" lon="11.133978"><ele>473.0</ele><time>2026-03-29T10:49:52.049Z</time></trkpt><trkpt lat="44.3813625" lon="11.1340627"><ele>473.0</ele><time>2026-03-29T10:49:53.049Z</time></trkpt><trkpt lat="44.3814232" lon="11.1342168"><ele>472.99999999999994</ele><time>2026-03-29T10:49:55.048Z</time></trkpt><trkpt lat="44.3814644" lon="11.1342845"><ele>473.0</ele><time>2026-03-29T10:49:56.048Z</time></trkpt><trkpt lat="44.3815662" lon="11.1343792"><ele>471.0</ele><time>2026-03-29T10:49:58.048Z</time></trkpt><trkpt lat="44.3816707" lon="11.1344479"><ele>468.99999999999994</ele><time>2026-03-29T10:50:00.049Z</time></trkpt><trkpt lat="44.3817643" lon="11.1345255"><ele>466.99999999999994</ele><time>2026-03-29T10:50:02.049Z</time></trkpt><trkpt lat="44.3818222" lon="11.1345606"><ele>465.0</ele><time>2026-03-29T10:50:03.049Z</time></trkpt><trkpt lat="44.3819468" lon="11.1346028"><ele>463.0</ele><time>2026-03-29T10:50:05.048Z</time></trkpt><trkpt lat="44.3820095" lon="11.1346273"><ele>463.00000000000006</ele><time>2026-03-29T10:50:06.049Z</time></trkpt><trkpt lat="44.3820742" lon="11.134658"><ele>463.0</ele><time>2026-03-29T10:50:07.049Z</time></trkpt><trkpt lat="44.3821401" lon="11.1346904"><ele>463.0</ele><time>2026-03-29T10:50:08.049Z</time></trkpt><trkpt lat="44.3822096" lon="11.1347223"><ele>463.0</ele><time>2026-03-29T10:50:09.049Z</time></trkpt><trkpt lat="44.3822672" lon="11.1347733"><ele>463.00000000000006</ele><time>2026-03-29T10:50:10.048Z</time></trkpt><trkpt lat="44.3823447" lon="11.1348809"><ele>463.0</ele><time>2026-03-29T10:50:12.049Z</time></trkpt><trkpt lat="44.3823668" lon="11.1349708"><ele>460.33333333333337</ele><time>2026-03-29T10:50:15.049Z</time></trkpt><trkpt lat="44.3823645" lon="11.1348714"><ele>457.6666666666667</ele><time>2026-03-29T10:50:21.049Z</time></trkpt><trkpt lat="44.3823423" lon="11.1347517"><ele>455.0</ele><time>2026-03-29T10:50:23.049Z</time></trkpt><trkpt lat="44.3823638" lon="11.1346231"><ele>452.33333333333337</ele><time>2026-03-29T10:50:25.049Z</time></trkpt><trkpt lat="44.3823885" lon="11.1345364"><ele>449.6666666666667</ele><time>2026-03-29T10:50:28.049Z</time></trkpt><trkpt lat="44.3824367" lon="11.134478"><ele>447.0</ele><time>2026-03-29T10:50:44.049Z</time></trkpt><trkpt lat="44.3823632" lon="11.1345148"><ele>447.0</ele><time>2026-03-29T10:50:49.049Z</time></trkpt><trkpt lat="44.3823541" lon="11.1346108"><ele>447.00000000000006</ele><time>2026-03-29T10:50:51.049Z</time></trkpt><trkpt lat="44.3823281" lon="11.1347132"><ele>447.00000000000006</ele><time>2026-03-29T10:50:54.049Z</time></trkpt><trkpt lat="44.3822563" lon="11.1346977"><ele>447.0</ele><time>2026-03-29T10:50:56.049Z</time></trkpt><trkpt lat="44.3821412" lon="11.1346382"><ele>447.0</ele><time>2026-03-29T10:50:58.049Z</time></trkpt><trkpt lat="44.3820367" lon="11.134584"><ele>450.20000000000005</ele><time>2026-03-29T10:51:00.049Z</time></trkpt><trkpt lat="44.3819426" lon="11.1345399"><ele>453.40000000000003</ele><time>2026-03-29T10:51:02.049Z</time></trkpt><trkpt lat="44.3818654" lon="11.1344808"><ele>456.59999999999997</ele><time>2026-03-29T10:51:04.049Z</time></trkpt><trkpt lat="44.3817676" lon="11.1344236"><ele>459.79999999999995</ele><time>2026-03-29T10:51:07.049Z</time></trkpt><trkpt lat="44.3816706" lon="11.1343622"><ele>463.0</ele><time>2026-03-29T10:51:09.049Z</time></trkpt><trkpt lat="44.381611" lon="11.1343187"><ele>463.00000000000006</ele><time>2026-03-29T10:51:11.049Z</time></trkpt><trkpt lat="44.3815442" lon="11.1342606"><ele>463.0</ele><time>2026-03-29T10:51:13.049Z</time></trkpt><trkpt lat="44.3814782" lon="11.1341928"><ele>463.0</ele><time>2026-03-29T10:51:15.048Z</time></trkpt><trkpt lat="44.381435" lon="11.1341062"><ele>463.0</ele><time>2026-03-29T10:51:17.048Z</time></trkpt><trkpt lat="44.3814031" lon="11.1339918"><ele>463.00000000000006</ele><time>2026-03-29T10:51:24.048Z</time></trkpt><trkpt lat="44.3813279" lon="11.1338683"><ele>463.0</ele><time>2026-03-29T10:51:26.049Z</time></trkpt><trkpt lat="44.3812853" lon="11.1337831"><ele>464.00000000000006</ele><time>2026-03-29T10:51:27.048Z</time></trkpt><trkpt lat="44.3812423" lon="11.1336977"><ele>465.0</ele><time>2026-03-29T10:51:28.048Z</time></trkpt><trkpt lat="44.381198" lon="11.1336119"><ele>466.0</ele><time>2026-03-29T10:51:29.049Z</time></trkpt><trkpt lat="44.3811513" lon="11.1335214"><ele>467.0</ele><time>2026-03-29T10:51:30.049Z</time></trkpt><trkpt lat="44.3811007" lon="11.133413"><ele>468.00000000000006</ele><time>2026-03-29T10:51:31.048Z</time></trkpt><trkpt lat="44.3810458" lon="11.1332985"><ele>469.0</ele><time>2026-03-29T10:51:32.048Z</time></trkpt><trkpt lat="44.3809905" lon="11.1331877"><ele>469.00000000000006</ele><time>2026-03-29T10:51:33.049Z</time></trkpt><trkpt lat="44.3809334" lon="11.1330664"><ele>469.0</ele><time>2026-03-29T10:51:34.048Z</time></trkpt><trkpt lat="44.3808909" lon="11.1329895"><ele>469.0</ele><time>2026-03-29T10:51:35.048Z</time></trkpt><trkpt lat="44.3807917" lon="11.1328952"><ele>469.0</ele><time>2026-03-29T10:51:37.049Z</time></trkpt><trkpt lat="44.3807269" lon="11.1328857"><ele>469.00000000000006</ele><time>2026-03-29T10:51:38.049Z</time></trkpt><trkpt lat="44.3806572" lon="11.1328947"><ele>469.0</ele><time>2026-03-29T10:51:39.048Z</time></trkpt><trkpt lat="44.3805864" lon="11.1329062"><ele>471.1666666666667</ele><time>2026-03-29T10:51:40.049Z</time></trkpt><trkpt lat="44.3805122" lon="11.132923"><ele>473.33333333333337</ele><time>2026-03-29T10:51:41.049Z</time></trkpt><trkpt lat="44.3804288" lon="11.1329437"><ele>475.5</ele><time>2026-03-29T10:51:42.049Z</time></trkpt><trkpt lat="44.3803513" lon="11.1329705"><ele>477.66666666666663</ele><time>2026-03-29T10:51:43.049Z</time></trkpt><trkpt lat="44.3802681" lon="11.1329992"><ele>479.8333333333333</ele><time>2026-03-29T10:51:44.049Z</time></trkpt><trkpt lat="44.380191" lon="11.1330261"><ele>482.0</ele><time>2026-03-29T10:51:45.049Z</time></trkpt><trkpt lat="44.3801198" lon="11.13304"><ele>482.0</ele><time>2026-03-29T10:51:46.049Z</time></trkpt><trkpt lat="44.3800573" lon="11.1330539"><ele>482.00000000000006</ele><time>2026-03-29T10:51:47.049Z</time></trkpt><trkpt lat="44.3799643" lon="11.1331162"><ele>482.00000000000006</ele><time>2026-03-29T10:51:49.048Z</time></trkpt><trkpt lat="44.3798958" lon="11.1331544"><ele>482.0</ele><time>2026-03-29T10:51:52.048Z</time></trkpt><trkpt lat="44.3798493" lon="11.1330873"><ele>482.0</ele><time>2026-03-29T10:52:00.049Z</time></trkpt><trkpt lat="44.3797721" lon="11.1329147"><ele>482.0</ele><time>2026-03-29T10:52:02.048Z</time></trkpt><trkpt lat="44.3797185" lon="11.1327996"><ele>482.00000000000006</ele><time>2026-03-29T10:52:03.049Z</time></trkpt><trkpt lat="44.3796576" lon="11.1326841"><ele>482.00000000000006</ele><time>2026-03-29T10:52:04.049Z</time></trkpt><trkpt lat="44.3795933" lon="11.1325675"><ele>482.0</ele><time>2026-03-29T10:52:05.048Z</time></trkpt><trkpt lat="44.3795275" lon="11.1324507"><ele>482.0</ele><time>2026-03-29T10:52:06.049Z</time></trkpt><trkpt lat="44.3794694" lon="11.13233"><ele>485.16666666666663</ele><time>2026-03-29T10:52:07.049Z</time></trkpt><trkpt lat="44.3794166" lon="11.1322408"><ele>488.3333333333333</ele><time>2026-03-29T10:52:08.049Z</time></trkpt><trkpt lat="44.379357" lon="11.1321628"><ele>491.5</ele><time>2026-03-29T10:52:09.048Z</time></trkpt><trkpt lat="44.3792878" lon="11.1321038"><ele>494.66666666666663</ele><time>2026-03-29T10:52:10.049Z</time></trkpt><trkpt lat="44.3792143" lon="11.1320317"><ele>497.8333333333333</ele><time>2026-03-29T10:52:11.049Z</time></trkpt><trkpt lat="44.3791359" lon="11.1319567"><ele>501.0</ele><time>2026-03-29T10:52:12.049Z</time></trkpt><trkpt lat="44.379052" lon="11.1318888"><ele>501.0</ele><time>2026-03-29T10:52:13.048Z</time></trkpt><trkpt lat="44.3789779" lon="11.1318266"><ele>501.0</ele><time>2026-03-29T10:52:14.049Z</time></trkpt><trkpt lat="44.3789114" lon="11.1317776"><ele>501.0</ele><time>2026-03-29T10:52:15.048Z</time></trkpt><trkpt lat="44.3788443" lon="11.1317241"><ele>501.0</ele><time>2026-03-29T10:52:16.049Z</time></trkpt><trkpt lat="44.3787501" lon="11.131627"><ele>501.0</ele><time>2026-03-29T10:52:18.049Z</time></trkpt><trkpt lat="44.3787192" lon="11.1315199"><ele>501.0</ele><time>2026-03-29T10:52:20.049Z</time></trkpt><trkpt lat="44.3787622" lon="11.1314104"><ele>500.8</ele><time>2026-03-29T10:52:23.049Z</time></trkpt><trkpt lat="44.3788323" lon="11.1312873"><ele>500.6</ele><time>2026-03-29T10:52:25.048Z</time></trkpt><trkpt lat="44.378891" lon="11.1311801"><ele>500.4</ele><time>2026-03-29T10:52:27.049Z</time></trkpt><trkpt lat="44.3789866" lon="11.1311617"><ele>500.2</ele><time>2026-03-29T10:52:29.048Z</time></trkpt><trkpt lat="44.3791" lon="11.1311103"><ele>500.0</ele><time>2026-03-29T10:52:31.048Z</time></trkpt><trkpt lat="44.3791625" lon="11.1310693"><ele>499.99999999999994</ele><time>2026-03-29T10:52:32.048Z</time></trkpt><trkpt lat="44.3792231" lon="11.1310146"><ele>500.0</ele><time>2026-03-29T10:52:33.049Z</time></trkpt><trkpt lat="44.3792695" lon="11.1309401"><ele>500.0</ele><time>2026-03-29T10:52:38.049Z</time></trkpt><trkpt lat="44.3792677" lon="11.1308373"><ele>500.0</ele><time>2026-03-29T10:52:40.049Z</time></trkpt><trkpt lat="44.3792543" lon="11.1307323"><ele>499.99999999999994</ele><time>2026-03-29T10:52:42.049Z</time></trkpt><trkpt lat="44.3792377" lon="11.1306297"><ele>500.0</ele><time>2026-03-29T10:52:44.049Z</time></trkpt><trkpt lat="44.3792154" lon="11.1305186"><ele>499.4</ele><time>2026-03-29T10:52:46.048Z</time></trkpt><trkpt lat="44.3791953" lon="11.1303711"><ele>498.8</ele><time>2026-03-29T10:52:48.049Z</time></trkpt><trkpt lat="44.3791851" lon="11.1302412"><ele>498.20000000000005</ele><time>2026-03-29T10:52:50.049Z</time></trkpt><trkpt lat="44.3791902" lon="11.1300982"><ele>497.6</ele><time>2026-03-29T10:52:52.049Z</time></trkpt><trkpt lat="44.3791955" lon="11.1299918"><ele>497.0</ele><time>2026-03-29T10:52:54.049Z</time></trkpt><trkpt lat="44.3792187" lon="11.1298718"><ele>497.0</ele><time>2026-03-29T10:52:57.048Z</time></trkpt><trkpt lat="44.3792335" lon="11.1297614"><ele>497.0</ele><time>2026-03-29T10:54:15.048Z</time></trkpt><trkpt lat="44.3792927" lon="11.1297211"><ele>497.0</ele><time>2026-03-29T10:55:12.049Z</time></trkpt><trkpt lat="44.3792311" lon="11.1297466"><ele>497.0</ele><time>2026-03-29T10:58:55.056Z</time></trkpt><trkpt lat="44.379178" lon="11.1298107"><ele>497.0</ele><time>2026-03-29T11:00:25.065Z</time></trkpt><trkpt lat="44.3791654" lon="11.1299055"><ele>497.0</ele><time>2026-03-29T11:01:23.049Z</time></trkpt><trkpt lat="44.3791578" lon="11.1299987"><ele>497.0</ele><time>2026-03-29T11:01:28.049Z</time></trkpt><trkpt lat="44.3791533" lon="11.1301108"><ele>496.99999999999994</ele><time>2026-03-29T11:01:31.048Z</time></trkpt><trkpt lat="44.3791492" lon="11.1302101"><ele>497.0</ele><time>2026-03-29T11:01:33.048Z</time></trkpt><trkpt lat="44.3791547" lon="11.1303141"><ele>497.0</ele><time>2026-03-29T11:01:35.048Z</time></trkpt><trkpt lat="44.3791687" lon="11.1304366"><ele>497.0</ele><time>2026-03-29T11:01:37.049Z</time></trkpt><trkpt lat="44.3791915" lon="11.1305575"><ele>496.99999999999994</ele><time>2026-03-29T11:01:39.048Z</time></trkpt><trkpt lat="44.3792043" lon="11.1306677"><ele>497.0</ele><time>2026-03-29T11:01:41.049Z</time></trkpt><trkpt lat="44.3792198" lon="11.130764"><ele>497.49999999999994</ele><time>2026-03-29T11:01:43.048Z</time></trkpt><trkpt lat="44.3792237" lon="11.1308671"><ele>498.0</ele><time>2026-03-29T11:01:45.049Z</time></trkpt><trkpt lat="44.3791976" lon="11.1309541"><ele>498.5</ele><time>2026-03-29T11:01:47.048Z</time></trkpt><trkpt lat="44.379134" lon="11.1310595"><ele>499.0</ele><time>2026-03-29T11:01:50.049Z</time></trkpt><trkpt lat="44.3790767" lon="11.1311068"><ele>499.49999999999994</ele><time>2026-03-29T11:01:52.049Z</time></trkpt><trkpt lat="44.3789886" lon="11.1311347"><ele>500.0</ele><time>2026-03-29T11:01:54.049Z</time></trkpt><trkpt lat="44.3788855" lon="11.1311581"><ele>502.8333333333333</ele><time>2026-03-29T11:01:56.049Z</time></trkpt><trkpt lat="44.378821" lon="11.1312314"><ele>505.66666666666663</ele><time>2026-03-29T11:01:58.049Z</time></trkpt><trkpt lat="44.3787876" lon="11.1313126"><ele>508.5</ele><time>2026-03-29T11:02:00.048Z</time></trkpt><trkpt lat="44.3787665" lon="11.1314025"><ele>511.33333333333337</ele><time>2026-03-29T11:02:03.048Z</time></trkpt><trkpt lat="44.3787119" lon="11.1314677"><ele>514.1666666666667</ele><time>2026-03-29T11:02:06.049Z</time></trkpt><trkpt lat="44.3786146" lon="11.1314447"><ele>517.0</ele><time>2026-03-29T11:02:14.048Z</time></trkpt><trkpt lat="44.3785007" lon="11.1313436"><ele>517.0</ele><time>2026-03-29T11:02:16.048Z</time></trkpt><trkpt lat="44.3784321" lon="11.131279"><ele>517.0</ele><time>2026-03-29T11:02:17.049Z</time></trkpt><trkpt lat="44.378373" lon="11.1312441"><ele>517.0</ele><time>2026-03-29T11:02:18.048Z</time></trkpt><trkpt lat="44.3783111" lon="11.1311914"><ele>517.0</ele><time>2026-03-29T11:02:19.049Z</time></trkpt><trkpt lat="44.3782638" lon="11.1311268"><ele>517.0</ele><time>2026-03-29T11:02:20.048Z</time></trkpt><trkpt lat="44.3781913" lon="11.1310189"><ele>517.0</ele><time>2026-03-29T11:02:22.049Z</time></trkpt><trkpt lat="44.3780832" lon="11.1309387"><ele>519.0</ele><time>2026-03-29T11:02:24.049Z</time></trkpt><trkpt lat="44.3779682" lon="11.1308363"><ele>521.0</ele><time>2026-03-29T11:02:26.048Z</time></trkpt><trkpt lat="44.3778837" lon="11.1307562"><ele>523.0</ele><time>2026-03-29T11:02:27.049Z</time></trkpt><trkpt lat="44.3778217" lon="11.1306721"><ele>525.0</ele><time>2026-03-29T11:02:28.049Z</time></trkpt><trkpt lat="44.3777702" lon="11.1305793"><ele>527.0</ele><time>2026-03-29T11:02:29.049Z</time></trkpt><trkpt lat="44.3777251" lon="11.1304795"><ele>527.5</ele><time>2026-03-29T11:02:30.048Z</time></trkpt><trkpt lat="44.3776851" lon="11.1303713"><ele>528.0</ele><time>2026-03-29T11:02:31.049Z</time></trkpt><trkpt lat="44.3776453" lon="11.1302682"><ele>528.5</ele><time>2026-03-29T11:02:32.048Z</time></trkpt><trkpt lat="44.3776046" lon="11.1301706"><ele>529.0</ele><time>2026-03-29T11:02:33.049Z</time></trkpt><trkpt lat="44.3775455" lon="11.1300784"><ele>529.5</ele><time>2026-03-29T11:02:34.049Z</time></trkpt><trkpt lat="44.3774875" lon="11.1299985"><ele>530.0</ele><time>2026-03-29T11:02:35.049Z</time></trkpt><trkpt lat="44.3774164" lon="11.1299049"><ele>529.0</ele><time>2026-03-29T11:02:36.049Z</time></trkpt><trkpt lat="44.3773379" lon="11.1298068"><ele>528.0</ele><time>2026-03-29T11:02:37.049Z</time></trkpt><trkpt lat="44.3772553" lon="11.1296985"><ele>527.0</ele><time>2026-03-29T11:02:38.048Z</time></trkpt><trkpt lat="44.3771682" lon="11.1295935"><ele>526.0</ele><time>2026-03-29T11:02:39.048Z</time></trkpt><trkpt lat="44.3770724" lon="11.1295162"><ele>525.0</ele><time>2026-03-29T11:02:40.049Z</time></trkpt><trkpt lat="44.3769732" lon="11.1294574"><ele>528.25</ele><time>2026-03-29T11:02:41.049Z</time></trkpt><trkpt lat="44.3768612" lon="11.1294364"><ele>531.5</ele><time>2026-03-29T11:02:42.049Z</time></trkpt><trkpt lat="44.3767458" lon="11.1294406"><ele>534.75</ele><time>2026-03-29T11:02:43.049Z</time></trkpt><trkpt lat="44.3766259" lon="11.1294572"><ele>538.0</ele><time>2026-03-29T11:02:44.049Z</time></trkpt><trkpt lat="44.3764972" lon="11.1294807"><ele>538.0</ele><time>2026-03-29T11:02:45.049Z</time></trkpt><trkpt lat="44.3763603" lon="11.129504"><ele>538.0</ele><time>2026-03-29T11:02:46.049Z</time></trkpt><trkpt lat="44.3762326" lon="11.1295202"><ele>538.0</ele><time>2026-03-29T11:02:47.048Z</time></trkpt><trkpt lat="44.3761114" lon="11.1295359"><ele>538.0</ele><time>2026-03-29T11:02:48.049Z</time></trkpt><trkpt lat="44.3759964" lon="11.1295479"><ele>540.0</ele><time>2026-03-29T11:02:49.049Z</time></trkpt><trkpt lat="44.3758919" lon="11.1295636"><ele>542.0</ele><time>2026-03-29T11:02:50.048Z</time></trkpt><trkpt lat="44.3757967" lon="11.1295831"><ele>544.0</ele><time>2026-03-29T11:02:51.049Z</time></trkpt><trkpt lat="44.3757053" lon="11.1295942"><ele>546.0</ele><time>2026-03-29T11:02:52.048Z</time></trkpt><trkpt lat="44.3756152" lon="11.1295711"><ele>548.0</ele><time>2026-03-29T11:02:53.049Z</time></trkpt><trkpt lat="44.3755194" lon="11.1295319"><ele>549.0</ele><time>2026-03-29T11:02:54.049Z</time></trkpt><trkpt lat="44.375405" lon="11.1294324"><ele>550.0</ele><time>2026-03-29T11:02:55.048Z</time></trkpt><trkpt lat="44.3752875" lon="11.1293205"><ele>551.0</ele><time>2026-03-29T11:02:56.048Z</time></trkpt><trkpt lat="44.3751737" lon="11.1292195"><ele>552.0</ele><time>2026-03-29T11:02:57.049Z</time></trkpt><trkpt lat="44.3750583" lon="11.1291184"><ele>552.0</ele><time>2026-03-29T11:02:58.049Z</time></trkpt><trkpt lat="44.3749352" lon="11.1289996"><ele>552.0</ele><time>2026-03-29T11:02:59.048Z</time></trkpt><trkpt lat="44.3748158" lon="11.1288867"><ele>552.0</ele><time>2026-03-29T11:03:00.049Z</time></trkpt><trkpt lat="44.3746652" lon="11.1287345"><ele>553.0</ele><time>2026-03-29T11:03:01.049Z</time></trkpt><trkpt lat="44.3745177" lon="11.1285856"><ele>554.0</ele><time>2026-03-29T11:03:02.048Z</time></trkpt><trkpt lat="44.3743716" lon="11.1284209"><ele>555.0</ele><time>2026-03-29T11:03:03.048Z</time></trkpt><trkpt lat="44.3742269" lon="11.1282642"><ele>555.6666666666666</ele><time>2026-03-29T11:03:04.049Z</time></trkpt><trkpt lat="44.3740916" lon="11.1281141"><ele>556.3333333333333</ele><time>2026-03-29T11:03:05.049Z</time></trkpt><trkpt lat="44.3739614" lon="11.1279704"><ele>557.0</ele><time>2026-03-29T11:03:06.049Z</time></trkpt><trkpt lat="44.3738335" lon="11.1278313"><ele>558.6666666666666</ele><time>2026-03-29T11:03:07.049Z</time></trkpt><trkpt lat="44.3737021" lon="11.1276823"><ele>560.3333333333334</ele><time>2026-03-29T11:03:08.049Z</time></trkpt><trkpt lat="44.3735714" lon="11.1275415"><ele>562.0</ele><time>2026-03-29T11:03:09.049Z</time></trkpt><trkpt lat="44.373443" lon="11.1273941"><ele>563.3333333333334</ele><time>2026-03-29T11:03:10.048Z</time></trkpt><trkpt lat="44.373321" lon="11.1272566"><ele>564.6666666666666</ele><time>2026-03-29T11:03:11.049Z</time></trkpt><trkpt lat="44.373202" lon="11.1271086"><ele>566.0</ele><time>2026-03-29T11:03:12.049Z</time></trkpt><trkpt lat="44.3730836" lon="11.1269564"><ele>567.0</ele><time>2026-03-29T11:03:13.048Z</time></trkpt><trkpt lat="44.3729762" lon="11.1268134"><ele>568.0</ele><time>2026-03-29T11:03:14.049Z</time></trkpt><trkpt lat="44.37287" lon="11.1266726"><ele>569.0</ele><time>2026-03-29T11:03:15.049Z</time></trkpt><trkpt lat="44.3727684" lon="11.1265307"><ele>570.0</ele><time>2026-03-29T11:03:16.049Z</time></trkpt><trkpt lat="44.3726731" lon="11.1263901"><ele>570.75</ele><time>2026-03-29T11:03:17.049Z</time></trkpt><trkpt lat="44.3725772" lon="11.1262671"><ele>571.5</ele><time>2026-03-29T11:03:18.049Z</time></trkpt><trkpt lat="44.3724854" lon="11.1261496"><ele>572.25</ele><time>2026-03-29T11:03:19.049Z</time></trkpt><trkpt lat="44.3724112" lon="11.1260216"><ele>573.0</ele><time>2026-03-29T11:03:20.048Z</time></trkpt><trkpt lat="44.37234" lon="11.1258844"><ele>573.0</ele><time>2026-03-29T11:03:21.049Z</time></trkpt><trkpt lat="44.3722842" lon="11.1257308"><ele>573.0</ele><time>2026-03-29T11:03:22.049Z</time></trkpt><trkpt lat="44.3722474" lon="11.1255864"><ele>573.0</ele><time>2026-03-29T11:03:23.049Z</time></trkpt><trkpt lat="44.3722163" lon="11.1254359"><ele>573.0</ele><time>2026-03-29T11:03:24.049Z</time></trkpt><trkpt lat="44.3721942" lon="11.1252969"><ele>573.0</ele><time>2026-03-29T11:03:25.049Z</time></trkpt><trkpt lat="44.3721698" lon="11.1251692"><ele>574.1666666666666</ele><time>2026-03-29T11:03:26.048Z</time></trkpt><trkpt lat="44.3721477" lon="11.1250531"><ele>575.3333333333334</ele><time>2026-03-29T11:03:27.049Z</time></trkpt><trkpt lat="44.3721282" lon="11.124949"><ele>576.5</ele><time>2026-03-29T11:03:28.049Z</time></trkpt><trkpt lat="44.3721091" lon="11.1248584"><ele>577.6666666666667</ele><time>2026-03-29T11:03:29.048Z</time></trkpt><trkpt lat="44.3720638" lon="11.1247483"><ele>578.8333333333334</ele><time>2026-03-29T11:03:31.049Z</time></trkpt><trkpt lat="44.372104" lon="11.1246615"><ele>580.0</ele><time>2026-03-29T11:03:33.049Z</time></trkpt><trkpt lat="44.372176" lon="11.1246382"><ele>580.5</ele><time>2026-03-29T11:03:34.049Z</time></trkpt><trkpt lat="44.3722745" lon="11.124614"><ele>581.0</ele><time>2026-03-29T11:03:35.048Z</time></trkpt><trkpt lat="44.3723841" lon="11.1245818"><ele>581.5</ele><time>2026-03-29T11:03:36.049Z</time></trkpt><trkpt lat="44.372497" lon="11.1245718"><ele>582.0</ele><time>2026-03-29T11:03:37.048Z</time></trkpt><trkpt lat="44.3726314" lon="11.1245823"><ele>582.0</ele><time>2026-03-29T11:03:38.049Z</time></trkpt><trkpt lat="44.3727816" lon="11.1245932"><ele>582.0</ele><time>2026-03-29T11:03:39.048Z</time></trkpt><trkpt lat="44.3729473" lon="11.1245728"><ele>582.0</ele><time>2026-03-29T11:03:40.048Z</time></trkpt><trkpt lat="44.3731086" lon="11.1245568"><ele>580.0</ele><time>2026-03-29T11:03:41.048Z</time></trkpt><trkpt lat="44.3732711" lon="11.1245493"><ele>578.0</ele><time>2026-03-29T11:03:42.049Z</time></trkpt><trkpt lat="44.3734356" lon="11.1245405"><ele>576.0</ele><time>2026-03-29T11:03:43.049Z</time></trkpt><trkpt lat="44.3735992" lon="11.1245308"><ele>576.0</ele><time>2026-03-29T11:03:44.049Z</time></trkpt><trkpt lat="44.3737574" lon="11.1245149"><ele>576.0</ele><time>2026-03-29T11:03:45.048Z</time></trkpt><trkpt lat="44.373912" lon="11.1244948"><ele>576.0</ele><time>2026-03-29T11:03:46.048Z</time></trkpt><trkpt lat="44.3740646" lon="11.1244668"><ele>573.3333333333334</ele><time>2026-03-29T11:03:47.048Z</time></trkpt><trkpt lat="44.3742154" lon="11.124439"><ele>570.6666666666667</ele><time>2026-03-29T11:03:48.049Z</time></trkpt><trkpt lat="44.3743632" lon="11.1244286"><ele>568.0</ele><time>2026-03-29T11:03:49.049Z</time></trkpt><trkpt lat="44.3745187" lon="11.1244149"><ele>568.0</ele><time>2026-03-29T11:03:50.048Z</time></trkpt><trkpt lat="44.3746736" lon="11.124415"><ele>568.0</ele><time>2026-03-29T11:03:51.049Z</time></trkpt><trkpt lat="44.3748266" lon="11.1244184"><ele>568.0</ele><time>2026-03-29T11:03:52.049Z</time></trkpt><trkpt lat="44.3749809" lon="11.1244101"><ele>567.0</ele><time>2026-03-29T11:03:53.048Z</time></trkpt><trkpt lat="44.3751274" lon="11.1243989"><ele>566.0</ele><time>2026-03-29T11:03:54.049Z</time></trkpt><trkpt lat="44.375263" lon="11.1243862"><ele>565.0</ele><time>2026-03-29T11:03:55.049Z</time></trkpt><trkpt lat="44.3753965" lon="11.1243759"><ele>564.0</ele><time>2026-03-29T11:03:56.048Z</time></trkpt><trkpt lat="44.3755312" lon="11.1243812"><ele>562.75</ele><time>2026-03-29T11:03:57.049Z</time></trkpt><trkpt lat="44.3756655" lon="11.1244003"><ele>561.5</ele><time>2026-03-29T11:03:58.049Z</time></trkpt><trkpt lat="44.3758083" lon="11.1244078"><ele>560.25</ele><time>2026-03-29T11:03:59.048Z</time></trkpt><trkpt lat="44.3759394" lon="11.1244079"><ele>559.0</ele><time>2026-03-29T11:04:00.048Z</time></trkpt><trkpt lat="44.3760537" lon="11.124398"><ele>559.0</ele><time>2026-03-29T11:04:01.049Z</time></trkpt><trkpt lat="44.3761612" lon="11.1243804"><ele>559.0</ele><time>2026-03-29T11:04:02.048Z</time></trkpt><trkpt lat="44.3762701" lon="11.1243266"><ele>559.0</ele><time>2026-03-29T11:04:03.048Z</time></trkpt><trkpt lat="44.3763807" lon="11.1242393"><ele>559.0</ele><time>2026-03-29T11:04:04.049Z</time></trkpt><trkpt lat="44.3765001" lon="11.1241713"><ele>557.25</ele><time>2026-03-29T11:04:05.049Z</time></trkpt><trkpt lat="44.3766339" lon="11.1241316"><ele>555.5</ele><time>2026-03-29T11:04:06.049Z</time></trkpt><trkpt lat="44.3767859" lon="11.1241184"><ele>553.75</ele><time>2026-03-29T11:04:07.049Z</time></trkpt><trkpt lat="44.3769393" lon="11.1240929"><ele>552.0</ele><time>2026-03-29T11:04:08.048Z</time></trkpt><trkpt lat="44.3770923" lon="11.124063"><ele>547.3333333333334</ele><time>2026-03-29T11:04:09.049Z</time></trkpt><trkpt lat="44.377249" lon="11.1240273"><ele>542.6666666666667</ele><time>2026-03-29T11:04:10.049Z</time></trkpt><trkpt lat="44.3773984" lon="11.1239949"><ele>538.0</ele><time>2026-03-29T11:04:11.048Z</time></trkpt><trkpt lat="44.3775417" lon="11.1239592"><ele>538.0</ele><time>2026-03-29T11:04:12.048Z</time></trkpt><trkpt lat="44.3776809" lon="11.1239253"><ele>538.0</ele><time>2026-03-29T11:04:13.048Z</time></trkpt><trkpt lat="44.3778278" lon="11.1238941"><ele>538.0</ele><time>2026-03-29T11:04:14.049Z</time></trkpt><trkpt lat="44.3779701" lon="11.1238585"><ele>538.0</ele><time>2026-03-29T11:04:15.049Z</time></trkpt><trkpt lat="44.378098" lon="11.1238263"><ele>536.75</ele><time>2026-03-29T11:04:16.049Z</time></trkpt><trkpt lat="44.3782223" lon="11.1237983"><ele>535.5</ele><time>2026-03-29T11:04:17.048Z</time></trkpt><trkpt lat="44.3783458" lon="11.1237665"><ele>534.25</ele><time>2026-03-29T11:04:18.049Z</time></trkpt><trkpt lat="44.3784651" lon="11.1237445"><ele>533.0</ele><time>2026-03-29T11:04:19.049Z</time></trkpt><trkpt lat="44.3785919" lon="11.1237205"><ele>533.0</ele><time>2026-03-29T11:04:20.049Z</time></trkpt><trkpt lat="44.378718" lon="11.1236767"><ele>533.0</ele><time>2026-03-29T11:04:21.049Z</time></trkpt><trkpt lat="44.3788526" lon="11.1236534"><ele>533.0</ele><time>2026-03-29T11:04:22.049Z</time></trkpt><trkpt lat="44.3789822" lon="11.1236473"><ele>533.0</ele><time>2026-03-29T11:04:23.049Z</time></trkpt><trkpt lat="44.3790948" lon="11.1236483"><ele>530.25</ele><time>2026-03-29T11:04:24.049Z</time></trkpt><trkpt lat="44.3791789" lon="11.1237603"><ele>527.5</ele><time>2026-03-29T11:04:25.049Z</time></trkpt><trkpt lat="44.3792892" lon="11.1238285"><ele>524.75</ele><time>2026-03-29T11:04:26.049Z</time></trkpt><trkpt lat="44.3794011" lon="11.1239041"><ele>522.0</ele><time>2026-03-29T11:04:27.049Z</time></trkpt><trkpt lat="44.3795076" lon="11.1239886"><ele>521.25</ele><time>2026-03-29T11:04:28.049Z</time></trkpt><trkpt lat="44.3796236" lon="11.124078"><ele>520.5</ele><time>2026-03-29T11:04:29.049Z</time></trkpt><trkpt lat="44.3797477" lon="11.1241633"><ele>519.75</ele><time>2026-03-29T11:04:30.048Z</time></trkpt><trkpt lat="44.3798725" lon="11.1242752"><ele>519.0</ele><time>2026-03-29T11:04:31.049Z</time></trkpt><trkpt lat="44.3800167" lon="11.1243671"><ele>515.75</ele><time>2026-03-29T11:04:32.049Z</time></trkpt><trkpt lat="44.3801404" lon="11.124456"><ele>512.5</ele><time>2026-03-29T11:04:33.048Z</time></trkpt><trkpt lat="44.3802725" lon="11.1245371"><ele>509.25</ele><time>2026-03-29T11:04:34.049Z</time></trkpt><trkpt lat="44.3804029" lon="11.1245833"><ele>506.0</ele><time>2026-03-29T11:04:35.048Z</time></trkpt><trkpt lat="44.3805296" lon="11.1246203"><ele>502.75</ele><time>2026-03-29T11:04:36.049Z</time></trkpt><trkpt lat="44.3806484" lon="11.1246156"><ele>499.5</ele><time>2026-03-29T11:04:37.048Z</time></trkpt><trkpt lat="44.3807641" lon="11.1245924"><ele>496.25</ele><time>2026-03-29T11:04:38.049Z</time></trkpt><trkpt lat="44.3808959" lon="11.1245769"><ele>493.0</ele><time>2026-03-29T11:04:39.048Z</time></trkpt><trkpt lat="44.3810152" lon="11.1245345"><ele>493.0</ele><time>2026-03-29T11:04:40.049Z</time></trkpt><trkpt lat="44.3811708" lon="11.1245218"><ele>493.0</ele><time>2026-03-29T11:04:41.049Z</time></trkpt><trkpt lat="44.3813109" lon="11.1245269"><ele>493.0</ele><time>2026-03-29T11:04:42.049Z</time></trkpt><trkpt lat="44.3814465" lon="11.124557"><ele>493.0</ele><time>2026-03-29T11:04:43.048Z</time></trkpt><trkpt lat="44.3815785" lon="11.1246087"><ele>492.5</ele><time>2026-03-29T11:04:44.048Z</time></trkpt><trkpt lat="44.381678" lon="11.1247555"><ele>492.0</ele><time>2026-03-29T11:04:45.049Z</time></trkpt><trkpt lat="44.3817914" lon="11.1248623"><ele>491.5</ele><time>2026-03-29T11:04:46.049Z</time></trkpt><trkpt lat="44.3819007" lon="11.1249784"><ele>491.0</ele><time>2026-03-29T11:04:47.049Z</time></trkpt><trkpt lat="44.3820122" lon="11.1250989"><ele>491.0</ele><time>2026-03-29T11:04:48.049Z</time></trkpt><trkpt lat="44.382129" lon="11.1252068"><ele>491.0</ele><time>2026-03-29T11:04:49.048Z</time></trkpt><trkpt lat="44.382243" lon="11.1253095"><ele>491.0</ele><time>2026-03-29T11:04:50.049Z</time></trkpt><trkpt lat="44.3823655" lon="11.1254"><ele>491.0</ele><time>2026-03-29T11:04:51.049Z</time></trkpt><trkpt lat="44.3824913" lon="11.1254589"><ele>490.5</ele><time>2026-03-29T11:04:52.048Z</time></trkpt><trkpt lat="44.382617" lon="11.1255413"><ele>490.0</ele><time>2026-03-29T11:04:53.049Z</time></trkpt><trkpt lat="44.3827462" lon="11.1256228"><ele>489.5</ele><time>2026-03-29T11:04:54.049Z</time></trkpt><trkpt lat="44.382874" lon="11.125701"><ele>489.0</ele><time>2026-03-29T11:04:55.048Z</time></trkpt><trkpt lat="44.3829998" lon="11.1257836"><ele>486.75</ele><time>2026-03-29T11:04:56.049Z</time></trkpt><trkpt lat="44.3831261" lon="11.125856"><ele>484.5</ele><time>2026-03-29T11:04:57.049Z</time></trkpt><trkpt lat="44.3832534" lon="11.1259108"><ele>482.25</ele><time>2026-03-29T11:04:58.048Z</time></trkpt><trkpt lat="44.3833818" lon="11.1259695"><ele>480.0</ele><time>2026-03-29T11:04:59.049Z</time></trkpt><trkpt lat="44.3835058" lon="11.126041"><ele>480.0</ele><time>2026-03-29T11:05:00.049Z</time></trkpt><trkpt lat="44.3836214" lon="11.1261357"><ele>480.0</ele><time>2026-03-29T11:05:01.049Z</time></trkpt><trkpt lat="44.383734" lon="11.12625"><ele>480.0</ele><time>2026-03-29T11:05:02.048Z</time></trkpt><trkpt lat="44.383843" lon="11.1263355"><ele>480.0</ele><time>2026-03-29T11:05:03.049Z</time></trkpt><trkpt lat="44.3839616" lon="11.1264358"><ele>476.0</ele><time>2026-03-29T11:05:04.049Z</time></trkpt><trkpt lat="44.3840803" lon="11.1265262"><ele>472.0</ele><time>2026-03-29T11:05:05.048Z</time></trkpt><trkpt lat="44.3841962" lon="11.1266224"><ele>468.0</ele><time>2026-03-29T11:05:06.049Z</time></trkpt><trkpt lat="44.3843256" lon="11.126621"><ele>464.0</ele><time>2026-03-29T11:05:07.049Z</time></trkpt><trkpt lat="44.3844487" lon="11.1265975"><ele>464.0</ele><time>2026-03-29T11:05:08.048Z</time></trkpt><trkpt lat="44.3846204" lon="11.1265817"><ele>464.0</ele><time>2026-03-29T11:05:09.049Z</time></trkpt><trkpt lat="44.3847311" lon="11.1265265"><ele>464.0</ele><time>2026-03-29T11:05:10.048Z</time></trkpt><trkpt lat="44.3848901" lon="11.1264537"><ele>456.66666666666663</ele><time>2026-03-29T11:05:11.049Z</time></trkpt><trkpt lat="44.3850556" lon="11.126384"><ele>449.33333333333337</ele><time>2026-03-29T11:05:12.048Z</time></trkpt><trkpt lat="44.3852092" lon="11.1263267"><ele>442.0</ele><time>2026-03-29T11:05:13.049Z</time></trkpt><trkpt lat="44.3853693" lon="11.126259"><ele>440.33333333333337</ele><time>2026-03-29T11:05:14.049Z</time></trkpt><trkpt lat="44.3855251" lon="11.1262195"><ele>438.66666666666663</ele><time>2026-03-29T11:05:15.049Z</time></trkpt><trkpt lat="44.3856797" lon="11.1262101"><ele>437.0</ele><time>2026-03-29T11:05:16.049Z</time></trkpt><trkpt lat="44.3858177" lon="11.1262288"><ele>437.0</ele><time>2026-03-29T11:05:17.049Z</time></trkpt><trkpt lat="44.3859523" lon="11.1262557"><ele>437.0</ele><time>2026-03-29T11:05:18.049Z</time></trkpt><trkpt lat="44.3860819" lon="11.1262998"><ele>437.0</ele><time>2026-03-29T11:05:19.048Z</time></trkpt><trkpt lat="44.3862213" lon="11.1263594"><ele>437.0</ele><time>2026-03-29T11:05:20.049Z</time></trkpt><trkpt lat="44.3863585" lon="11.1264169"><ele>434.0</ele><time>2026-03-29T11:05:21.049Z</time></trkpt><trkpt lat="44.3864891" lon="11.1264583"><ele>431.0</ele><time>2026-03-29T11:05:22.049Z</time></trkpt><trkpt lat="44.3866132" lon="11.1265176"><ele>428.0</ele><time>2026-03-29T11:05:23.048Z</time></trkpt><trkpt lat="44.3867262" lon="11.1265774"><ele>425.0</ele><time>2026-03-29T11:05:24.049Z</time></trkpt><trkpt lat="44.3868179" lon="11.1266668"><ele>425.0</ele><time>2026-03-29T11:05:25.049Z</time></trkpt><trkpt lat="44.3868999" lon="11.1267668"><ele>425.0</ele><time>2026-03-29T11:05:26.049Z</time></trkpt><trkpt lat="44.3869584" lon="11.1269036"><ele>425.0</ele><time>2026-03-29T11:05:27.049Z</time></trkpt><trkpt lat="44.3870048" lon="11.1270528"><ele>425.0</ele><time>2026-03-29T11:05:28.049Z</time></trkpt><trkpt lat="44.3870427" lon="11.1272099"><ele>425.0</ele><time>2026-03-29T11:05:29.048Z</time></trkpt><trkpt lat="44.387082" lon="11.1273753"><ele>425.0</ele><time>2026-03-29T11:05:30.049Z</time></trkpt><trkpt lat="44.3871233" lon="11.1275365"><ele>425.0</ele><time>2026-03-29T11:05:31.049Z</time></trkpt><trkpt lat="44.3871603" lon="11.1277021"><ele>425.0</ele><time>2026-03-29T11:05:32.048Z</time></trkpt><trkpt lat="44.3872052" lon="11.1278731"><ele>419.75</ele><time>2026-03-29T11:05:33.049Z</time></trkpt><trkpt lat="44.3872459" lon="11.1280433"><ele>414.5</ele><time>2026-03-29T11:05:34.049Z</time></trkpt><trkpt lat="44.3872922" lon="11.1282114"><ele>409.25</ele><time>2026-03-29T11:05:35.049Z</time></trkpt><trkpt lat="44.3873388" lon="11.1283969"><ele>404.0</ele><time>2026-03-29T11:05:36.049Z</time></trkpt><trkpt lat="44.3873931" lon="11.1285825"><ele>401.5</ele><time>2026-03-29T11:05:37.049Z</time></trkpt><trkpt lat="44.3874407" lon="11.1287353"><ele>399.0</ele><time>2026-03-29T11:05:38.049Z</time></trkpt><trkpt lat="44.3874947" lon="11.1288881"><ele>396.5</ele><time>2026-03-29T11:05:39.049Z</time></trkpt><trkpt lat="44.3875535" lon="11.1290325"><ele>394.0</ele><time>2026-03-29T11:05:40.049Z</time></trkpt><trkpt lat="44.3876156" lon="11.1291632"><ele>391.25</ele><time>2026-03-29T11:05:41.048Z</time></trkpt><trkpt lat="44.3876891" lon="11.1292914"><ele>388.5</ele><time>2026-03-29T11:05:42.049Z</time></trkpt><trkpt lat="44.387757" lon="11.1294171"><ele>385.75</ele><time>2026-03-29T11:05:43.049Z</time></trkpt><trkpt lat="44.3878351" lon="11.1295497"><ele>383.0</ele><time>2026-03-29T11:05:44.049Z</time></trkpt><trkpt lat="44.3879157" lon="11.1296807"><ele>383.0</ele><time>2026-03-29T11:05:45.048Z</time></trkpt><trkpt lat="44.3880085" lon="11.1298136"><ele>383.0</ele><time>2026-03-29T11:05:46.049Z</time></trkpt><trkpt lat="44.388104" lon="11.1299467"><ele>383.0</ele><time>2026-03-29T11:05:47.049Z</time></trkpt><trkpt lat="44.3882031" lon="11.1300732"><ele>383.0</ele><time>2026-03-29T11:05:48.049Z</time></trkpt><trkpt lat="44.3883065" lon="11.1302035"><ele>378.25</ele><time>2026-03-29T11:05:49.049Z</time></trkpt><trkpt lat="44.3884041" lon="11.1303193"><ele>373.5</ele><time>2026-03-29T11:05:50.048Z</time></trkpt><trkpt lat="44.3884996" lon="11.1304375"><ele>368.75</ele><time>2026-03-29T11:05:51.049Z</time></trkpt><trkpt lat="44.3885843" lon="11.1305452"><ele>364.0</ele><time>2026-03-29T11:05:52.049Z</time></trkpt><trkpt lat="44.388658" lon="11.1306621"><ele>361.4</ele><time>2026-03-29T11:05:53.049Z</time></trkpt><trkpt lat="44.3887191" lon="11.1307979"><ele>358.79999999999995</ele><time>2026-03-29T11:05:54.049Z</time></trkpt><trkpt lat="44.388752" lon="11.1309359"><ele>356.20000000000005</ele><time>2026-03-29T11:05:55.049Z</time></trkpt><trkpt lat="44.3887758" lon="11.1311024"><ele>353.6</ele><time>2026-03-29T11:05:56.049Z</time></trkpt><trkpt lat="44.3887884" lon="11.1312544"><ele>351.0</ele><time>2026-03-29T11:05:57.048Z</time></trkpt><trkpt lat="44.3887925" lon="11.131417"><ele>347.5</ele><time>2026-03-29T11:05:58.049Z</time></trkpt><trkpt lat="44.3888081" lon="11.131575"><ele>344.0</ele><time>2026-03-29T11:05:59.048Z</time></trkpt><trkpt lat="44.3888239" lon="11.131733"><ele>340.5</ele><time>2026-03-29T11:06:00.049Z</time></trkpt><trkpt lat="44.3888348" lon="11.1318889"><ele>337.0</ele><time>2026-03-29T11:06:01.049Z</time></trkpt><trkpt lat="44.3888413" lon="11.1320443"><ele>335.3333333333333</ele><time>2026-03-29T11:06:02.048Z</time></trkpt><trkpt lat="44.388852" lon="11.1321746"><ele>333.66666666666663</ele><time>2026-03-29T11:06:03.049Z</time></trkpt><trkpt lat="44.3888646" lon="11.1322994"><ele>332.0</ele><time>2026-03-29T11:06:04.049Z</time></trkpt><trkpt lat="44.3888544" lon="11.132394"><ele>330.3333333333333</ele><time>2026-03-29T11:06:05.049Z</time></trkpt><trkpt lat="44.3888185" lon="11.1324934"><ele>328.6666666666667</ele><time>2026-03-29T11:06:06.049Z</time></trkpt><trkpt lat="44.3887555" lon="11.1325904"><ele>327.0</ele><time>2026-03-29T11:06:07.049Z</time></trkpt><trkpt lat="44.3886876" lon="11.1326413"><ele>326.6666666666667</ele><time>2026-03-29T11:06:08.049Z</time></trkpt><trkpt lat="44.3886207" lon="11.1326855"><ele>326.3333333333333</ele><time>2026-03-29T11:06:09.049Z</time></trkpt><trkpt lat="44.3885462" lon="11.132734"><ele>326.0</ele><time>2026-03-29T11:06:10.049Z</time></trkpt><trkpt lat="44.3884738" lon="11.1327822"><ele>325.66666666666663</ele><time>2026-03-29T11:06:11.049Z</time></trkpt><trkpt lat="44.3884059" lon="11.1328304"><ele>325.3333333333333</ele><time>2026-03-29T11:06:12.048Z</time></trkpt><trkpt lat="44.3883339" lon="11.1328743"><ele>325.0</ele><time>2026-03-29T11:06:13.049Z</time></trkpt><trkpt lat="44.3882565" lon="11.1329164"><ele>325.0</ele><time>2026-03-29T11:06:14.048Z</time></trkpt><trkpt lat="44.3881827" lon="11.1329714"><ele>325.0</ele><time>2026-03-29T11:06:15.048Z</time></trkpt><trkpt lat="44.3881288" lon="11.1330579"><ele>325.0</ele><time>2026-03-29T11:06:16.048Z</time></trkpt><trkpt lat="44.3880919" lon="11.1331577"><ele>325.0</ele><time>2026-03-29T11:06:17.048Z</time></trkpt><trkpt lat="44.3880853" lon="11.1332672"><ele>325.0</ele><time>2026-03-29T11:06:18.048Z</time></trkpt><trkpt lat="44.3880964" lon="11.1333757"><ele>325.0</ele><time>2026-03-29T11:06:19.049Z</time></trkpt><trkpt lat="44.3881165" lon="11.1334787"><ele>323.16666666666663</ele><time>2026-03-29T11:06:20.049Z</time></trkpt><trkpt lat="44.3881496" lon="11.1335771"><ele>321.3333333333333</ele><time>2026-03-29T11:06:21.049Z</time></trkpt><trkpt lat="44.3881899" lon="11.133672"><ele>319.5</ele><time>2026-03-29T11:06:22.049Z</time></trkpt><trkpt lat="44.3882356" lon="11.1337636"><ele>317.6666666666667</ele><time>2026-03-29T11:06:23.049Z</time></trkpt><trkpt lat="44.3882904" lon="11.1338473"><ele>315.83333333333337</ele><time>2026-03-29T11:06:24.049Z</time></trkpt><trkpt lat="44.3883546" lon="11.1339131"><ele>314.0</ele><time>2026-03-29T11:06:25.049Z</time></trkpt><trkpt lat="44.388426" lon="11.1339631"><ele>314.0</ele><time>2026-03-29T11:06:26.049Z</time></trkpt><trkpt lat="44.3885068" lon="11.1339953"><ele>314.0</ele><time>2026-03-29T11:06:27.049Z</time></trkpt><trkpt lat="44.3885924" lon="11.1340299"><ele>314.0</ele><time>2026-03-29T11:06:28.048Z</time></trkpt><trkpt lat="44.3886848" lon="11.1340349"><ele>314.0</ele><time>2026-03-29T11:06:29.048Z</time></trkpt><trkpt lat="44.3887794" lon="11.1340313"><ele>314.0</ele><time>2026-03-29T11:06:30.048Z</time></trkpt><trkpt lat="44.3888721" lon="11.134016"><ele>312.6666666666667</ele><time>2026-03-29T11:06:31.049Z</time></trkpt><trkpt lat="44.3889677" lon="11.134002"><ele>311.33333333333337</ele><time>2026-03-29T11:06:32.048Z</time></trkpt><trkpt lat="44.3890548" lon="11.1339816"><ele>310.0</ele><time>2026-03-29T11:06:33.048Z</time></trkpt><trkpt lat="44.3891387" lon="11.1339464"><ele>308.6666666666667</ele><time>2026-03-29T11:06:34.049Z</time></trkpt><trkpt lat="44.3892171" lon="11.1339033"><ele>307.3333333333333</ele><time>2026-03-29T11:06:35.049Z</time></trkpt><trkpt lat="44.3892889" lon="11.1338494"><ele>306.0</ele><time>2026-03-29T11:06:36.048Z</time></trkpt><trkpt lat="44.3893554" lon="11.1337966"><ele>306.0</ele><time>2026-03-29T11:06:37.048Z</time></trkpt><trkpt lat="44.3894287" lon="11.1337391"><ele>306.0</ele><time>2026-03-29T11:06:38.049Z</time></trkpt><trkpt lat="44.3894935" lon="11.1336585"><ele>306.0</ele><time>2026-03-29T11:06:39.049Z</time></trkpt><trkpt lat="44.38956" lon="11.1335854"><ele>306.0</ele><time>2026-03-29T11:06:40.049Z</time></trkpt><trkpt lat="44.3896228" lon="11.133525"><ele>306.0</ele><time>2026-03-29T11:06:41.049Z</time></trkpt><trkpt lat="44.3896899" lon="11.1334715"><ele>306.0</ele><time>2026-03-29T11:06:42.049Z</time></trkpt><trkpt lat="44.3897556" lon="11.1334452"><ele>303.40000000000003</ele><time>2026-03-29T11:06:43.049Z</time></trkpt><trkpt lat="44.3898626" lon="11.1334695"><ele>300.8</ele><time>2026-03-29T11:06:45.049Z</time></trkpt><trkpt lat="44.3899244" lon="11.1334969"><ele>298.20000000000005</ele><time>2026-03-29T11:06:48.048Z</time></trkpt><trkpt lat="44.3898775" lon="11.1336057"><ele>295.6</ele><time>2026-03-29T11:07:56.049Z</time></trkpt><trkpt lat="44.3897956" lon="11.1337207"><ele>293.0</ele><time>2026-03-29T11:07:57.049Z</time></trkpt><trkpt lat="44.389713" lon="11.1338301"><ele>294.25</ele><time>2026-03-29T11:07:58.049Z</time></trkpt><trkpt lat="44.3896334" lon="11.1339451"><ele>295.5</ele><time>2026-03-29T11:07:59.048Z</time></trkpt><trkpt lat="44.3895461" lon="11.1340647"><ele>296.75</ele><time>2026-03-29T11:08:00.049Z</time></trkpt><trkpt lat="44.389454" lon="11.1341919"><ele>298.0</ele><time>2026-03-29T11:08:01.049Z</time></trkpt><trkpt lat="44.389361" lon="11.1343232"><ele>298.0</ele><time>2026-03-29T11:08:02.049Z</time></trkpt><trkpt lat="44.3892645" lon="11.134461"><ele>298.0</ele><time>2026-03-29T11:08:03.049Z</time></trkpt><trkpt lat="44.389171" lon="11.1346028"><ele>298.0</ele><time>2026-03-29T11:08:04.049Z</time></trkpt><trkpt lat="44.3890841" lon="11.1347525"><ele>298.0</ele><time>2026-03-29T11:08:05.048Z</time></trkpt><trkpt lat="44.3889853" lon="11.1349033"><ele>299.25</ele><time>2026-03-29T11:08:06.049Z</time></trkpt><trkpt lat="44.388905" lon="11.1350648"><ele>300.5</ele><time>2026-03-29T11:08:07.048Z</time></trkpt><trkpt lat="44.388844" lon="11.1352356"><ele>301.75</ele><time>2026-03-29T11:08:08.049Z</time></trkpt><trkpt lat="44.3887983" lon="11.1354082"><ele>303.0</ele><time>2026-03-29T11:08:09.049Z</time></trkpt><trkpt lat="44.3887621" lon="11.1355808"><ele>303.75</ele><time>2026-03-29T11:08:10.049Z</time></trkpt><trkpt lat="44.3887295" lon="11.135751"><ele>304.5</ele><time>2026-03-29T11:08:11.049Z</time></trkpt><trkpt lat="44.3886945" lon="11.135911"><ele>305.25</ele><time>2026-03-29T11:08:12.049Z</time></trkpt><trkpt lat="44.3886549" lon="11.1360638"><ele>306.0</ele><time>2026-03-29T11:08:13.049Z</time></trkpt><trkpt lat="44.3886115" lon="11.1362062"><ele>306.0</ele><time>2026-03-29T11:08:14.049Z</time></trkpt><trkpt lat="44.3885649" lon="11.1363413"><ele>306.0</ele><time>2026-03-29T11:08:15.049Z</time></trkpt><trkpt lat="44.3885065" lon="11.1364635"><ele>306.0</ele><time>2026-03-29T11:08:16.049Z</time></trkpt><trkpt lat="44.3884374" lon="11.1365671"><ele>306.0</ele><time>2026-03-29T11:08:17.048Z</time></trkpt><trkpt lat="44.38837" lon="11.1366511"><ele>306.0</ele><time>2026-03-29T11:08:18.049Z</time></trkpt><trkpt lat="44.3883021" lon="11.1367216"><ele>306.0</ele><time>2026-03-29T11:08:19.049Z</time></trkpt><trkpt lat="44.3882385" lon="11.1367854"><ele>306.0</ele><time>2026-03-29T11:08:20.048Z</time></trkpt><trkpt lat="44.3881811" lon="11.1369157"><ele>306.0</ele><time>2026-03-29T11:08:22.048Z</time></trkpt><trkpt lat="44.3882478" lon="11.1370544"><ele>306.0</ele><time>2026-03-29T11:08:24.049Z</time></trkpt><trkpt lat="44.3883053" lon="11.1371399"><ele>306.0</ele><time>2026-03-29T11:08:25.048Z</time></trkpt><trkpt lat="44.3883718" lon="11.1372332"><ele>306.0</ele><time>2026-03-29T11:08:26.049Z</time></trkpt><trkpt lat="44.3884498" lon="11.1373275"><ele>306.0</ele><time>2026-03-29T11:08:27.049Z</time></trkpt><trkpt lat="44.3885366" lon="11.1374102"><ele>306.0</ele><time>2026-03-29T11:08:28.049Z</time></trkpt><trkpt lat="44.3886356" lon="11.1374812"><ele>306.0</ele><time>2026-03-29T11:08:29.048Z</time></trkpt><trkpt lat="44.3887415" lon="11.1375423"><ele>306.0</ele><time>2026-03-29T11:08:30.048Z</time></trkpt><trkpt lat="44.3888396" lon="11.1376083"><ele>308.40000000000003</ele><time>2026-03-29T11:08:31.049Z</time></trkpt><trkpt lat="44.3889403" lon="11.1376879"><ele>310.8</ele><time>2026-03-29T11:08:32.049Z</time></trkpt><trkpt lat="44.3890363" lon="11.1377819"><ele>313.20000000000005</ele><time>2026-03-29T11:08:33.048Z</time></trkpt><trkpt lat="44.3891319" lon="11.1378548"><ele>315.6</ele><time>2026-03-29T11:08:34.048Z</time></trkpt><trkpt lat="44.3892257" lon="11.1379132"><ele>318.0</ele><time>2026-03-29T11:08:35.049Z</time></trkpt><trkpt lat="44.3893128" lon="11.1379857"><ele>318.0</ele><time>2026-03-29T11:08:36.049Z</time></trkpt><trkpt lat="44.3894006" lon="11.1380844"><ele>318.0</ele><time>2026-03-29T11:08:37.048Z</time></trkpt><trkpt lat="44.3894795" lon="11.1381851"><ele>318.0</ele><time>2026-03-29T11:08:38.048Z</time></trkpt><trkpt lat="44.3895427" lon="11.1383014"><ele>318.0</ele><time>2026-03-29T11:08:39.049Z</time></trkpt><trkpt lat="44.389608" lon="11.138443"><ele>318.0</ele><time>2026-03-29T11:08:40.048Z</time></trkpt><trkpt lat="44.3896844" lon="11.1385921"><ele>321.0</ele><time>2026-03-29T11:08:41.049Z</time></trkpt><trkpt lat="44.3897663" lon="11.1387314"><ele>324.0</ele><time>2026-03-29T11:08:42.049Z</time></trkpt><trkpt lat="44.3898416" lon="11.1388601"><ele>327.0</ele><time>2026-03-29T11:08:43.049Z</time></trkpt><trkpt lat="44.3899273" lon="11.1389817"><ele>330.0</ele><time>2026-03-29T11:08:44.048Z</time></trkpt><trkpt lat="44.3900231" lon="11.1391097"><ele>332.0</ele><time>2026-03-29T11:08:45.048Z</time></trkpt><trkpt lat="44.3901161" lon="11.139241"><ele>334.0</ele><time>2026-03-29T11:08:46.049Z</time></trkpt><trkpt lat="44.3902075" lon="11.1393781"><ele>336.0</ele><time>2026-03-29T11:08:47.048Z</time></trkpt><trkpt lat="44.3902937" lon="11.1395146"><ele>338.0</ele><time>2026-03-29T11:08:48.049Z</time></trkpt><trkpt lat="44.3903728" lon="11.1396455"><ele>338.0</ele><time>2026-03-29T11:08:49.048Z</time></trkpt><trkpt lat="44.3904484" lon="11.1397751"><ele>338.0</ele><time>2026-03-29T11:08:50.048Z</time></trkpt><trkpt lat="44.3905209" lon="11.139907"><ele>338.0</ele><time>2026-03-29T11:08:51.049Z</time></trkpt><trkpt lat="44.3905822" lon="11.1400411"><ele>338.0</ele><time>2026-03-29T11:08:52.049Z</time></trkpt><trkpt lat="44.3906351" lon="11.1401748"><ele>340.1666666666667</ele><time>2026-03-29T11:08:53.049Z</time></trkpt><trkpt lat="44.3906774" lon="11.1402946"><ele>342.33333333333337</ele><time>2026-03-29T11:08:54.049Z</time></trkpt><trkpt lat="44.3907124" lon="11.1403978"><ele>344.5</ele><time>2026-03-29T11:08:55.048Z</time></trkpt><trkpt lat="44.390737" lon="11.1404946"><ele>346.6666666666667</ele><time>2026-03-29T11:08:56.049Z</time></trkpt><trkpt lat="44.39074" lon="11.1406546"><ele>348.8333333333333</ele><time>2026-03-29T11:08:58.048Z</time></trkpt><trkpt lat="44.3907003" lon="11.1407322"><ele>351.0</ele><time>2026-03-29T11:08:59.049Z</time></trkpt><trkpt lat="44.3906488" lon="11.140792"><ele>353.3333333333333</ele><time>2026-03-29T11:09:00.049Z</time></trkpt><trkpt lat="44.3905926" lon="11.1408489"><ele>355.6666666666667</ele><time>2026-03-29T11:09:01.049Z</time></trkpt><trkpt lat="44.390546" lon="11.1409122"><ele>358.0</ele><time>2026-03-29T11:09:02.049Z</time></trkpt><trkpt lat="44.3905056" lon="11.14106"><ele>360.33333333333337</ele><time>2026-03-29T11:09:04.049Z</time></trkpt><trkpt lat="44.3905047" lon="11.1411594"><ele>362.6666666666667</ele><time>2026-03-29T11:09:05.049Z</time></trkpt><trkpt lat="44.3905211" lon="11.1412738"><ele>365.0</ele><time>2026-03-29T11:09:06.049Z</time></trkpt><trkpt lat="44.3905312" lon="11.1413749"><ele>365.0</ele><time>2026-03-29T11:09:07.048Z</time></trkpt><trkpt lat="44.3905251" lon="11.1415151"><ele>365.0</ele><time>2026-03-29T11:09:09.048Z</time></trkpt><trkpt lat="44.390455" lon="11.1415202"><ele>365.0</ele><time>2026-03-29T11:09:11.049Z</time></trkpt><trkpt lat="44.3903254" lon="11.1414658"><ele>365.0</ele><time>2026-03-29T11:09:13.048Z</time></trkpt><trkpt lat="44.3902448" lon="11.1414311"><ele>365.0</ele><time>2026-03-29T11:09:14.049Z</time></trkpt><trkpt lat="44.3901675" lon="11.1413999"><ele>365.0</ele><time>2026-03-29T11:09:15.049Z</time></trkpt><trkpt lat="44.3900943" lon="11.1413724"><ele>365.0</ele><time>2026-03-29T11:09:16.048Z</time></trkpt><trkpt lat="44.3900298" lon="11.1413599"><ele>365.0</ele><time>2026-03-29T11:09:17.049Z</time></trkpt><trkpt lat="44.3899335" lon="11.1413378"><ele>365.0</ele><time>2026-03-29T11:09:19.049Z</time></trkpt><trkpt lat="44.3898779" lon="11.1413999"><ele>365.0</ele><time>2026-03-29T11:09:21.049Z</time></trkpt><trkpt lat="44.3899005" lon="11.1415471"><ele>365.0</ele><time>2026-03-29T11:09:23.049Z</time></trkpt><trkpt lat="44.3899018" lon="11.1416999"><ele>367.0</ele><time>2026-03-29T11:09:25.049Z</time></trkpt><trkpt lat="44.3898915" lon="11.1418446"><ele>369.0</ele><time>2026-03-29T11:09:27.049Z</time></trkpt><trkpt lat="44.3898391" lon="11.1419858"><ele>371.0</ele><time>2026-03-29T11:09:29.049Z</time></trkpt><trkpt lat="44.3897647" lon="11.1420985"><ele>373.0</ele><time>2026-03-29T11:09:31.049Z</time></trkpt><trkpt lat="44.3896848" lon="11.1421647"><ele>375.0</ele><time>2026-03-29T11:09:33.049Z</time></trkpt><trkpt lat="44.3896423" lon="11.1422568"><ele>377.1666666666667</ele><time>2026-03-29T11:11:37.048Z</time></trkpt><trkpt lat="44.3896622" lon="11.1423937"><ele>379.33333333333337</ele><time>2026-03-29T11:11:40.049Z</time></trkpt><trkpt lat="44.3896562" lon="11.142491"><ele>381.5</ele><time>2026-03-29T11:11:41.049Z</time></trkpt><trkpt lat="44.3896517" lon="11.1425932"><ele>383.6666666666667</ele><time>2026-03-29T11:11:42.049Z</time></trkpt><trkpt lat="44.389645" lon="11.1427038"><ele>385.83333333333337</ele><time>2026-03-29T11:11:43.049Z</time></trkpt><trkpt lat="44.3896401" lon="11.1428092"><ele>388.0</ele><time>2026-03-29T11:11:44.049Z</time></trkpt><trkpt lat="44.3896298" lon="11.1429125"><ele>388.0</ele><time>2026-03-29T11:11:45.049Z</time></trkpt><trkpt lat="44.3896257" lon="11.1430262"><ele>388.0</ele><time>2026-03-29T11:11:46.049Z</time></trkpt><trkpt lat="44.38962" lon="11.1431941"><ele>388.0</ele><time>2026-03-29T11:11:48.049Z</time></trkpt><trkpt lat="44.3896025" lon="11.1433822"><ele>388.0</ele><time>2026-03-29T11:11:50.049Z</time></trkpt><trkpt lat="44.3895921" lon="11.1434998"><ele>388.0</ele><time>2026-03-29T11:11:51.049Z</time></trkpt><trkpt lat="44.389581" lon="11.1436456"><ele>390.2</ele><time>2026-03-29T11:11:52.048Z</time></trkpt><trkpt lat="44.3895711" lon="11.1438048"><ele>392.4</ele><time>2026-03-29T11:11:53.048Z</time></trkpt><trkpt lat="44.3895625" lon="11.1439629"><ele>394.59999999999997</ele><time>2026-03-29T11:11:54.048Z</time></trkpt><trkpt lat="44.3895558" lon="11.1440988"><ele>396.79999999999995</ele><time>2026-03-29T11:11:55.049Z</time></trkpt><trkpt lat="44.3895491" lon="11.1442298"><ele>399.0</ele><time>2026-03-29T11:11:56.049Z</time></trkpt><trkpt lat="44.3895418" lon="11.144361"><ele>400.4</ele><time>2026-03-29T11:11:57.049Z</time></trkpt><trkpt lat="44.3895341" lon="11.1444871"><ele>401.79999999999995</ele><time>2026-03-29T11:11:58.049Z</time></trkpt><trkpt lat="44.3895255" lon="11.1446101"><ele>403.20000000000005</ele><time>2026-03-29T11:11:59.049Z</time></trkpt><trkpt lat="44.3895161" lon="11.1447508"><ele>404.6</ele><time>2026-03-29T11:12:00.049Z</time></trkpt><trkpt lat="44.3895111" lon="11.1448957"><ele>406.0</ele><time>2026-03-29T11:12:01.049Z</time></trkpt><trkpt lat="44.3895032" lon="11.1450232"><ele>407.83333333333337</ele><time>2026-03-29T11:12:02.049Z</time></trkpt><trkpt lat="44.3894975" lon="11.1451536"><ele>409.6666666666667</ele><time>2026-03-29T11:12:03.049Z</time></trkpt><trkpt lat="44.3894989" lon="11.1452814"><ele>411.5</ele><time>2026-03-29T11:12:04.049Z</time></trkpt><trkpt lat="44.3894951" lon="11.1453942"><ele>413.33333333333337</ele><time>2026-03-29T11:12:05.048Z</time></trkpt><trkpt lat="44.3895049" lon="11.1454839"><ele>415.1666666666667</ele><time>2026-03-29T11:12:06.049Z</time></trkpt><trkpt lat="44.3895513" lon="11.1456099"><ele>417.0</ele><time>2026-03-29T11:12:08.048Z</time></trkpt><trkpt lat="44.389654" lon="11.145667"><ele>419.25</ele><time>2026-03-29T11:12:10.049Z</time></trkpt><trkpt lat="44.3897719" lon="11.1456812"><ele>421.5</ele><time>2026-03-29T11:12:11.049Z</time></trkpt><trkpt lat="44.3898907" lon="11.1457211"><ele>423.75</ele><time>2026-03-29T11:12:12.049Z</time></trkpt><trkpt lat="44.3900059" lon="11.1457992"><ele>426.0</ele><time>2026-03-29T11:12:13.049Z</time></trkpt><trkpt lat="44.3901203" lon="11.1458685"><ele>429.0</ele><time>2026-03-29T11:12:14.048Z</time></trkpt><trkpt lat="44.3902295" lon="11.1459194"><ele>432.0</ele><time>2026-03-29T11:12:15.048Z</time></trkpt><trkpt lat="44.3903421" lon="11.1459611"><ele>435.0</ele><time>2026-03-29T11:12:16.049Z</time></trkpt><trkpt lat="44.3904633" lon="11.1459964"><ele>438.0</ele><time>2026-03-29T11:12:17.048Z</time></trkpt><trkpt lat="44.390587" lon="11.1460011"><ele>438.5</ele><time>2026-03-29T11:12:18.049Z</time></trkpt><trkpt lat="44.3907157" lon="11.1460132"><ele>439.0</ele><time>2026-03-29T11:12:19.049Z</time></trkpt><trkpt lat="44.3908314" lon="11.1460039"><ele>439.5</ele><time>2026-03-29T11:12:20.048Z</time></trkpt><trkpt lat="44.3909396" lon="11.1460089"><ele>440.0</ele><time>2026-03-29T11:12:21.049Z</time></trkpt><trkpt lat="44.3910439" lon="11.1460443"><ele>440.0</ele><time>2026-03-29T11:12:22.048Z</time></trkpt><trkpt lat="44.3911441" lon="11.146095"><ele>440.0</ele><time>2026-03-29T11:12:23.048Z</time></trkpt><trkpt lat="44.391257" lon="11.146162"><ele>440.0</ele><time>2026-03-29T11:12:24.048Z</time></trkpt><trkpt lat="44.3913818" lon="11.146208"><ele>440.0</ele><time>2026-03-29T11:12:25.049Z</time></trkpt><trkpt lat="44.3915282" lon="11.146254"><ele>440.5</ele><time>2026-03-29T11:12:26.048Z</time></trkpt><trkpt lat="44.391658" lon="11.146288"><ele>441.0</ele><time>2026-03-29T11:12:27.049Z</time></trkpt><trkpt lat="44.3917874" lon="11.1463161"><ele>441.5</ele><time>2026-03-29T11:12:28.049Z</time></trkpt><trkpt lat="44.3919168" lon="11.1463391"><ele>442.0</ele><time>2026-03-29T11:12:29.048Z</time></trkpt><trkpt lat="44.3920287" lon="11.1463801"><ele>442.0</ele><time>2026-03-29T11:12:30.049Z</time></trkpt><trkpt lat="44.3921344" lon="11.1464225"><ele>442.00000000000006</ele><time>2026-03-29T11:12:31.049Z</time></trkpt><trkpt lat="44.3922176" lon="11.1464584"><ele>442.00000000000006</ele><time>2026-03-29T11:12:32.048Z</time></trkpt><trkpt lat="44.3922876" lon="11.1464885"><ele>442.0</ele><time>2026-03-29T11:12:33.049Z</time></trkpt><trkpt lat="44.3923655" lon="11.1465066"><ele>442.0</ele><time>2026-03-29T11:12:35.049Z</time></trkpt><trkpt lat="44.3924765" lon="11.1464173"><ele>443.0</ele><time>2026-03-29T11:12:37.049Z</time></trkpt><trkpt lat="44.3925534" lon="11.1463276"><ele>444.00000000000006</ele><time>2026-03-29T11:12:38.049Z</time></trkpt><trkpt lat="44.3926489" lon="11.1462612"><ele>445.00000000000006</ele><time>2026-03-29T11:12:39.049Z</time></trkpt><trkpt lat="44.3927529" lon="11.1462182"><ele>446.0</ele><time>2026-03-29T11:12:40.048Z</time></trkpt><trkpt lat="44.3928625" lon="11.1461791"><ele>447.0</ele><time>2026-03-29T11:12:41.048Z</time></trkpt><trkpt lat="44.3929707" lon="11.1461454"><ele>448.3333333333333</ele><time>2026-03-29T11:12:42.048Z</time></trkpt><trkpt lat="44.3930733" lon="11.1461166"><ele>449.66666666666663</ele><time>2026-03-29T11:12:43.049Z</time></trkpt><trkpt lat="44.3931671" lon="11.1460958"><ele>451.0</ele><time>2026-03-29T11:12:44.049Z</time></trkpt><trkpt lat="44.3932461" lon="11.1460713"><ele>452.3333333333333</ele><time>2026-03-29T11:12:45.048Z</time></trkpt><trkpt lat="44.3933131" lon="11.1460508"><ele>453.66666666666663</ele><time>2026-03-29T11:12:46.049Z</time></trkpt><trkpt lat="44.3933893" lon="11.1460398"><ele>455.0</ele><time>2026-03-29T11:12:47.049Z</time></trkpt><trkpt lat="44.39345" lon="11.1461042"><ele>455.0</ele><time>2026-03-29T11:12:48.049Z</time></trkpt><trkpt lat="44.3935133" lon="11.146172"><ele>455.0</ele><time>2026-03-29T11:12:49.048Z</time></trkpt><trkpt lat="44.3935927" lon="11.1462604"><ele>455.0</ele><time>2026-03-29T11:12:50.048Z</time></trkpt><trkpt lat="44.3936825" lon="11.1463673"><ele>455.0</ele><time>2026-03-29T11:12:51.049Z</time></trkpt><trkpt lat="44.3937676" lon="11.146501"><ele>455.0</ele><time>2026-03-29T11:12:52.049Z</time></trkpt><trkpt lat="44.3938535" lon="11.1466322"><ele>459.25</ele><time>2026-03-29T11:12:53.048Z</time></trkpt><trkpt lat="44.393945" lon="11.146784"><ele>463.5</ele><time>2026-03-29T11:12:54.049Z</time></trkpt><trkpt lat="44.3940366" lon="11.1469457"><ele>467.75</ele><time>2026-03-29T11:12:55.049Z</time></trkpt><trkpt lat="44.3941376" lon="11.1471031"><ele>472.0</ele><time>2026-03-29T11:12:56.048Z</time></trkpt><trkpt lat="44.3942408" lon="11.1472547"><ele>471.0</ele><time>2026-03-29T11:12:57.049Z</time></trkpt><trkpt lat="44.3943325" lon="11.147398"><ele>470.0</ele><time>2026-03-29T11:12:58.048Z</time></trkpt><trkpt lat="44.3944326" lon="11.147549"><ele>469.0</ele><time>2026-03-29T11:12:59.049Z</time></trkpt><trkpt lat="44.3945345" lon="11.147696"><ele>468.0</ele><time>2026-03-29T11:13:00.049Z</time></trkpt><trkpt lat="44.3946317" lon="11.1478427"><ele>468.25</ele><time>2026-03-29T11:13:01.049Z</time></trkpt><trkpt lat="44.3947264" lon="11.1479737"><ele>468.5</ele><time>2026-03-29T11:13:02.049Z</time></trkpt><trkpt lat="44.3948153" lon="11.1480993"><ele>468.75</ele><time>2026-03-29T11:13:03.048Z</time></trkpt><trkpt lat="44.3949086" lon="11.1482082"><ele>469.0</ele><time>2026-03-29T11:13:04.048Z</time></trkpt><trkpt lat="44.3949972" lon="11.1483101"><ele>469.0</ele><time>2026-03-29T11:13:05.049Z</time></trkpt><trkpt lat="44.3950914" lon="11.1484049"><ele>469.0</ele><time>2026-03-29T11:13:06.048Z</time></trkpt><trkpt lat="44.395181" lon="11.148511"><ele>469.0</ele><time>2026-03-29T11:13:07.049Z</time></trkpt><trkpt lat="44.3952627" lon="11.1486215"><ele>469.0</ele><time>2026-03-29T11:13:08.048Z</time></trkpt><trkpt lat="44.3953448" lon="11.1487391"><ele>469.0</ele><time>2026-03-29T11:13:09.048Z</time></trkpt><trkpt lat="44.395435" lon="11.1488598"><ele>469.0</ele><time>2026-03-29T11:13:10.048Z</time></trkpt><trkpt lat="44.3954969" lon="11.1489619"><ele>469.0</ele><time>2026-03-29T11:13:11.049Z</time></trkpt><trkpt lat="44.3955657" lon="11.1490712"><ele>469.0</ele><time>2026-03-29T11:13:12.048Z</time></trkpt><trkpt lat="44.3956113" lon="11.1491818"><ele>469.0</ele><time>2026-03-29T11:13:13.048Z</time></trkpt><trkpt lat="44.3956588" lon="11.1493062"><ele>466.4</ele><time>2026-03-29T11:13:14.048Z</time></trkpt><trkpt lat="44.395713" lon="11.1494173"><ele>463.79999999999995</ele><time>2026-03-29T11:13:15.049Z</time></trkpt><trkpt lat="44.395788" lon="11.1495034"><ele>461.20000000000005</ele><time>2026-03-29T11:13:16.048Z</time></trkpt><trkpt lat="44.3958568" lon="11.1495936"><ele>458.6</ele><time>2026-03-29T11:13:17.049Z</time></trkpt><trkpt lat="44.3959349" lon="11.1496738"><ele>456.0</ele><time>2026-03-29T11:13:18.048Z</time></trkpt><trkpt lat="44.3960223" lon="11.1497891"><ele>453.5</ele><time>2026-03-29T11:13:19.049Z</time></trkpt><trkpt lat="44.3961171" lon="11.149887"><ele>451.0</ele><time>2026-03-29T11:13:20.048Z</time></trkpt><trkpt lat="44.3962216" lon="11.1499625"><ele>448.5</ele><time>2026-03-29T11:13:21.049Z</time></trkpt><trkpt lat="44.3963483" lon="11.1500518"><ele>446.0</ele><time>2026-03-29T11:13:22.049Z</time></trkpt><trkpt lat="44.3964692" lon="11.1501398"><ele>446.0</ele><time>2026-03-29T11:13:23.049Z</time></trkpt><trkpt lat="44.3965773" lon="11.1502142"><ele>446.0</ele><time>2026-03-29T11:13:24.048Z</time></trkpt><trkpt lat="44.3966703" lon="11.1502944"><ele>446.0</ele><time>2026-03-29T11:13:25.049Z</time></trkpt><trkpt lat="44.3967639" lon="11.1504032"><ele>446.0</ele><time>2026-03-29T11:13:26.048Z</time></trkpt><trkpt lat="44.3968386" lon="11.1505333"><ele>446.0</ele><time>2026-03-29T11:13:27.048Z</time></trkpt><trkpt lat="44.3969147" lon="11.150658"><ele>446.0</ele><time>2026-03-29T11:13:28.049Z</time></trkpt><trkpt lat="44.3970025" lon="11.1507752"><ele>446.0</ele><time>2026-03-29T11:13:29.049Z</time></trkpt><trkpt lat="44.397086" lon="11.1508901"><ele>446.0</ele><time>2026-03-29T11:13:30.049Z</time></trkpt><trkpt lat="44.3971704" lon="11.1510093"><ele>445.20000000000005</ele><time>2026-03-29T11:13:31.049Z</time></trkpt><trkpt lat="44.3972344" lon="11.1511289"><ele>444.40000000000003</ele><time>2026-03-29T11:13:32.049Z</time></trkpt><trkpt lat="44.3972939" lon="11.1512646"><ele>443.6</ele><time>2026-03-29T11:13:33.049Z</time></trkpt><trkpt lat="44.397344" lon="11.1513802"><ele>442.8</ele><time>2026-03-29T11:13:34.048Z</time></trkpt><trkpt lat="44.3973933" lon="11.1515194"><ele>442.0</ele><time>2026-03-29T11:13:35.049Z</time></trkpt><trkpt lat="44.3974516" lon="11.1516434"><ele>442.0</ele><time>2026-03-29T11:13:36.048Z</time></trkpt><trkpt lat="44.3975227" lon="11.1517771"><ele>442.0</ele><time>2026-03-29T11:13:37.049Z</time></trkpt><trkpt lat="44.3976291" lon="11.1519473"><ele>442.0</ele><time>2026-03-29T11:13:38.049Z</time></trkpt><trkpt lat="44.3977157" lon="11.1521024"><ele>442.0</ele><time>2026-03-29T11:13:39.049Z</time></trkpt><trkpt lat="44.3978214" lon="11.1522386"><ele>440.6666666666667</ele><time>2026-03-29T11:13:40.048Z</time></trkpt><trkpt lat="44.3979249" lon="11.152411"><ele>439.33333333333337</ele><time>2026-03-29T11:13:41.048Z</time></trkpt><trkpt lat="44.3980167" lon="11.1525485"><ele>438.0</ele><time>2026-03-29T11:13:42.049Z</time></trkpt><trkpt lat="44.3981239" lon="11.1527067"><ele>438.0</ele><time>2026-03-29T11:13:43.048Z</time></trkpt><trkpt lat="44.3982234" lon="11.1528488"><ele>437.99999999999994</ele><time>2026-03-29T11:13:44.049Z</time></trkpt><trkpt lat="44.3982986" lon="11.1529433"><ele>437.99999999999994</ele><time>2026-03-29T11:13:45.049Z</time></trkpt><trkpt lat="44.3983775" lon="11.15306"><ele>438.0</ele><time>2026-03-29T11:13:46.049Z</time></trkpt><trkpt lat="44.3984418" lon="11.1531328"><ele>438.0</ele><time>2026-03-29T11:13:47.049Z</time></trkpt><trkpt lat="44.3985055" lon="11.1532051"><ele>437.4</ele><time>2026-03-29T11:13:48.049Z</time></trkpt><trkpt lat="44.3985664" lon="11.1532797"><ele>436.79999999999995</ele><time>2026-03-29T11:13:49.049Z</time></trkpt><trkpt lat="44.3986419" lon="11.1533462"><ele>436.2</ele><time>2026-03-29T11:13:50.049Z</time></trkpt><trkpt lat="44.3987076" lon="11.1533944"><ele>435.6</ele><time>2026-03-29T11:13:51.049Z</time></trkpt><trkpt lat="44.3988265" lon="11.1535084"><ele>435.0</ele><time>2026-03-29T11:13:52.049Z</time></trkpt><trkpt lat="44.3989169" lon="11.1535666"><ele>434.5</ele><time>2026-03-29T11:13:53.049Z</time></trkpt><trkpt lat="44.3990223" lon="11.1536563"><ele>434.0</ele><time>2026-03-29T11:13:54.049Z</time></trkpt><trkpt lat="44.3991216" lon="11.1537227"><ele>433.5</ele><time>2026-03-29T11:13:55.049Z</time></trkpt><trkpt lat="44.3992061" lon="11.1538496"><ele>433.0</ele><time>2026-03-29T11:13:56.048Z</time></trkpt><trkpt lat="44.3993178" lon="11.1539987"><ele>432.0</ele><time>2026-03-29T11:13:57.049Z</time></trkpt><trkpt lat="44.3994149" lon="11.1541156"><ele>431.0</ele><time>2026-03-29T11:13:58.048Z</time></trkpt><trkpt lat="44.3995148" lon="11.154194"><ele>430.0</ele><time>2026-03-29T11:13:59.049Z</time></trkpt><trkpt lat="44.3996217" lon="11.1542899"><ele>429.0</ele><time>2026-03-29T11:14:00.049Z</time></trkpt><trkpt lat="44.3997201" lon="11.1543889"><ele>427.0</ele><time>2026-03-29T11:14:01.049Z</time></trkpt><trkpt lat="44.3998015" lon="11.154498"><ele>425.0</ele><time>2026-03-29T11:14:02.049Z</time></trkpt><trkpt lat="44.3998842" lon="11.1546087"><ele>423.0</ele><time>2026-03-29T11:14:03.048Z</time></trkpt><trkpt lat="44.3999625" lon="11.1547157"><ele>421.0</ele><time>2026-03-29T11:14:04.049Z</time></trkpt><trkpt lat="44.4000697" lon="11.1548524"><ele>420.20000000000005</ele><time>2026-03-29T11:14:05.048Z</time></trkpt><trkpt lat="44.4001686" lon="11.1549265"><ele>419.40000000000003</ele><time>2026-03-29T11:14:06.049Z</time></trkpt><trkpt lat="44.4002841" lon="11.1549946"><ele>418.6</ele><time>2026-03-29T11:14:07.048Z</time></trkpt><trkpt lat="44.4003783" lon="11.1550479"><ele>417.8</ele><time>2026-03-29T11:14:08.048Z</time></trkpt><trkpt lat="44.4004625" lon="11.155114"><ele>417.0</ele><time>2026-03-29T11:14:09.049Z</time></trkpt><trkpt lat="44.400541" lon="11.155213"><ele>416.0</ele><time>2026-03-29T11:14:10.049Z</time></trkpt><trkpt lat="44.4006168" lon="11.1553093"><ele>415.0</ele><time>2026-03-29T11:14:11.049Z</time></trkpt><trkpt lat="44.4006821" lon="11.155423"><ele>414.0</ele><time>2026-03-29T11:14:12.049Z</time></trkpt><trkpt lat="44.4007193" lon="11.1555267"><ele>413.0</ele><time>2026-03-29T11:14:13.048Z</time></trkpt><trkpt lat="44.4007404" lon="11.1556493"><ele>412.0</ele><time>2026-03-29T11:14:14.049Z</time></trkpt><trkpt lat="44.4007494" lon="11.1557588"><ele>412.00000000000006</ele><time>2026-03-29T11:14:15.049Z</time></trkpt><trkpt lat="44.4007644" lon="11.1558761"><ele>412.0</ele><time>2026-03-29T11:14:16.049Z</time></trkpt><trkpt lat="44.4007852" lon="11.1559716"><ele>412.0</ele><time>2026-03-29T11:14:17.048Z</time></trkpt><trkpt lat="44.4007831" lon="11.1560872"><ele>412.0</ele><time>2026-03-29T11:14:18.048Z</time></trkpt><trkpt lat="44.4007763" lon="11.1561875"><ele>412.00000000000006</ele><time>2026-03-29T11:14:19.049Z</time></trkpt><trkpt lat="44.4007413" lon="11.1563549"><ele>412.0</ele><time>2026-03-29T11:14:20.049Z</time></trkpt><trkpt lat="44.4007074" lon="11.1565187"><ele>410.5</ele><time>2026-03-29T11:14:21.049Z</time></trkpt><trkpt lat="44.4006669" lon="11.1567038"><ele>409.0</ele><time>2026-03-29T11:14:22.049Z</time></trkpt><trkpt lat="44.4006338" lon="11.1568778"><ele>407.5</ele><time>2026-03-29T11:14:23.049Z</time></trkpt><trkpt lat="44.4005882" lon="11.1570168"><ele>406.0</ele><time>2026-03-29T11:14:24.048Z</time></trkpt><trkpt lat="44.4005441" lon="11.1571702"><ele>406.00000000000006</ele><time>2026-03-29T11:14:25.049Z</time></trkpt><trkpt lat="44.4005287" lon="11.1572964"><ele>406.0</ele><time>2026-03-29T11:14:26.048Z</time></trkpt><trkpt lat="44.4005266" lon="11.1573892"><ele>406.0</ele><time>2026-03-29T11:14:27.049Z</time></trkpt><trkpt lat="44.4005569" lon="11.1574818"><ele>406.0</ele><time>2026-03-29T11:14:28.049Z</time></trkpt><trkpt lat="44.4006195" lon="11.1575519"><ele>406.00000000000006</ele><time>2026-03-29T11:14:29.049Z</time></trkpt><trkpt lat="44.4006871" lon="11.1576366"><ele>406.0</ele><time>2026-03-29T11:14:30.049Z</time></trkpt><trkpt lat="44.400753" lon="11.1577103"><ele>405.8</ele><time>2026-03-29T11:14:31.049Z</time></trkpt><trkpt lat="44.4008223" lon="11.1577988"><ele>405.6</ele><time>2026-03-29T11:14:32.049Z</time></trkpt><trkpt lat="44.400924" lon="11.1578194"><ele>405.4</ele><time>2026-03-29T11:14:34.048Z</time></trkpt><trkpt lat="44.401032" lon="11.1577873"><ele>405.2</ele><time>2026-03-29T11:14:36.049Z</time></trkpt><trkpt lat="44.4011422" lon="11.1578851"><ele>405.0</ele><time>2026-03-29T11:14:39.049Z</time></trkpt><trkpt lat="44.40122" lon="11.158028"><ele>405.0</ele><time>2026-03-29T11:14:40.049Z</time></trkpt><trkpt lat="44.4012932" lon="11.1581401"><ele>405.0</ele><time>2026-03-29T11:14:41.049Z</time></trkpt><trkpt lat="44.4013673" lon="11.1582569"><ele>405.0</ele><time>2026-03-29T11:14:42.049Z</time></trkpt><trkpt lat="44.4014347" lon="11.1583694"><ele>405.0</ele><time>2026-03-29T11:14:43.048Z</time></trkpt><trkpt lat="44.401495" lon="11.1584813"><ele>405.0</ele><time>2026-03-29T11:14:44.049Z</time></trkpt><trkpt lat="44.4015501" lon="11.1585909"><ele>403.6</ele><time>2026-03-29T11:14:45.048Z</time></trkpt><trkpt lat="44.4016039" lon="11.1586891"><ele>402.2</ele><time>2026-03-29T11:14:46.049Z</time></trkpt><trkpt lat="44.401641" lon="11.1587778"><ele>400.79999999999995</ele><time>2026-03-29T11:14:47.049Z</time></trkpt><trkpt lat="44.4016588" lon="11.1589413"><ele>399.4</ele><time>2026-03-29T11:14:49.049Z</time></trkpt><trkpt lat="44.4016845" lon="11.1591034"><ele>398.0</ele><time>2026-03-29T11:14:51.048Z</time></trkpt><trkpt lat="44.4017397" lon="11.1591745"><ele>397.8333333333333</ele><time>2026-03-29T11:14:52.049Z</time></trkpt><trkpt lat="44.4018177" lon="11.1592617"><ele>397.66666666666663</ele><time>2026-03-29T11:14:54.048Z</time></trkpt><trkpt lat="44.4018675" lon="11.1593197"><ele>397.5</ele><time>2026-03-29T11:14:56.049Z</time></trkpt><trkpt lat="44.401927" lon="11.159384"><ele>397.33333333333337</ele><time>2026-03-29T11:14:59.049Z</time></trkpt><trkpt lat="44.4019798" lon="11.1594344"><ele>397.1666666666667</ele><time>2026-03-29T11:15:01.049Z</time></trkpt><trkpt lat="44.402022" lon="11.1595453"><ele>397.0</ele><time>2026-03-29T11:15:02.049Z</time></trkpt><trkpt lat="44.4020276" lon="11.1596398"><ele>397.0</ele><time>2026-03-29T11:15:03.049Z</time></trkpt><trkpt lat="44.4020517" lon="11.15974"><ele>397.0</ele><time>2026-03-29T11:15:04.049Z</time></trkpt><trkpt lat="44.4021027" lon="11.1597987"><ele>397.0</ele><time>2026-03-29T11:15:05.049Z</time></trkpt><trkpt lat="44.4022224" lon="11.1598786"><ele>397.0</ele><time>2026-03-29T11:15:07.049Z</time></trkpt><trkpt lat="44.4023264" lon="11.1600081"><ele>397.0</ele><time>2026-03-29T11:15:08.049Z</time></trkpt><trkpt lat="44.4023994" lon="11.1601008"><ele>393.40000000000003</ele><time>2026-03-29T11:15:09.048Z</time></trkpt><trkpt lat="44.4024789" lon="11.160189"><ele>389.8</ele><time>2026-03-29T11:15:10.049Z</time></trkpt><trkpt lat="44.4025327" lon="11.160239"><ele>386.2</ele><time>2026-03-29T11:15:11.048Z</time></trkpt><trkpt lat="44.4026155" lon="11.1603047"><ele>382.6</ele><time>2026-03-29T11:15:12.049Z</time></trkpt><trkpt lat="44.4027008" lon="11.1603492"><ele>379.0</ele><time>2026-03-29T11:15:13.049Z</time></trkpt><trkpt lat="44.4027988" lon="11.1603783"><ele>379.0</ele><time>2026-03-29T11:15:14.049Z</time></trkpt><trkpt lat="44.4029156" lon="11.1603852"><ele>379.0</ele><time>2026-03-29T11:15:15.048Z</time></trkpt><trkpt lat="44.4030001" lon="11.1603583"><ele>379.0</ele><time>2026-03-29T11:15:16.048Z</time></trkpt><trkpt lat="44.4030672" lon="11.1602463"><ele>379.0</ele><time>2026-03-29T11:15:17.048Z</time></trkpt><trkpt lat="44.4031649" lon="11.1601726"><ele>379.0</ele><time>2026-03-29T11:15:18.049Z</time></trkpt><trkpt lat="44.4032136" lon="11.1600978"><ele>374.6</ele><time>2026-03-29T11:15:19.049Z</time></trkpt><trkpt lat="44.4032564" lon="11.1600017"><ele>370.2</ele><time>2026-03-29T11:15:20.049Z</time></trkpt><trkpt lat="44.4033793" lon="11.1599402"><ele>365.8</ele><time>2026-03-29T11:15:22.049Z</time></trkpt><trkpt lat="44.4034225" lon="11.1601199"><ele>361.40000000000003</ele><time>2026-03-29T11:15:24.049Z</time></trkpt><trkpt lat="44.4034449" lon="11.1602183"><ele>357.0</ele><time>2026-03-29T11:15:25.049Z</time></trkpt><trkpt lat="44.4034817" lon="11.1603308"><ele>357.0</ele><time>2026-03-29T11:15:26.049Z</time></trkpt><trkpt lat="44.4035304" lon="11.1604487"><ele>357.0</ele><time>2026-03-29T11:15:27.048Z</time></trkpt><trkpt lat="44.4035871" lon="11.1606355"><ele>357.0</ele><time>2026-03-29T11:15:28.048Z</time></trkpt><trkpt lat="44.403591" lon="11.1607597"><ele>357.0</ele><time>2026-03-29T11:15:29.049Z</time></trkpt><trkpt lat="44.4036249" lon="11.1608833"><ele>357.0</ele><time>2026-03-29T11:15:30.049Z</time></trkpt><trkpt lat="44.4036593" lon="11.1609941"><ele>356.0</ele><time>2026-03-29T11:15:31.049Z</time></trkpt><trkpt lat="44.4036815" lon="11.1610817"><ele>355.0</ele><time>2026-03-29T11:15:32.049Z</time></trkpt><trkpt lat="44.4036973" lon="11.1611793"><ele>354.0</ele><time>2026-03-29T11:15:33.049Z</time></trkpt><trkpt lat="44.4036801" lon="11.1612947"><ele>353.0</ele><time>2026-03-29T11:15:34.048Z</time></trkpt><trkpt lat="44.4036701" lon="11.1614399"><ele>352.0</ele><time>2026-03-29T11:15:35.049Z</time></trkpt><trkpt lat="44.4036235" lon="11.1616213"><ele>350.16666666666663</ele><time>2026-03-29T11:15:37.049Z</time></trkpt><trkpt lat="44.4035938" lon="11.1617115"><ele>348.3333333333333</ele><time>2026-03-29T11:15:38.049Z</time></trkpt><trkpt lat="44.4035533" lon="11.161791"><ele>346.5</ele><time>2026-03-29T11:15:39.048Z</time></trkpt><trkpt lat="44.4035137" lon="11.1618714"><ele>344.6666666666667</ele><time>2026-03-29T11:15:40.049Z</time></trkpt><trkpt lat="44.4034766" lon="11.1620029"><ele>342.83333333333337</ele><time>2026-03-29T11:15:42.049Z</time></trkpt><trkpt lat="44.4034979" lon="11.1621613"><ele>341.0</ele><time>2026-03-29T11:15:44.049Z</time></trkpt><trkpt lat="44.4035154" lon="11.1622618"><ele>338.4</ele><time>2026-03-29T11:15:45.049Z</time></trkpt><trkpt lat="44.4035517" lon="11.1623734"><ele>335.8</ele><time>2026-03-29T11:15:46.048Z</time></trkpt><trkpt lat="44.4036027" lon="11.1624739"><ele>333.2</ele><time>2026-03-29T11:15:47.048Z</time></trkpt><trkpt lat="44.4036603" lon="11.1625832"><ele>330.59999999999997</ele><time>2026-03-29T11:15:48.049Z</time></trkpt><trkpt lat="44.4037229" lon="11.1627005"><ele>328.0</ele><time>2026-03-29T11:15:49.049Z</time></trkpt><trkpt lat="44.403786" lon="11.1628131"><ele>329.66666666666663</ele><time>2026-03-29T11:15:50.048Z</time></trkpt><trkpt lat="44.4038432" lon="11.1629278"><ele>331.3333333333333</ele><time>2026-03-29T11:15:51.048Z</time></trkpt><trkpt lat="44.4038923" lon="11.1630329"><ele>333.0</ele><time>2026-03-29T11:15:52.049Z</time></trkpt><trkpt lat="44.4039375" lon="11.1631254"><ele>334.6666666666667</ele><time>2026-03-29T11:15:53.048Z</time></trkpt><trkpt lat="44.4040214" lon="11.1632203"><ele>336.33333333333337</ele><time>2026-03-29T11:15:55.049Z</time></trkpt><trkpt lat="44.40404" lon="11.1633098"><ele>338.0</ele><time>2026-03-29T11:15:57.049Z</time></trkpt><trkpt lat="44.4040256" lon="11.1634346"><ele>338.59999999999997</ele><time>2026-03-29T11:15:59.049Z</time></trkpt><trkpt lat="44.4039981" lon="11.1635163"><ele>339.2</ele><time>2026-03-29T11:16:00.048Z</time></trkpt><trkpt lat="44.4039203" lon="11.1636297"><ele>339.8</ele><time>2026-03-29T11:16:01.049Z</time></trkpt><trkpt lat="44.4038108" lon="11.1637076"><ele>340.4</ele><time>2026-03-29T11:16:02.049Z</time></trkpt><trkpt lat="44.4037203" lon="11.1637942"><ele>341.0</ele><time>2026-03-29T11:16:03.049Z</time></trkpt><trkpt lat="44.4036606" lon="11.1638622"><ele>338.20000000000005</ele><time>2026-03-29T11:16:04.049Z</time></trkpt><trkpt lat="44.4035689" lon="11.1639951"><ele>335.40000000000003</ele><time>2026-03-29T11:16:06.049Z</time></trkpt><trkpt lat="44.4035603" lon="11.1640884"><ele>332.6</ele><time>2026-03-29T11:16:07.048Z</time></trkpt><trkpt lat="44.4035578" lon="11.1641906"><ele>329.8</ele><time>2026-03-29T11:16:08.048Z</time></trkpt><trkpt lat="44.4036583" lon="11.1642704"><ele>327.0</ele><time>2026-03-29T11:16:09.049Z</time></trkpt><trkpt lat="44.4037202" lon="11.1643424"><ele>327.0</ele><time>2026-03-29T11:16:10.049Z</time></trkpt><trkpt lat="44.4037792" lon="11.1644014"><ele>327.0</ele><time>2026-03-29T11:16:11.048Z</time></trkpt><trkpt lat="44.4038564" lon="11.1644753"><ele>327.0</ele><time>2026-03-29T11:16:12.049Z</time></trkpt><trkpt lat="44.4039279" lon="11.1645202"><ele>327.0</ele><time>2026-03-29T11:16:13.049Z</time></trkpt><trkpt lat="44.4040008" lon="11.164545"><ele>327.0</ele><time>2026-03-29T11:16:14.048Z</time></trkpt><trkpt lat="44.4040826" lon="11.1645955"><ele>327.0</ele><time>2026-03-29T11:16:15.049Z</time></trkpt><trkpt lat="44.4041475" lon="11.1646053"><ele>330.8</ele><time>2026-03-29T11:16:16.048Z</time></trkpt><trkpt lat="44.4042251" lon="11.1646395"><ele>334.6</ele><time>2026-03-29T11:16:18.049Z</time></trkpt><trkpt lat="44.4042878" lon="11.1646909"><ele>338.40000000000003</ele><time>2026-03-29T11:16:19.049Z</time></trkpt><trkpt lat="44.4043546" lon="11.1647578"><ele>342.20000000000005</ele><time>2026-03-29T11:16:20.049Z</time></trkpt><trkpt lat="44.4044615" lon="11.1647813"><ele>346.0</ele><time>2026-03-29T11:16:22.049Z</time></trkpt><trkpt lat="44.4045888" lon="11.1648475"><ele>343.25</ele><time>2026-03-29T11:16:24.048Z</time></trkpt><trkpt lat="44.4046863" lon="11.1648465"><ele>340.5</ele><time>2026-03-29T11:16:26.049Z</time></trkpt><trkpt lat="44.4047991" lon="11.1649125"><ele>337.75</ele><time>2026-03-29T11:16:28.049Z</time></trkpt><trkpt lat="44.4048819" lon="11.1650037"><ele>335.0</ele><time>2026-03-29T11:16:30.048Z</time></trkpt><trkpt lat="44.4050149" lon="11.1649916"><ele>333.8</ele><time>2026-03-29T11:16:32.048Z</time></trkpt><trkpt lat="44.4050911" lon="11.1649964"><ele>332.6</ele><time>2026-03-29T11:16:33.048Z</time></trkpt><trkpt lat="44.4051342" lon="11.1651421"><ele>331.4</ele><time>2026-03-29T11:16:35.049Z</time></trkpt><trkpt lat="44.4052053" lon="11.1652869"><ele>330.2</ele><time>2026-03-29T11:16:36.049Z</time></trkpt><trkpt lat="44.4052441" lon="11.1653716"><ele>329.0</ele><time>2026-03-29T11:16:37.049Z</time></trkpt><trkpt lat="44.4053657" lon="11.1653902"><ele>329.0</ele><time>2026-03-29T11:16:39.049Z</time></trkpt><trkpt lat="44.4054428" lon="11.1653983"><ele>329.0</ele><time>2026-03-29T11:16:40.049Z</time></trkpt><trkpt lat="44.4055171" lon="11.1653428"><ele>329.0</ele><time>2026-03-29T11:16:41.049Z</time></trkpt><trkpt lat="44.4056361" lon="11.1652644"><ele>329.0</ele><time>2026-03-29T11:16:42.049Z</time></trkpt><trkpt lat="44.4057278" lon="11.1652207"><ele>329.0</ele><time>2026-03-29T11:16:43.048Z</time></trkpt><trkpt lat="44.4058267" lon="11.1651985"><ele>329.0</ele><time>2026-03-29T11:16:44.049Z</time></trkpt><trkpt lat="44.4059063" lon="11.1651641"><ele>329.0</ele><time>2026-03-29T11:16:45.048Z</time></trkpt><trkpt lat="44.4059951" lon="11.1651668"><ele>329.0</ele><time>2026-03-29T11:16:46.049Z</time></trkpt><trkpt lat="44.4060852" lon="11.165169"><ele>329.0</ele><time>2026-03-29T11:16:47.049Z</time></trkpt><trkpt lat="44.4061931" lon="11.1652989"><ele>329.0</ele><time>2026-03-29T11:16:49.049Z</time></trkpt><trkpt lat="44.406244" lon="11.1653975"><ele>329.0</ele><time>2026-03-29T11:16:50.048Z</time></trkpt><trkpt lat="44.4062918" lon="11.1654937"><ele>329.0</ele><time>2026-03-29T11:16:51.049Z</time></trkpt><trkpt lat="44.4063294" lon="11.1655762"><ele>329.0</ele><time>2026-03-29T11:16:52.048Z</time></trkpt><trkpt lat="44.4063838" lon="11.1656716"><ele>329.0</ele><time>2026-03-29T11:16:53.049Z</time></trkpt><trkpt lat="44.406441" lon="11.1657547"><ele>329.0</ele><time>2026-03-29T11:16:54.049Z</time></trkpt><trkpt lat="44.4065117" lon="11.1658238"><ele>329.0</ele><time>2026-03-29T11:16:55.048Z</time></trkpt><trkpt lat="44.4065784" lon="11.1658851"><ele>326.1666666666667</ele><time>2026-03-29T11:16:56.049Z</time></trkpt><trkpt lat="44.406658" lon="11.1659199"><ele>323.33333333333337</ele><time>2026-03-29T11:16:57.048Z</time></trkpt><trkpt lat="44.4067527" lon="11.1659665"><ele>320.5</ele><time>2026-03-29T11:16:59.049Z</time></trkpt><trkpt lat="44.4068543" lon="11.165974"><ele>317.6666666666667</ele><time>2026-03-29T11:17:02.049Z</time></trkpt><trkpt lat="44.4069288" lon="11.1660264"><ele>314.8333333333333</ele><time>2026-03-29T11:17:04.049Z</time></trkpt><trkpt lat="44.4070054" lon="11.1660559"><ele>312.0</ele><time>2026-03-29T11:17:06.048Z</time></trkpt><trkpt lat="44.4070822" lon="11.1661292"><ele>308.6</ele><time>2026-03-29T11:17:07.049Z</time></trkpt><trkpt lat="44.4071706" lon="11.1662072"><ele>305.2</ele><time>2026-03-29T11:17:08.049Z</time></trkpt><trkpt lat="44.4072639" lon="11.1662927"><ele>301.8</ele><time>2026-03-29T11:17:09.049Z</time></trkpt><trkpt lat="44.4073372" lon="11.1663921"><ele>298.4</ele><time>2026-03-29T11:17:10.049Z</time></trkpt><trkpt lat="44.4073838" lon="11.1664689"><ele>295.0</ele><time>2026-03-29T11:17:11.049Z</time></trkpt><trkpt lat="44.4074468" lon="11.1665903"><ele>295.0</ele><time>2026-03-29T11:17:12.049Z</time></trkpt><trkpt lat="44.407506" lon="11.1666723"><ele>295.0</ele><time>2026-03-29T11:17:13.049Z</time></trkpt><trkpt lat="44.4075686" lon="11.1667564"><ele>295.0</ele><time>2026-03-29T11:17:14.049Z</time></trkpt><trkpt lat="44.4076312" lon="11.1668093"><ele>295.0</ele><time>2026-03-29T11:17:15.049Z</time></trkpt><trkpt lat="44.4076957" lon="11.1668713"><ele>295.0</ele><time>2026-03-29T11:17:16.049Z</time></trkpt><trkpt lat="44.4077572" lon="11.1670136"><ele>295.0</ele><time>2026-03-29T11:17:17.048Z</time></trkpt><trkpt lat="44.4078378" lon="11.167134"><ele>295.0</ele><time>2026-03-29T11:17:18.048Z</time></trkpt><trkpt lat="44.4079124" lon="11.1672254"><ele>295.0</ele><time>2026-03-29T11:17:19.049Z</time></trkpt><trkpt lat="44.4079675" lon="11.1673337"><ele>295.0</ele><time>2026-03-29T11:17:20.048Z</time></trkpt><trkpt lat="44.4080335" lon="11.1674243"><ele>295.0</ele><time>2026-03-29T11:17:21.049Z</time></trkpt><trkpt lat="44.4080974" lon="11.1675397"><ele>295.0</ele><time>2026-03-29T11:17:22.048Z</time></trkpt><trkpt lat="44.4081743" lon="11.1676412"><ele>292.8</ele><time>2026-03-29T11:17:23.049Z</time></trkpt><trkpt lat="44.4082419" lon="11.1677105"><ele>290.6</ele><time>2026-03-29T11:17:24.048Z</time></trkpt><trkpt lat="44.4083101" lon="11.1677935"><ele>288.4</ele><time>2026-03-29T11:17:25.048Z</time></trkpt><trkpt lat="44.4083307" lon="11.1679075"><ele>286.2</ele><time>2026-03-29T11:17:26.049Z</time></trkpt><trkpt lat="44.4083976" lon="11.1680571"><ele>284.0</ele><time>2026-03-29T11:17:28.049Z</time></trkpt><trkpt lat="44.4083712" lon="11.1681469"><ele>281.8</ele><time>2026-03-29T11:17:29.049Z</time></trkpt><trkpt lat="44.4084122" lon="11.1682248"><ele>279.59999999999997</ele><time>2026-03-29T11:17:30.049Z</time></trkpt><trkpt lat="44.4084623" lon="11.1683067"><ele>277.4</ele><time>2026-03-29T11:17:31.049Z</time></trkpt><trkpt lat="44.4085559" lon="11.1684008"><ele>275.2</ele><time>2026-03-29T11:17:33.049Z</time></trkpt><trkpt lat="44.4084963" lon="11.1685695"><ele>273.0</ele><time>2026-03-29T11:17:35.048Z</time></trkpt><trkpt lat="44.4084633" lon="11.1687035"><ele>273.0</ele><time>2026-03-29T11:17:36.048Z</time></trkpt><trkpt lat="44.408454" lon="11.1688138"><ele>273.0</ele><time>2026-03-29T11:17:37.049Z</time></trkpt><trkpt lat="44.4085158" lon="11.1688621"><ele>273.0</ele><time>2026-03-29T11:17:38.048Z</time></trkpt><trkpt lat="44.4085905" lon="11.1689596"><ele>273.0</ele><time>2026-03-29T11:17:40.049Z</time></trkpt><trkpt lat="44.4086616" lon="11.168984"><ele>273.0</ele><time>2026-03-29T11:17:42.049Z</time></trkpt><trkpt lat="44.4087575" lon="11.1691007"><ele>268.0</ele><time>2026-03-29T11:17:44.049Z</time></trkpt><trkpt lat="44.408845" lon="11.1691707"><ele>263.0</ele><time>2026-03-29T11:17:46.049Z</time></trkpt><trkpt lat="44.4089295" lon="11.1692766"><ele>258.0</ele><time>2026-03-29T11:17:49.049Z</time></trkpt><trkpt lat="44.4089962" lon="11.1692668"><ele>253.0</ele><time>2026-03-29T11:17:50.049Z</time></trkpt><trkpt lat="44.4090749" lon="11.16926"><ele>248.0</ele><time>2026-03-29T11:17:51.049Z</time></trkpt><trkpt lat="44.4091662" lon="11.1693135"><ele>248.0</ele><time>2026-03-29T11:17:53.049Z</time></trkpt><trkpt lat="44.4092697" lon="11.1693342"><ele>248.0</ele><time>2026-03-29T11:17:54.049Z</time></trkpt><trkpt lat="44.4093876" lon="11.1693833"><ele>248.0</ele><time>2026-03-29T11:17:56.049Z</time></trkpt><trkpt lat="44.4094588" lon="11.1694289"><ele>248.0</ele><time>2026-03-29T11:17:58.049Z</time></trkpt><trkpt lat="44.4095419" lon="11.1694199"><ele>248.0</ele><time>2026-03-29T11:18:00.049Z</time></trkpt><trkpt lat="44.4096528" lon="11.1693883"><ele>243.60000000000002</ele><time>2026-03-29T11:18:02.049Z</time></trkpt><trkpt lat="44.4097291" lon="11.1693533"><ele>239.20000000000002</ele><time>2026-03-29T11:18:04.049Z</time></trkpt><trkpt lat="44.4098137" lon="11.1694574"><ele>234.8</ele><time>2026-03-29T11:18:06.049Z</time></trkpt><trkpt lat="44.4098824" lon="11.1695232"><ele>230.4</ele><time>2026-03-29T11:18:07.049Z</time></trkpt><trkpt lat="44.4099443" lon="11.1696171"><ele>226.0</ele><time>2026-03-29T11:18:08.049Z</time></trkpt><trkpt lat="44.4100233" lon="11.1696715"><ele>226.0</ele><time>2026-03-29T11:18:09.049Z</time></trkpt><trkpt lat="44.4101323" lon="11.1697521"><ele>226.0</ele><time>2026-03-29T11:18:10.049Z</time></trkpt><trkpt lat="44.4103156" lon="11.1698243"><ele>226.0</ele><time>2026-03-29T11:18:11.049Z</time></trkpt><trkpt lat="44.4104124" lon="11.1698398"><ele>226.0</ele><time>2026-03-29T11:18:12.048Z</time></trkpt><trkpt lat="44.4105182" lon="11.1698142"><ele>221.8</ele><time>2026-03-29T11:18:13.049Z</time></trkpt><trkpt lat="44.4106179" lon="11.1697948"><ele>217.60000000000002</ele><time>2026-03-29T11:18:14.048Z</time></trkpt><trkpt lat="44.4107169" lon="11.1697896"><ele>213.4</ele><time>2026-03-29T11:18:15.048Z</time></trkpt><trkpt lat="44.4108147" lon="11.1697702"><ele>209.2</ele><time>2026-03-29T11:18:16.048Z</time></trkpt><trkpt lat="44.4109487" lon="11.1698212"><ele>205.0</ele><time>2026-03-29T11:18:18.049Z</time></trkpt><trkpt lat="44.4110276" lon="11.1698257"><ele>206.2</ele><time>2026-03-29T11:18:19.048Z</time></trkpt><trkpt lat="44.411153" lon="11.1699314"><ele>207.4</ele><time>2026-03-29T11:18:21.048Z</time></trkpt><trkpt lat="44.4112371" lon="11.1700038"><ele>208.60000000000002</ele><time>2026-03-29T11:18:22.049Z</time></trkpt><trkpt lat="44.4113267" lon="11.1700731"><ele>209.8</ele><time>2026-03-29T11:18:23.048Z</time></trkpt><trkpt lat="44.411403" lon="11.1701153"><ele>211.0</ele><time>2026-03-29T11:18:24.049Z</time></trkpt><trkpt lat="44.4114514" lon="11.1701969"><ele>206.75</ele><time>2026-03-29T11:18:25.048Z</time></trkpt><trkpt lat="44.4115221" lon="11.1702581"><ele>202.5</ele><time>2026-03-29T11:18:27.049Z</time></trkpt><trkpt lat="44.4116078" lon="11.1702452"><ele>198.25</ele><time>2026-03-29T11:18:29.048Z</time></trkpt><trkpt lat="44.4115017" lon="11.1703226"><ele>194.0</ele><time>2026-03-29T11:18:31.048Z</time></trkpt><trkpt lat="44.4113429" lon="11.1704115"><ele>194.2</ele><time>2026-03-29T11:18:33.049Z</time></trkpt><trkpt lat="44.411255" lon="11.170465"><ele>194.39999999999998</ele><time>2026-03-29T11:18:34.049Z</time></trkpt><trkpt lat="44.4111242" lon="11.1705316"><ele>194.6</ele><time>2026-03-29T11:18:35.049Z</time></trkpt><trkpt lat="44.4110237" lon="11.1705891"><ele>194.8</ele><time>2026-03-29T11:18:36.049Z</time></trkpt><trkpt lat="44.4109273" lon="11.170644"><ele>195.0</ele><time>2026-03-29T11:18:37.049Z</time></trkpt><trkpt lat="44.4108639" lon="11.1707082"><ele>195.0</ele><time>2026-03-29T11:18:38.048Z</time></trkpt><trkpt lat="44.4107935" lon="11.1707708"><ele>195.0</ele><time>2026-03-29T11:18:39.048Z</time></trkpt><trkpt lat="44.4107218" lon="11.1708432"><ele>195.0</ele><time>2026-03-29T11:18:40.049Z</time></trkpt><trkpt lat="44.410702" lon="11.171012"><ele>195.0</ele><time>2026-03-29T11:18:42.049Z</time></trkpt><trkpt lat="44.4107349" lon="11.1711022"><ele>195.0</ele><time>2026-03-29T11:18:43.048Z</time></trkpt><trkpt lat="44.4107761" lon="11.1711895"><ele>195.0</ele><time>2026-03-29T11:18:44.048Z</time></trkpt><trkpt lat="44.4108298" lon="11.1712634"><ele>195.0</ele><time>2026-03-29T11:18:45.048Z</time></trkpt><trkpt lat="44.4108966" lon="11.1713032"><ele>195.0</ele><time>2026-03-29T11:18:46.049Z</time></trkpt><trkpt lat="44.4109638" lon="11.1713295"><ele>195.0</ele><time>2026-03-29T11:18:47.049Z</time></trkpt><trkpt lat="44.4110498" lon="11.1714105"><ele>195.0</ele><time>2026-03-29T11:18:49.049Z</time></trkpt><trkpt lat="44.4111004" lon="11.1715207"><ele>195.0</ele><time>2026-03-29T11:18:52.048Z</time></trkpt><trkpt lat="44.4111642" lon="11.1714598"><ele>195.0</ele><time>2026-03-29T11:18:53.048Z</time></trkpt><trkpt lat="44.4112507" lon="11.1714346"><ele>194.0</ele><time>2026-03-29T11:18:54.048Z</time></trkpt><trkpt lat="44.4113503" lon="11.1713955"><ele>193.0</ele><time>2026-03-29T11:18:55.049Z</time></trkpt><trkpt lat="44.4114552" lon="11.1713598"><ele>192.0</ele><time>2026-03-29T11:18:56.049Z</time></trkpt><trkpt lat="44.4115669" lon="11.1713525"><ele>191.0</ele><time>2026-03-29T11:18:57.048Z</time></trkpt><trkpt lat="44.4116657" lon="11.1713641"><ele>190.0</ele><time>2026-03-29T11:18:58.049Z</time></trkpt><trkpt lat="44.4117653" lon="11.1714022"><ele>190.0</ele><time>2026-03-29T11:18:59.048Z</time></trkpt><trkpt lat="44.4118227" lon="11.1715052"><ele>190.0</ele><time>2026-03-29T11:19:00.049Z</time></trkpt><trkpt lat="44.4118945" lon="11.1716014"><ele>190.0</ele><time>2026-03-29T11:19:01.049Z</time></trkpt><trkpt lat="44.4119754" lon="11.171713"><ele>190.0</ele><time>2026-03-29T11:19:02.049Z</time></trkpt><trkpt lat="44.4120758" lon="11.1717986"><ele>190.0</ele><time>2026-03-29T11:19:03.049Z</time></trkpt><trkpt lat="44.4121997" lon="11.171862"><ele>187.75</ele><time>2026-03-29T11:19:04.049Z</time></trkpt><trkpt lat="44.4123367" lon="11.1719052"><ele>185.5</ele><time>2026-03-29T11:19:05.049Z</time></trkpt><trkpt lat="44.4124716" lon="11.1719132"><ele>183.25</ele><time>2026-03-29T11:19:06.048Z</time></trkpt><trkpt lat="44.4126008" lon="11.1719098"><ele>181.0</ele><time>2026-03-29T11:19:07.048Z</time></trkpt><trkpt lat="44.4127177" lon="11.171874"><ele>181.0</ele><time>2026-03-29T11:19:08.049Z</time></trkpt><trkpt lat="44.4128407" lon="11.1718218"><ele>181.0</ele><time>2026-03-29T11:19:09.049Z</time></trkpt><trkpt lat="44.4129516" lon="11.171741"><ele>181.0</ele><time>2026-03-29T11:19:10.049Z</time></trkpt><trkpt lat="44.4130583" lon="11.171647"><ele>181.0</ele><time>2026-03-29T11:19:11.048Z</time></trkpt><trkpt lat="44.4131698" lon="11.1715585"><ele>179.5</ele><time>2026-03-29T11:19:12.049Z</time></trkpt><trkpt lat="44.4132918" lon="11.1714918"><ele>178.0</ele><time>2026-03-29T11:19:13.048Z</time></trkpt><trkpt lat="44.4134086" lon="11.171431"><ele>176.5</ele><time>2026-03-29T11:19:14.049Z</time></trkpt><trkpt lat="44.4135244" lon="11.1713815"><ele>175.0</ele><time>2026-03-29T11:19:15.049Z</time></trkpt><trkpt lat="44.4136308" lon="11.1713351"><ele>175.0</ele><time>2026-03-29T11:19:16.049Z</time></trkpt><trkpt lat="44.4137235" lon="11.1713097"><ele>175.0</ele><time>2026-03-29T11:19:17.049Z</time></trkpt><trkpt lat="44.4138111" lon="11.1712999"><ele>175.0</ele><time>2026-03-29T11:19:18.048Z</time></trkpt><trkpt lat="44.4138804" lon="11.1712985"><ele>175.0</ele><time>2026-03-29T11:19:19.049Z</time></trkpt><trkpt lat="44.4139586" lon="11.1713041"><ele>175.0</ele><time>2026-03-29T11:19:20.048Z</time></trkpt><trkpt lat="44.4140561" lon="11.1713372"><ele>175.0</ele><time>2026-03-29T11:19:21.049Z</time></trkpt><trkpt lat="44.4141469" lon="11.171407"><ele>175.0</ele><time>2026-03-29T11:19:22.049Z</time></trkpt><trkpt lat="44.4142492" lon="11.1715117"><ele>175.0</ele><time>2026-03-29T11:19:23.049Z</time></trkpt><trkpt lat="44.4143582" lon="11.1716243"><ele>175.0</ele><time>2026-03-29T11:19:24.049Z</time></trkpt><trkpt lat="44.4144942" lon="11.171728"><ele>175.0</ele><time>2026-03-29T11:19:25.048Z</time></trkpt><trkpt lat="44.4146358" lon="11.1718209"><ele>174.66666666666669</ele><time>2026-03-29T11:19:26.049Z</time></trkpt><trkpt lat="44.4147864" lon="11.1719014"><ele>174.33333333333334</ele><time>2026-03-29T11:19:27.049Z</time></trkpt><trkpt lat="44.4149325" lon="11.1719692"><ele>174.0</ele><time>2026-03-29T11:19:28.048Z</time></trkpt><trkpt lat="44.4150738" lon="11.1720347"><ele>174.0</ele><time>2026-03-29T11:19:29.049Z</time></trkpt><trkpt lat="44.415217" lon="11.1720993"><ele>174.0</ele><time>2026-03-29T11:19:30.049Z</time></trkpt><trkpt lat="44.4153607" lon="11.1721663"><ele>174.0</ele><time>2026-03-29T11:19:31.048Z</time></trkpt><trkpt lat="44.41551" lon="11.1722356"><ele>173.66666666666666</ele><time>2026-03-29T11:19:32.049Z</time></trkpt><trkpt lat="44.4156663" lon="11.1723125"><ele>173.33333333333331</ele><time>2026-03-29T11:19:33.048Z</time></trkpt><trkpt lat="44.4158179" lon="11.1723953"><ele>173.0</ele><time>2026-03-29T11:19:34.049Z</time></trkpt><trkpt lat="44.4159737" lon="11.1724739"><ele>172.0</ele><time>2026-03-29T11:19:35.049Z</time></trkpt><trkpt lat="44.4161304" lon="11.1725513"><ele>171.0</ele><time>2026-03-29T11:19:36.049Z</time></trkpt><trkpt lat="44.4162841" lon="11.1726267"><ele>170.0</ele><time>2026-03-29T11:19:37.049Z</time></trkpt><trkpt lat="44.4164458" lon="11.1726883"><ele>170.0</ele><time>2026-03-29T11:19:38.049Z</time></trkpt><trkpt lat="44.4166077" lon="11.1727079"><ele>170.0</ele><time>2026-03-29T11:19:39.048Z</time></trkpt><trkpt lat="44.4167728" lon="11.1726897"><ele>170.0</ele><time>2026-03-29T11:19:40.049Z</time></trkpt><trkpt lat="44.4169364" lon="11.1726447"><ele>170.0</ele><time>2026-03-29T11:19:41.049Z</time></trkpt><trkpt lat="44.4170964" lon="11.1725828"><ele>170.0</ele><time>2026-03-29T11:19:42.048Z</time></trkpt><trkpt lat="44.4172615" lon="11.1725173"><ele>170.0</ele><time>2026-03-29T11:19:43.049Z</time></trkpt><trkpt lat="44.4174266" lon="11.1724625"><ele>169.0</ele><time>2026-03-29T11:19:44.048Z</time></trkpt><trkpt lat="44.4175902" lon="11.1724035"><ele>168.0</ele><time>2026-03-29T11:19:45.048Z</time></trkpt><trkpt lat="44.417748" lon="11.1723514"><ele>167.0</ele><time>2026-03-29T11:19:46.049Z</time></trkpt><trkpt lat="44.4179119" lon="11.1722907"><ele>167.66666666666666</ele><time>2026-03-29T11:19:47.048Z</time></trkpt><trkpt lat="44.4180684" lon="11.1722329"><ele>168.33333333333334</ele><time>2026-03-29T11:19:48.049Z</time></trkpt><trkpt lat="44.41823" lon="11.1721701"><ele>169.0</ele><time>2026-03-29T11:19:49.048Z</time></trkpt><trkpt lat="44.4183963" lon="11.1721113"><ele>169.0</ele><time>2026-03-29T11:19:50.049Z</time></trkpt><trkpt lat="44.4185643" lon="11.172068"><ele>169.0</ele><time>2026-03-29T11:19:51.049Z</time></trkpt><trkpt lat="44.4187356" lon="11.1720476"><ele>169.0</ele><time>2026-03-29T11:19:52.048Z</time></trkpt><trkpt lat="44.4189073" lon="11.1720514"><ele>168.0</ele><time>2026-03-29T11:19:53.049Z</time></trkpt><trkpt lat="44.4192428" lon="11.1721266"><ele>167.0</ele><time>2026-03-29T11:19:55.049Z</time></trkpt><trkpt lat="44.4194043" lon="11.1721803"><ele>167.0</ele><time>2026-03-29T11:19:56.048Z</time></trkpt><trkpt lat="44.4195658" lon="11.1722331"><ele>167.0</ele><time>2026-03-29T11:19:57.049Z</time></trkpt><trkpt lat="44.4197253" lon="11.172295"><ele>167.0</ele><time>2026-03-29T11:19:58.049Z</time></trkpt><trkpt lat="44.4198831" lon="11.1723577"><ele>165.33333333333331</ele><time>2026-03-29T11:19:59.048Z</time></trkpt><trkpt lat="44.4200412" lon="11.1724276"><ele>163.66666666666666</ele><time>2026-03-29T11:20:00.049Z</time></trkpt><trkpt lat="44.4202041" lon="11.1724936"><ele>162.0</ele><time>2026-03-29T11:20:01.048Z</time></trkpt><trkpt lat="44.4203664" lon="11.1725592"><ele>161.66666666666666</ele><time>2026-03-29T11:20:02.048Z</time></trkpt><trkpt lat="44.4205275" lon="11.1726258"><ele>161.33333333333331</ele><time>2026-03-29T11:20:03.048Z</time></trkpt><trkpt lat="44.4206866" lon="11.1726947"><ele>161.0</ele><time>2026-03-29T11:20:04.049Z</time></trkpt><trkpt lat="44.420848" lon="11.1727627"><ele>161.0</ele><time>2026-03-29T11:20:05.048Z</time></trkpt><trkpt lat="44.4210058" lon="11.1728335"><ele>161.0</ele><time>2026-03-29T11:20:06.049Z</time></trkpt><trkpt lat="44.4211638" lon="11.1729054"><ele>161.0</ele><time>2026-03-29T11:20:07.048Z</time></trkpt><trkpt lat="44.4213228" lon="11.1729751"><ele>160.66666666666666</ele><time>2026-03-29T11:20:08.049Z</time></trkpt><trkpt lat="44.4214828" lon="11.1730424"><ele>160.33333333333334</ele><time>2026-03-29T11:20:09.048Z</time></trkpt><trkpt lat="44.4216433" lon="11.1731079"><ele>160.0</ele><time>2026-03-29T11:20:10.049Z</time></trkpt><trkpt lat="44.4218054" lon="11.173179"><ele>160.33333333333334</ele><time>2026-03-29T11:20:11.049Z</time></trkpt><trkpt lat="44.4219667" lon="11.173251"><ele>160.66666666666666</ele><time>2026-03-29T11:20:12.048Z</time></trkpt><trkpt lat="44.4221255" lon="11.1733207"><ele>161.0</ele><time>2026-03-29T11:20:13.049Z</time></trkpt><trkpt lat="44.4222885" lon="11.1733919"><ele>160.33333333333331</ele><time>2026-03-29T11:20:14.049Z</time></trkpt><trkpt lat="44.4224508" lon="11.1734632"><ele>159.66666666666666</ele><time>2026-03-29T11:20:15.049Z</time></trkpt><trkpt lat="44.422613" lon="11.1735351"><ele>159.0</ele><time>2026-03-29T11:20:16.049Z</time></trkpt><trkpt lat="44.422775" lon="11.1736065"><ele>159.0</ele><time>2026-03-29T11:20:17.048Z</time></trkpt><trkpt lat="44.4229367" lon="11.1736791"><ele>159.0</ele><time>2026-03-29T11:20:18.049Z</time></trkpt><trkpt lat="44.4230988" lon="11.1737447"><ele>159.0</ele><time>2026-03-29T11:20:19.049Z</time></trkpt><trkpt lat="44.4232624" lon="11.1738026"><ele>159.33333333333334</ele><time>2026-03-29T11:20:20.048Z</time></trkpt><trkpt lat="44.4234282" lon="11.1738478"><ele>159.66666666666669</ele><time>2026-03-29T11:20:21.049Z</time></trkpt><trkpt lat="44.4235961" lon="11.1738651"><ele>160.0</ele><time>2026-03-29T11:20:22.049Z</time></trkpt><trkpt lat="44.4237675" lon="11.1738559"><ele>159.33333333333334</ele><time>2026-03-29T11:20:23.048Z</time></trkpt><trkpt lat="44.423945" lon="11.1738325"><ele>158.66666666666666</ele><time>2026-03-29T11:20:24.049Z</time></trkpt><trkpt lat="44.4241217" lon="11.173808"><ele>158.0</ele><time>2026-03-29T11:20:25.049Z</time></trkpt><trkpt lat="44.4242999" lon="11.1737811"><ele>158.0</ele><time>2026-03-29T11:20:26.048Z</time></trkpt><trkpt lat="44.4244769" lon="11.1737519"><ele>158.0</ele><time>2026-03-29T11:20:27.049Z</time></trkpt><trkpt lat="44.4246547" lon="11.1737271"><ele>158.0</ele><time>2026-03-29T11:20:28.048Z</time></trkpt><trkpt lat="44.4248314" lon="11.1737027"><ele>157.33333333333331</ele><time>2026-03-29T11:20:29.048Z</time></trkpt><trkpt lat="44.4250046" lon="11.1736871"><ele>156.66666666666666</ele><time>2026-03-29T11:20:30.049Z</time></trkpt><trkpt lat="44.4251654" lon="11.1736911"><ele>156.0</ele><time>2026-03-29T11:20:31.049Z</time></trkpt><trkpt lat="44.4253237" lon="11.1737073"><ele>156.0</ele><time>2026-03-29T11:20:32.049Z</time></trkpt><trkpt lat="44.4254705" lon="11.1737396"><ele>156.0</ele><time>2026-03-29T11:20:33.048Z</time></trkpt><trkpt lat="44.4256094" lon="11.1737951"><ele>156.0</ele><time>2026-03-29T11:20:34.048Z</time></trkpt><trkpt lat="44.4257362" lon="11.1738621"><ele>156.0</ele><time>2026-03-29T11:20:35.049Z</time></trkpt><trkpt lat="44.4258656" lon="11.1739302"><ele>156.0</ele><time>2026-03-29T11:20:36.049Z</time></trkpt><trkpt lat="44.4259873" lon="11.1739958"><ele>156.0</ele><time>2026-03-29T11:20:37.049Z</time></trkpt><trkpt lat="44.4260985" lon="11.1740513"><ele>156.0</ele><time>2026-03-29T11:20:38.048Z</time></trkpt><trkpt lat="44.4261998" lon="11.1741102"><ele>156.0</ele><time>2026-03-29T11:20:39.048Z</time></trkpt><trkpt lat="44.4262947" lon="11.1741604"><ele>155.83333333333334</ele><time>2026-03-29T11:20:40.049Z</time></trkpt><trkpt lat="44.4263824" lon="11.1742144"><ele>155.66666666666666</ele><time>2026-03-29T11:20:41.049Z</time></trkpt><trkpt lat="44.42646" lon="11.1742701"><ele>155.5</ele><time>2026-03-29T11:20:42.049Z</time></trkpt><trkpt lat="44.4265351" lon="11.1743185"><ele>155.33333333333331</ele><time>2026-03-29T11:20:43.049Z</time></trkpt><trkpt lat="44.4266041" lon="11.1743514"><ele>155.16666666666666</ele><time>2026-03-29T11:20:44.048Z</time></trkpt><trkpt lat="44.4266701" lon="11.1743707"><ele>155.0</ele><time>2026-03-29T11:20:45.049Z</time></trkpt><trkpt lat="44.4267964" lon="11.1742808"><ele>155.0</ele><time>2026-03-29T11:20:47.049Z</time></trkpt><trkpt lat="44.4268533" lon="11.1741754"><ele>155.0</ele><time>2026-03-29T11:20:48.048Z</time></trkpt><trkpt lat="44.426911" lon="11.1740669"><ele>155.0</ele><time>2026-03-29T11:20:49.048Z</time></trkpt><trkpt lat="44.4269737" lon="11.1739408"><ele>155.0</ele><time>2026-03-29T11:20:50.049Z</time></trkpt><trkpt lat="44.4270663" lon="11.173789"><ele>155.0</ele><time>2026-03-29T11:20:51.048Z</time></trkpt><trkpt lat="44.4271585" lon="11.1736325"><ele>162.33333333333331</ele><time>2026-03-29T11:20:52.049Z</time></trkpt><trkpt lat="44.4272522" lon="11.1734692"><ele>169.66666666666666</ele><time>2026-03-29T11:20:53.049Z</time></trkpt><trkpt lat="44.4273503" lon="11.1733125"><ele>177.0</ele><time>2026-03-29T11:20:54.048Z</time></trkpt><trkpt lat="44.4274489" lon="11.1731467"><ele>178.6</ele><time>2026-03-29T11:20:55.049Z</time></trkpt><trkpt lat="44.4275366" lon="11.1729994"><ele>180.2</ele><time>2026-03-29T11:20:56.048Z</time></trkpt><trkpt lat="44.4276113" lon="11.1728742"><ele>181.8</ele><time>2026-03-29T11:20:57.049Z</time></trkpt><trkpt lat="44.4276884" lon="11.1727795"><ele>183.4</ele><time>2026-03-29T11:20:58.048Z</time></trkpt><trkpt lat="44.4277743" lon="11.172728"><ele>185.0</ele><time>2026-03-29T11:20:59.049Z</time></trkpt><trkpt lat="44.4278727" lon="11.1727413"><ele>185.0</ele><time>2026-03-29T11:21:00.049Z</time></trkpt><trkpt lat="44.4279666" lon="11.1727639"><ele>185.0</ele><time>2026-03-29T11:21:01.049Z</time></trkpt><trkpt lat="44.4280632" lon="11.1727843"><ele>185.0</ele><time>2026-03-29T11:21:02.048Z</time></trkpt><trkpt lat="44.4281233" lon="11.1727572"><ele>185.0</ele><time>2026-03-29T11:21:03.049Z</time></trkpt><trkpt lat="44.4281229" lon="11.1726287"><ele>185.0</ele><time>2026-03-29T11:21:05.049Z</time></trkpt><trkpt lat="44.4280722" lon="11.1725532"><ele>185.0</ele><time>2026-03-29T11:21:06.049Z</time></trkpt><trkpt lat="44.4280335" lon="11.1724586"><ele>190.4</ele><time>2026-03-29T11:21:07.049Z</time></trkpt><trkpt lat="44.4280236" lon="11.1723344"><ele>195.8</ele><time>2026-03-29T11:21:08.048Z</time></trkpt><trkpt lat="44.4280447" lon="11.1721939"><ele>201.2</ele><time>2026-03-29T11:21:09.049Z</time></trkpt><trkpt lat="44.4280896" lon="11.1720611"><ele>206.6</ele><time>2026-03-29T11:21:10.049Z</time></trkpt><trkpt lat="44.4281653" lon="11.1719322"><ele>212.0</ele><time>2026-03-29T11:21:11.049Z</time></trkpt><trkpt lat="44.4282583" lon="11.1717741"><ele>212.0</ele><time>2026-03-29T11:21:12.048Z</time></trkpt><trkpt lat="44.4283557" lon="11.1716344"><ele>212.0</ele><time>2026-03-29T11:21:13.048Z</time></trkpt><trkpt lat="44.4284554" lon="11.1715128"><ele>212.0</ele><time>2026-03-29T11:21:14.049Z</time></trkpt><trkpt lat="44.4285748" lon="11.1713778"><ele>212.0</ele><time>2026-03-29T11:21:15.049Z</time></trkpt><trkpt lat="44.4286746" lon="11.171211"><ele>212.66666666666669</ele><time>2026-03-29T11:21:16.049Z</time></trkpt><trkpt lat="44.4287571" lon="11.1710337"><ele>213.33333333333331</ele><time>2026-03-29T11:21:17.049Z</time></trkpt><trkpt lat="44.4288388" lon="11.1708559"><ele>214.0</ele><time>2026-03-29T11:21:18.049Z</time></trkpt><trkpt lat="44.4289259" lon="11.1706867"><ele>220.0</ele><time>2026-03-29T11:21:19.049Z</time></trkpt><trkpt lat="44.4290126" lon="11.1705415"><ele>226.0</ele><time>2026-03-29T11:21:20.049Z</time></trkpt><trkpt lat="44.4290851" lon="11.1704095"><ele>232.0</ele><time>2026-03-29T11:21:21.048Z</time></trkpt><trkpt lat="44.4291675" lon="11.1703072"><ele>238.0</ele><time>2026-03-29T11:21:22.049Z</time></trkpt><trkpt lat="44.4292593" lon="11.1702332"><ele>238.0</ele><time>2026-03-29T11:21:23.048Z</time></trkpt><trkpt lat="44.4293638" lon="11.1701975"><ele>238.0</ele><time>2026-03-29T11:21:24.049Z</time></trkpt><trkpt lat="44.4294813" lon="11.1702045"><ele>238.0</ele><time>2026-03-29T11:21:25.049Z</time></trkpt><trkpt lat="44.4295947" lon="11.1702146"><ele>238.0</ele><time>2026-03-29T11:21:26.049Z</time></trkpt><trkpt lat="44.4297209" lon="11.1702384"><ele>242.75</ele><time>2026-03-29T11:21:27.049Z</time></trkpt><trkpt lat="44.4298568" lon="11.1702725"><ele>247.5</ele><time>2026-03-29T11:21:28.048Z</time></trkpt><trkpt lat="44.4299843" lon="11.1702957"><ele>252.25</ele><time>2026-03-29T11:21:29.049Z</time></trkpt><trkpt lat="44.430112" lon="11.170307"><ele>257.0</ele><time>2026-03-29T11:21:30.049Z</time></trkpt><trkpt lat="44.4302359" lon="11.1702843"><ele>257.0</ele><time>2026-03-29T11:21:31.049Z</time></trkpt><trkpt lat="44.4303591" lon="11.1702544"><ele>257.0</ele><time>2026-03-29T11:21:32.049Z</time></trkpt><trkpt lat="44.4304527" lon="11.1702155"><ele>257.0</ele><time>2026-03-29T11:21:33.049Z</time></trkpt><trkpt lat="44.430553" lon="11.1701773"><ele>257.0</ele><time>2026-03-29T11:21:34.049Z</time></trkpt><trkpt lat="44.4306847" lon="11.1701236"><ele>259.6</ele><time>2026-03-29T11:21:35.049Z</time></trkpt><trkpt lat="44.4308036" lon="11.1700657"><ele>262.2</ele><time>2026-03-29T11:21:36.049Z</time></trkpt><trkpt lat="44.4308884" lon="11.1700105"><ele>264.8</ele><time>2026-03-29T11:21:37.049Z</time></trkpt><trkpt lat="44.4309764" lon="11.1699558"><ele>267.4</ele><time>2026-03-29T11:21:38.049Z</time></trkpt><trkpt lat="44.4310589" lon="11.1698134"><ele>270.0</ele><time>2026-03-29T11:21:40.048Z</time></trkpt><trkpt lat="44.431082" lon="11.1697167"><ele>271.6666666666667</ele><time>2026-03-29T11:21:41.049Z</time></trkpt><trkpt lat="44.4310765" lon="11.1696058"><ele>273.3333333333333</ele><time>2026-03-29T11:21:42.048Z</time></trkpt><trkpt lat="44.4310472" lon="11.169498"><ele>275.0</ele><time>2026-03-29T11:21:43.048Z</time></trkpt><trkpt lat="44.4309932" lon="11.1693891"><ele>276.66666666666663</ele><time>2026-03-29T11:21:44.048Z</time></trkpt><trkpt lat="44.4309362" lon="11.1692891"><ele>278.3333333333333</ele><time>2026-03-29T11:21:45.049Z</time></trkpt><trkpt lat="44.4308962" lon="11.1692018"><ele>280.0</ele><time>2026-03-29T11:21:46.049Z</time></trkpt><trkpt lat="44.4308908" lon="11.1691093"><ele>281.66666666666663</ele><time>2026-03-29T11:21:47.049Z</time></trkpt><trkpt lat="44.4309095" lon="11.1690154"><ele>283.3333333333333</ele><time>2026-03-29T11:21:48.049Z</time></trkpt><trkpt lat="44.4309552" lon="11.1689281"><ele>285.0</ele><time>2026-03-29T11:21:49.048Z</time></trkpt><trkpt lat="44.4310176" lon="11.1688389"><ele>286.6666666666667</ele><time>2026-03-29T11:21:50.049Z</time></trkpt><trkpt lat="44.4310731" lon="11.1687864"><ele>288.33333333333337</ele><time>2026-03-29T11:21:51.048Z</time></trkpt><trkpt lat="44.4312168" lon="11.1687824"><ele>290.0</ele><time>2026-03-29T11:21:53.048Z</time></trkpt><trkpt lat="44.4312928" lon="11.1688301"><ele>290.0</ele><time>2026-03-29T11:21:54.049Z</time></trkpt><trkpt lat="44.4313565" lon="11.1688705"><ele>290.0</ele><time>2026-03-29T11:21:55.049Z</time></trkpt><trkpt lat="44.431451" lon="11.1688363"><ele>290.0</ele><time>2026-03-29T11:21:57.049Z</time></trkpt><trkpt lat="44.4314698" lon="11.1687256"><ele>290.0</ele><time>2026-03-29T11:21:59.049Z</time></trkpt><trkpt lat="44.4314182" lon="11.1686611"><ele>290.0</ele><time>2026-03-29T11:22:00.048Z</time></trkpt><trkpt lat="44.4313439" lon="11.1685817"><ele>290.0</ele><time>2026-03-29T11:22:01.049Z</time></trkpt><trkpt lat="44.4312891" lon="11.1684856"><ele>290.0</ele><time>2026-03-29T11:22:02.049Z</time></trkpt><trkpt lat="44.4312501" lon="11.1683709"><ele>290.0</ele><time>2026-03-29T11:22:03.049Z</time></trkpt><trkpt lat="44.4312293" lon="11.1682491"><ele>290.0</ele><time>2026-03-29T11:22:04.049Z</time></trkpt><trkpt lat="44.431211" lon="11.168111"><ele>290.0</ele><time>2026-03-29T11:22:05.048Z</time></trkpt><trkpt lat="44.4311911" lon="11.1679802"><ele>290.0</ele><time>2026-03-29T11:22:06.049Z</time></trkpt><trkpt lat="44.4311802" lon="11.167861"><ele>292.0</ele><time>2026-03-29T11:22:07.049Z</time></trkpt><trkpt lat="44.4311533" lon="11.1677654"><ele>294.0</ele><time>2026-03-29T11:22:08.049Z</time></trkpt><trkpt lat="44.4311184" lon="11.1676477"><ele>296.0</ele><time>2026-03-29T11:22:10.048Z</time></trkpt><trkpt lat="44.4312079" lon="11.1677006"><ele>298.0</ele><time>2026-03-29T11:22:15.049Z</time></trkpt><trkpt lat="44.4312524" lon="11.1677899"><ele>300.0</ele><time>2026-03-29T11:22:16.049Z</time></trkpt><trkpt lat="44.4313111" lon="11.167869"><ele>302.0</ele><time>2026-03-29T11:22:17.049Z</time></trkpt><trkpt lat="44.4314232" lon="11.1679263"><ele>309.2</ele><time>2026-03-29T11:22:19.048Z</time></trkpt><trkpt lat="44.4314895" lon="11.1679283"><ele>316.4</ele><time>2026-03-29T11:22:20.049Z</time></trkpt><trkpt lat="44.4316058" lon="11.1678688"><ele>323.59999999999997</ele><time>2026-03-29T11:22:22.049Z</time></trkpt><trkpt lat="44.4317061" lon="11.1677305"><ele>330.79999999999995</ele><time>2026-03-29T11:22:24.049Z</time></trkpt><trkpt lat="44.4317772" lon="11.1676772"><ele>338.0</ele><time>2026-03-29T11:22:25.048Z</time></trkpt><trkpt lat="44.4318515" lon="11.1676418"><ele>338.0</ele><time>2026-03-29T11:22:26.048Z</time></trkpt><trkpt lat="44.4319256" lon="11.1676279"><ele>338.0</ele><time>2026-03-29T11:22:27.049Z</time></trkpt><trkpt lat="44.4319905" lon="11.167674"><ele>338.0</ele><time>2026-03-29T11:22:28.048Z</time></trkpt><trkpt lat="44.4320547" lon="11.1676923"><ele>338.0</ele><time>2026-03-29T11:22:29.048Z</time></trkpt><trkpt lat="44.4321516" lon="11.1676501"><ele>338.0</ele><time>2026-03-29T11:22:31.049Z</time></trkpt><trkpt lat="44.4322382" lon="11.1676144"><ele>338.0</ele><time>2026-03-29T11:22:32.049Z</time></trkpt><trkpt lat="44.4323319" lon="11.1675715"><ele>341.59999999999997</ele><time>2026-03-29T11:22:33.048Z</time></trkpt><trkpt lat="44.4324175" lon="11.1675298"><ele>345.2</ele><time>2026-03-29T11:22:34.048Z</time></trkpt><trkpt lat="44.4324873" lon="11.1674888"><ele>348.8</ele><time>2026-03-29T11:22:35.048Z</time></trkpt><trkpt lat="44.4325752" lon="11.1675345"><ele>352.4</ele><time>2026-03-29T11:22:36.049Z</time></trkpt><trkpt lat="44.4326586" lon="11.1675306"><ele>356.0</ele><time>2026-03-29T11:22:37.048Z</time></trkpt><trkpt lat="44.4327448" lon="11.1676353"><ele>356.0</ele><time>2026-03-29T11:22:38.049Z</time></trkpt><trkpt lat="44.4328161" lon="11.1677014"><ele>356.0</ele><time>2026-03-29T11:22:39.049Z</time></trkpt><trkpt lat="44.4328865" lon="11.1677616"><ele>356.0</ele><time>2026-03-29T11:22:40.048Z</time></trkpt><trkpt lat="44.432957" lon="11.167801"><ele>356.0</ele><time>2026-03-29T11:22:41.049Z</time></trkpt><trkpt lat="44.4330645" lon="11.1678699"><ele>356.0</ele><time>2026-03-29T11:22:42.049Z</time></trkpt><trkpt lat="44.4331379" lon="11.1678324"><ele>356.0</ele><time>2026-03-29T11:22:43.049Z</time></trkpt><trkpt lat="44.4331754" lon="11.1677521"><ele>353.5</ele><time>2026-03-29T11:22:44.048Z</time></trkpt><trkpt lat="44.4332226" lon="11.1676738"><ele>351.0</ele><time>2026-03-29T11:22:45.049Z</time></trkpt><trkpt lat="44.4332716" lon="11.1675813"><ele>348.5</ele><time>2026-03-29T11:22:46.049Z</time></trkpt><trkpt lat="44.4333257" lon="11.167482"><ele>346.0</ele><time>2026-03-29T11:22:47.049Z</time></trkpt><trkpt lat="44.4333658" lon="11.167371"><ele>343.5</ele><time>2026-03-29T11:22:48.049Z</time></trkpt><trkpt lat="44.4333917" lon="11.1672453"><ele>341.0</ele><time>2026-03-29T11:22:49.049Z</time></trkpt><trkpt lat="44.4334083" lon="11.1671215"><ele>341.0</ele><time>2026-03-29T11:22:50.049Z</time></trkpt><trkpt lat="44.4334198" lon="11.1669873"><ele>341.0</ele><time>2026-03-29T11:22:51.049Z</time></trkpt><trkpt lat="44.433451" lon="11.1668973"><ele>341.0</ele><time>2026-03-29T11:22:52.049Z</time></trkpt><trkpt lat="44.4334879" lon="11.1668077"><ele>341.0</ele><time>2026-03-29T11:22:53.048Z</time></trkpt><trkpt lat="44.4335618" lon="11.1667673"><ele>341.0</ele><time>2026-03-29T11:22:54.049Z</time></trkpt><trkpt lat="44.4336302" lon="11.1667567"><ele>341.0</ele><time>2026-03-29T11:22:55.049Z</time></trkpt><trkpt lat="44.4337206" lon="11.1667849"><ele>340.20000000000005</ele><time>2026-03-29T11:22:56.049Z</time></trkpt><trkpt lat="44.4338212" lon="11.1668237"><ele>339.40000000000003</ele><time>2026-03-29T11:22:57.048Z</time></trkpt><trkpt lat="44.4339227" lon="11.1668523"><ele>338.6</ele><time>2026-03-29T11:22:58.049Z</time></trkpt><trkpt lat="44.4340243" lon="11.166846"><ele>337.8</ele><time>2026-03-29T11:22:59.048Z</time></trkpt><trkpt lat="44.4341101" lon="11.166817"><ele>337.0</ele><time>2026-03-29T11:23:00.049Z</time></trkpt><trkpt lat="44.4341845" lon="11.1667741"><ele>337.0</ele><time>2026-03-29T11:23:01.049Z</time></trkpt><trkpt lat="44.4342573" lon="11.1667073"><ele>337.0</ele><time>2026-03-29T11:23:02.049Z</time></trkpt><trkpt lat="44.4343286" lon="11.1666159"><ele>337.0</ele><time>2026-03-29T11:23:03.049Z</time></trkpt><trkpt lat="44.4343836" lon="11.1665029"><ele>337.0</ele><time>2026-03-29T11:23:04.048Z</time></trkpt><trkpt lat="44.4344183" lon="11.1663846"><ele>337.0</ele><time>2026-03-29T11:23:05.048Z</time></trkpt><trkpt lat="44.4344294" lon="11.1662556"><ele>339.20000000000005</ele><time>2026-03-29T11:23:06.049Z</time></trkpt><trkpt lat="44.4344234" lon="11.1661239"><ele>341.4</ele><time>2026-03-29T11:23:07.049Z</time></trkpt><trkpt lat="44.4344052" lon="11.1660094"><ele>343.6</ele><time>2026-03-29T11:23:08.049Z</time></trkpt><trkpt lat="44.4343766" lon="11.1658817"><ele>345.79999999999995</ele><time>2026-03-29T11:23:09.049Z</time></trkpt><trkpt lat="44.4343327" lon="11.1657662"><ele>348.0</ele><time>2026-03-29T11:23:10.049Z</time></trkpt><trkpt lat="44.4342735" lon="11.1656747"><ele>348.0</ele><time>2026-03-29T11:23:11.049Z</time></trkpt><trkpt lat="44.4341726" lon="11.165664"><ele>348.0</ele><time>2026-03-29T11:23:12.049Z</time></trkpt><trkpt lat="44.4341033" lon="11.165634"><ele>348.0</ele><time>2026-03-29T11:23:13.049Z</time></trkpt><trkpt lat="44.4340272" lon="11.1655551"><ele>348.0</ele><time>2026-03-29T11:23:15.048Z</time></trkpt><trkpt lat="44.4340125" lon="11.165421"><ele>348.0</ele><time>2026-03-29T11:23:17.049Z</time></trkpt><trkpt lat="44.4340129" lon="11.1652614"><ele>348.0</ele><time>2026-03-29T11:23:19.049Z</time></trkpt><trkpt lat="44.434011" lon="11.1651671"><ele>348.0</ele><time>2026-03-29T11:23:20.049Z</time></trkpt><trkpt lat="44.4340047" lon="11.1650738"><ele>348.0</ele><time>2026-03-29T11:23:21.049Z</time></trkpt><trkpt lat="44.4339995" lon="11.1649807"><ele>348.0</ele><time>2026-03-29T11:23:22.049Z</time></trkpt><trkpt lat="44.4339822" lon="11.1648744"><ele>348.0</ele><time>2026-03-29T11:23:23.049Z</time></trkpt><trkpt lat="44.4339729" lon="11.164779"><ele>348.0</ele><time>2026-03-29T11:23:24.049Z</time></trkpt><trkpt lat="44.433972" lon="11.1646701"><ele>348.0</ele><time>2026-03-29T11:23:25.049Z</time></trkpt><trkpt lat="44.4339836" lon="11.1645488"><ele>348.0</ele><time>2026-03-29T11:23:26.049Z</time></trkpt><trkpt lat="44.4340008" lon="11.1644395"><ele>348.0</ele><time>2026-03-29T11:23:27.049Z</time></trkpt><trkpt lat="44.4340298" lon="11.1643188"><ele>348.0</ele><time>2026-03-29T11:23:28.048Z</time></trkpt><trkpt lat="44.4340563" lon="11.1642063"><ele>348.0</ele><time>2026-03-29T11:23:29.049Z</time></trkpt><trkpt lat="44.4340877" lon="11.1640968"><ele>348.0</ele><time>2026-03-29T11:23:30.049Z</time></trkpt><trkpt lat="44.4341201" lon="11.1639862"><ele>348.0</ele><time>2026-03-29T11:23:31.048Z</time></trkpt><trkpt lat="44.4341449" lon="11.1638847"><ele>347.3333333333333</ele><time>2026-03-29T11:23:32.049Z</time></trkpt><trkpt lat="44.4341511" lon="11.1637751"><ele>346.6666666666667</ele><time>2026-03-29T11:23:33.048Z</time></trkpt><trkpt lat="44.4341452" lon="11.1636635"><ele>346.0</ele><time>2026-03-29T11:23:34.049Z</time></trkpt><trkpt lat="44.43413" lon="11.1635589"><ele>345.33333333333337</ele><time>2026-03-29T11:23:35.049Z</time></trkpt><trkpt lat="44.4341175" lon="11.1634533"><ele>344.6666666666667</ele><time>2026-03-29T11:23:36.049Z</time></trkpt><trkpt lat="44.4341132" lon="11.1633572"><ele>344.0</ele><time>2026-03-29T11:23:37.049Z</time></trkpt><trkpt lat="44.434129" lon="11.1632262"><ele>344.6</ele><time>2026-03-29T11:23:39.049Z</time></trkpt><trkpt lat="44.4341831" lon="11.163101"><ele>345.2</ele><time>2026-03-29T11:23:41.048Z</time></trkpt><trkpt lat="44.4342411" lon="11.1630175"><ele>345.8</ele><time>2026-03-29T11:23:42.049Z</time></trkpt><trkpt lat="44.4343265" lon="11.1629301"><ele>346.40000000000003</ele><time>2026-03-29T11:23:43.049Z</time></trkpt><trkpt lat="44.434423" lon="11.1628531"><ele>347.0</ele><time>2026-03-29T11:23:44.049Z</time></trkpt><trkpt lat="44.4345234" lon="11.1627919"><ele>347.0</ele><time>2026-03-29T11:23:45.048Z</time></trkpt><trkpt lat="44.4346187" lon="11.1627304"><ele>347.0</ele><time>2026-03-29T11:23:46.049Z</time></trkpt><trkpt lat="44.434696" lon="11.1626617"><ele>347.0</ele><time>2026-03-29T11:23:47.049Z</time></trkpt><trkpt lat="44.4347595" lon="11.162585"><ele>347.0</ele><time>2026-03-29T11:23:48.049Z</time></trkpt><trkpt lat="44.4348014" lon="11.1624937"><ele>347.0</ele><time>2026-03-29T11:23:49.049Z</time></trkpt><trkpt lat="44.434834" lon="11.1623911"><ele>347.0</ele><time>2026-03-29T11:23:50.049Z</time></trkpt><trkpt lat="44.4348512" lon="11.1622796"><ele>342.33333333333337</ele><time>2026-03-29T11:23:51.048Z</time></trkpt><trkpt lat="44.4348478" lon="11.1621623"><ele>337.6666666666667</ele><time>2026-03-29T11:23:52.049Z</time></trkpt><trkpt lat="44.4348431" lon="11.1620445"><ele>333.0</ele><time>2026-03-29T11:23:53.048Z</time></trkpt><trkpt lat="44.4348378" lon="11.1619255"><ele>328.3333333333333</ele><time>2026-03-29T11:23:54.049Z</time></trkpt><trkpt lat="44.4348297" lon="11.161816"><ele>323.66666666666663</ele><time>2026-03-29T11:23:55.048Z</time></trkpt><trkpt lat="44.434832" lon="11.1617004"><ele>319.0</ele><time>2026-03-29T11:23:56.049Z</time></trkpt><trkpt lat="44.4348362" lon="11.1615852"><ele>320.0</ele><time>2026-03-29T11:23:57.048Z</time></trkpt><trkpt lat="44.4348502" lon="11.1614792"><ele>321.0</ele><time>2026-03-29T11:23:58.049Z</time></trkpt><trkpt lat="44.4348752" lon="11.1613818"><ele>322.0</ele><time>2026-03-29T11:23:59.048Z</time></trkpt><trkpt lat="44.4349076" lon="11.161292"><ele>323.0</ele><time>2026-03-29T11:24:00.049Z</time></trkpt><trkpt lat="44.4349433" lon="11.161209"><ele>324.0</ele><time>2026-03-29T11:24:01.048Z</time></trkpt><trkpt lat="44.4349901" lon="11.1611349"><ele>325.0</ele><time>2026-03-29T11:24:02.048Z</time></trkpt><trkpt lat="44.4350368" lon="11.1610598"><ele>326.0</ele><time>2026-03-29T11:24:03.049Z</time></trkpt><trkpt lat="44.4350825" lon="11.160984"><ele>326.0</ele><time>2026-03-29T11:24:04.049Z</time></trkpt><trkpt lat="44.4351268" lon="11.1609112"><ele>326.0</ele><time>2026-03-29T11:24:05.048Z</time></trkpt><trkpt lat="44.4351721" lon="11.1608417"><ele>326.0</ele><time>2026-03-29T11:24:06.048Z</time></trkpt><trkpt lat="44.4352093" lon="11.1607644"><ele>326.0</ele><time>2026-03-29T11:24:07.049Z</time></trkpt><trkpt lat="44.435273" lon="11.1606148"><ele>326.0</ele><time>2026-03-29T11:24:09.048Z</time></trkpt><trkpt lat="44.435304" lon="11.1605268"><ele>326.0</ele><time>2026-03-29T11:24:10.049Z</time></trkpt><trkpt lat="44.4353368" lon="11.1604483"><ele>325.4</ele><time>2026-03-29T11:24:11.049Z</time></trkpt><trkpt lat="44.4354174" lon="11.160316"><ele>324.8</ele><time>2026-03-29T11:24:13.049Z</time></trkpt><trkpt lat="44.4354753" lon="11.1602706"><ele>324.2</ele><time>2026-03-29T11:24:14.048Z</time></trkpt><trkpt lat="44.4355353" lon="11.1602323"><ele>323.59999999999997</ele><time>2026-03-29T11:24:15.048Z</time></trkpt><trkpt lat="44.435652" lon="11.1601892"><ele>323.0</ele><time>2026-03-29T11:24:17.049Z</time></trkpt><trkpt lat="44.4357505" lon="11.1601285"><ele>322.33333333333337</ele><time>2026-03-29T11:24:19.049Z</time></trkpt><trkpt lat="44.4358262" lon="11.1600091"><ele>321.6666666666667</ele><time>2026-03-29T11:24:21.049Z</time></trkpt><trkpt lat="44.4358746" lon="11.1599319"><ele>321.0</ele><time>2026-03-29T11:24:22.048Z</time></trkpt><trkpt lat="44.4359351" lon="11.1599048"><ele>320.3333333333333</ele><time>2026-03-29T11:24:23.049Z</time></trkpt><trkpt lat="44.4360154" lon="11.1599221"><ele>319.66666666666663</ele><time>2026-03-29T11:24:24.048Z</time></trkpt><trkpt lat="44.4361075" lon="11.1599619"><ele>319.0</ele><time>2026-03-29T11:24:25.048Z</time></trkpt><trkpt lat="44.4362112" lon="11.1599776"><ele>320.0</ele><time>2026-03-29T11:24:26.049Z</time></trkpt><trkpt lat="44.4363067" lon="11.1599547"><ele>321.0</ele><time>2026-03-29T11:24:27.049Z</time></trkpt><trkpt lat="44.4364003" lon="11.159901"><ele>322.0</ele><time>2026-03-29T11:24:28.049Z</time></trkpt><trkpt lat="44.4364938" lon="11.1598122"><ele>323.0</ele><time>2026-03-29T11:24:29.049Z</time></trkpt><trkpt lat="44.4365675" lon="11.159742"><ele>324.0</ele><time>2026-03-29T11:24:30.049Z</time></trkpt><trkpt lat="44.4366538" lon="11.159687"><ele>325.75</ele><time>2026-03-29T11:24:31.049Z</time></trkpt><trkpt lat="44.4367495" lon="11.1596859"><ele>327.5</ele><time>2026-03-29T11:24:32.048Z</time></trkpt><trkpt lat="44.4368554" lon="11.1596864"><ele>329.25</ele><time>2026-03-29T11:24:33.049Z</time></trkpt><trkpt lat="44.4369782" lon="11.1597545"><ele>331.0</ele><time>2026-03-29T11:24:34.049Z</time></trkpt><trkpt lat="44.4371049" lon="11.1598349"><ele>333.0</ele><time>2026-03-29T11:24:35.049Z</time></trkpt><trkpt lat="44.4372369" lon="11.1599251"><ele>335.0</ele><time>2026-03-29T11:24:36.049Z</time></trkpt><trkpt lat="44.4373915" lon="11.1600289"><ele>337.0</ele><time>2026-03-29T11:24:37.049Z</time></trkpt><trkpt lat="44.4375528" lon="11.1601317"><ele>337.0</ele><time>2026-03-29T11:24:38.049Z</time></trkpt><trkpt lat="44.437703" lon="11.1602332"><ele>337.0</ele><time>2026-03-29T11:24:39.048Z</time></trkpt><trkpt lat="44.4378522" lon="11.1603337"><ele>337.0</ele><time>2026-03-29T11:24:40.049Z</time></trkpt><trkpt lat="44.4379799" lon="11.1604183"><ele>342.0</ele><time>2026-03-29T11:24:41.049Z</time></trkpt><trkpt lat="44.4381147" lon="11.1604743"><ele>347.0</ele><time>2026-03-29T11:24:42.049Z</time></trkpt><trkpt lat="44.4382592" lon="11.1605215"><ele>352.0</ele><time>2026-03-29T11:24:43.048Z</time></trkpt><trkpt lat="44.4383997" lon="11.1605594"><ele>357.0</ele><time>2026-03-29T11:24:44.049Z</time></trkpt><trkpt lat="44.4385314" lon="11.1605862"><ele>357.0</ele><time>2026-03-29T11:24:45.049Z</time></trkpt><trkpt lat="44.4386485" lon="11.1606077"><ele>357.0</ele><time>2026-03-29T11:24:46.049Z</time></trkpt><trkpt lat="44.4387725" lon="11.1605795"><ele>357.0</ele><time>2026-03-29T11:24:47.049Z</time></trkpt><trkpt lat="44.4388842" lon="11.1605468"><ele>357.0</ele><time>2026-03-29T11:24:48.049Z</time></trkpt><trkpt lat="44.4390288" lon="11.1605414"><ele>357.75</ele><time>2026-03-29T11:24:49.048Z</time></trkpt><trkpt lat="44.4391504" lon="11.1605558"><ele>358.5</ele><time>2026-03-29T11:24:50.049Z</time></trkpt><trkpt lat="44.4392678" lon="11.1605744"><ele>359.25</ele><time>2026-03-29T11:24:51.049Z</time></trkpt><trkpt lat="44.4393954" lon="11.1606745"><ele>360.0</ele><time>2026-03-29T11:24:52.049Z</time></trkpt><trkpt lat="44.4395325" lon="11.1607313"><ele>357.25</ele><time>2026-03-29T11:24:53.049Z</time></trkpt><trkpt lat="44.4396535" lon="11.1607804"><ele>354.5</ele><time>2026-03-29T11:24:54.049Z</time></trkpt><trkpt lat="44.4397829" lon="11.1608272"><ele>351.75</ele><time>2026-03-29T11:24:55.048Z</time></trkpt><trkpt lat="44.4399107" lon="11.1608524"><ele>349.0</ele><time>2026-03-29T11:24:56.048Z</time></trkpt><trkpt lat="44.4400178" lon="11.1607991"><ele>349.0</ele><time>2026-03-29T11:24:57.049Z</time></trkpt><trkpt lat="44.4401165" lon="11.1608118"><ele>349.0</ele><time>2026-03-29T11:24:58.049Z</time></trkpt><trkpt lat="44.440212" lon="11.1608229"><ele>349.0</ele><time>2026-03-29T11:24:59.049Z</time></trkpt><trkpt lat="44.440299" lon="11.1608493"><ele>349.0</ele><time>2026-03-29T11:25:00.048Z</time></trkpt><trkpt lat="44.4403654" lon="11.1609147"><ele>349.0</ele><time>2026-03-29T11:25:01.049Z</time></trkpt><trkpt lat="44.4404437" lon="11.1610261"><ele>347.5</ele><time>2026-03-29T11:25:02.049Z</time></trkpt><trkpt lat="44.4405853" lon="11.1611324"><ele>346.0</ele><time>2026-03-29T11:25:04.049Z</time></trkpt><trkpt lat="44.4406743" lon="11.1611516"><ele>344.5</ele><time>2026-03-29T11:25:05.049Z</time></trkpt><trkpt lat="44.4407607" lon="11.1611672"><ele>343.0</ele><time>2026-03-29T11:25:06.048Z</time></trkpt><trkpt lat="44.4409003" lon="11.1611923"><ele>343.0</ele><time>2026-03-29T11:25:07.048Z</time></trkpt><trkpt lat="44.4410416" lon="11.1611702"><ele>343.0</ele><time>2026-03-29T11:25:08.048Z</time></trkpt><trkpt lat="44.4411677" lon="11.1611969"><ele>343.0</ele><time>2026-03-29T11:25:09.049Z</time></trkpt><trkpt lat="44.4412457" lon="11.1611992"><ele>343.0</ele><time>2026-03-29T11:25:10.048Z</time></trkpt><trkpt lat="44.4413528" lon="11.1612328"><ele>340.5</ele><time>2026-03-29T11:25:11.049Z</time></trkpt><trkpt lat="44.4414485" lon="11.1612845"><ele>338.0</ele><time>2026-03-29T11:25:12.049Z</time></trkpt><trkpt lat="44.441558" lon="11.1613073"><ele>335.5</ele><time>2026-03-29T11:25:13.049Z</time></trkpt><trkpt lat="44.441649" lon="11.1613949"><ele>333.0</ele><time>2026-03-29T11:25:14.049Z</time></trkpt><trkpt lat="44.4417428" lon="11.1615142"><ele>333.0</ele><time>2026-03-29T11:25:15.049Z</time></trkpt><trkpt lat="44.4418457" lon="11.1616605"><ele>333.0</ele><time>2026-03-29T11:25:16.048Z</time></trkpt><trkpt lat="44.4419127" lon="11.1618006"><ele>333.0</ele><time>2026-03-29T11:25:17.049Z</time></trkpt><trkpt lat="44.4419967" lon="11.1619438"><ele>333.0</ele><time>2026-03-29T11:25:18.049Z</time></trkpt><trkpt lat="44.442096" lon="11.1620803"><ele>336.25</ele><time>2026-03-29T11:25:19.049Z</time></trkpt><trkpt lat="44.4422003" lon="11.1622062"><ele>339.5</ele><time>2026-03-29T11:25:20.048Z</time></trkpt><trkpt lat="44.4423003" lon="11.162334"><ele>342.75</ele><time>2026-03-29T11:25:21.049Z</time></trkpt><trkpt lat="44.442397" lon="11.1624716"><ele>346.0</ele><time>2026-03-29T11:25:22.048Z</time></trkpt><trkpt lat="44.4424981" lon="11.1626105"><ele>346.25</ele><time>2026-03-29T11:25:23.049Z</time></trkpt><trkpt lat="44.4426024" lon="11.1627463"><ele>346.5</ele><time>2026-03-29T11:25:24.049Z</time></trkpt><trkpt lat="44.4427057" lon="11.1628934"><ele>346.75</ele><time>2026-03-29T11:25:25.049Z</time></trkpt><trkpt lat="44.4428106" lon="11.1630327"><ele>347.0</ele><time>2026-03-29T11:25:26.049Z</time></trkpt><trkpt lat="44.4429227" lon="11.1631664"><ele>349.75</ele><time>2026-03-29T11:25:27.049Z</time></trkpt><trkpt lat="44.443039" lon="11.1632939"><ele>352.5</ele><time>2026-03-29T11:25:28.049Z</time></trkpt><trkpt lat="44.4431497" lon="11.1634143"><ele>355.25</ele><time>2026-03-29T11:25:29.049Z</time></trkpt><trkpt lat="44.443252" lon="11.1635224"><ele>358.0</ele><time>2026-03-29T11:25:30.049Z</time></trkpt><trkpt lat="44.4433397" lon="11.1636036"><ele>358.0</ele><time>2026-03-29T11:25:31.049Z</time></trkpt><trkpt lat="44.4434553" lon="11.1636595"><ele>358.0</ele><time>2026-03-29T11:25:32.048Z</time></trkpt><trkpt lat="44.4435715" lon="11.163706"><ele>358.0</ele><time>2026-03-29T11:25:33.048Z</time></trkpt><trkpt lat="44.4437" lon="11.1637282"><ele>358.0</ele><time>2026-03-29T11:25:34.048Z</time></trkpt><trkpt lat="44.4438203" lon="11.1637492"><ele>358.79999999999995</ele><time>2026-03-29T11:25:35.049Z</time></trkpt><trkpt lat="44.4439396" lon="11.1637776"><ele>359.6</ele><time>2026-03-29T11:25:36.049Z</time></trkpt><trkpt lat="44.444045" lon="11.1638296"><ele>360.4</ele><time>2026-03-29T11:25:37.049Z</time></trkpt><trkpt lat="44.444142" lon="11.1638837"><ele>361.20000000000005</ele><time>2026-03-29T11:25:38.049Z</time></trkpt><trkpt lat="44.4442293" lon="11.1639591"><ele>362.0</ele><time>2026-03-29T11:25:39.049Z</time></trkpt><trkpt lat="44.444303" lon="11.1640285"><ele>359.5</ele><time>2026-03-29T11:25:40.048Z</time></trkpt><trkpt lat="44.4443518" lon="11.1641043"><ele>357.0</ele><time>2026-03-29T11:25:41.048Z</time></trkpt><trkpt lat="44.4443997" lon="11.1641856"><ele>354.5</ele><time>2026-03-29T11:25:42.049Z</time></trkpt><trkpt lat="44.4443967" lon="11.1643013"><ele>352.0</ele><time>2026-03-29T11:25:43.049Z</time></trkpt><trkpt lat="44.4443973" lon="11.1644528"><ele>349.5</ele><time>2026-03-29T11:25:44.049Z</time></trkpt><trkpt lat="44.4443772" lon="11.1645858"><ele>347.0</ele><time>2026-03-29T11:25:45.048Z</time></trkpt><trkpt lat="44.4443494" lon="11.1647672"><ele>344.5</ele><time>2026-03-29T11:25:47.049Z</time></trkpt><trkpt lat="44.4443296" lon="11.164948"><ele>342.0</ele><time>2026-03-29T11:25:48.048Z</time></trkpt><trkpt lat="44.444341" lon="11.1651236"><ele>339.5</ele><time>2026-03-29T11:25:50.049Z</time></trkpt><trkpt lat="44.4443815" lon="11.1652649"><ele>337.0</ele><time>2026-03-29T11:25:51.048Z</time></trkpt><trkpt lat="44.444457" lon="11.1654398"><ele>337.0</ele><time>2026-03-29T11:25:52.049Z</time></trkpt><trkpt lat="44.4445368" lon="11.165619"><ele>337.0</ele><time>2026-03-29T11:25:53.049Z</time></trkpt><trkpt lat="44.4446141" lon="11.1658088"><ele>337.0</ele><time>2026-03-29T11:25:54.048Z</time></trkpt><trkpt lat="44.4446957" lon="11.1659743"><ele>337.25</ele><time>2026-03-29T11:25:55.048Z</time></trkpt><trkpt lat="44.4447678" lon="11.1661257"><ele>337.5</ele><time>2026-03-29T11:25:56.048Z</time></trkpt><trkpt lat="44.4448309" lon="11.1662875"><ele>337.75</ele><time>2026-03-29T11:25:57.049Z</time></trkpt><trkpt lat="44.4448828" lon="11.1664518"><ele>338.0</ele><time>2026-03-29T11:25:58.049Z</time></trkpt><trkpt lat="44.444936" lon="11.1666382"><ele>337.25</ele><time>2026-03-29T11:25:59.049Z</time></trkpt><trkpt lat="44.4449915" lon="11.1668103"><ele>336.5</ele><time>2026-03-29T11:26:00.048Z</time></trkpt><trkpt lat="44.4450601" lon="11.1669788"><ele>335.75</ele><time>2026-03-29T11:26:01.049Z</time></trkpt><trkpt lat="44.445143" lon="11.1671222"><ele>335.0</ele><time>2026-03-29T11:26:02.048Z</time></trkpt><trkpt lat="44.4452441" lon="11.1672784"><ele>337.0</ele><time>2026-03-29T11:26:03.048Z</time></trkpt><trkpt lat="44.4453453" lon="11.167429"><ele>339.0</ele><time>2026-03-29T11:26:04.048Z</time></trkpt><trkpt lat="44.4454454" lon="11.1675706"><ele>341.0</ele><time>2026-03-29T11:26:05.049Z</time></trkpt><trkpt lat="44.4455321" lon="11.1677279"><ele>343.0</ele><time>2026-03-29T11:26:06.049Z</time></trkpt><trkpt lat="44.4456001" lon="11.1678796"><ele>343.0</ele><time>2026-03-29T11:26:07.049Z</time></trkpt><trkpt lat="44.4456539" lon="11.1680402"><ele>343.0</ele><time>2026-03-29T11:26:08.049Z</time></trkpt><trkpt lat="44.4457123" lon="11.1681715"><ele>343.0</ele><time>2026-03-29T11:26:09.049Z</time></trkpt><trkpt lat="44.4457616" lon="11.1682976"><ele>343.0</ele><time>2026-03-29T11:26:10.048Z</time></trkpt><trkpt lat="44.4458215" lon="11.1684087"><ele>343.0</ele><time>2026-03-29T11:26:11.049Z</time></trkpt><trkpt lat="44.4458943" lon="11.1684819"><ele>343.0</ele><time>2026-03-29T11:26:12.049Z</time></trkpt><trkpt lat="44.4459746" lon="11.1685487"><ele>343.0</ele><time>2026-03-29T11:26:13.049Z</time></trkpt><trkpt lat="44.4460654" lon="11.1686005"><ele>343.0</ele><time>2026-03-29T11:26:14.049Z</time></trkpt><trkpt lat="44.4461741" lon="11.168669"><ele>343.0</ele><time>2026-03-29T11:26:15.049Z</time></trkpt><trkpt lat="44.4462928" lon="11.1687428"><ele>343.0</ele><time>2026-03-29T11:26:16.049Z</time></trkpt><trkpt lat="44.4464061" lon="11.1688271"><ele>341.75</ele><time>2026-03-29T11:26:17.049Z</time></trkpt><trkpt lat="44.4465224" lon="11.1689194"><ele>340.5</ele><time>2026-03-29T11:26:18.049Z</time></trkpt><trkpt lat="44.4466359" lon="11.1690052"><ele>339.25</ele><time>2026-03-29T11:26:19.049Z</time></trkpt><trkpt lat="44.4467299" lon="11.1690912"><ele>338.0</ele><time>2026-03-29T11:26:20.049Z</time></trkpt><trkpt lat="44.4468214" lon="11.1691894"><ele>338.0</ele><time>2026-03-29T11:26:21.049Z</time></trkpt><trkpt lat="44.4468895" lon="11.1693009"><ele>338.0</ele><time>2026-03-29T11:26:22.049Z</time></trkpt><trkpt lat="44.4469427" lon="11.1694311"><ele>338.0</ele><time>2026-03-29T11:26:23.049Z</time></trkpt><trkpt lat="44.4469813" lon="11.1695829"><ele>338.0</ele><time>2026-03-29T11:26:24.049Z</time></trkpt><trkpt lat="44.447007" lon="11.1697613"><ele>336.59999999999997</ele><time>2026-03-29T11:26:25.049Z</time></trkpt><trkpt lat="44.447029" lon="11.1699375"><ele>335.2</ele><time>2026-03-29T11:26:26.048Z</time></trkpt><trkpt lat="44.4470649" lon="11.1700506"><ele>333.8</ele><time>2026-03-29T11:26:27.048Z</time></trkpt><trkpt lat="44.4470991" lon="11.1701897"><ele>332.4</ele><time>2026-03-29T11:26:28.048Z</time></trkpt><trkpt lat="44.4471494" lon="11.1703042"><ele>331.0</ele><time>2026-03-29T11:26:29.048Z</time></trkpt><trkpt lat="44.4472249" lon="11.1704017"><ele>337.5</ele><time>2026-03-29T11:26:30.048Z</time></trkpt><trkpt lat="44.4473181" lon="11.1704822"><ele>344.0</ele><time>2026-03-29T11:26:31.049Z</time></trkpt><trkpt lat="44.4474305" lon="11.1705332"><ele>350.5</ele><time>2026-03-29T11:26:32.048Z</time></trkpt><trkpt lat="44.4475597" lon="11.1705981"><ele>357.0</ele><time>2026-03-29T11:26:33.049Z</time></trkpt><trkpt lat="44.4476946" lon="11.1706452"><ele>353.5</ele><time>2026-03-29T11:26:34.049Z</time></trkpt><trkpt lat="44.4478266" lon="11.1706986"><ele>350.0</ele><time>2026-03-29T11:26:35.049Z</time></trkpt><trkpt lat="44.447945" lon="11.170764"><ele>346.5</ele><time>2026-03-29T11:26:36.049Z</time></trkpt><trkpt lat="44.4480406" lon="11.1708668"><ele>343.0</ele><time>2026-03-29T11:26:37.048Z</time></trkpt><trkpt lat="44.4481383" lon="11.1709974"><ele>343.75</ele><time>2026-03-29T11:26:38.048Z</time></trkpt><trkpt lat="44.4482385" lon="11.1711528"><ele>344.5</ele><time>2026-03-29T11:26:39.049Z</time></trkpt><trkpt lat="44.4483335" lon="11.171309"><ele>345.25</ele><time>2026-03-29T11:26:40.048Z</time></trkpt><trkpt lat="44.4484238" lon="11.1714447"><ele>346.0</ele><time>2026-03-29T11:26:41.048Z</time></trkpt><trkpt lat="44.4485096" lon="11.171577"><ele>346.0</ele><time>2026-03-29T11:26:42.049Z</time></trkpt><trkpt lat="44.4485916" lon="11.1717132"><ele>346.0</ele><time>2026-03-29T11:26:43.048Z</time></trkpt><trkpt lat="44.4486513" lon="11.1718541"><ele>346.0</ele><time>2026-03-29T11:26:44.048Z</time></trkpt><trkpt lat="44.4486791" lon="11.1719482"><ele>346.0</ele><time>2026-03-29T11:26:45.049Z</time></trkpt><trkpt lat="44.4487097" lon="11.1721132"><ele>346.0</ele><time>2026-03-29T11:26:46.049Z</time></trkpt><trkpt lat="44.4487255" lon="11.1722388"><ele>342.75</ele><time>2026-03-29T11:26:47.049Z</time></trkpt><trkpt lat="44.4487409" lon="11.1724064"><ele>339.5</ele><time>2026-03-29T11:26:48.049Z</time></trkpt><trkpt lat="44.4487455" lon="11.1725839"><ele>336.25</ele><time>2026-03-29T11:26:49.049Z</time></trkpt><trkpt lat="44.4487575" lon="11.1727355"><ele>333.0</ele><time>2026-03-29T11:26:50.049Z</time></trkpt><trkpt lat="44.448759" lon="11.1728758"><ele>333.0</ele><time>2026-03-29T11:26:51.049Z</time></trkpt><trkpt lat="44.4487469" lon="11.1730068"><ele>333.0</ele><time>2026-03-29T11:26:52.048Z</time></trkpt><trkpt lat="44.4487178" lon="11.1731455"><ele>333.0</ele><time>2026-03-29T11:26:53.049Z</time></trkpt><trkpt lat="44.4486525" lon="11.1731914"><ele>333.0</ele><time>2026-03-29T11:26:54.049Z</time></trkpt><trkpt lat="44.4485731" lon="11.1733019"><ele>333.0</ele><time>2026-03-29T11:26:55.049Z</time></trkpt><trkpt lat="44.4484555" lon="11.1734083"><ele>334.4</ele><time>2026-03-29T11:26:56.048Z</time></trkpt><trkpt lat="44.448366" lon="11.1735001"><ele>335.79999999999995</ele><time>2026-03-29T11:26:57.049Z</time></trkpt><trkpt lat="44.448295" lon="11.1735853"><ele>337.2</ele><time>2026-03-29T11:26:58.049Z</time></trkpt><trkpt lat="44.4482236" lon="11.1736741"><ele>338.6</ele><time>2026-03-29T11:26:59.049Z</time></trkpt><trkpt lat="44.44814" lon="11.173752"><ele>340.0</ele><time>2026-03-29T11:27:00.048Z</time></trkpt><trkpt lat="44.4480734" lon="11.173812"><ele>340.0</ele><time>2026-03-29T11:27:01.049Z</time></trkpt><trkpt lat="44.4479997" lon="11.1738671"><ele>340.0</ele><time>2026-03-29T11:27:02.049Z</time></trkpt><trkpt lat="44.4479305" lon="11.1738964"><ele>340.0</ele><time>2026-03-29T11:27:03.049Z</time></trkpt><trkpt lat="44.4478365" lon="11.1739564"><ele>340.0</ele><time>2026-03-29T11:27:06.048Z</time></trkpt><trkpt lat="44.4478486" lon="11.1740897"><ele>340.0</ele><time>2026-03-29T11:27:08.048Z</time></trkpt><trkpt lat="44.447926" lon="11.1741728"><ele>342.25</ele><time>2026-03-29T11:27:09.049Z</time></trkpt><trkpt lat="44.4480132" lon="11.1742369"><ele>344.5</ele><time>2026-03-29T11:27:10.049Z</time></trkpt><trkpt lat="44.4481165" lon="11.1743171"><ele>346.75</ele><time>2026-03-29T11:27:11.049Z</time></trkpt><trkpt lat="44.4482369" lon="11.1743916"><ele>349.0</ele><time>2026-03-29T11:27:12.048Z</time></trkpt><trkpt lat="44.4483588" lon="11.1744621"><ele>349.0</ele><time>2026-03-29T11:27:13.049Z</time></trkpt><trkpt lat="44.4484873" lon="11.1745431"><ele>349.0</ele><time>2026-03-29T11:27:14.049Z</time></trkpt><trkpt lat="44.448616" lon="11.1746161"><ele>349.0</ele><time>2026-03-29T11:27:15.049Z</time></trkpt><trkpt lat="44.448748" lon="11.1746674"><ele>349.0</ele><time>2026-03-29T11:27:16.049Z</time></trkpt><trkpt lat="44.4488729" lon="11.1747386"><ele>349.0</ele><time>2026-03-29T11:27:17.049Z</time></trkpt><trkpt lat="44.4490009" lon="11.174809"><ele>349.0</ele><time>2026-03-29T11:27:18.049Z</time></trkpt><trkpt lat="44.4491205" lon="11.1748646"><ele>349.0</ele><time>2026-03-29T11:27:19.048Z</time></trkpt><trkpt lat="44.4492546" lon="11.1748776"><ele>349.0</ele><time>2026-03-29T11:27:20.048Z</time></trkpt><trkpt lat="44.4493749" lon="11.1749077"><ele>349.0</ele><time>2026-03-29T11:27:21.049Z</time></trkpt><trkpt lat="44.4495045" lon="11.1749185"><ele>349.0</ele><time>2026-03-29T11:27:22.048Z</time></trkpt><trkpt lat="44.4496149" lon="11.1749432"><ele>349.0</ele><time>2026-03-29T11:27:23.048Z</time></trkpt><trkpt lat="44.4497175" lon="11.1749567"><ele>349.0</ele><time>2026-03-29T11:27:24.049Z</time></trkpt><trkpt lat="44.4498104" lon="11.1749662"><ele>349.0</ele><time>2026-03-29T11:27:25.049Z</time></trkpt><trkpt lat="44.449883" lon="11.174976"><ele>350.16666666666663</ele><time>2026-03-29T11:27:26.049Z</time></trkpt><trkpt lat="44.4499443" lon="11.1749966"><ele>351.3333333333333</ele><time>2026-03-29T11:27:27.048Z</time></trkpt><trkpt lat="44.4500216" lon="11.1750143"><ele>352.5</ele><time>2026-03-29T11:27:29.049Z</time></trkpt><trkpt lat="44.450067" lon="11.174915"><ele>353.6666666666667</ele><time>2026-03-29T11:28:59.049Z</time></trkpt><trkpt lat="44.4501266" lon="11.1748396"><ele>354.83333333333337</ele><time>2026-03-29T11:29:00.048Z</time></trkpt><trkpt lat="44.4501886" lon="11.1747317"><ele>356.0</ele><time>2026-03-29T11:29:01.049Z</time></trkpt><trkpt lat="44.4502537" lon="11.1746386"><ele>357.75</ele><time>2026-03-29T11:29:02.049Z</time></trkpt><trkpt lat="44.4503716" lon="11.1745282"><ele>359.5</ele><time>2026-03-29T11:29:03.049Z</time></trkpt><trkpt lat="44.4504758" lon="11.1743684"><ele>361.25</ele><time>2026-03-29T11:29:04.049Z</time></trkpt><trkpt lat="44.450566" lon="11.1742417"><ele>363.0</ele><time>2026-03-29T11:29:05.049Z</time></trkpt><trkpt lat="44.4506633" lon="11.1740853"><ele>361.0</ele><time>2026-03-29T11:29:06.049Z</time></trkpt><trkpt lat="44.4507684" lon="11.1739506"><ele>359.0</ele><time>2026-03-29T11:29:07.049Z</time></trkpt><trkpt lat="44.4508839" lon="11.1738353"><ele>357.0</ele><time>2026-03-29T11:29:08.049Z</time></trkpt><trkpt lat="44.4510102" lon="11.1737443"><ele>355.0</ele><time>2026-03-29T11:29:09.049Z</time></trkpt><trkpt lat="44.4511387" lon="11.17367"><ele>355.0</ele><time>2026-03-29T11:29:10.048Z</time></trkpt><trkpt lat="44.4512698" lon="11.1735958"><ele>355.0</ele><time>2026-03-29T11:29:11.048Z</time></trkpt><trkpt lat="44.4513834" lon="11.1734941"><ele>355.0</ele><time>2026-03-29T11:29:12.048Z</time></trkpt><trkpt lat="44.4514984" lon="11.1733754"><ele>355.0</ele><time>2026-03-29T11:29:13.048Z</time></trkpt><trkpt lat="44.451605" lon="11.1732553"><ele>350.0</ele><time>2026-03-29T11:29:14.048Z</time></trkpt><trkpt lat="44.4517076" lon="11.1731378"><ele>345.0</ele><time>2026-03-29T11:29:15.048Z</time></trkpt><trkpt lat="44.4518145" lon="11.1730397"><ele>340.0</ele><time>2026-03-29T11:29:16.049Z</time></trkpt><trkpt lat="44.45194" lon="11.172955"><ele>335.0</ele><time>2026-03-29T11:29:17.049Z</time></trkpt><trkpt lat="44.4520617" lon="11.1728822"><ele>334.25</ele><time>2026-03-29T11:29:18.049Z</time></trkpt><trkpt lat="44.4521633" lon="11.172799"><ele>333.5</ele><time>2026-03-29T11:29:19.049Z</time></trkpt><trkpt lat="44.4522568" lon="11.1726832"><ele>332.75</ele><time>2026-03-29T11:29:20.049Z</time></trkpt><trkpt lat="44.4523562" lon="11.172558"><ele>332.0</ele><time>2026-03-29T11:29:21.049Z</time></trkpt><trkpt lat="44.4524544" lon="11.1724618"><ele>332.0</ele><time>2026-03-29T11:29:22.049Z</time></trkpt><trkpt lat="44.4525744" lon="11.1724212"><ele>332.0</ele><time>2026-03-29T11:29:23.049Z</time></trkpt><trkpt lat="44.4526922" lon="11.1723746"><ele>332.0</ele><time>2026-03-29T11:29:24.048Z</time></trkpt><trkpt lat="44.4528005" lon="11.1723455"><ele>332.0</ele><time>2026-03-29T11:29:25.048Z</time></trkpt><trkpt lat="44.4528865" lon="11.172312"><ele>332.0</ele><time>2026-03-29T11:29:26.048Z</time></trkpt><trkpt lat="44.4529991" lon="11.1722732"><ele>326.0</ele><time>2026-03-29T11:29:27.048Z</time></trkpt><trkpt lat="44.4530989" lon="11.1722314"><ele>320.0</ele><time>2026-03-29T11:29:28.049Z</time></trkpt><trkpt lat="44.4532006" lon="11.1722299"><ele>314.0</ele><time>2026-03-29T11:29:29.048Z</time></trkpt><trkpt lat="44.4533088" lon="11.1722429"><ele>308.0</ele><time>2026-03-29T11:29:30.049Z</time></trkpt><trkpt lat="44.4534178" lon="11.1722551"><ele>302.0</ele><time>2026-03-29T11:29:31.049Z</time></trkpt><trkpt lat="44.4535185" lon="11.1722691"><ele>302.0</ele><time>2026-03-29T11:29:32.049Z</time></trkpt><trkpt lat="44.45362" lon="11.1723024"><ele>302.0</ele><time>2026-03-29T11:29:33.049Z</time></trkpt><trkpt lat="44.4537149" lon="11.1723356"><ele>302.0</ele><time>2026-03-29T11:29:34.049Z</time></trkpt><trkpt lat="44.4538101" lon="11.172372"><ele>302.0</ele><time>2026-03-29T11:29:35.049Z</time></trkpt><trkpt lat="44.4539043" lon="11.172424"><ele>302.0</ele><time>2026-03-29T11:29:36.049Z</time></trkpt><trkpt lat="44.4540085" lon="11.1724853"><ele>300.25</ele><time>2026-03-29T11:29:37.049Z</time></trkpt><trkpt lat="44.454122" lon="11.1725468"><ele>298.5</ele><time>2026-03-29T11:29:38.048Z</time></trkpt><trkpt lat="44.4542468" lon="11.1726117"><ele>296.75</ele><time>2026-03-29T11:29:39.049Z</time></trkpt><trkpt lat="44.4543794" lon="11.1726786"><ele>295.0</ele><time>2026-03-29T11:29:40.049Z</time></trkpt><trkpt lat="44.454514" lon="11.1727238"><ele>291.0</ele><time>2026-03-29T11:29:41.049Z</time></trkpt><trkpt lat="44.4546538" lon="11.1727155"><ele>287.0</ele><time>2026-03-29T11:29:42.049Z</time></trkpt><trkpt lat="44.4547962" lon="11.1726809"><ele>283.0</ele><time>2026-03-29T11:29:43.048Z</time></trkpt><trkpt lat="44.4549404" lon="11.1726387"><ele>279.0</ele><time>2026-03-29T11:29:44.049Z</time></trkpt><trkpt lat="44.4550847" lon="11.1726104"><ele>279.0</ele><time>2026-03-29T11:29:45.049Z</time></trkpt><trkpt lat="44.4552276" lon="11.1725803"><ele>279.0</ele><time>2026-03-29T11:29:46.049Z</time></trkpt><trkpt lat="44.4553601" lon="11.1725521"><ele>279.0</ele><time>2026-03-29T11:29:47.048Z</time></trkpt><trkpt lat="44.4554841" lon="11.1725248"><ele>279.0</ele><time>2026-03-29T11:29:48.049Z</time></trkpt><trkpt lat="44.4556128" lon="11.1724943"><ele>275.8</ele><time>2026-03-29T11:29:49.048Z</time></trkpt><trkpt lat="44.4557365" lon="11.1724636"><ele>272.59999999999997</ele><time>2026-03-29T11:29:50.049Z</time></trkpt><trkpt lat="44.4558501" lon="11.1724387"><ele>269.4</ele><time>2026-03-29T11:29:51.048Z</time></trkpt><trkpt lat="44.4559484" lon="11.1724292"><ele>266.2</ele><time>2026-03-29T11:29:52.048Z</time></trkpt><trkpt lat="44.4560337" lon="11.1724257"><ele>263.0</ele><time>2026-03-29T11:29:53.048Z</time></trkpt><trkpt lat="44.4561027" lon="11.1724296"><ele>263.0</ele><time>2026-03-29T11:29:54.049Z</time></trkpt><trkpt lat="44.4562" lon="11.1724233"><ele>263.0</ele><time>2026-03-29T11:29:56.048Z</time></trkpt><trkpt lat="44.4561746" lon="11.172289"><ele>263.0</ele><time>2026-03-29T11:29:59.048Z</time></trkpt><trkpt lat="44.4560953" lon="11.1722294"><ele>263.0</ele><time>2026-03-29T11:30:00.049Z</time></trkpt><trkpt lat="44.4560089" lon="11.1721363"><ele>263.0</ele><time>2026-03-29T11:30:01.049Z</time></trkpt><trkpt lat="44.4559181" lon="11.1720311"><ele>260.25</ele><time>2026-03-29T11:30:02.049Z</time></trkpt><trkpt lat="44.4558183" lon="11.1719136"><ele>257.5</ele><time>2026-03-29T11:30:03.049Z</time></trkpt><trkpt lat="44.4557233" lon="11.1718044"><ele>254.75</ele><time>2026-03-29T11:30:04.049Z</time></trkpt><trkpt lat="44.4556255" lon="11.1716902"><ele>252.0</ele><time>2026-03-29T11:30:05.048Z</time></trkpt><trkpt lat="44.4555363" lon="11.1715722"><ele>251.2</ele><time>2026-03-29T11:30:06.049Z</time></trkpt><trkpt lat="44.4554597" lon="11.1714579"><ele>250.39999999999998</ele><time>2026-03-29T11:30:07.049Z</time></trkpt><trkpt lat="44.4553937" lon="11.1713584"><ele>249.60000000000002</ele><time>2026-03-29T11:30:08.049Z</time></trkpt><trkpt lat="44.4553385" lon="11.1712559"><ele>248.8</ele><time>2026-03-29T11:30:09.048Z</time></trkpt><trkpt lat="44.4552982" lon="11.1711683"><ele>248.0</ele><time>2026-03-29T11:30:10.049Z</time></trkpt><trkpt lat="44.4552619" lon="11.1710231"><ele>248.00000000000003</ele><time>2026-03-29T11:30:12.048Z</time></trkpt><trkpt lat="44.4553021" lon="11.1709505"><ele>248.0</ele><time>2026-03-29T11:30:14.048Z</time></trkpt><trkpt lat="44.4553843" lon="11.170976"><ele>248.0</ele><time>2026-03-29T11:30:15.049Z</time></trkpt><trkpt lat="44.4554616" lon="11.171005"><ele>248.0</ele><time>2026-03-29T11:30:16.049Z</time></trkpt><trkpt lat="44.4555471" lon="11.1710531"><ele>248.00000000000003</ele><time>2026-03-29T11:30:17.049Z</time></trkpt><trkpt lat="44.4556483" lon="11.1710929"><ele>248.0</ele><time>2026-03-29T11:30:18.048Z</time></trkpt><trkpt lat="44.4557317" lon="11.171101"><ele>245.4</ele><time>2026-03-29T11:30:19.049Z</time></trkpt><trkpt lat="44.4558163" lon="11.1711002"><ele>242.8</ele><time>2026-03-29T11:30:20.049Z</time></trkpt><trkpt lat="44.455904" lon="11.1710457"><ele>240.2</ele><time>2026-03-29T11:30:22.049Z</time></trkpt><trkpt lat="44.4560041" lon="11.1709718"><ele>237.6</ele><time>2026-03-29T11:30:24.049Z</time></trkpt><trkpt lat="44.4560351" lon="11.1708476"><ele>235.0</ele><time>2026-03-29T11:30:26.049Z</time></trkpt><trkpt lat="44.4560494" lon="11.1707576"><ele>231.6</ele><time>2026-03-29T11:30:27.049Z</time></trkpt><trkpt lat="44.45603" lon="11.1705964"><ele>228.2</ele><time>2026-03-29T11:30:29.048Z</time></trkpt><trkpt lat="44.456005" lon="11.1705088"><ele>224.8</ele><time>2026-03-29T11:30:30.048Z</time></trkpt><trkpt lat="44.4559775" lon="11.1703793"><ele>221.4</ele><time>2026-03-29T11:30:31.048Z</time></trkpt><trkpt lat="44.4559823" lon="11.1702587"><ele>218.0</ele><time>2026-03-29T11:30:32.049Z</time></trkpt><trkpt lat="44.4559786" lon="11.1701365"><ele>218.00000000000003</ele><time>2026-03-29T11:30:33.049Z</time></trkpt><trkpt lat="44.4559655" lon="11.17004"><ele>218.0</ele><time>2026-03-29T11:30:34.049Z</time></trkpt><trkpt lat="44.4559569" lon="11.1699514"><ele>218.0</ele><time>2026-03-29T11:30:35.049Z</time></trkpt><trkpt lat="44.4558898" lon="11.1698499"><ele>218.0</ele><time>2026-03-29T11:30:37.049Z</time></trkpt><trkpt lat="44.4558254" lon="11.1697912"><ele>218.00000000000003</ele><time>2026-03-29T11:30:38.049Z</time></trkpt><trkpt lat="44.4557362" lon="11.1697146"><ele>218.0</ele><time>2026-03-29T11:30:39.048Z</time></trkpt><trkpt lat="44.455657" lon="11.1696538"><ele>215.33333333333334</ele><time>2026-03-29T11:30:40.049Z</time></trkpt><trkpt lat="44.4555727" lon="11.1696012"><ele>212.66666666666669</ele><time>2026-03-29T11:30:41.049Z</time></trkpt><trkpt lat="44.4555053" lon="11.1695402"><ele>210.0</ele><time>2026-03-29T11:30:42.049Z</time></trkpt><trkpt lat="44.4554276" lon="11.1694794"><ele>207.33333333333331</ele><time>2026-03-29T11:30:43.048Z</time></trkpt><trkpt lat="44.4553636" lon="11.1694337"><ele>204.66666666666666</ele><time>2026-03-29T11:30:44.049Z</time></trkpt><trkpt lat="44.455301" lon="11.1693841"><ele>202.0</ele><time>2026-03-29T11:30:45.048Z</time></trkpt><trkpt lat="44.4552252" lon="11.1693128"><ele>202.0</ele><time>2026-03-29T11:30:47.048Z</time></trkpt><trkpt lat="44.4552462" lon="11.1692071"><ele>202.0</ele><time>2026-03-29T11:30:49.048Z</time></trkpt><trkpt lat="44.4553453" lon="11.1691292"><ele>202.0</ele><time>2026-03-29T11:30:51.049Z</time></trkpt><trkpt lat="44.4554403" lon="11.1690975"><ele>202.0</ele><time>2026-03-29T11:30:52.049Z</time></trkpt><trkpt lat="44.4555407" lon="11.1690667"><ele>202.0</ele><time>2026-03-29T11:30:53.048Z</time></trkpt><trkpt lat="44.4556421" lon="11.1690301"><ele>197.39999999999998</ele><time>2026-03-29T11:30:54.048Z</time></trkpt><trkpt lat="44.4557595" lon="11.1689878"><ele>192.79999999999998</ele><time>2026-03-29T11:30:55.049Z</time></trkpt><trkpt lat="44.4558557" lon="11.1689459"><ele>188.2</ele><time>2026-03-29T11:30:56.049Z</time></trkpt><trkpt lat="44.4559608" lon="11.1688967"><ele>183.6</ele><time>2026-03-29T11:30:57.049Z</time></trkpt><trkpt lat="44.45606" lon="11.168852"><ele>179.0</ele><time>2026-03-29T11:30:58.049Z</time></trkpt><trkpt lat="44.4561565" lon="11.1688036"><ele>179.0</ele><time>2026-03-29T11:30:59.048Z</time></trkpt><trkpt lat="44.4562475" lon="11.1687474"><ele>179.0</ele><time>2026-03-29T11:31:00.049Z</time></trkpt><trkpt lat="44.4563477" lon="11.1686804"><ele>179.0</ele><time>2026-03-29T11:31:01.049Z</time></trkpt><trkpt lat="44.4564265" lon="11.1686091"><ele>179.0</ele><time>2026-03-29T11:31:02.048Z</time></trkpt><trkpt lat="44.4565054" lon="11.1685287"><ele>179.0</ele><time>2026-03-29T11:31:03.048Z</time></trkpt><trkpt lat="44.4565841" lon="11.1684526"><ele>178.79999999999998</ele><time>2026-03-29T11:31:04.048Z</time></trkpt><trkpt lat="44.4566684" lon="11.1683665"><ele>178.6</ele><time>2026-03-29T11:31:05.049Z</time></trkpt><trkpt lat="44.4567397" lon="11.1682688"><ele>178.4</ele><time>2026-03-29T11:31:06.049Z</time></trkpt><trkpt lat="44.4568147" lon="11.1682318"><ele>178.2</ele><time>2026-03-29T11:31:07.049Z</time></trkpt><trkpt lat="44.4569338" lon="11.1681842"><ele>178.0</ele><time>2026-03-29T11:31:08.048Z</time></trkpt><trkpt lat="44.4570159" lon="11.1681495"><ele>174.4</ele><time>2026-03-29T11:31:09.049Z</time></trkpt><trkpt lat="44.4571098" lon="11.1681428"><ele>170.8</ele><time>2026-03-29T11:31:11.048Z</time></trkpt><trkpt lat="44.4571875" lon="11.168263"><ele>167.2</ele><time>2026-03-29T11:31:13.048Z</time></trkpt><trkpt lat="44.4572172" lon="11.168355"><ele>163.6</ele><time>2026-03-29T11:31:14.049Z</time></trkpt><trkpt lat="44.4572348" lon="11.1684849"><ele>160.0</ele><time>2026-03-29T11:31:15.049Z</time></trkpt><trkpt lat="44.4572496" lon="11.1686231"><ele>160.0</ele><time>2026-03-29T11:31:16.048Z</time></trkpt><trkpt lat="44.4572643" lon="11.1687618"><ele>160.0</ele><time>2026-03-29T11:31:17.048Z</time></trkpt><trkpt lat="44.4572839" lon="11.1689051"><ele>160.0</ele><time>2026-03-29T11:31:18.049Z</time></trkpt><trkpt lat="44.4573088" lon="11.1690583"><ele>160.0</ele><time>2026-03-29T11:31:19.049Z</time></trkpt><trkpt lat="44.45733" lon="11.1691808"><ele>160.0</ele><time>2026-03-29T11:31:20.049Z</time></trkpt><trkpt lat="44.4573575" lon="11.1693055"><ele>161.5</ele><time>2026-03-29T11:31:21.049Z</time></trkpt><trkpt lat="44.4574235" lon="11.1694199"><ele>163.0</ele><time>2026-03-29T11:31:23.048Z</time></trkpt><trkpt lat="44.4574912" lon="11.1694299"><ele>164.5</ele><time>2026-03-29T11:31:25.049Z</time></trkpt><trkpt lat="44.4575626" lon="11.1692978"><ele>166.0</ele><time>2026-03-29T11:31:27.049Z</time></trkpt><trkpt lat="44.4576093" lon="11.1690729"><ele>164.5</ele><time>2026-03-29T11:31:29.048Z</time></trkpt><trkpt lat="44.4576506" lon="11.1688857"><ele>163.0</ele><time>2026-03-29T11:31:30.048Z</time></trkpt><trkpt lat="44.4576871" lon="11.1687154"><ele>161.5</ele><time>2026-03-29T11:31:31.048Z</time></trkpt><trkpt lat="44.4577397" lon="11.1685473"><ele>160.0</ele><time>2026-03-29T11:31:32.048Z</time></trkpt><trkpt lat="44.45778" lon="11.1684047"><ele>160.0</ele><time>2026-03-29T11:31:33.049Z</time></trkpt><trkpt lat="44.4578081" lon="11.1682453"><ele>160.0</ele><time>2026-03-29T11:31:34.049Z</time></trkpt><trkpt lat="44.4578478" lon="11.1681145"><ele>160.0</ele><time>2026-03-29T11:31:35.049Z</time></trkpt><trkpt lat="44.4578939" lon="11.1679694"><ele>160.0</ele><time>2026-03-29T11:31:36.048Z</time></trkpt><trkpt lat="44.4579496" lon="11.1677948"><ele>154.4</ele><time>2026-03-29T11:31:37.048Z</time></trkpt><trkpt lat="44.4579892" lon="11.1676549"><ele>148.8</ele><time>2026-03-29T11:31:38.049Z</time></trkpt><trkpt lat="44.458075" lon="11.1675257"><ele>143.2</ele><time>2026-03-29T11:31:39.049Z</time></trkpt><trkpt lat="44.4581108" lon="11.1674227"><ele>137.6</ele><time>2026-03-29T11:31:40.049Z</time></trkpt><trkpt lat="44.4581078" lon="11.1673175"><ele>132.0</ele><time>2026-03-29T11:31:41.048Z</time></trkpt><trkpt lat="44.4580699" lon="11.1672386"><ele>132.0</ele><time>2026-03-29T11:31:42.049Z</time></trkpt><trkpt lat="44.4580315" lon="11.1671346"><ele>132.0</ele><time>2026-03-29T11:31:43.049Z</time></trkpt><trkpt lat="44.4579706" lon="11.1670376"><ele>132.0</ele><time>2026-03-29T11:31:44.049Z</time></trkpt><trkpt lat="44.4578831" lon="11.1669491"><ele>132.0</ele><time>2026-03-29T11:31:45.049Z</time></trkpt><trkpt lat="44.4578027" lon="11.1668383"><ele>132.0</ele><time>2026-03-29T11:31:46.048Z</time></trkpt><trkpt lat="44.4577374" lon="11.1667534"><ele>132.0</ele><time>2026-03-29T11:31:47.049Z</time></trkpt><trkpt lat="44.4576902" lon="11.1666377"><ele>132.0</ele><time>2026-03-29T11:31:49.049Z</time></trkpt><trkpt lat="44.4577316" lon="11.1665324"><ele>132.0</ele><time>2026-03-29T11:31:51.049Z</time></trkpt><trkpt lat="44.4578542" lon="11.1665496"><ele>132.0</ele><time>2026-03-29T11:31:53.049Z</time></trkpt><trkpt lat="44.4579515" lon="11.1665558"><ele>132.0</ele><time>2026-03-29T11:31:54.049Z</time></trkpt><trkpt lat="44.4580343" lon="11.1665668"><ele>132.0</ele><time>2026-03-29T11:31:55.049Z</time></trkpt><trkpt lat="44.4580802" lon="11.1666762"><ele>132.0</ele><time>2026-03-29T11:31:56.048Z</time></trkpt><trkpt lat="44.4581272" lon="11.1667663"><ele>132.0</ele><time>2026-03-29T11:31:57.049Z</time></trkpt><trkpt lat="44.4581764" lon="11.1668582"><ele>132.0</ele><time>2026-03-29T11:31:58.049Z</time></trkpt><trkpt lat="44.4582324" lon="11.1669231"><ele>132.0</ele><time>2026-03-29T11:31:59.048Z</time></trkpt><trkpt lat="44.458282" lon="11.1669918"><ele>132.0</ele><time>2026-03-29T11:32:00.048Z</time></trkpt><trkpt lat="44.4582763" lon="11.1671002"><ele>132.0</ele><time>2026-03-29T11:32:01.049Z</time></trkpt><trkpt lat="44.458282" lon="11.1672245"><ele>132.0</ele><time>2026-03-29T11:32:02.049Z</time></trkpt><trkpt lat="44.4582953" lon="11.1673358"><ele>132.0</ele><time>2026-03-29T11:32:03.049Z</time></trkpt><trkpt lat="44.4583377" lon="11.1674053"><ele>132.0</ele><time>2026-03-29T11:32:04.049Z</time></trkpt><trkpt lat="44.4583989" lon="11.1674743"><ele>132.0</ele><time>2026-03-29T11:32:05.049Z</time></trkpt><trkpt lat="44.4585002" lon="11.1675062"><ele>132.0</ele><time>2026-03-29T11:32:06.048Z</time></trkpt><trkpt lat="44.4586022" lon="11.1675366"><ele>131.79999999999998</ele><time>2026-03-29T11:32:07.048Z</time></trkpt><trkpt lat="44.4587131" lon="11.1675587"><ele>131.6</ele><time>2026-03-29T11:32:08.048Z</time></trkpt><trkpt lat="44.4588138" lon="11.1675759"><ele>131.39999999999998</ele><time>2026-03-29T11:32:09.049Z</time></trkpt><trkpt lat="44.4589077" lon="11.1675691"><ele>131.2</ele><time>2026-03-29T11:32:10.049Z</time></trkpt><trkpt lat="44.4590034" lon="11.1675983"><ele>131.0</ele><time>2026-03-29T11:32:11.049Z</time></trkpt><trkpt lat="44.4590735" lon="11.1676636"><ele>132.83333333333331</ele><time>2026-03-29T11:32:12.049Z</time></trkpt><trkpt lat="44.4591473" lon="11.1677115"><ele>134.66666666666666</ele><time>2026-03-29T11:32:13.049Z</time></trkpt><trkpt lat="44.459213" lon="11.1678021"><ele>136.5</ele><time>2026-03-29T11:32:14.048Z</time></trkpt><trkpt lat="44.4592909" lon="11.1678924"><ele>138.33333333333334</ele><time>2026-03-29T11:32:15.048Z</time></trkpt><trkpt lat="44.4593656" lon="11.1679649"><ele>140.16666666666669</ele><time>2026-03-29T11:32:16.048Z</time></trkpt><trkpt lat="44.4594361" lon="11.1680226"><ele>142.0</ele><time>2026-03-29T11:32:17.049Z</time></trkpt><trkpt lat="44.4594983" lon="11.1680723"><ele>142.0</ele><time>2026-03-29T11:32:18.049Z</time></trkpt><trkpt lat="44.4595581" lon="11.1681264"><ele>142.0</ele><time>2026-03-29T11:32:19.049Z</time></trkpt><trkpt lat="44.4596255" lon="11.1681962"><ele>142.0</ele><time>2026-03-29T11:32:20.048Z</time></trkpt><trkpt lat="44.4597064" lon="11.1682808"><ele>142.0</ele><time>2026-03-29T11:32:21.049Z</time></trkpt><trkpt lat="44.4597888" lon="11.1683914"><ele>142.0</ele><time>2026-03-29T11:32:22.048Z</time></trkpt><trkpt lat="44.4598697" lon="11.1685253"><ele>142.0</ele><time>2026-03-29T11:32:23.049Z</time></trkpt><trkpt lat="44.459957" lon="11.1686786"><ele>142.0</ele><time>2026-03-29T11:32:24.049Z</time></trkpt><trkpt lat="44.4600387" lon="11.1688356"><ele>142.0</ele><time>2026-03-29T11:32:25.048Z</time></trkpt><trkpt lat="44.4601368" lon="11.1689953"><ele>142.0</ele><time>2026-03-29T11:32:26.048Z</time></trkpt><trkpt lat="44.4602301" lon="11.169153"><ele>142.0</ele><time>2026-03-29T11:32:27.049Z</time></trkpt><trkpt lat="44.4603275" lon="11.169311"><ele>142.0</ele><time>2026-03-29T11:32:28.048Z</time></trkpt><trkpt lat="44.4604244" lon="11.1694697"><ele>142.0</ele><time>2026-03-29T11:32:29.048Z</time></trkpt><trkpt lat="44.4605217" lon="11.1696359"><ele>144.33333333333334</ele><time>2026-03-29T11:32:30.049Z</time></trkpt><trkpt lat="44.4606294" lon="11.1698131"><ele>146.66666666666666</ele><time>2026-03-29T11:32:31.049Z</time></trkpt><trkpt lat="44.4607294" lon="11.1699747"><ele>149.0</ele><time>2026-03-29T11:32:32.048Z</time></trkpt><trkpt lat="44.4608319" lon="11.1701408"><ele>149.0</ele><time>2026-03-29T11:32:33.049Z</time></trkpt><trkpt lat="44.4609398" lon="11.1702754"><ele>149.0</ele><time>2026-03-29T11:32:34.048Z</time></trkpt><trkpt lat="44.4610506" lon="11.1704075"><ele>149.0</ele><time>2026-03-29T11:32:35.048Z</time></trkpt><trkpt lat="44.4611661" lon="11.1705379"><ele>149.0</ele><time>2026-03-29T11:32:36.049Z</time></trkpt><trkpt lat="44.4612877" lon="11.1706614"><ele>146.33333333333331</ele><time>2026-03-29T11:32:37.049Z</time></trkpt><trkpt lat="44.4614136" lon="11.1707913"><ele>143.66666666666666</ele><time>2026-03-29T11:32:38.049Z</time></trkpt><trkpt lat="44.4615455" lon="11.1709369"><ele>141.0</ele><time>2026-03-29T11:32:39.049Z</time></trkpt><trkpt lat="44.4616814" lon="11.1710775"><ele>141.0</ele><time>2026-03-29T11:32:40.049Z</time></trkpt><trkpt lat="44.4618216" lon="11.171207"><ele>141.0</ele><time>2026-03-29T11:32:41.049Z</time></trkpt><trkpt lat="44.4619582" lon="11.171342"><ele>141.0</ele><time>2026-03-29T11:32:42.048Z</time></trkpt><trkpt lat="44.4620966" lon="11.1714744"><ele>139.0</ele><time>2026-03-29T11:32:43.048Z</time></trkpt><trkpt lat="44.4622278" lon="11.1716176"><ele>137.0</ele><time>2026-03-29T11:32:44.049Z</time></trkpt><trkpt lat="44.4623479" lon="11.1717732"><ele>135.0</ele><time>2026-03-29T11:32:45.048Z</time></trkpt><trkpt lat="44.4624445" lon="11.1719551"><ele>135.0</ele><time>2026-03-29T11:32:46.049Z</time></trkpt><trkpt lat="44.4625022" lon="11.1721544"><ele>135.0</ele><time>2026-03-29T11:32:47.049Z</time></trkpt><trkpt lat="44.4625395" lon="11.1723536"><ele>135.0</ele><time>2026-03-29T11:32:48.048Z</time></trkpt><trkpt lat="44.4625819" lon="11.1725787"><ele>133.33333333333334</ele><time>2026-03-29T11:32:49.049Z</time></trkpt><trkpt lat="44.4626129" lon="11.1728025"><ele>131.66666666666669</ele><time>2026-03-29T11:32:50.049Z</time></trkpt><trkpt lat="44.4626476" lon="11.1730244"><ele>130.0</ele><time>2026-03-29T11:32:51.049Z</time></trkpt><trkpt lat="44.4627266" lon="11.1734399"><ele>128.66666666666669</ele><time>2026-03-29T11:32:53.048Z</time></trkpt><trkpt lat="44.4627955" lon="11.1736316"><ele>127.33333333333334</ele><time>2026-03-29T11:32:54.048Z</time></trkpt><trkpt lat="44.462887" lon="11.1738049"><ele>126.0</ele><time>2026-03-29T11:32:55.049Z</time></trkpt><trkpt lat="44.4629911" lon="11.1739702"><ele>132.0</ele><time>2026-03-29T11:32:56.049Z</time></trkpt><trkpt lat="44.4630924" lon="11.1741311"><ele>138.0</ele><time>2026-03-29T11:32:57.049Z</time></trkpt><trkpt lat="44.4631846" lon="11.1743004"><ele>144.0</ele><time>2026-03-29T11:32:58.048Z</time></trkpt><trkpt lat="44.4632492" lon="11.1744934"><ele>144.0</ele><time>2026-03-29T11:32:59.048Z</time></trkpt><trkpt lat="44.4632884" lon="11.1747066"><ele>144.0</ele><time>2026-03-29T11:33:00.049Z</time></trkpt><trkpt lat="44.4633141" lon="11.1749295"><ele>144.0</ele><time>2026-03-29T11:33:01.048Z</time></trkpt><trkpt lat="44.463341" lon="11.1751552"><ele>141.0</ele><time>2026-03-29T11:33:02.049Z</time></trkpt><trkpt lat="44.4633716" lon="11.1753803"><ele>138.0</ele><time>2026-03-29T11:33:03.049Z</time></trkpt><trkpt lat="44.4633967" lon="11.1756048"><ele>135.0</ele><time>2026-03-29T11:33:04.049Z</time></trkpt><trkpt lat="44.4634192" lon="11.1758236"><ele>133.33333333333334</ele><time>2026-03-29T11:33:05.048Z</time></trkpt><trkpt lat="44.4634353" lon="11.1760403"><ele>131.66666666666669</ele><time>2026-03-29T11:33:06.049Z</time></trkpt><trkpt lat="44.4634399" lon="11.1762504"><ele>130.0</ele><time>2026-03-29T11:33:07.048Z</time></trkpt><trkpt lat="44.4634342" lon="11.1764697"><ele>129.33333333333334</ele><time>2026-03-29T11:33:08.049Z</time></trkpt><trkpt lat="44.4634269" lon="11.1766962"><ele>128.66666666666666</ele><time>2026-03-29T11:33:09.048Z</time></trkpt><trkpt lat="44.4634188" lon="11.1769151"><ele>128.0</ele><time>2026-03-29T11:33:10.048Z</time></trkpt><trkpt lat="44.4634217" lon="11.1771296"><ele>128.0</ele><time>2026-03-29T11:33:11.048Z</time></trkpt><trkpt lat="44.4634205" lon="11.1773373"><ele>128.0</ele><time>2026-03-29T11:33:12.049Z</time></trkpt><trkpt lat="44.4634322" lon="11.1775524"><ele>128.0</ele><time>2026-03-29T11:33:13.048Z</time></trkpt><trkpt lat="44.4634696" lon="11.1777677"><ele>128.0</ele><time>2026-03-29T11:33:14.048Z</time></trkpt><trkpt lat="44.4635107" lon="11.1779765"><ele>128.0</ele><time>2026-03-29T11:33:15.049Z</time></trkpt><trkpt lat="44.4635626" lon="11.1781883"><ele>128.0</ele><time>2026-03-29T11:33:16.049Z</time></trkpt><trkpt lat="44.4636196" lon="11.1783993"><ele>126.66666666666666</ele><time>2026-03-29T11:33:17.048Z</time></trkpt><trkpt lat="44.4636711" lon="11.1786158"><ele>125.33333333333334</ele><time>2026-03-29T11:33:18.048Z</time></trkpt><trkpt lat="44.4637259" lon="11.1788233"><ele>124.0</ele><time>2026-03-29T11:33:19.048Z</time></trkpt><trkpt lat="44.4637777" lon="11.1790188"><ele>124.75</ele><time>2026-03-29T11:33:20.049Z</time></trkpt><trkpt lat="44.4638273" lon="11.1792121"><ele>125.5</ele><time>2026-03-29T11:33:21.048Z</time></trkpt><trkpt lat="44.4638709" lon="11.1793992"><ele>126.25</ele><time>2026-03-29T11:33:22.049Z</time></trkpt><trkpt lat="44.4639126" lon="11.1795844"><ele>127.0</ele><time>2026-03-29T11:33:23.048Z</time></trkpt><trkpt lat="44.4639587" lon="11.1797492"><ele>125.39999999999999</ele><time>2026-03-29T11:33:24.049Z</time></trkpt><trkpt lat="44.4640056" lon="11.1799036"><ele>123.79999999999998</ele><time>2026-03-29T11:33:25.049Z</time></trkpt><trkpt lat="44.4640424" lon="11.1800506"><ele>122.2</ele><time>2026-03-29T11:33:26.049Z</time></trkpt><trkpt lat="44.4640782" lon="11.1801939"><ele>120.6</ele><time>2026-03-29T11:33:27.049Z</time></trkpt><trkpt lat="44.4641103" lon="11.1803217"><ele>119.0</ele><time>2026-03-29T11:33:28.049Z</time></trkpt><trkpt lat="44.4641424" lon="11.1804404"><ele>118.99999999999999</ele><time>2026-03-29T11:33:29.049Z</time></trkpt><trkpt lat="44.4641711" lon="11.1805455"><ele>119.0</ele><time>2026-03-29T11:33:30.049Z</time></trkpt><trkpt lat="44.4641996" lon="11.1806463"><ele>119.0</ele><time>2026-03-29T11:33:31.049Z</time></trkpt><trkpt lat="44.4642231" lon="11.1807372"><ele>119.0</ele><time>2026-03-29T11:33:32.049Z</time></trkpt><trkpt lat="44.4642024" lon="11.1808608"><ele>118.99999999999999</ele><time>2026-03-29T11:33:34.049Z</time></trkpt><trkpt lat="44.4640828" lon="11.1809056"><ele>119.0</ele><time>2026-03-29T11:33:36.049Z</time></trkpt><trkpt lat="44.4640136" lon="11.1809287"><ele>118.57142857142857</ele><time>2026-03-29T11:33:37.048Z</time></trkpt><trkpt lat="44.4639476" lon="11.1809621"><ele>118.14285714285714</ele><time>2026-03-29T11:33:38.049Z</time></trkpt><trkpt lat="44.4638871" lon="11.1810092"><ele>117.71428571428572</ele><time>2026-03-29T11:33:39.049Z</time></trkpt><trkpt lat="44.4638895" lon="11.1811122"><ele>117.28571428571429</ele><time>2026-03-29T11:33:40.049Z</time></trkpt><trkpt lat="44.4639107" lon="11.1812209"><ele>116.85714285714286</ele><time>2026-03-29T11:33:41.049Z</time></trkpt><trkpt lat="44.4639396" lon="11.1813273"><ele>116.42857142857144</ele><time>2026-03-29T11:33:42.048Z</time></trkpt><trkpt lat="44.463964" lon="11.1814213"><ele>116.00000000000001</ele><time>2026-03-29T11:33:43.048Z</time></trkpt><trkpt lat="44.4639867" lon="11.1815106"><ele>116.19999999999999</ele><time>2026-03-29T11:33:44.049Z</time></trkpt><trkpt lat="44.4640326" lon="11.1816578"><ele>116.39999999999999</ele><time>2026-03-29T11:33:46.049Z</time></trkpt><trkpt lat="44.464075" lon="11.1818175"><ele>116.6</ele><time>2026-03-29T11:33:48.049Z</time></trkpt><trkpt lat="44.464105" lon="11.1819295"><ele>116.8</ele><time>2026-03-29T11:33:49.048Z</time></trkpt><trkpt lat="44.4641434" lon="11.1820826"><ele>117.0</ele><time>2026-03-29T11:33:50.049Z</time></trkpt><trkpt lat="44.4641812" lon="11.1822358"><ele>117.19999999999999</ele><time>2026-03-29T11:33:51.049Z</time></trkpt><trkpt lat="44.464215" lon="11.1823704"><ele>117.39999999999999</ele><time>2026-03-29T11:33:52.049Z</time></trkpt><trkpt lat="44.4642447" lon="11.1824969"><ele>117.60000000000001</ele><time>2026-03-29T11:33:53.048Z</time></trkpt><trkpt lat="44.4642735" lon="11.1826076"><ele>117.80000000000001</ele><time>2026-03-29T11:33:54.049Z</time></trkpt><trkpt lat="44.464304" lon="11.1827059"><ele>118.0</ele><time>2026-03-29T11:33:55.048Z</time></trkpt><trkpt lat="44.4643068" lon="11.1828576"><ele>118.0</ele><time>2026-03-29T11:33:57.049Z</time></trkpt><trkpt lat="44.4642333" lon="11.1829032"><ele>118.00000000000001</ele><time>2026-03-29T11:33:59.048Z</time></trkpt><trkpt lat="44.4641281" lon="11.1829605"><ele>118.00000000000001</ele><time>2026-03-29T11:34:01.049Z</time></trkpt><trkpt lat="44.4640686" lon="11.1830029"><ele>118.0</ele><time>2026-03-29T11:34:02.048Z</time></trkpt><trkpt lat="44.4639755" lon="11.1830676"><ele>118.0</ele><time>2026-03-29T11:34:04.048Z</time></trkpt><trkpt lat="44.4638984" lon="11.1831309"><ele>118.0</ele><time>2026-03-29T11:34:06.048Z</time></trkpt><trkpt lat="44.4638436" lon="11.1831822"><ele>116.0</ele><time>2026-03-29T11:34:09.049Z</time></trkpt><trkpt lat="44.4639394" lon="11.1831205"><ele>118.0</ele><time>2026-03-29T11:34:10.049Z</time></trkpt><trkpt lat="44.4640153" lon="11.1830809"><ele>118.0</ele><time>2026-03-29T11:34:11.049Z</time></trkpt><trkpt lat="44.4640865" lon="11.1830547"><ele>118.0</ele><time>2026-03-29T11:34:12.049Z</time></trkpt><trkpt lat="44.4641596" lon="11.183039"><ele>118.0</ele><time>2026-03-29T11:34:14.049Z</time></trkpt></trkseg></trk></gpx>